<?xml version="1.0" encoding="UTF-8" standalone="no" ?>
<gpx xmlns="http://www.topografix.com/GPX/1/1" xmlns:xsi="http://www.w3.org/2001/XMLSchema-instance" xsi:schemaLocation="http://www.topografix.com/GPX/1/1 http://www.topografix.com/GPX/1/1/gpx.xsd" version="1.1" creator="VisuGPX - https://www.visugpx.com">
  <metadata>
    <name>Tête des Muets : couloir des Cornes d\'Ombrances</name>
    <desc><![CDATA[Randonnée à ski]]></desc>
  </metadata>
  <trk>
    <name><![CDATA[Move]]></name>
    <trkseg>
      <trkpt lat="46.01636" lon="6.56108">
        <ele>1304</ele>
        <time>2016-01-19T08:12:52.630Z</time>
      </trkpt>
      <trkpt lat="46.01634" lon="6.5611">
        <ele>1304</ele>
        <time>2016-01-19T08:12:58.630Z</time>
      </trkpt>
      <trkpt lat="46.01632" lon="6.5611">
        <ele>1304</ele>
        <time>2016-01-19T08:13:01.630Z</time>
      </trkpt>
      <trkpt lat="46.0163" lon="6.5611">
        <ele>1304</ele>
        <time>2016-01-19T08:13:03.630Z</time>
      </trkpt>
      <trkpt lat="46.01627" lon="6.5611">
        <ele>1304</ele>
        <time>2016-01-19T08:13:05.630Z</time>
      </trkpt>
      <trkpt lat="46.01625" lon="6.56109">
        <ele>1304</ele>
        <time>2016-01-19T08:13:08.630Z</time>
      </trkpt>
      <trkpt lat="46.01622" lon="6.56108">
        <ele>1304</ele>
        <time>2016-01-19T08:13:11.630Z</time>
      </trkpt>
      <trkpt lat="46.0162" lon="6.56109">
        <ele>1304</ele>
        <time>2016-01-19T08:13:15.630Z</time>
      </trkpt>
      <trkpt lat="46.01618" lon="6.56108">
        <ele>1304</ele>
        <time>2016-01-19T08:13:17.630Z</time>
      </trkpt>
      <trkpt lat="46.01616" lon="6.56108">
        <ele>1304</ele>
        <time>2016-01-19T08:13:20.630Z</time>
      </trkpt>
      <trkpt lat="46.01614" lon="6.56107">
        <ele>1304</ele>
        <time>2016-01-19T08:13:22.630Z</time>
      </trkpt>
      <trkpt lat="46.01612" lon="6.56107">
        <ele>1304</ele>
        <time>2016-01-19T08:13:24.630Z</time>
      </trkpt>
      <trkpt lat="46.01609" lon="6.56107">
        <ele>1304</ele>
        <time>2016-01-19T08:13:26.630Z</time>
      </trkpt>
      <trkpt lat="46.01607" lon="6.56108">
        <ele>1304</ele>
        <time>2016-01-19T08:13:28.630Z</time>
      </trkpt>
      <trkpt lat="46.01604" lon="6.56109">
        <ele>1304</ele>
        <time>2016-01-19T08:13:30.630Z</time>
      </trkpt>
      <trkpt lat="46.01602" lon="6.56109">
        <ele>1304</ele>
        <time>2016-01-19T08:13:32.630Z</time>
      </trkpt>
      <trkpt lat="46.016" lon="6.5611">
        <ele>1304</ele>
        <time>2016-01-19T08:13:34.630Z</time>
      </trkpt>
      <trkpt lat="46.01598" lon="6.56111">
        <ele>1304</ele>
        <time>2016-01-19T08:13:36.630Z</time>
      </trkpt>
      <trkpt lat="46.01595" lon="6.56112">
        <ele>1304</ele>
        <time>2016-01-19T08:13:39.630Z</time>
      </trkpt>
      <trkpt lat="46.01591" lon="6.56111">
        <ele>1304</ele>
        <time>2016-01-19T08:13:42.630Z</time>
      </trkpt>
      <trkpt lat="46.01589" lon="6.56111">
        <ele>1304</ele>
        <time>2016-01-19T08:13:44.630Z</time>
      </trkpt>
      <trkpt lat="46.01585" lon="6.56111">
        <ele>1304</ele>
        <time>2016-01-19T08:13:47.630Z</time>
      </trkpt>
      <trkpt lat="46.01583" lon="6.56112">
        <ele>1304</ele>
        <time>2016-01-19T08:13:49.630Z</time>
      </trkpt>
      <trkpt lat="46.01578" lon="6.56113">
        <ele>1304</ele>
        <time>2016-01-19T08:13:53.630Z</time>
      </trkpt>
      <trkpt lat="46.01575" lon="6.56112">
        <ele>1304</ele>
        <time>2016-01-19T08:13:56.630Z</time>
      </trkpt>
      <trkpt lat="46.01572" lon="6.56111">
        <ele>1304</ele>
        <time>2016-01-19T08:13:58.630Z</time>
      </trkpt>
      <trkpt lat="46.0157" lon="6.56112">
        <ele>1304</ele>
        <time>2016-01-19T08:14:00.630Z</time>
      </trkpt>
      <trkpt lat="46.01568" lon="6.56113">
        <ele>1304</ele>
        <time>2016-01-19T08:14:02.630Z</time>
      </trkpt>
      <trkpt lat="46.01565" lon="6.56113">
        <ele>1304</ele>
        <time>2016-01-19T08:14:04.630Z</time>
      </trkpt>
      <trkpt lat="46.01559" lon="6.56114">
        <ele>1306.3400192</ele>
        <time>2016-01-19T08:14:09.630Z</time>
      </trkpt>
      <trkpt lat="46.01549" lon="6.56117">
        <ele>1310</ele>
        <time>2016-01-19T08:14:16.630Z</time>
      </trkpt>
      <trkpt lat="46.01546" lon="6.56119">
        <ele>1310</ele>
        <time>2016-01-19T08:14:18.630Z</time>
      </trkpt>
      <trkpt lat="46.01536" lon="6.56118">
        <ele>1310</ele>
        <time>2016-01-19T08:14:24.630Z</time>
      </trkpt>
      <trkpt lat="46.01533" lon="6.56116">
        <ele>1310</ele>
        <time>2016-01-19T08:14:26.630Z</time>
      </trkpt>
      <trkpt lat="46.01531" lon="6.56115">
        <ele>1310</ele>
        <time>2016-01-19T08:14:27.630Z</time>
      </trkpt>
      <trkpt lat="46.01529" lon="6.56114">
        <ele>1310</ele>
        <time>2016-01-19T08:14:28.630Z</time>
      </trkpt>
      <trkpt lat="46.01527" lon="6.56112">
        <ele>1310</ele>
        <time>2016-01-19T08:14:29.630Z</time>
      </trkpt>
      <trkpt lat="46.01526" lon="6.56111">
        <ele>1310</ele>
        <time>2016-01-19T08:14:30.630Z</time>
      </trkpt>
      <trkpt lat="46.01522" lon="6.56107">
        <ele>1310</ele>
        <time>2016-01-19T08:14:33.630Z</time>
      </trkpt>
      <trkpt lat="46.01519" lon="6.56105">
        <ele>1310</ele>
        <time>2016-01-19T08:14:35.630Z</time>
      </trkpt>
      <trkpt lat="46.01516" lon="6.56105">
        <ele>1310</ele>
        <time>2016-01-19T08:14:36.630Z</time>
      </trkpt>
      <trkpt lat="46.01515" lon="6.56104">
        <ele>1310</ele>
        <time>2016-01-19T08:14:37.630Z</time>
      </trkpt>
      <trkpt lat="46.01509" lon="6.56101">
        <ele>1309</ele>
        <time>2016-01-19T08:14:40.630Z</time>
      </trkpt>
      <trkpt lat="46.015" lon="6.56101">
        <ele>1309</ele>
        <time>2016-01-19T08:14:46.630Z</time>
      </trkpt>
      <trkpt lat="46.01491" lon="6.56099">
        <ele>1308</ele>
        <time>2016-01-19T08:14:51.630Z</time>
      </trkpt>
      <trkpt lat="46.01481" lon="6.56102">
        <ele>1308</ele>
        <time>2016-01-19T08:14:57.630Z</time>
      </trkpt>
      <trkpt lat="46.01471" lon="6.56108">
        <ele>1306</ele>
        <time>2016-01-19T08:15:03.630Z</time>
      </trkpt>
      <trkpt lat="46.0146" lon="6.56111">
        <ele>1306</ele>
        <time>2016-01-19T08:15:08.630Z</time>
      </trkpt>
      <trkpt lat="46.01453" lon="6.56109">
        <ele>1306</ele>
        <time>2016-01-19T08:15:12.630Z</time>
      </trkpt>
      <trkpt lat="46.0145" lon="6.56106">
        <ele>1306</ele>
        <time>2016-01-19T08:15:14.630Z</time>
      </trkpt>
      <trkpt lat="46.01447" lon="6.56104">
        <ele>1306</ele>
        <time>2016-01-19T08:15:16.630Z</time>
      </trkpt>
      <trkpt lat="46.01445" lon="6.56103">
        <ele>1306</ele>
        <time>2016-01-19T08:15:17.630Z</time>
      </trkpt>
      <trkpt lat="46.01443" lon="6.56102">
        <ele>1306</ele>
        <time>2016-01-19T08:15:18.630Z</time>
      </trkpt>
      <trkpt lat="46.01442" lon="6.561">
        <ele>1306</ele>
        <time>2016-01-19T08:15:19.630Z</time>
      </trkpt>
      <trkpt lat="46.0144" lon="6.56099">
        <ele>1306</ele>
        <time>2016-01-19T08:15:20.630Z</time>
      </trkpt>
      <trkpt lat="46.01438" lon="6.56099">
        <ele>1306</ele>
        <time>2016-01-19T08:15:21.630Z</time>
      </trkpt>
      <trkpt lat="46.01436" lon="6.56098">
        <ele>1306</ele>
        <time>2016-01-19T08:15:22.630Z</time>
      </trkpt>
      <trkpt lat="46.01434" lon="6.56098">
        <ele>1306</ele>
        <time>2016-01-19T08:15:23.630Z</time>
      </trkpt>
      <trkpt lat="46.01424" lon="6.56096">
        <ele>1305.6099968</ele>
        <time>2016-01-19T08:15:29.630Z</time>
      </trkpt>
      <trkpt lat="46.01416" lon="6.5609">
        <ele>1305</ele>
        <time>2016-01-19T08:15:35.630Z</time>
      </trkpt>
      <trkpt lat="46.01414" lon="6.56088">
        <ele>1305</ele>
        <time>2016-01-19T08:15:37.630Z</time>
      </trkpt>
      <trkpt lat="46.01412" lon="6.56085">
        <ele>1304.6099968</ele>
        <time>2016-01-19T08:15:39.630Z</time>
      </trkpt>
      <trkpt lat="46.0141" lon="6.56082">
        <ele>1304</ele>
        <time>2016-01-19T08:15:41.630Z</time>
      </trkpt>
      <trkpt lat="46.01408" lon="6.56079">
        <ele>1304</ele>
        <time>2016-01-19T08:15:43.630Z</time>
      </trkpt>
      <trkpt lat="46.01407" lon="6.56075">
        <ele>1304</ele>
        <time>2016-01-19T08:15:45.630Z</time>
      </trkpt>
      <trkpt lat="46.01405" lon="6.56071">
        <ele>1304</ele>
        <time>2016-01-19T08:15:47.630Z</time>
      </trkpt>
      <trkpt lat="46.01404" lon="6.56067">
        <ele>1303.6099968</ele>
        <time>2016-01-19T08:15:49.630Z</time>
      </trkpt>
      <trkpt lat="46.01403" lon="6.56063">
        <ele>1303</ele>
        <time>2016-01-19T08:15:51.630Z</time>
      </trkpt>
      <trkpt lat="46.014" lon="6.56058">
        <ele>1303</ele>
        <time>2016-01-19T08:15:53.630Z</time>
      </trkpt>
      <trkpt lat="46.01399" lon="6.56056">
        <ele>1303</ele>
        <time>2016-01-19T08:15:54.630Z</time>
      </trkpt>
      <trkpt lat="46.01397" lon="6.56054">
        <ele>1303</ele>
        <time>2016-01-19T08:15:55.630Z</time>
      </trkpt>
      <trkpt lat="46.01395" lon="6.56051">
        <ele>1303</ele>
        <time>2016-01-19T08:15:56.630Z</time>
      </trkpt>
      <trkpt lat="46.01393" lon="6.5605">
        <ele>1303</ele>
        <time>2016-01-19T08:15:57.630Z</time>
      </trkpt>
      <trkpt lat="46.01392" lon="6.56048">
        <ele>1303</ele>
        <time>2016-01-19T08:15:58.630Z</time>
      </trkpt>
      <trkpt lat="46.0139" lon="6.56047">
        <ele>1302.2199936</ele>
        <time>2016-01-19T08:15:59.630Z</time>
      </trkpt>
      <trkpt lat="46.01388" lon="6.56045">
        <ele>1301</ele>
        <time>2016-01-19T08:16:00.630Z</time>
      </trkpt>
      <trkpt lat="46.01386" lon="6.56044">
        <ele>1301</ele>
        <time>2016-01-19T08:16:01.630Z</time>
      </trkpt>
      <trkpt lat="46.01383" lon="6.56044">
        <ele>1301</ele>
        <time>2016-01-19T08:16:02.630Z</time>
      </trkpt>
      <trkpt lat="46.01381" lon="6.56044">
        <ele>1301</ele>
        <time>2016-01-19T08:16:03.630Z</time>
      </trkpt>
      <trkpt lat="46.01378" lon="6.56044">
        <ele>1301</ele>
        <time>2016-01-19T08:16:04.630Z</time>
      </trkpt>
      <trkpt lat="46.01376" lon="6.56044">
        <ele>1301</ele>
        <time>2016-01-19T08:16:05.630Z</time>
      </trkpt>
      <trkpt lat="46.01374" lon="6.56043">
        <ele>1301</ele>
        <time>2016-01-19T08:16:06.630Z</time>
      </trkpt>
      <trkpt lat="46.01372" lon="6.56043">
        <ele>1301</ele>
        <time>2016-01-19T08:16:07.630Z</time>
      </trkpt>
      <trkpt lat="46.0137" lon="6.56043">
        <ele>1301</ele>
        <time>2016-01-19T08:16:08.630Z</time>
      </trkpt>
      <trkpt lat="46.01368" lon="6.56042">
        <ele>1300.628864755</ele>
        <time>2016-01-19T08:16:09.630Z</time>
      </trkpt>
      <trkpt lat="46.01366" lon="6.56042">
        <ele>1300</ele>
        <time>2016-01-19T08:16:10.630Z</time>
      </trkpt>
      <trkpt lat="46.01363" lon="6.56041">
        <ele>1300</ele>
        <time>2016-01-19T08:16:12.630Z</time>
      </trkpt>
      <trkpt lat="46.01359" lon="6.56039">
        <ele>1300</ele>
        <time>2016-01-19T08:16:14.630Z</time>
      </trkpt>
      <trkpt lat="46.01355" lon="6.56039">
        <ele>1300</ele>
        <time>2016-01-19T08:16:16.630Z</time>
      </trkpt>
      <trkpt lat="46.01352" lon="6.56038">
        <ele>1300</ele>
        <time>2016-01-19T08:16:18.630Z</time>
      </trkpt>
      <trkpt lat="46.0135" lon="6.56038">
        <ele>1300</ele>
        <time>2016-01-19T08:16:20.630Z</time>
      </trkpt>
      <trkpt lat="46.01347" lon="6.56037">
        <ele>1300</ele>
        <time>2016-01-19T08:16:22.630Z</time>
      </trkpt>
      <trkpt lat="46.01344" lon="6.56037">
        <ele>1300</ele>
        <time>2016-01-19T08:16:24.630Z</time>
      </trkpt>
      <trkpt lat="46.01342" lon="6.56037">
        <ele>1300</ele>
        <time>2016-01-19T08:16:26.630Z</time>
      </trkpt>
      <trkpt lat="46.01339" lon="6.56037">
        <ele>1300</ele>
        <time>2016-01-19T08:16:28.630Z</time>
      </trkpt>
      <trkpt lat="46.0133" lon="6.56031">
        <ele>1300</ele>
        <time>2016-01-19T08:16:35.630Z</time>
      </trkpt>
      <trkpt lat="46.01327" lon="6.5603">
        <ele>1300</ele>
        <time>2016-01-19T08:16:37.630Z</time>
      </trkpt>
      <trkpt lat="46.01325" lon="6.56029">
        <ele>1300</ele>
        <time>2016-01-19T08:16:38.630Z</time>
      </trkpt>
      <trkpt lat="46.01322" lon="6.56026">
        <ele>1299</ele>
        <time>2016-01-19T08:16:40.630Z</time>
      </trkpt>
      <trkpt lat="46.0132" lon="6.56025">
        <ele>1299</ele>
        <time>2016-01-19T08:16:42.630Z</time>
      </trkpt>
      <trkpt lat="46.01317" lon="6.56024">
        <ele>1299</ele>
        <time>2016-01-19T08:16:44.630Z</time>
      </trkpt>
      <trkpt lat="46.01314" lon="6.56023">
        <ele>1299</ele>
        <time>2016-01-19T08:16:46.630Z</time>
      </trkpt>
      <trkpt lat="46.01311" lon="6.56021">
        <ele>1299</ele>
        <time>2016-01-19T08:16:48.630Z</time>
      </trkpt>
      <trkpt lat="46.01309" lon="6.56019">
        <ele>1299</ele>
        <time>2016-01-19T08:16:50.630Z</time>
      </trkpt>
      <trkpt lat="46.01307" lon="6.56017">
        <ele>1299</ele>
        <time>2016-01-19T08:16:52.630Z</time>
      </trkpt>
      <trkpt lat="46.01304" lon="6.56015">
        <ele>1299</ele>
        <time>2016-01-19T08:16:54.630Z</time>
      </trkpt>
      <trkpt lat="46.01302" lon="6.56013">
        <ele>1299</ele>
        <time>2016-01-19T08:16:56.630Z</time>
      </trkpt>
      <trkpt lat="46.01299" lon="6.56011">
        <ele>1299</ele>
        <time>2016-01-19T08:16:58.630Z</time>
      </trkpt>
      <trkpt lat="46.01296" lon="6.5601">
        <ele>1298.6099968</ele>
        <time>2016-01-19T08:17:00.630Z</time>
      </trkpt>
      <trkpt lat="46.01293" lon="6.56008">
        <ele>1298</ele>
        <time>2016-01-19T08:17:02.630Z</time>
      </trkpt>
      <trkpt lat="46.0129" lon="6.56007">
        <ele>1298</ele>
        <time>2016-01-19T08:17:04.630Z</time>
      </trkpt>
      <trkpt lat="46.01288" lon="6.56006">
        <ele>1298</ele>
        <time>2016-01-19T08:17:06.630Z</time>
      </trkpt>
      <trkpt lat="46.01285" lon="6.56003">
        <ele>1298</ele>
        <time>2016-01-19T08:17:08.630Z</time>
      </trkpt>
      <trkpt lat="46.01282" lon="6.56001">
        <ele>1298</ele>
        <time>2016-01-19T08:17:10.630Z</time>
      </trkpt>
      <trkpt lat="46.0128" lon="6.55998">
        <ele>1298</ele>
        <time>2016-01-19T08:17:12.630Z</time>
      </trkpt>
      <trkpt lat="46.01277" lon="6.55997">
        <ele>1298</ele>
        <time>2016-01-19T08:17:14.630Z</time>
      </trkpt>
      <trkpt lat="46.01275" lon="6.55995">
        <ele>1298</ele>
        <time>2016-01-19T08:17:16.630Z</time>
      </trkpt>
      <trkpt lat="46.01274" lon="6.55993">
        <ele>1298</ele>
        <time>2016-01-19T08:17:18.630Z</time>
      </trkpt>
      <trkpt lat="46.01273" lon="6.55991">
        <ele>1300</ele>
        <time>2016-01-19T08:17:22.630Z</time>
      </trkpt>
      <trkpt lat="46.01271" lon="6.5599">
        <ele>1300</ele>
        <time>2016-01-19T08:17:25.630Z</time>
      </trkpt>
      <trkpt lat="46.01268" lon="6.55989">
        <ele>1300</ele>
        <time>2016-01-19T08:17:28.630Z</time>
      </trkpt>
      <trkpt lat="46.01265" lon="6.55989">
        <ele>1300.3900032</ele>
        <time>2016-01-19T08:17:30.630Z</time>
      </trkpt>
      <trkpt lat="46.01263" lon="6.55988">
        <ele>1301</ele>
        <time>2016-01-19T08:17:32.630Z</time>
      </trkpt>
      <trkpt lat="46.01261" lon="6.55988">
        <ele>1301</ele>
        <time>2016-01-19T08:17:35.630Z</time>
      </trkpt>
      <trkpt lat="46.01258" lon="6.55986">
        <ele>1301</ele>
        <time>2016-01-19T08:17:38.630Z</time>
      </trkpt>
      <trkpt lat="46.01255" lon="6.55985">
        <ele>1301.3900032</ele>
        <time>2016-01-19T08:17:41.630Z</time>
      </trkpt>
      <trkpt lat="46.01253" lon="6.55983">
        <ele>1302</ele>
        <time>2016-01-19T08:17:43.630Z</time>
      </trkpt>
      <trkpt lat="46.01251" lon="6.55982">
        <ele>1302</ele>
        <time>2016-01-19T08:17:46.630Z</time>
      </trkpt>
      <trkpt lat="46.01248" lon="6.55981">
        <ele>1302</ele>
        <time>2016-01-19T08:17:49.630Z</time>
      </trkpt>
      <trkpt lat="46.01246" lon="6.5598">
        <ele>1304</ele>
        <time>2016-01-19T08:17:52.630Z</time>
      </trkpt>
      <trkpt lat="46.01244" lon="6.55979">
        <ele>1304</ele>
        <time>2016-01-19T08:17:54.630Z</time>
      </trkpt>
      <trkpt lat="46.01241" lon="6.55979">
        <ele>1304</ele>
        <time>2016-01-19T08:17:57.630Z</time>
      </trkpt>
      <trkpt lat="46.01239" lon="6.55977">
        <ele>1305</ele>
        <time>2016-01-19T08:18:01.630Z</time>
      </trkpt>
      <trkpt lat="46.01237" lon="6.55975">
        <ele>1305</ele>
        <time>2016-01-19T08:18:05.630Z</time>
      </trkpt>
      <trkpt lat="46.01235" lon="6.55974">
        <ele>1305</ele>
        <time>2016-01-19T08:18:07.630Z</time>
      </trkpt>
      <trkpt lat="46.01233" lon="6.55973">
        <ele>1305</ele>
        <time>2016-01-19T08:18:09.630Z</time>
      </trkpt>
      <trkpt lat="46.01231" lon="6.55971">
        <ele>1306</ele>
        <time>2016-01-19T08:18:11.630Z</time>
      </trkpt>
      <trkpt lat="46.0123" lon="6.55968">
        <ele>1306</ele>
        <time>2016-01-19T08:18:13.630Z</time>
      </trkpt>
      <trkpt lat="46.01229" lon="6.55966">
        <ele>1306</ele>
        <time>2016-01-19T08:18:15.630Z</time>
      </trkpt>
      <trkpt lat="46.01229" lon="6.55963">
        <ele>1306</ele>
        <time>2016-01-19T08:18:17.630Z</time>
      </trkpt>
      <trkpt lat="46.01227" lon="6.55959">
        <ele>1306</ele>
        <time>2016-01-19T08:18:19.630Z</time>
      </trkpt>
      <trkpt lat="46.01226" lon="6.55957">
        <ele>1307</ele>
        <time>2016-01-19T08:18:21.630Z</time>
      </trkpt>
      <trkpt lat="46.01226" lon="6.55954">
        <ele>1307</ele>
        <time>2016-01-19T08:18:23.630Z</time>
      </trkpt>
      <trkpt lat="46.01225" lon="6.55951">
        <ele>1307</ele>
        <time>2016-01-19T08:18:25.630Z</time>
      </trkpt>
      <trkpt lat="46.01225" lon="6.55948">
        <ele>1307</ele>
        <time>2016-01-19T08:18:28.630Z</time>
      </trkpt>
      <trkpt lat="46.01225" lon="6.55945">
        <ele>1307.3900032</ele>
        <time>2016-01-19T08:18:30.630Z</time>
      </trkpt>
      <trkpt lat="46.01224" lon="6.55942">
        <ele>1308</ele>
        <time>2016-01-19T08:18:32.630Z</time>
      </trkpt>
      <trkpt lat="46.01223" lon="6.55939">
        <ele>1308</ele>
        <time>2016-01-19T08:18:35.630Z</time>
      </trkpt>
      <trkpt lat="46.01222" lon="6.55937">
        <ele>1308</ele>
        <time>2016-01-19T08:18:38.630Z</time>
      </trkpt>
      <trkpt lat="46.01221" lon="6.55933">
        <ele>1310</ele>
        <time>2016-01-19T08:18:41.630Z</time>
      </trkpt>
      <trkpt lat="46.0122" lon="6.55931">
        <ele>1310</ele>
        <time>2016-01-19T08:18:43.630Z</time>
      </trkpt>
      <trkpt lat="46.01219" lon="6.55927">
        <ele>1310</ele>
        <time>2016-01-19T08:18:46.630Z</time>
      </trkpt>
      <trkpt lat="46.01218" lon="6.55924">
        <ele>1310</ele>
        <time>2016-01-19T08:18:48.630Z</time>
      </trkpt>
      <trkpt lat="46.01217" lon="6.55921">
        <ele>1311</ele>
        <time>2016-01-19T08:18:51.630Z</time>
      </trkpt>
      <trkpt lat="46.01216" lon="6.55918">
        <ele>1311</ele>
        <time>2016-01-19T08:18:53.630Z</time>
      </trkpt>
      <trkpt lat="46.01215" lon="6.55916">
        <ele>1311</ele>
        <time>2016-01-19T08:18:55.630Z</time>
      </trkpt>
      <trkpt lat="46.01214" lon="6.55912">
        <ele>1311</ele>
        <time>2016-01-19T08:18:58.630Z</time>
      </trkpt>
      <trkpt lat="46.01213" lon="6.55909">
        <ele>1313</ele>
        <time>2016-01-19T08:19:01.630Z</time>
      </trkpt>
      <trkpt lat="46.01214" lon="6.55906">
        <ele>1313</ele>
        <time>2016-01-19T08:19:03.630Z</time>
      </trkpt>
      <trkpt lat="46.01213" lon="6.55903">
        <ele>1313</ele>
        <time>2016-01-19T08:19:06.630Z</time>
      </trkpt>
      <trkpt lat="46.01214" lon="6.559">
        <ele>1313</ele>
        <time>2016-01-19T08:19:08.630Z</time>
      </trkpt>
      <trkpt lat="46.01214" lon="6.55897">
        <ele>1313.2058917647</ele>
        <time>2016-01-19T08:19:10.630Z</time>
      </trkpt>
      <trkpt lat="46.01213" lon="6.55894">
        <ele>1315</ele>
        <time>2016-01-19T08:19:12.630Z</time>
      </trkpt>
      <trkpt lat="46.01214" lon="6.55889">
        <ele>1315</ele>
        <time>2016-01-19T08:19:16.630Z</time>
      </trkpt>
      <trkpt lat="46.01214" lon="6.55887">
        <ele>1315</ele>
        <time>2016-01-19T08:19:18.630Z</time>
      </trkpt>
      <trkpt lat="46.01213" lon="6.55884">
        <ele>1315.3900032</ele>
        <time>2016-01-19T08:19:20.630Z</time>
      </trkpt>
      <trkpt lat="46.01214" lon="6.55881">
        <ele>1316</ele>
        <time>2016-01-19T08:19:22.630Z</time>
      </trkpt>
      <trkpt lat="46.01215" lon="6.55878">
        <ele>1316</ele>
        <time>2016-01-19T08:19:24.630Z</time>
      </trkpt>
      <trkpt lat="46.01215" lon="6.55875">
        <ele>1316</ele>
        <time>2016-01-19T08:19:26.630Z</time>
      </trkpt>
      <trkpt lat="46.01215" lon="6.55871">
        <ele>1316</ele>
        <time>2016-01-19T08:19:28.630Z</time>
      </trkpt>
      <trkpt lat="46.01215" lon="6.55868">
        <ele>1316.2900805128</ele>
        <time>2016-01-19T08:19:30.630Z</time>
      </trkpt>
      <trkpt lat="46.01216" lon="6.55865">
        <ele>1317</ele>
        <time>2016-01-19T08:19:33.630Z</time>
      </trkpt>
      <trkpt lat="46.01216" lon="6.55862">
        <ele>1317</ele>
        <time>2016-01-19T08:19:35.630Z</time>
      </trkpt>
      <trkpt lat="46.01216" lon="6.55859">
        <ele>1317</ele>
        <time>2016-01-19T08:19:37.630Z</time>
      </trkpt>
      <trkpt lat="46.01215" lon="6.55856">
        <ele>1317.7800064</ele>
        <time>2016-01-19T08:19:40.630Z</time>
      </trkpt>
      <trkpt lat="46.01213" lon="6.55853">
        <ele>1319</ele>
        <time>2016-01-19T08:19:42.630Z</time>
      </trkpt>
      <trkpt lat="46.01212" lon="6.55849">
        <ele>1319</ele>
        <time>2016-01-19T08:19:45.630Z</time>
      </trkpt>
      <trkpt lat="46.01211" lon="6.55846">
        <ele>1319</ele>
        <time>2016-01-19T08:19:48.630Z</time>
      </trkpt>
      <trkpt lat="46.0121" lon="6.55843">
        <ele>1319.1029458824</ele>
        <time>2016-01-19T08:19:50.630Z</time>
      </trkpt>
      <trkpt lat="46.01211" lon="6.5584">
        <ele>1320</ele>
        <time>2016-01-19T08:19:52.630Z</time>
      </trkpt>
      <trkpt lat="46.0121" lon="6.55837">
        <ele>1320</ele>
        <time>2016-01-19T08:19:54.630Z</time>
      </trkpt>
      <trkpt lat="46.01209" lon="6.55833">
        <ele>1320</ele>
        <time>2016-01-19T08:19:59.630Z</time>
      </trkpt>
      <trkpt lat="46.01207" lon="6.55831">
        <ele>1321</ele>
        <time>2016-01-19T08:20:01.630Z</time>
      </trkpt>
      <trkpt lat="46.01205" lon="6.55829">
        <ele>1321</ele>
        <time>2016-01-19T08:20:03.630Z</time>
      </trkpt>
      <trkpt lat="46.01203" lon="6.55827">
        <ele>1321</ele>
        <time>2016-01-19T08:20:05.630Z</time>
      </trkpt>
      <trkpt lat="46.01201" lon="6.55826">
        <ele>1321</ele>
        <time>2016-01-19T08:20:08.630Z</time>
      </trkpt>
      <trkpt lat="46.012" lon="6.55824">
        <ele>1321.7800064</ele>
        <time>2016-01-19T08:20:11.630Z</time>
      </trkpt>
      <trkpt lat="46.01197" lon="6.55822">
        <ele>1323</ele>
        <time>2016-01-19T08:20:14.630Z</time>
      </trkpt>
      <trkpt lat="46.01196" lon="6.55821">
        <ele>1323</ele>
        <time>2016-01-19T08:20:16.630Z</time>
      </trkpt>
      <trkpt lat="46.01194" lon="6.5582">
        <ele>1323</ele>
        <time>2016-01-19T08:20:18.630Z</time>
      </trkpt>
      <trkpt lat="46.01191" lon="6.5582">
        <ele>1323.3900032</ele>
        <time>2016-01-19T08:20:20.630Z</time>
      </trkpt>
      <trkpt lat="46.0119" lon="6.55821">
        <ele>1324</ele>
        <time>2016-01-19T08:20:22.630Z</time>
      </trkpt>
      <trkpt lat="46.01187" lon="6.55822">
        <ele>1324</ele>
        <time>2016-01-19T08:20:25.630Z</time>
      </trkpt>
      <trkpt lat="46.01185" lon="6.55822">
        <ele>1324</ele>
        <time>2016-01-19T08:20:27.630Z</time>
      </trkpt>
      <trkpt lat="46.01183" lon="6.55822">
        <ele>1324</ele>
        <time>2016-01-19T08:20:29.630Z</time>
      </trkpt>
      <trkpt lat="46.01181" lon="6.55823">
        <ele>1326</ele>
        <time>2016-01-19T08:20:31.630Z</time>
      </trkpt>
      <trkpt lat="46.01179" lon="6.55823">
        <ele>1326</ele>
        <time>2016-01-19T08:20:33.630Z</time>
      </trkpt>
      <trkpt lat="46.01177" lon="6.55825">
        <ele>1327</ele>
        <time>2016-01-19T08:20:36.630Z</time>
      </trkpt>
      <trkpt lat="46.01175" lon="6.55826">
        <ele>1327</ele>
        <time>2016-01-19T08:20:39.630Z</time>
      </trkpt>
      <trkpt lat="46.01173" lon="6.55828">
        <ele>1329</ele>
        <time>2016-01-19T08:20:43.630Z</time>
      </trkpt>
      <trkpt lat="46.01172" lon="6.5583">
        <ele>1329</ele>
        <time>2016-01-19T08:20:45.630Z</time>
      </trkpt>
      <trkpt lat="46.0117" lon="6.55833">
        <ele>1329</ele>
        <time>2016-01-19T08:20:47.630Z</time>
      </trkpt>
      <trkpt lat="46.01168" lon="6.55834">
        <ele>1329</ele>
        <time>2016-01-19T08:20:48.630Z</time>
      </trkpt>
      <trkpt lat="46.01166" lon="6.55836">
        <ele>1329</ele>
        <time>2016-01-19T08:20:50.630Z</time>
      </trkpt>
      <trkpt lat="46.01165" lon="6.55838">
        <ele>1329</ele>
        <time>2016-01-19T08:20:52.630Z</time>
      </trkpt>
      <trkpt lat="46.01163" lon="6.5584">
        <ele>1329</ele>
        <time>2016-01-19T08:20:56.630Z</time>
      </trkpt>
      <trkpt lat="46.01161" lon="6.55841">
        <ele>1329</ele>
        <time>2016-01-19T08:20:58.630Z</time>
      </trkpt>
      <trkpt lat="46.0116" lon="6.55843">
        <ele>1329.7800064</ele>
        <time>2016-01-19T08:21:00.630Z</time>
      </trkpt>
      <trkpt lat="46.01158" lon="6.55845">
        <ele>1331</ele>
        <time>2016-01-19T08:21:02.630Z</time>
      </trkpt>
      <trkpt lat="46.01157" lon="6.55846">
        <ele>1331</ele>
        <time>2016-01-19T08:21:04.630Z</time>
      </trkpt>
      <trkpt lat="46.01155" lon="6.55847">
        <ele>1331</ele>
        <time>2016-01-19T08:21:06.630Z</time>
      </trkpt>
      <trkpt lat="46.01153" lon="6.55849">
        <ele>1331</ele>
        <time>2016-01-19T08:21:08.630Z</time>
      </trkpt>
      <trkpt lat="46.0115" lon="6.55852">
        <ele>1331.7800064</ele>
        <time>2016-01-19T08:21:10.630Z</time>
      </trkpt>
      <trkpt lat="46.01149" lon="6.55854">
        <ele>1333</ele>
        <time>2016-01-19T08:21:12.630Z</time>
      </trkpt>
      <trkpt lat="46.01147" lon="6.55855">
        <ele>1333</ele>
        <time>2016-01-19T08:21:14.630Z</time>
      </trkpt>
      <trkpt lat="46.01145" lon="6.55856">
        <ele>1333</ele>
        <time>2016-01-19T08:21:16.630Z</time>
      </trkpt>
      <trkpt lat="46.01145" lon="6.55859">
        <ele>1333</ele>
        <time>2016-01-19T08:21:18.630Z</time>
      </trkpt>
      <trkpt lat="46.01144" lon="6.55861">
        <ele>1333.3900032</ele>
        <time>2016-01-19T08:21:20.630Z</time>
      </trkpt>
      <trkpt lat="46.01143" lon="6.55864">
        <ele>1334</ele>
        <time>2016-01-19T08:21:22.630Z</time>
      </trkpt>
      <trkpt lat="46.01142" lon="6.55867">
        <ele>1334</ele>
        <time>2016-01-19T08:21:25.630Z</time>
      </trkpt>
      <trkpt lat="46.0114" lon="6.55871">
        <ele>1334</ele>
        <time>2016-01-19T08:21:29.630Z</time>
      </trkpt>
      <trkpt lat="46.01139" lon="6.55874">
        <ele>1336</ele>
        <time>2016-01-19T08:21:32.630Z</time>
      </trkpt>
      <trkpt lat="46.01137" lon="6.55875">
        <ele>1336</ele>
        <time>2016-01-19T08:21:34.630Z</time>
      </trkpt>
      <trkpt lat="46.01136" lon="6.55879">
        <ele>1336</ele>
        <time>2016-01-19T08:21:39.630Z</time>
      </trkpt>
      <trkpt lat="46.01135" lon="6.55881">
        <ele>1337</ele>
        <time>2016-01-19T08:21:42.630Z</time>
      </trkpt>
      <trkpt lat="46.01134" lon="6.55884">
        <ele>1337</ele>
        <time>2016-01-19T08:21:45.630Z</time>
      </trkpt>
      <trkpt lat="46.01134" lon="6.55887">
        <ele>1337</ele>
        <time>2016-01-19T08:21:47.630Z</time>
      </trkpt>
      <trkpt lat="46.01133" lon="6.5589">
        <ele>1337.3823536793</ele>
        <time>2016-01-19T08:21:50.630Z</time>
      </trkpt>
      <trkpt lat="46.01132" lon="6.55893">
        <ele>1338</ele>
        <time>2016-01-19T08:21:52.630Z</time>
      </trkpt>
      <trkpt lat="46.01132" lon="6.55896">
        <ele>1338</ele>
        <time>2016-01-19T08:21:55.630Z</time>
      </trkpt>
      <trkpt lat="46.01132" lon="6.55899">
        <ele>1338</ele>
        <time>2016-01-19T08:21:57.630Z</time>
      </trkpt>
      <trkpt lat="46.01132" lon="6.55901">
        <ele>1338</ele>
        <time>2016-01-19T08:21:59.630Z</time>
      </trkpt>
      <trkpt lat="46.01132" lon="6.55905">
        <ele>1340</ele>
        <time>2016-01-19T08:22:02.630Z</time>
      </trkpt>
      <trkpt lat="46.01133" lon="6.55908">
        <ele>1340</ele>
        <time>2016-01-19T08:22:04.630Z</time>
      </trkpt>
      <trkpt lat="46.01132" lon="6.55911">
        <ele>1340</ele>
        <time>2016-01-19T08:22:07.630Z</time>
      </trkpt>
      <trkpt lat="46.01133" lon="6.55915">
        <ele>1341</ele>
        <time>2016-01-19T08:22:11.630Z</time>
      </trkpt>
      <trkpt lat="46.01133" lon="6.55918">
        <ele>1341</ele>
        <time>2016-01-19T08:22:14.630Z</time>
      </trkpt>
      <trkpt lat="46.01132" lon="6.55922">
        <ele>1341</ele>
        <time>2016-01-19T08:22:17.630Z</time>
      </trkpt>
      <trkpt lat="46.01131" lon="6.55925">
        <ele>1341</ele>
        <time>2016-01-19T08:22:19.630Z</time>
      </trkpt>
      <trkpt lat="46.0113" lon="6.55927">
        <ele>1343</ele>
        <time>2016-01-19T08:22:21.630Z</time>
      </trkpt>
      <trkpt lat="46.01129" lon="6.55929">
        <ele>1343</ele>
        <time>2016-01-19T08:22:24.630Z</time>
      </trkpt>
      <trkpt lat="46.0113" lon="6.55933">
        <ele>1343</ele>
        <time>2016-01-19T08:22:26.630Z</time>
      </trkpt>
      <trkpt lat="46.0113" lon="6.55936">
        <ele>1343</ele>
        <time>2016-01-19T08:22:28.630Z</time>
      </trkpt>
      <trkpt lat="46.01129" lon="6.55939">
        <ele>1343.7800064</ele>
        <time>2016-01-19T08:22:30.630Z</time>
      </trkpt>
      <trkpt lat="46.01129" lon="6.55943">
        <ele>1345</ele>
        <time>2016-01-19T08:22:33.630Z</time>
      </trkpt>
      <trkpt lat="46.01128" lon="6.55946">
        <ele>1345</ele>
        <time>2016-01-19T08:22:35.630Z</time>
      </trkpt>
      <trkpt lat="46.01127" lon="6.55949">
        <ele>1345</ele>
        <time>2016-01-19T08:22:38.630Z</time>
      </trkpt>
      <trkpt lat="46.01125" lon="6.55951">
        <ele>1345.569242736</ele>
        <time>2016-01-19T08:22:40.630Z</time>
      </trkpt>
      <trkpt lat="46.01123" lon="6.5595">
        <ele>1347</ele>
        <time>2016-01-19T08:22:42.630Z</time>
      </trkpt>
      <trkpt lat="46.01121" lon="6.55948">
        <ele>1347</ele>
        <time>2016-01-19T08:22:45.630Z</time>
      </trkpt>
      <trkpt lat="46.01121" lon="6.55944">
        <ele>1347</ele>
        <time>2016-01-19T08:22:48.630Z</time>
      </trkpt>
      <trkpt lat="46.01121" lon="6.55942">
        <ele>1349</ele>
        <time>2016-01-19T08:22:51.630Z</time>
      </trkpt>
      <trkpt lat="46.0112" lon="6.55937">
        <ele>1349</ele>
        <time>2016-01-19T08:22:54.630Z</time>
      </trkpt>
      <trkpt lat="46.01119" lon="6.55935">
        <ele>1349</ele>
        <time>2016-01-19T08:22:56.630Z</time>
      </trkpt>
      <trkpt lat="46.01118" lon="6.55931">
        <ele>1349</ele>
        <time>2016-01-19T08:22:58.630Z</time>
      </trkpt>
      <trkpt lat="46.01117" lon="6.55929">
        <ele>1349</ele>
        <time>2016-01-19T08:23:00.630Z</time>
      </trkpt>
      <trkpt lat="46.01115" lon="6.55926">
        <ele>1349</ele>
        <time>2016-01-19T08:23:02.630Z</time>
      </trkpt>
      <trkpt lat="46.01114" lon="6.55924">
        <ele>1349</ele>
        <time>2016-01-19T08:23:05.630Z</time>
      </trkpt>
      <trkpt lat="46.01111" lon="6.55922">
        <ele>1349</ele>
        <time>2016-01-19T08:23:08.630Z</time>
      </trkpt>
      <trkpt lat="46.01109" lon="6.5592">
        <ele>1349</ele>
        <time>2016-01-19T08:23:10.630Z</time>
      </trkpt>
      <trkpt lat="46.01107" lon="6.55919">
        <ele>1349.7800064</ele>
        <time>2016-01-19T08:23:12.630Z</time>
      </trkpt>
      <trkpt lat="46.01105" lon="6.55918">
        <ele>1351</ele>
        <time>2016-01-19T08:23:15.630Z</time>
      </trkpt>
      <trkpt lat="46.01103" lon="6.55918">
        <ele>1351</ele>
        <time>2016-01-19T08:23:19.630Z</time>
      </trkpt>
      <trkpt lat="46.01101" lon="6.55916">
        <ele>1351.7800064</ele>
        <time>2016-01-19T08:23:22.630Z</time>
      </trkpt>
      <trkpt lat="46.01099" lon="6.55915">
        <ele>1353</ele>
        <time>2016-01-19T08:23:25.630Z</time>
      </trkpt>
      <trkpt lat="46.01098" lon="6.55913">
        <ele>1353.3900032</ele>
        <time>2016-01-19T08:23:27.630Z</time>
      </trkpt>
      <trkpt lat="46.01095" lon="6.55911">
        <ele>1354</ele>
        <time>2016-01-19T08:23:29.630Z</time>
      </trkpt>
      <trkpt lat="46.01093" lon="6.55911">
        <ele>1354</ele>
        <time>2016-01-19T08:23:32.630Z</time>
      </trkpt>
      <trkpt lat="46.01091" lon="6.55909">
        <ele>1354</ele>
        <time>2016-01-19T08:23:37.630Z</time>
      </trkpt>
      <trkpt lat="46.0109" lon="6.55908">
        <ele>1354</ele>
        <time>2016-01-19T08:23:39.630Z</time>
      </trkpt>
      <trkpt lat="46.01088" lon="6.55906">
        <ele>1354</ele>
        <time>2016-01-19T08:23:41.630Z</time>
      </trkpt>
      <trkpt lat="46.01085" lon="6.55904">
        <ele>1356</ele>
        <time>2016-01-19T08:23:43.630Z</time>
      </trkpt>
      <trkpt lat="46.01083" lon="6.55901">
        <ele>1356</ele>
        <time>2016-01-19T08:23:45.630Z</time>
      </trkpt>
      <trkpt lat="46.01082" lon="6.55898">
        <ele>1356</ele>
        <time>2016-01-19T08:23:47.630Z</time>
      </trkpt>
      <trkpt lat="46.0108" lon="6.55897">
        <ele>1356</ele>
        <time>2016-01-19T08:23:49.630Z</time>
      </trkpt>
      <trkpt lat="46.01079" lon="6.55895">
        <ele>1356</ele>
        <time>2016-01-19T08:23:51.630Z</time>
      </trkpt>
      <trkpt lat="46.01077" lon="6.55893">
        <ele>1357</ele>
        <time>2016-01-19T08:23:53.630Z</time>
      </trkpt>
      <trkpt lat="46.01076" lon="6.5589">
        <ele>1357</ele>
        <time>2016-01-19T08:23:56.630Z</time>
      </trkpt>
      <trkpt lat="46.01075" lon="6.55888">
        <ele>1357</ele>
        <time>2016-01-19T08:23:58.630Z</time>
      </trkpt>
      <trkpt lat="46.01074" lon="6.55885">
        <ele>1357.3900032</ele>
        <time>2016-01-19T08:24:00.630Z</time>
      </trkpt>
      <trkpt lat="46.01072" lon="6.55882">
        <ele>1358</ele>
        <time>2016-01-19T08:24:04.630Z</time>
      </trkpt>
      <trkpt lat="46.01071" lon="6.5588">
        <ele>1358</ele>
        <time>2016-01-19T08:24:06.630Z</time>
      </trkpt>
      <trkpt lat="46.01069" lon="6.55878">
        <ele>1358</ele>
        <time>2016-01-19T08:24:08.630Z</time>
      </trkpt>
      <trkpt lat="46.01067" lon="6.55875">
        <ele>1360</ele>
        <time>2016-01-19T08:24:11.630Z</time>
      </trkpt>
      <trkpt lat="46.01065" lon="6.55872">
        <ele>1360</ele>
        <time>2016-01-19T08:24:14.630Z</time>
      </trkpt>
      <trkpt lat="46.01063" lon="6.5587">
        <ele>1361</ele>
        <time>2016-01-19T08:24:17.630Z</time>
      </trkpt>
      <trkpt lat="46.01062" lon="6.55868">
        <ele>1361</ele>
        <time>2016-01-19T08:24:19.630Z</time>
      </trkpt>
      <trkpt lat="46.01061" lon="6.55866">
        <ele>1362</ele>
        <time>2016-01-19T08:24:21.630Z</time>
      </trkpt>
      <trkpt lat="46.0106" lon="6.55864">
        <ele>1362</ele>
        <time>2016-01-19T08:24:23.630Z</time>
      </trkpt>
      <trkpt lat="46.01058" lon="6.55861">
        <ele>1362</ele>
        <time>2016-01-19T08:24:25.630Z</time>
      </trkpt>
      <trkpt lat="46.01057" lon="6.55859">
        <ele>1362</ele>
        <time>2016-01-19T08:24:27.630Z</time>
      </trkpt>
      <trkpt lat="46.01056" lon="6.55857">
        <ele>1362</ele>
        <time>2016-01-19T08:24:29.630Z</time>
      </trkpt>
      <trkpt lat="46.01055" lon="6.55855">
        <ele>1364</ele>
        <time>2016-01-19T08:24:31.630Z</time>
      </trkpt>
      <trkpt lat="46.01053" lon="6.55852">
        <ele>1364</ele>
        <time>2016-01-19T08:24:34.630Z</time>
      </trkpt>
      <trkpt lat="46.01051" lon="6.5585">
        <ele>1364</ele>
        <time>2016-01-19T08:24:37.630Z</time>
      </trkpt>
      <trkpt lat="46.0105" lon="6.55847">
        <ele>1364.3900032</ele>
        <time>2016-01-19T08:24:40.630Z</time>
      </trkpt>
      <trkpt lat="46.01048" lon="6.55845">
        <ele>1365</ele>
        <time>2016-01-19T08:24:43.630Z</time>
      </trkpt>
      <trkpt lat="46.01046" lon="6.55843">
        <ele>1365</ele>
        <time>2016-01-19T08:24:46.630Z</time>
      </trkpt>
      <trkpt lat="46.01044" lon="6.5584">
        <ele>1365</ele>
        <time>2016-01-19T08:24:49.630Z</time>
      </trkpt>
      <trkpt lat="46.01042" lon="6.55838">
        <ele>1367</ele>
        <time>2016-01-19T08:24:52.630Z</time>
      </trkpt>
      <trkpt lat="46.0104" lon="6.55836">
        <ele>1367</ele>
        <time>2016-01-19T08:24:55.630Z</time>
      </trkpt>
      <trkpt lat="46.01039" lon="6.55835">
        <ele>1366.6099968</ele>
        <time>2016-01-19T08:24:57.630Z</time>
      </trkpt>
      <trkpt lat="46.01036" lon="6.55833">
        <ele>1366.7800064</ele>
        <time>2016-01-19T08:25:00.630Z</time>
      </trkpt>
      <trkpt lat="46.01034" lon="6.55832">
        <ele>1368</ele>
        <time>2016-01-19T08:25:03.630Z</time>
      </trkpt>
      <trkpt lat="46.01032" lon="6.55831">
        <ele>1368</ele>
        <time>2016-01-19T08:25:05.630Z</time>
      </trkpt>
      <trkpt lat="46.0103" lon="6.5583">
        <ele>1368</ele>
        <time>2016-01-19T08:25:08.630Z</time>
      </trkpt>
      <trkpt lat="46.01028" lon="6.55829">
        <ele>1369</ele>
        <time>2016-01-19T08:25:11.630Z</time>
      </trkpt>
      <trkpt lat="46.01026" lon="6.55827">
        <ele>1369</ele>
        <time>2016-01-19T08:25:13.630Z</time>
      </trkpt>
      <trkpt lat="46.01025" lon="6.55825">
        <ele>1369</ele>
        <time>2016-01-19T08:25:15.630Z</time>
      </trkpt>
      <trkpt lat="46.01023" lon="6.55823">
        <ele>1369.74227049</ele>
        <time>2016-01-19T08:25:20.630Z</time>
      </trkpt>
      <trkpt lat="46.01021" lon="6.55822">
        <ele>1371</ele>
        <time>2016-01-19T08:25:23.630Z</time>
      </trkpt>
      <trkpt lat="46.01019" lon="6.5582">
        <ele>1371</ele>
        <time>2016-01-19T08:25:26.630Z</time>
      </trkpt>
      <trkpt lat="46.01017" lon="6.55818">
        <ele>1371</ele>
        <time>2016-01-19T08:25:29.630Z</time>
      </trkpt>
      <trkpt lat="46.01015" lon="6.55816">
        <ele>1372</ele>
        <time>2016-01-19T08:25:32.630Z</time>
      </trkpt>
      <trkpt lat="46.01013" lon="6.55814">
        <ele>1372</ele>
        <time>2016-01-19T08:25:34.630Z</time>
      </trkpt>
      <trkpt lat="46.01012" lon="6.55813">
        <ele>1372</ele>
        <time>2016-01-19T08:25:36.630Z</time>
      </trkpt>
      <trkpt lat="46.0101" lon="6.55811">
        <ele>1372</ele>
        <time>2016-01-19T08:25:38.630Z</time>
      </trkpt>
      <trkpt lat="46.01008" lon="6.55809">
        <ele>1372.2058917647</ele>
        <time>2016-01-19T08:25:40.630Z</time>
      </trkpt>
      <trkpt lat="46.01007" lon="6.55807">
        <ele>1374</ele>
        <time>2016-01-19T08:25:42.630Z</time>
      </trkpt>
      <trkpt lat="46.01005" lon="6.55806">
        <ele>1374</ele>
        <time>2016-01-19T08:25:44.630Z</time>
      </trkpt>
      <trkpt lat="46.01003" lon="6.55803">
        <ele>1374</ele>
        <time>2016-01-19T08:25:47.630Z</time>
      </trkpt>
      <trkpt lat="46.01002" lon="6.55801">
        <ele>1373.6099968</ele>
        <time>2016-01-19T08:25:49.630Z</time>
      </trkpt>
      <trkpt lat="46.01" lon="6.55799">
        <ele>1375</ele>
        <time>2016-01-19T08:25:52.630Z</time>
      </trkpt>
      <trkpt lat="46.00998" lon="6.55796">
        <ele>1375</ele>
        <time>2016-01-19T08:25:55.630Z</time>
      </trkpt>
      <trkpt lat="46.00996" lon="6.55794">
        <ele>1375</ele>
        <time>2016-01-19T08:25:58.630Z</time>
      </trkpt>
      <trkpt lat="46.00995" lon="6.55792">
        <ele>1375.3900032</ele>
        <time>2016-01-19T08:26:00.630Z</time>
      </trkpt>
      <trkpt lat="46.00993" lon="6.55791">
        <ele>1376</ele>
        <time>2016-01-19T08:26:03.630Z</time>
      </trkpt>
      <trkpt lat="46.00992" lon="6.55789">
        <ele>1376</ele>
        <time>2016-01-19T08:26:05.630Z</time>
      </trkpt>
      <trkpt lat="46.0099" lon="6.55787">
        <ele>1376</ele>
        <time>2016-01-19T08:26:08.630Z</time>
      </trkpt>
      <trkpt lat="46.00988" lon="6.55785">
        <ele>1376.2058917647</ele>
        <time>2016-01-19T08:26:10.630Z</time>
      </trkpt>
      <trkpt lat="46.00987" lon="6.55782">
        <ele>1378</ele>
        <time>2016-01-19T08:26:13.630Z</time>
      </trkpt>
      <trkpt lat="46.00985" lon="6.5578">
        <ele>1378</ele>
        <time>2016-01-19T08:26:16.630Z</time>
      </trkpt>
      <trkpt lat="46.00983" lon="6.55777">
        <ele>1378</ele>
        <time>2016-01-19T08:26:19.630Z</time>
      </trkpt>
      <trkpt lat="46.00981" lon="6.55775">
        <ele>1379</ele>
        <time>2016-01-19T08:26:22.630Z</time>
      </trkpt>
      <trkpt lat="46.0098" lon="6.55774">
        <ele>1379</ele>
        <time>2016-01-19T08:26:24.630Z</time>
      </trkpt>
      <trkpt lat="46.00978" lon="6.55772">
        <ele>1379</ele>
        <time>2016-01-19T08:26:26.630Z</time>
      </trkpt>
      <trkpt lat="46.00976" lon="6.5577">
        <ele>1379</ele>
        <time>2016-01-19T08:26:30.630Z</time>
      </trkpt>
      <trkpt lat="46.00975" lon="6.55768">
        <ele>1380</ele>
        <time>2016-01-19T08:26:32.630Z</time>
      </trkpt>
      <trkpt lat="46.00973" lon="6.55767">
        <ele>1380</ele>
        <time>2016-01-19T08:26:34.630Z</time>
      </trkpt>
      <trkpt lat="46.00971" lon="6.55765">
        <ele>1380</ele>
        <time>2016-01-19T08:26:36.630Z</time>
      </trkpt>
      <trkpt lat="46.00969" lon="6.55764">
        <ele>1380</ele>
        <time>2016-01-19T08:26:39.630Z</time>
      </trkpt>
      <trkpt lat="46.00967" lon="6.55762">
        <ele>1381</ele>
        <time>2016-01-19T08:26:42.630Z</time>
      </trkpt>
      <trkpt lat="46.00966" lon="6.55759">
        <ele>1381</ele>
        <time>2016-01-19T08:26:45.630Z</time>
      </trkpt>
      <trkpt lat="46.00965" lon="6.55757">
        <ele>1381</ele>
        <time>2016-01-19T08:26:47.630Z</time>
      </trkpt>
      <trkpt lat="46.00964" lon="6.55754">
        <ele>1381</ele>
        <time>2016-01-19T08:26:49.630Z</time>
      </trkpt>
      <trkpt lat="46.00964" lon="6.55751">
        <ele>1383</ele>
        <time>2016-01-19T08:26:51.630Z</time>
      </trkpt>
      <trkpt lat="46.00964" lon="6.55747">
        <ele>1383</ele>
        <time>2016-01-19T08:26:54.630Z</time>
      </trkpt>
      <trkpt lat="46.00964" lon="6.55744">
        <ele>1384</ele>
        <time>2016-01-19T08:26:56.630Z</time>
      </trkpt>
      <trkpt lat="46.00965" lon="6.55741">
        <ele>1384</ele>
        <time>2016-01-19T08:26:59.630Z</time>
      </trkpt>
      <trkpt lat="46.00965" lon="6.55738">
        <ele>1385</ele>
        <time>2016-01-19T08:27:02.630Z</time>
      </trkpt>
      <trkpt lat="46.00966" lon="6.55735">
        <ele>1385</ele>
        <time>2016-01-19T08:27:05.630Z</time>
      </trkpt>
      <trkpt lat="46.00968" lon="6.55732">
        <ele>1385</ele>
        <time>2016-01-19T08:27:08.630Z</time>
      </trkpt>
      <trkpt lat="46.00969" lon="6.5573">
        <ele>1385.3900032</ele>
        <time>2016-01-19T08:27:10.630Z</time>
      </trkpt>
      <trkpt lat="46.0097" lon="6.55726">
        <ele>1386</ele>
        <time>2016-01-19T08:27:13.630Z</time>
      </trkpt>
      <trkpt lat="46.00971" lon="6.55723">
        <ele>1386</ele>
        <time>2016-01-19T08:27:16.630Z</time>
      </trkpt>
      <trkpt lat="46.00972" lon="6.55719">
        <ele>1386.7800064</ele>
        <time>2016-01-19T08:27:20.630Z</time>
      </trkpt>
      <trkpt lat="46.00972" lon="6.55716">
        <ele>1388</ele>
        <time>2016-01-19T08:27:22.630Z</time>
      </trkpt>
      <trkpt lat="46.00973" lon="6.55712">
        <ele>1388</ele>
        <time>2016-01-19T08:27:25.630Z</time>
      </trkpt>
      <trkpt lat="46.00973" lon="6.55709">
        <ele>1388</ele>
        <time>2016-01-19T08:27:27.630Z</time>
      </trkpt>
      <trkpt lat="46.00974" lon="6.55706">
        <ele>1388</ele>
        <time>2016-01-19T08:27:29.630Z</time>
      </trkpt>
      <trkpt lat="46.00975" lon="6.55704">
        <ele>1388</ele>
        <time>2016-01-19T08:27:31.630Z</time>
      </trkpt>
      <trkpt lat="46.00975" lon="6.55701">
        <ele>1388</ele>
        <time>2016-01-19T08:27:33.630Z</time>
      </trkpt>
      <trkpt lat="46.00976" lon="6.55698">
        <ele>1388</ele>
        <time>2016-01-19T08:27:35.630Z</time>
      </trkpt>
      <trkpt lat="46.00976" lon="6.55696">
        <ele>1388</ele>
        <time>2016-01-19T08:27:37.630Z</time>
      </trkpt>
      <trkpt lat="46.00977" lon="6.55692">
        <ele>1388.7551167013</ele>
        <time>2016-01-19T08:27:40.630Z</time>
      </trkpt>
      <trkpt lat="46.00978" lon="6.5569">
        <ele>1390</ele>
        <time>2016-01-19T08:27:42.630Z</time>
      </trkpt>
      <trkpt lat="46.00978" lon="6.55687">
        <ele>1390</ele>
        <time>2016-01-19T08:27:44.630Z</time>
      </trkpt>
      <trkpt lat="46.00979" lon="6.55684">
        <ele>1390</ele>
        <time>2016-01-19T08:27:47.630Z</time>
      </trkpt>
      <trkpt lat="46.0098" lon="6.55681">
        <ele>1390.7800064</ele>
        <time>2016-01-19T08:27:50.630Z</time>
      </trkpt>
      <trkpt lat="46.00979" lon="6.55677">
        <ele>1392</ele>
        <time>2016-01-19T08:27:53.630Z</time>
      </trkpt>
      <trkpt lat="46.00977" lon="6.55675">
        <ele>1392</ele>
        <time>2016-01-19T08:27:55.630Z</time>
      </trkpt>
      <trkpt lat="46.00976" lon="6.55675">
        <ele>1392</ele>
        <time>2016-01-19T08:27:58.630Z</time>
      </trkpt>
      <trkpt lat="46.00974" lon="6.55675">
        <ele>1392.7800064</ele>
        <time>2016-01-19T08:28:00.630Z</time>
      </trkpt>
      <trkpt lat="46.00972" lon="6.55676">
        <ele>1394</ele>
        <time>2016-01-19T08:28:03.630Z</time>
      </trkpt>
      <trkpt lat="46.00969" lon="6.55674">
        <ele>1394</ele>
        <time>2016-01-19T08:28:05.630Z</time>
      </trkpt>
      <trkpt lat="46.00967" lon="6.55673">
        <ele>1394</ele>
        <time>2016-01-19T08:28:08.630Z</time>
      </trkpt>
      <trkpt lat="46.00965" lon="6.55673">
        <ele>1394</ele>
        <time>2016-01-19T08:28:11.630Z</time>
      </trkpt>
      <trkpt lat="46.00963" lon="6.55673">
        <ele>1394</ele>
        <time>2016-01-19T08:28:15.630Z</time>
      </trkpt>
      <trkpt lat="46.00961" lon="6.55674">
        <ele>1394</ele>
        <time>2016-01-19T08:28:17.630Z</time>
      </trkpt>
      <trkpt lat="46.00959" lon="6.55674">
        <ele>1394.3900032</ele>
        <time>2016-01-19T08:28:20.630Z</time>
      </trkpt>
      <trkpt lat="46.00956" lon="6.55673">
        <ele>1395</ele>
        <time>2016-01-19T08:28:23.630Z</time>
      </trkpt>
      <trkpt lat="46.00954" lon="6.55672">
        <ele>1395</ele>
        <time>2016-01-19T08:28:27.630Z</time>
      </trkpt>
      <trkpt lat="46.00951" lon="6.55673">
        <ele>1395.7800064</ele>
        <time>2016-01-19T08:28:30.630Z</time>
      </trkpt>
      <trkpt lat="46.00949" lon="6.55673">
        <ele>1397</ele>
        <time>2016-01-19T08:28:32.630Z</time>
      </trkpt>
      <trkpt lat="46.00947" lon="6.55672">
        <ele>1397</ele>
        <time>2016-01-19T08:28:35.630Z</time>
      </trkpt>
      <trkpt lat="46.00945" lon="6.55672">
        <ele>1397</ele>
        <time>2016-01-19T08:28:37.630Z</time>
      </trkpt>
      <trkpt lat="46.00944" lon="6.5567">
        <ele>1397</ele>
        <time>2016-01-19T08:28:39.630Z</time>
      </trkpt>
      <trkpt lat="46.00942" lon="6.55668">
        <ele>1399</ele>
        <time>2016-01-19T08:28:42.630Z</time>
      </trkpt>
      <trkpt lat="46.00941" lon="6.55667">
        <ele>1399</ele>
        <time>2016-01-19T08:28:45.630Z</time>
      </trkpt>
      <trkpt lat="46.0094" lon="6.55663">
        <ele>1399</ele>
        <time>2016-01-19T08:28:48.630Z</time>
      </trkpt>
      <trkpt lat="46.00939" lon="6.5566">
        <ele>1401</ele>
        <time>2016-01-19T08:28:51.630Z</time>
      </trkpt>
      <trkpt lat="46.00938" lon="6.55657">
        <ele>1401</ele>
        <time>2016-01-19T08:28:54.630Z</time>
      </trkpt>
      <trkpt lat="46.00937" lon="6.55654">
        <ele>1401</ele>
        <time>2016-01-19T08:28:56.630Z</time>
      </trkpt>
      <trkpt lat="46.00937" lon="6.55651">
        <ele>1401</ele>
        <time>2016-01-19T08:28:58.630Z</time>
      </trkpt>
      <trkpt lat="46.00936" lon="6.55648">
        <ele>1402</ele>
        <time>2016-01-19T08:29:01.630Z</time>
      </trkpt>
      <trkpt lat="46.00935" lon="6.55645">
        <ele>1402</ele>
        <time>2016-01-19T08:29:03.630Z</time>
      </trkpt>
      <trkpt lat="46.00934" lon="6.55643">
        <ele>1402.3900032</ele>
        <time>2016-01-19T08:29:05.630Z</time>
      </trkpt>
      <trkpt lat="46.00933" lon="6.5564">
        <ele>1403</ele>
        <time>2016-01-19T08:29:07.630Z</time>
      </trkpt>
      <trkpt lat="46.00932" lon="6.55637">
        <ele>1403</ele>
        <time>2016-01-19T08:29:10.630Z</time>
      </trkpt>
      <trkpt lat="46.00931" lon="6.55634">
        <ele>1403</ele>
        <time>2016-01-19T08:29:13.630Z</time>
      </trkpt>
      <trkpt lat="46.00931" lon="6.55632">
        <ele>1403</ele>
        <time>2016-01-19T08:29:15.630Z</time>
      </trkpt>
      <trkpt lat="46.0093" lon="6.55629">
        <ele>1403</ele>
        <time>2016-01-19T08:29:17.630Z</time>
      </trkpt>
      <trkpt lat="46.0093" lon="6.55625">
        <ele>1403.2318851334</ele>
        <time>2016-01-19T08:29:20.630Z</time>
      </trkpt>
      <trkpt lat="46.00929" lon="6.55622">
        <ele>1405</ele>
        <time>2016-01-19T08:29:23.630Z</time>
      </trkpt>
      <trkpt lat="46.00929" lon="6.55618">
        <ele>1405</ele>
        <time>2016-01-19T08:29:26.630Z</time>
      </trkpt>
      <trkpt lat="46.00929" lon="6.55615">
        <ele>1405</ele>
        <time>2016-01-19T08:29:28.630Z</time>
      </trkpt>
      <trkpt lat="46.0093" lon="6.55613">
        <ele>1405.3900032</ele>
        <time>2016-01-19T08:29:30.630Z</time>
      </trkpt>
      <trkpt lat="46.0093" lon="6.55609">
        <ele>1406</ele>
        <time>2016-01-19T08:29:33.630Z</time>
      </trkpt>
      <trkpt lat="46.0093" lon="6.55606">
        <ele>1406</ele>
        <time>2016-01-19T08:29:36.630Z</time>
      </trkpt>
      <trkpt lat="46.0093" lon="6.55603">
        <ele>1406</ele>
        <time>2016-01-19T08:29:38.630Z</time>
      </trkpt>
      <trkpt lat="46.0093" lon="6.556">
        <ele>1406</ele>
        <time>2016-01-19T08:29:40.630Z</time>
      </trkpt>
      <trkpt lat="46.0093" lon="6.55597">
        <ele>1408</ele>
        <time>2016-01-19T08:29:43.630Z</time>
      </trkpt>
      <trkpt lat="46.0093" lon="6.55594">
        <ele>1408</ele>
        <time>2016-01-19T08:29:45.630Z</time>
      </trkpt>
      <trkpt lat="46.0093" lon="6.5559">
        <ele>1408</ele>
        <time>2016-01-19T08:29:48.630Z</time>
      </trkpt>
      <trkpt lat="46.00929" lon="6.55587">
        <ele>1409</ele>
        <time>2016-01-19T08:29:51.630Z</time>
      </trkpt>
      <trkpt lat="46.00927" lon="6.55586">
        <ele>1409</ele>
        <time>2016-01-19T08:29:55.630Z</time>
      </trkpt>
      <trkpt lat="46.00925" lon="6.55586">
        <ele>1409</ele>
        <time>2016-01-19T08:29:57.630Z</time>
      </trkpt>
      <trkpt lat="46.00923" lon="6.55585">
        <ele>1409</ele>
        <time>2016-01-19T08:30:00.630Z</time>
      </trkpt>
      <trkpt lat="46.00921" lon="6.55586">
        <ele>1410</ele>
        <time>2016-01-19T08:30:02.630Z</time>
      </trkpt>
      <trkpt lat="46.00919" lon="6.55586">
        <ele>1410</ele>
        <time>2016-01-19T08:30:04.630Z</time>
      </trkpt>
      <trkpt lat="46.00917" lon="6.55587">
        <ele>1410</ele>
        <time>2016-01-19T08:30:06.630Z</time>
      </trkpt>
      <trkpt lat="46.00915" lon="6.55589">
        <ele>1410</ele>
        <time>2016-01-19T08:30:09.630Z</time>
      </trkpt>
      <trkpt lat="46.00913" lon="6.5559">
        <ele>1411</ele>
        <time>2016-01-19T08:30:13.630Z</time>
      </trkpt>
      <trkpt lat="46.00912" lon="6.55593">
        <ele>1411</ele>
        <time>2016-01-19T08:30:18.630Z</time>
      </trkpt>
      <trkpt lat="46.00911" lon="6.55596">
        <ele>1411</ele>
        <time>2016-01-19T08:30:20.630Z</time>
      </trkpt>
      <trkpt lat="46.00911" lon="6.55599">
        <ele>1413</ele>
        <time>2016-01-19T08:30:23.630Z</time>
      </trkpt>
      <trkpt lat="46.00911" lon="6.55603">
        <ele>1413</ele>
        <time>2016-01-19T08:30:26.630Z</time>
      </trkpt>
      <trkpt lat="46.0091" lon="6.55606">
        <ele>1413</ele>
        <time>2016-01-19T08:30:29.630Z</time>
      </trkpt>
      <trkpt lat="46.0091" lon="6.55609">
        <ele>1414</ele>
        <time>2016-01-19T08:30:32.630Z</time>
      </trkpt>
      <trkpt lat="46.0091" lon="6.55611">
        <ele>1414</ele>
        <time>2016-01-19T08:30:34.630Z</time>
      </trkpt>
      <trkpt lat="46.00909" lon="6.55614">
        <ele>1414</ele>
        <time>2016-01-19T08:30:37.630Z</time>
      </trkpt>
      <trkpt lat="46.00908" lon="6.55618">
        <ele>1414</ele>
        <time>2016-01-19T08:30:40.630Z</time>
      </trkpt>
      <trkpt lat="46.00907" lon="6.5562">
        <ele>1416</ele>
        <time>2016-01-19T08:30:43.630Z</time>
      </trkpt>
      <trkpt lat="46.00905" lon="6.55622">
        <ele>1416</ele>
        <time>2016-01-19T08:30:49.630Z</time>
      </trkpt>
      <trkpt lat="46.00904" lon="6.55625">
        <ele>1416.3900032</ele>
        <time>2016-01-19T08:30:51.630Z</time>
      </trkpt>
      <trkpt lat="46.00904" lon="6.55627">
        <ele>1417</ele>
        <time>2016-01-19T08:30:53.630Z</time>
      </trkpt>
      <trkpt lat="46.00903" lon="6.5563">
        <ele>1417</ele>
        <time>2016-01-19T08:30:55.630Z</time>
      </trkpt>
      <trkpt lat="46.00902" lon="6.55632">
        <ele>1417</ele>
        <time>2016-01-19T08:30:57.630Z</time>
      </trkpt>
      <trkpt lat="46.00903" lon="6.55636">
        <ele>1417.3900032</ele>
        <time>2016-01-19T08:31:00.630Z</time>
      </trkpt>
      <trkpt lat="46.00902" lon="6.55639">
        <ele>1418</ele>
        <time>2016-01-19T08:31:02.630Z</time>
      </trkpt>
      <trkpt lat="46.00902" lon="6.55641">
        <ele>1418</ele>
        <time>2016-01-19T08:31:04.630Z</time>
      </trkpt>
      <trkpt lat="46.00901" lon="6.55645">
        <ele>1418</ele>
        <time>2016-01-19T08:31:07.630Z</time>
      </trkpt>
      <trkpt lat="46.009" lon="6.55649">
        <ele>1419</ele>
        <time>2016-01-19T08:31:11.630Z</time>
      </trkpt>
      <trkpt lat="46.009" lon="6.55652">
        <ele>1419</ele>
        <time>2016-01-19T08:31:14.630Z</time>
      </trkpt>
      <trkpt lat="46.00899" lon="6.55655">
        <ele>1419</ele>
        <time>2016-01-19T08:31:17.630Z</time>
      </trkpt>
      <trkpt lat="46.00898" lon="6.55657">
        <ele>1419</ele>
        <time>2016-01-19T08:31:19.630Z</time>
      </trkpt>
      <trkpt lat="46.00897" lon="6.5566">
        <ele>1421</ele>
        <time>2016-01-19T08:31:22.630Z</time>
      </trkpt>
      <trkpt lat="46.00895" lon="6.55663">
        <ele>1421</ele>
        <time>2016-01-19T08:31:26.630Z</time>
      </trkpt>
      <trkpt lat="46.00894" lon="6.55666">
        <ele>1421</ele>
        <time>2016-01-19T08:31:28.630Z</time>
      </trkpt>
      <trkpt lat="46.00893" lon="6.55669">
        <ele>1422</ele>
        <time>2016-01-19T08:31:31.630Z</time>
      </trkpt>
      <trkpt lat="46.00891" lon="6.55671">
        <ele>1422</ele>
        <time>2016-01-19T08:31:33.630Z</time>
      </trkpt>
      <trkpt lat="46.00889" lon="6.55673">
        <ele>1422</ele>
        <time>2016-01-19T08:31:35.630Z</time>
      </trkpt>
      <trkpt lat="46.00888" lon="6.55674">
        <ele>1422</ele>
        <time>2016-01-19T08:31:37.630Z</time>
      </trkpt>
      <trkpt lat="46.00885" lon="6.55675">
        <ele>1422.7800064</ele>
        <time>2016-01-19T08:31:40.630Z</time>
      </trkpt>
      <trkpt lat="46.00883" lon="6.55675">
        <ele>1424</ele>
        <time>2016-01-19T08:31:43.630Z</time>
      </trkpt>
      <trkpt lat="46.00881" lon="6.55674">
        <ele>1424</ele>
        <time>2016-01-19T08:31:46.630Z</time>
      </trkpt>
      <trkpt lat="46.00879" lon="6.55671">
        <ele>1424</ele>
        <time>2016-01-19T08:31:49.630Z</time>
      </trkpt>
      <trkpt lat="46.00879" lon="6.55667">
        <ele>1425</ele>
        <time>2016-01-19T08:31:52.630Z</time>
      </trkpt>
      <trkpt lat="46.00878" lon="6.55665">
        <ele>1425</ele>
        <time>2016-01-19T08:31:54.630Z</time>
      </trkpt>
      <trkpt lat="46.00878" lon="6.55662">
        <ele>1425</ele>
        <time>2016-01-19T08:31:56.630Z</time>
      </trkpt>
      <trkpt lat="46.00879" lon="6.55659">
        <ele>1425</ele>
        <time>2016-01-19T08:31:59.630Z</time>
      </trkpt>
      <trkpt lat="46.00879" lon="6.55655">
        <ele>1426</ele>
        <time>2016-01-19T08:32:02.630Z</time>
      </trkpt>
      <trkpt lat="46.0088" lon="6.55652">
        <ele>1426</ele>
        <time>2016-01-19T08:32:05.630Z</time>
      </trkpt>
      <trkpt lat="46.0088" lon="6.55649">
        <ele>1426</ele>
        <time>2016-01-19T08:32:07.630Z</time>
      </trkpt>
      <trkpt lat="46.00879" lon="6.55645">
        <ele>1426.5801610256</ele>
        <time>2016-01-19T08:32:10.630Z</time>
      </trkpt>
      <trkpt lat="46.00878" lon="6.55642">
        <ele>1428</ele>
        <time>2016-01-19T08:32:13.630Z</time>
      </trkpt>
      <trkpt lat="46.00878" lon="6.55639">
        <ele>1428</ele>
        <time>2016-01-19T08:32:16.630Z</time>
      </trkpt>
      <trkpt lat="46.00877" lon="6.55636">
        <ele>1428</ele>
        <time>2016-01-19T08:32:18.630Z</time>
      </trkpt>
      <trkpt lat="46.00876" lon="6.55633">
        <ele>1428.7800064</ele>
        <time>2016-01-19T08:32:20.630Z</time>
      </trkpt>
      <trkpt lat="46.00876" lon="6.5563">
        <ele>1430</ele>
        <time>2016-01-19T08:32:23.630Z</time>
      </trkpt>
      <trkpt lat="46.00876" lon="6.55627">
        <ele>1430</ele>
        <time>2016-01-19T08:32:26.630Z</time>
      </trkpt>
      <trkpt lat="46.00875" lon="6.55624">
        <ele>1430</ele>
        <time>2016-01-19T08:32:29.630Z</time>
      </trkpt>
      <trkpt lat="46.00874" lon="6.5562">
        <ele>1430</ele>
        <time>2016-01-19T08:32:32.630Z</time>
      </trkpt>
      <trkpt lat="46.00873" lon="6.55617">
        <ele>1430</ele>
        <time>2016-01-19T08:32:34.630Z</time>
      </trkpt>
      <trkpt lat="46.00872" lon="6.55615">
        <ele>1430</ele>
        <time>2016-01-19T08:32:37.630Z</time>
      </trkpt>
      <trkpt lat="46.00871" lon="6.55611">
        <ele>1430.7800064</ele>
        <time>2016-01-19T08:32:40.630Z</time>
      </trkpt>
      <trkpt lat="46.0087" lon="6.55608">
        <ele>1432</ele>
        <time>2016-01-19T08:32:43.630Z</time>
      </trkpt>
      <trkpt lat="46.00869" lon="6.55606">
        <ele>1432</ele>
        <time>2016-01-19T08:32:46.630Z</time>
      </trkpt>
      <trkpt lat="46.00869" lon="6.55603">
        <ele>1432</ele>
        <time>2016-01-19T08:32:49.630Z</time>
      </trkpt>
      <trkpt lat="46.00868" lon="6.556">
        <ele>1433</ele>
        <time>2016-01-19T08:32:52.630Z</time>
      </trkpt>
      <trkpt lat="46.00868" lon="6.55596">
        <ele>1433</ele>
        <time>2016-01-19T08:32:55.630Z</time>
      </trkpt>
      <trkpt lat="46.00867" lon="6.55593">
        <ele>1433</ele>
        <time>2016-01-19T08:32:58.630Z</time>
      </trkpt>
      <trkpt lat="46.00866" lon="6.5559">
        <ele>1435</ele>
        <time>2016-01-19T08:33:01.630Z</time>
      </trkpt>
      <trkpt lat="46.00865" lon="6.55587">
        <ele>1435</ele>
        <time>2016-01-19T08:33:04.630Z</time>
      </trkpt>
      <trkpt lat="46.00864" lon="6.55583">
        <ele>1435</ele>
        <time>2016-01-19T08:33:07.630Z</time>
      </trkpt>
      <trkpt lat="46.00863" lon="6.5558">
        <ele>1435</ele>
        <time>2016-01-19T08:33:09.630Z</time>
      </trkpt>
      <trkpt lat="46.00863" lon="6.55577">
        <ele>1436</ele>
        <time>2016-01-19T08:33:12.630Z</time>
      </trkpt>
      <trkpt lat="46.00863" lon="6.55574">
        <ele>1436</ele>
        <time>2016-01-19T08:33:14.630Z</time>
      </trkpt>
      <trkpt lat="46.00863" lon="6.55571">
        <ele>1436</ele>
        <time>2016-01-19T08:33:17.630Z</time>
      </trkpt>
      <trkpt lat="46.00863" lon="6.55568">
        <ele>1436.7800064</ele>
        <time>2016-01-19T08:33:20.630Z</time>
      </trkpt>
      <trkpt lat="46.00862" lon="6.55564">
        <ele>1438</ele>
        <time>2016-01-19T08:33:23.630Z</time>
      </trkpt>
      <trkpt lat="46.00861" lon="6.55562">
        <ele>1438</ele>
        <time>2016-01-19T08:33:25.630Z</time>
      </trkpt>
      <trkpt lat="46.00861" lon="6.55558">
        <ele>1438</ele>
        <time>2016-01-19T08:33:28.630Z</time>
      </trkpt>
      <trkpt lat="46.00861" lon="6.55554">
        <ele>1439</ele>
        <time>2016-01-19T08:33:31.630Z</time>
      </trkpt>
      <trkpt lat="46.0086" lon="6.55552">
        <ele>1439</ele>
        <time>2016-01-19T08:33:34.630Z</time>
      </trkpt>
      <trkpt lat="46.00858" lon="6.5555">
        <ele>1439</ele>
        <time>2016-01-19T08:33:37.630Z</time>
      </trkpt>
      <trkpt lat="46.00855" lon="6.55549">
        <ele>1439.2910457741</ele>
        <time>2016-01-19T08:33:40.630Z</time>
      </trkpt>
      <trkpt lat="46.00853" lon="6.55549">
        <ele>1440</ele>
        <time>2016-01-19T08:33:43.630Z</time>
      </trkpt>
      <trkpt lat="46.00852" lon="6.55551">
        <ele>1440</ele>
        <time>2016-01-19T08:33:46.630Z</time>
      </trkpt>
      <trkpt lat="46.00851" lon="6.55554">
        <ele>1439</ele>
        <time>2016-01-19T08:33:49.630Z</time>
      </trkpt>
      <trkpt lat="46.0085" lon="6.55557">
        <ele>1440</ele>
        <time>2016-01-19T08:33:51.630Z</time>
      </trkpt>
      <trkpt lat="46.00849" lon="6.55559">
        <ele>1440</ele>
        <time>2016-01-19T08:33:53.630Z</time>
      </trkpt>
      <trkpt lat="46.00849" lon="6.55562">
        <ele>1440</ele>
        <time>2016-01-19T08:33:56.630Z</time>
      </trkpt>
      <trkpt lat="46.00849" lon="6.55565">
        <ele>1440</ele>
        <time>2016-01-19T08:33:58.630Z</time>
      </trkpt>
      <trkpt lat="46.00848" lon="6.55568">
        <ele>1442</ele>
        <time>2016-01-19T08:34:01.630Z</time>
      </trkpt>
      <trkpt lat="46.00848" lon="6.55571">
        <ele>1442</ele>
        <time>2016-01-19T08:34:04.630Z</time>
      </trkpt>
      <trkpt lat="46.00847" lon="6.55574">
        <ele>1442</ele>
        <time>2016-01-19T08:34:07.630Z</time>
      </trkpt>
      <trkpt lat="46.00847" lon="6.55578">
        <ele>1442.7800064</ele>
        <time>2016-01-19T08:34:10.630Z</time>
      </trkpt>
      <trkpt lat="46.00847" lon="6.55581">
        <ele>1444</ele>
        <time>2016-01-19T08:34:13.630Z</time>
      </trkpt>
      <trkpt lat="46.00846" lon="6.55584">
        <ele>1444</ele>
        <time>2016-01-19T08:34:16.630Z</time>
      </trkpt>
      <trkpt lat="46.00846" lon="6.55587">
        <ele>1444</ele>
        <time>2016-01-19T08:34:18.630Z</time>
      </trkpt>
      <trkpt lat="46.00846" lon="6.55589">
        <ele>1444.3900032</ele>
        <time>2016-01-19T08:34:20.630Z</time>
      </trkpt>
      <trkpt lat="46.00846" lon="6.55592">
        <ele>1445</ele>
        <time>2016-01-19T08:34:22.630Z</time>
      </trkpt>
      <trkpt lat="46.00845" lon="6.55594">
        <ele>1445</ele>
        <time>2016-01-19T08:34:25.630Z</time>
      </trkpt>
      <trkpt lat="46.00844" lon="6.55598">
        <ele>1445</ele>
        <time>2016-01-19T08:34:28.630Z</time>
      </trkpt>
      <trkpt lat="46.00844" lon="6.55601">
        <ele>1447</ele>
        <time>2016-01-19T08:34:31.630Z</time>
      </trkpt>
      <trkpt lat="46.00844" lon="6.55604">
        <ele>1447</ele>
        <time>2016-01-19T08:34:34.630Z</time>
      </trkpt>
      <trkpt lat="46.00843" lon="6.55607">
        <ele>1447</ele>
        <time>2016-01-19T08:34:36.630Z</time>
      </trkpt>
      <trkpt lat="46.00843" lon="6.5561">
        <ele>1447</ele>
        <time>2016-01-19T08:34:38.630Z</time>
      </trkpt>
      <trkpt lat="46.00843" lon="6.55613">
        <ele>1447</ele>
        <time>2016-01-19T08:34:40.630Z</time>
      </trkpt>
      <trkpt lat="46.00842" lon="6.55617">
        <ele>1447</ele>
        <time>2016-01-19T08:34:43.630Z</time>
      </trkpt>
      <trkpt lat="46.00842" lon="6.55619">
        <ele>1447</ele>
        <time>2016-01-19T08:34:45.630Z</time>
      </trkpt>
      <trkpt lat="46.00841" lon="6.55623">
        <ele>1447</ele>
        <time>2016-01-19T08:34:48.630Z</time>
      </trkpt>
      <trkpt lat="46.0084" lon="6.55625">
        <ele>1449</ele>
        <time>2016-01-19T08:34:51.630Z</time>
      </trkpt>
      <trkpt lat="46.00838" lon="6.55628">
        <ele>1449</ele>
        <time>2016-01-19T08:34:53.630Z</time>
      </trkpt>
      <trkpt lat="46.00837" lon="6.55631">
        <ele>1449</ele>
        <time>2016-01-19T08:34:56.630Z</time>
      </trkpt>
      <trkpt lat="46.00836" lon="6.55633">
        <ele>1449</ele>
        <time>2016-01-19T08:34:58.630Z</time>
      </trkpt>
      <trkpt lat="46.00835" lon="6.55636">
        <ele>1450</ele>
        <time>2016-01-19T08:35:01.630Z</time>
      </trkpt>
      <trkpt lat="46.00834" lon="6.5564">
        <ele>1450</ele>
        <time>2016-01-19T08:35:07.630Z</time>
      </trkpt>
      <trkpt lat="46.00833" lon="6.55643">
        <ele>1452</ele>
        <time>2016-01-19T08:35:11.630Z</time>
      </trkpt>
      <trkpt lat="46.0083" lon="6.55644">
        <ele>1452</ele>
        <time>2016-01-19T08:35:13.630Z</time>
      </trkpt>
      <trkpt lat="46.00828" lon="6.55646">
        <ele>1452</ele>
        <time>2016-01-19T08:35:15.630Z</time>
      </trkpt>
      <trkpt lat="46.00825" lon="6.55646">
        <ele>1452</ele>
        <time>2016-01-19T08:35:17.630Z</time>
      </trkpt>
      <trkpt lat="46.00822" lon="6.55649">
        <ele>1452</ele>
        <time>2016-01-19T08:36:30.630Z</time>
      </trkpt>
      <trkpt lat="46.00822" lon="6.55645">
        <ele>1453</ele>
        <time>2016-01-19T08:38:13.630Z</time>
      </trkpt>
      <trkpt lat="46.00822" lon="6.55641">
        <ele>1453</ele>
        <time>2016-01-19T08:38:16.630Z</time>
      </trkpt>
      <trkpt lat="46.00822" lon="6.55638">
        <ele>1453</ele>
        <time>2016-01-19T08:38:19.630Z</time>
      </trkpt>
      <trkpt lat="46.00823" lon="6.55634">
        <ele>1454</ele>
        <time>2016-01-19T08:38:22.630Z</time>
      </trkpt>
      <trkpt lat="46.00824" lon="6.55632">
        <ele>1454</ele>
        <time>2016-01-19T08:38:24.630Z</time>
      </trkpt>
      <trkpt lat="46.00824" lon="6.55629">
        <ele>1454</ele>
        <time>2016-01-19T08:38:26.630Z</time>
      </trkpt>
      <trkpt lat="46.00823" lon="6.55626">
        <ele>1454</ele>
        <time>2016-01-19T08:38:28.630Z</time>
      </trkpt>
      <trkpt lat="46.00823" lon="6.55623">
        <ele>1454.5909139394</ele>
        <time>2016-01-19T08:38:30.630Z</time>
      </trkpt>
      <trkpt lat="46.00822" lon="6.55619">
        <ele>1456</ele>
        <time>2016-01-19T08:38:33.630Z</time>
      </trkpt>
      <trkpt lat="46.00822" lon="6.55616">
        <ele>1456</ele>
        <time>2016-01-19T08:38:35.630Z</time>
      </trkpt>
      <trkpt lat="46.00821" lon="6.55614">
        <ele>1456</ele>
        <time>2016-01-19T08:38:37.630Z</time>
      </trkpt>
      <trkpt lat="46.00821" lon="6.55611">
        <ele>1456</ele>
        <time>2016-01-19T08:38:39.630Z</time>
      </trkpt>
      <trkpt lat="46.0082" lon="6.55608">
        <ele>1458</ele>
        <time>2016-01-19T08:38:41.630Z</time>
      </trkpt>
      <trkpt lat="46.0082" lon="6.55605">
        <ele>1458</ele>
        <time>2016-01-19T08:38:43.630Z</time>
      </trkpt>
      <trkpt lat="46.00819" lon="6.55603">
        <ele>1458</ele>
        <time>2016-01-19T08:38:45.630Z</time>
      </trkpt>
      <trkpt lat="46.00818" lon="6.55599">
        <ele>1458</ele>
        <time>2016-01-19T08:38:48.630Z</time>
      </trkpt>
      <trkpt lat="46.00817" lon="6.55597">
        <ele>1458.1159425667</ele>
        <time>2016-01-19T08:38:50.630Z</time>
      </trkpt>
      <trkpt lat="46.00816" lon="6.55594">
        <ele>1459</ele>
        <time>2016-01-19T08:38:52.630Z</time>
      </trkpt>
      <trkpt lat="46.00815" lon="6.55591">
        <ele>1459</ele>
        <time>2016-01-19T08:38:55.630Z</time>
      </trkpt>
      <trkpt lat="46.00815" lon="6.55588">
        <ele>1459</ele>
        <time>2016-01-19T08:38:58.630Z</time>
      </trkpt>
      <trkpt lat="46.00814" lon="6.55585">
        <ele>1459.7800064</ele>
        <time>2016-01-19T08:39:00.630Z</time>
      </trkpt>
      <trkpt lat="46.00813" lon="6.55583">
        <ele>1461</ele>
        <time>2016-01-19T08:39:02.630Z</time>
      </trkpt>
      <trkpt lat="46.00812" lon="6.55579">
        <ele>1461</ele>
        <time>2016-01-19T08:39:05.630Z</time>
      </trkpt>
      <trkpt lat="46.00812" lon="6.55577">
        <ele>1461</ele>
        <time>2016-01-19T08:39:07.630Z</time>
      </trkpt>
      <trkpt lat="46.00811" lon="6.55574">
        <ele>1461</ele>
        <time>2016-01-19T08:39:09.630Z</time>
      </trkpt>
      <trkpt lat="46.0081" lon="6.55572">
        <ele>1461.7800064</ele>
        <time>2016-01-19T08:39:11.630Z</time>
      </trkpt>
      <trkpt lat="46.0081" lon="6.55569">
        <ele>1463</ele>
        <time>2016-01-19T08:39:13.630Z</time>
      </trkpt>
      <trkpt lat="46.00809" lon="6.55566">
        <ele>1462.6099968</ele>
        <time>2016-01-19T08:39:16.630Z</time>
      </trkpt>
      <trkpt lat="46.00808" lon="6.55563">
        <ele>1462</ele>
        <time>2016-01-19T08:39:18.630Z</time>
      </trkpt>
      <trkpt lat="46.00807" lon="6.5556">
        <ele>1463</ele>
        <time>2016-01-19T08:39:21.630Z</time>
      </trkpt>
      <trkpt lat="46.00807" lon="6.55557">
        <ele>1463</ele>
        <time>2016-01-19T08:39:23.630Z</time>
      </trkpt>
      <trkpt lat="46.00806" lon="6.55554">
        <ele>1463</ele>
        <time>2016-01-19T08:39:26.630Z</time>
      </trkpt>
      <trkpt lat="46.00806" lon="6.5555">
        <ele>1463</ele>
        <time>2016-01-19T08:39:29.630Z</time>
      </trkpt>
      <trkpt lat="46.00806" lon="6.55546">
        <ele>1465</ele>
        <time>2016-01-19T08:39:31.630Z</time>
      </trkpt>
      <trkpt lat="46.00805" lon="6.55543">
        <ele>1465</ele>
        <time>2016-01-19T08:39:34.630Z</time>
      </trkpt>
      <trkpt lat="46.00803" lon="6.55542">
        <ele>1466</ele>
        <time>2016-01-19T08:39:37.630Z</time>
      </trkpt>
      <trkpt lat="46.00801" lon="6.55543">
        <ele>1467</ele>
        <time>2016-01-19T08:39:42.630Z</time>
      </trkpt>
      <trkpt lat="46.00799" lon="6.55544">
        <ele>1467</ele>
        <time>2016-01-19T08:39:44.630Z</time>
      </trkpt>
      <trkpt lat="46.00798" lon="6.55547">
        <ele>1467</ele>
        <time>2016-01-19T08:39:47.630Z</time>
      </trkpt>
      <trkpt lat="46.00797" lon="6.5555">
        <ele>1467.7800064</ele>
        <time>2016-01-19T08:39:50.630Z</time>
      </trkpt>
      <trkpt lat="46.00797" lon="6.55553">
        <ele>1469</ele>
        <time>2016-01-19T08:39:52.630Z</time>
      </trkpt>
      <trkpt lat="46.00797" lon="6.55556">
        <ele>1469</ele>
        <time>2016-01-19T08:39:54.630Z</time>
      </trkpt>
      <trkpt lat="46.00797" lon="6.55558">
        <ele>1469</ele>
        <time>2016-01-19T08:39:56.630Z</time>
      </trkpt>
      <trkpt lat="46.00797" lon="6.55561">
        <ele>1469</ele>
        <time>2016-01-19T08:39:58.630Z</time>
      </trkpt>
      <trkpt lat="46.00797" lon="6.55564">
        <ele>1469.7800064</ele>
        <time>2016-01-19T08:40:00.630Z</time>
      </trkpt>
      <trkpt lat="46.00797" lon="6.55568">
        <ele>1470</ele>
        <time>2016-01-19T08:40:03.630Z</time>
      </trkpt>
      <trkpt lat="46.00797" lon="6.55572">
        <ele>1470</ele>
        <time>2016-01-19T08:40:06.630Z</time>
      </trkpt>
      <trkpt lat="46.00796" lon="6.55575">
        <ele>1470</ele>
        <time>2016-01-19T08:40:09.630Z</time>
      </trkpt>
      <trkpt lat="46.00796" lon="6.55578">
        <ele>1471</ele>
        <time>2016-01-19T08:40:11.630Z</time>
      </trkpt>
      <trkpt lat="46.00796" lon="6.55582">
        <ele>1471</ele>
        <time>2016-01-19T08:40:14.630Z</time>
      </trkpt>
      <trkpt lat="46.00796" lon="6.55585">
        <ele>1471</ele>
        <time>2016-01-19T08:40:17.630Z</time>
      </trkpt>
      <trkpt lat="46.00795" lon="6.55588">
        <ele>1471</ele>
        <time>2016-01-19T08:40:19.630Z</time>
      </trkpt>
      <trkpt lat="46.00795" lon="6.55591">
        <ele>1473</ele>
        <time>2016-01-19T08:40:22.630Z</time>
      </trkpt>
      <trkpt lat="46.00795" lon="6.55594">
        <ele>1473</ele>
        <time>2016-01-19T08:40:25.630Z</time>
      </trkpt>
      <trkpt lat="46.00795" lon="6.55597">
        <ele>1473</ele>
        <time>2016-01-19T08:40:28.630Z</time>
      </trkpt>
      <trkpt lat="46.00795" lon="6.556">
        <ele>1473.3900032</ele>
        <time>2016-01-19T08:40:30.630Z</time>
      </trkpt>
      <trkpt lat="46.00795" lon="6.55603">
        <ele>1474</ele>
        <time>2016-01-19T08:40:33.630Z</time>
      </trkpt>
      <trkpt lat="46.00794" lon="6.55607">
        <ele>1474</ele>
        <time>2016-01-19T08:40:36.630Z</time>
      </trkpt>
      <trkpt lat="46.00794" lon="6.5561">
        <ele>1474.3900032</ele>
        <time>2016-01-19T08:40:40.630Z</time>
      </trkpt>
      <trkpt lat="46.00793" lon="6.55613">
        <ele>1475</ele>
        <time>2016-01-19T08:40:43.630Z</time>
      </trkpt>
      <trkpt lat="46.00793" lon="6.55616">
        <ele>1475</ele>
        <time>2016-01-19T08:40:45.630Z</time>
      </trkpt>
      <trkpt lat="46.00792" lon="6.55619">
        <ele>1475</ele>
        <time>2016-01-19T08:40:48.630Z</time>
      </trkpt>
      <trkpt lat="46.00791" lon="6.55622">
        <ele>1477</ele>
        <time>2016-01-19T08:40:51.630Z</time>
      </trkpt>
      <trkpt lat="46.0079" lon="6.55624">
        <ele>1477</ele>
        <time>2016-01-19T08:40:53.630Z</time>
      </trkpt>
      <trkpt lat="46.00787" lon="6.55626">
        <ele>1477</ele>
        <time>2016-01-19T08:40:56.630Z</time>
      </trkpt>
      <trkpt lat="46.00785" lon="6.55627">
        <ele>1477</ele>
        <time>2016-01-19T08:40:58.630Z</time>
      </trkpt>
      <trkpt lat="46.00783" lon="6.55627">
        <ele>1478</ele>
        <time>2016-01-19T08:41:01.630Z</time>
      </trkpt>
      <trkpt lat="46.00781" lon="6.55624">
        <ele>1478</ele>
        <time>2016-01-19T08:41:04.630Z</time>
      </trkpt>
      <trkpt lat="46.00781" lon="6.55621">
        <ele>1478</ele>
        <time>2016-01-19T08:41:07.630Z</time>
      </trkpt>
      <trkpt lat="46.00781" lon="6.55618">
        <ele>1478.74227049</ele>
        <time>2016-01-19T08:41:10.630Z</time>
      </trkpt>
      <trkpt lat="46.00781" lon="6.55615">
        <ele>1480</ele>
        <time>2016-01-19T08:41:12.630Z</time>
      </trkpt>
      <trkpt lat="46.00781" lon="6.55612">
        <ele>1480</ele>
        <time>2016-01-19T08:41:15.630Z</time>
      </trkpt>
      <trkpt lat="46.00781" lon="6.55609">
        <ele>1480</ele>
        <time>2016-01-19T08:41:18.630Z</time>
      </trkpt>
      <trkpt lat="46.0078" lon="6.55606">
        <ele>1481</ele>
        <time>2016-01-19T08:41:21.630Z</time>
      </trkpt>
      <trkpt lat="46.0078" lon="6.55603">
        <ele>1481</ele>
        <time>2016-01-19T08:41:23.630Z</time>
      </trkpt>
      <trkpt lat="46.00779" lon="6.556">
        <ele>1481</ele>
        <time>2016-01-19T08:41:25.630Z</time>
      </trkpt>
      <trkpt lat="46.00778" lon="6.55598">
        <ele>1481</ele>
        <time>2016-01-19T08:41:27.630Z</time>
      </trkpt>
      <trkpt lat="46.00778" lon="6.55595">
        <ele>1481</ele>
        <time>2016-01-19T08:41:29.630Z</time>
      </trkpt>
      <trkpt lat="46.00777" lon="6.55592">
        <ele>1483</ele>
        <time>2016-01-19T08:41:31.630Z</time>
      </trkpt>
      <trkpt lat="46.00777" lon="6.5559">
        <ele>1483</ele>
        <time>2016-01-19T08:41:33.630Z</time>
      </trkpt>
      <trkpt lat="46.00776" lon="6.55587">
        <ele>1483</ele>
        <time>2016-01-19T08:41:36.630Z</time>
      </trkpt>
      <trkpt lat="46.00775" lon="6.55584">
        <ele>1483</ele>
        <time>2016-01-19T08:41:39.630Z</time>
      </trkpt>
      <trkpt lat="46.00775" lon="6.55581">
        <ele>1483</ele>
        <time>2016-01-19T08:41:42.630Z</time>
      </trkpt>
      <trkpt lat="46.00774" lon="6.55578">
        <ele>1483</ele>
        <time>2016-01-19T08:41:45.630Z</time>
      </trkpt>
      <trkpt lat="46.00772" lon="6.55575">
        <ele>1483</ele>
        <time>2016-01-19T08:41:48.630Z</time>
      </trkpt>
      <trkpt lat="46.00771" lon="6.55572">
        <ele>1484</ele>
        <time>2016-01-19T08:41:51.630Z</time>
      </trkpt>
      <trkpt lat="46.0077" lon="6.55569">
        <ele>1484</ele>
        <time>2016-01-19T08:41:55.630Z</time>
      </trkpt>
      <trkpt lat="46.00769" lon="6.55566">
        <ele>1484</ele>
        <time>2016-01-19T08:41:58.630Z</time>
      </trkpt>
      <trkpt lat="46.00768" lon="6.55563">
        <ele>1486</ele>
        <time>2016-01-19T08:42:01.630Z</time>
      </trkpt>
      <trkpt lat="46.00767" lon="6.55561">
        <ele>1486</ele>
        <time>2016-01-19T08:42:03.630Z</time>
      </trkpt>
      <trkpt lat="46.00765" lon="6.55558">
        <ele>1486</ele>
        <time>2016-01-19T08:42:06.630Z</time>
      </trkpt>
      <trkpt lat="46.00763" lon="6.55558">
        <ele>1486</ele>
        <time>2016-01-19T08:42:09.630Z</time>
      </trkpt>
      <trkpt lat="46.0076" lon="6.55558">
        <ele>1488</ele>
        <time>2016-01-19T08:42:12.630Z</time>
      </trkpt>
      <trkpt lat="46.00759" lon="6.5556">
        <ele>1488</ele>
        <time>2016-01-19T08:42:15.630Z</time>
      </trkpt>
      <trkpt lat="46.00759" lon="6.55563">
        <ele>1488</ele>
        <time>2016-01-19T08:42:18.630Z</time>
      </trkpt>
      <trkpt lat="46.00759" lon="6.55566">
        <ele>1488.3900032</ele>
        <time>2016-01-19T08:42:21.630Z</time>
      </trkpt>
      <trkpt lat="46.0076" lon="6.55569">
        <ele>1489</ele>
        <time>2016-01-19T08:42:23.630Z</time>
      </trkpt>
      <trkpt lat="46.0076" lon="6.55573">
        <ele>1489</ele>
        <time>2016-01-19T08:42:26.630Z</time>
      </trkpt>
      <trkpt lat="46.00761" lon="6.55576">
        <ele>1489</ele>
        <time>2016-01-19T08:42:29.630Z</time>
      </trkpt>
      <trkpt lat="46.0076" lon="6.55579">
        <ele>1491</ele>
        <time>2016-01-19T08:42:32.630Z</time>
      </trkpt>
      <trkpt lat="46.0076" lon="6.55582">
        <ele>1491</ele>
        <time>2016-01-19T08:42:34.630Z</time>
      </trkpt>
      <trkpt lat="46.0076" lon="6.55585">
        <ele>1491</ele>
        <time>2016-01-19T08:42:37.630Z</time>
      </trkpt>
      <trkpt lat="46.00759" lon="6.55589">
        <ele>1491</ele>
        <time>2016-01-19T08:42:40.630Z</time>
      </trkpt>
      <trkpt lat="46.00759" lon="6.55592">
        <ele>1491</ele>
        <time>2016-01-19T08:42:43.630Z</time>
      </trkpt>
      <trkpt lat="46.00759" lon="6.55596">
        <ele>1492</ele>
        <time>2016-01-19T08:42:46.630Z</time>
      </trkpt>
      <trkpt lat="46.00759" lon="6.55599">
        <ele>1492</ele>
        <time>2016-01-19T08:42:49.630Z</time>
      </trkpt>
      <trkpt lat="46.00758" lon="6.55602">
        <ele>1493</ele>
        <time>2016-01-19T08:42:52.630Z</time>
      </trkpt>
      <trkpt lat="46.00758" lon="6.55605">
        <ele>1493</ele>
        <time>2016-01-19T08:42:55.630Z</time>
      </trkpt>
      <trkpt lat="46.00758" lon="6.55609">
        <ele>1493</ele>
        <time>2016-01-19T08:42:58.630Z</time>
      </trkpt>
      <trkpt lat="46.00758" lon="6.55611">
        <ele>1494</ele>
        <time>2016-01-19T08:43:01.630Z</time>
      </trkpt>
      <trkpt lat="46.00758" lon="6.55615">
        <ele>1494</ele>
        <time>2016-01-19T08:43:04.630Z</time>
      </trkpt>
      <trkpt lat="46.00756" lon="6.55618">
        <ele>1494</ele>
        <time>2016-01-19T08:43:07.630Z</time>
      </trkpt>
      <trkpt lat="46.00754" lon="6.55618">
        <ele>1494.7800064</ele>
        <time>2016-01-19T08:43:10.630Z</time>
      </trkpt>
      <trkpt lat="46.00751" lon="6.55616">
        <ele>1496</ele>
        <time>2016-01-19T08:43:13.630Z</time>
      </trkpt>
      <trkpt lat="46.00751" lon="6.55614">
        <ele>1496</ele>
        <time>2016-01-19T08:43:16.630Z</time>
      </trkpt>
      <trkpt lat="46.0075" lon="6.55611">
        <ele>1496</ele>
        <time>2016-01-19T08:43:19.630Z</time>
      </trkpt>
      <trkpt lat="46.00749" lon="6.55608">
        <ele>1498</ele>
        <time>2016-01-19T08:43:22.630Z</time>
      </trkpt>
      <trkpt lat="46.00748" lon="6.55605">
        <ele>1498</ele>
        <time>2016-01-19T08:43:24.630Z</time>
      </trkpt>
      <trkpt lat="46.00748" lon="6.55602">
        <ele>1498</ele>
        <time>2016-01-19T08:43:27.630Z</time>
      </trkpt>
      <trkpt lat="46.00747" lon="6.55599">
        <ele>1498.2932361943</ele>
        <time>2016-01-19T08:43:30.630Z</time>
      </trkpt>
      <trkpt lat="46.00746" lon="6.55596">
        <ele>1499</ele>
        <time>2016-01-19T08:43:33.630Z</time>
      </trkpt>
      <trkpt lat="46.00746" lon="6.55593">
        <ele>1499</ele>
        <time>2016-01-19T08:43:35.630Z</time>
      </trkpt>
      <trkpt lat="46.00744" lon="6.55591">
        <ele>1499</ele>
        <time>2016-01-19T08:43:38.630Z</time>
      </trkpt>
      <trkpt lat="46.00743" lon="6.55588">
        <ele>1500</ele>
        <time>2016-01-19T08:43:41.630Z</time>
      </trkpt>
      <trkpt lat="46.00742" lon="6.55585">
        <ele>1500</ele>
        <time>2016-01-19T08:43:44.630Z</time>
      </trkpt>
      <trkpt lat="46.00741" lon="6.55582">
        <ele>1500</ele>
        <time>2016-01-19T08:43:47.630Z</time>
      </trkpt>
      <trkpt lat="46.00741" lon="6.5558">
        <ele>1501</ele>
        <time>2016-01-19T08:43:51.630Z</time>
      </trkpt>
      <trkpt lat="46.00739" lon="6.55576">
        <ele>1501</ele>
        <time>2016-01-19T08:43:54.630Z</time>
      </trkpt>
      <trkpt lat="46.00738" lon="6.55573">
        <ele>1501</ele>
        <time>2016-01-19T08:43:57.630Z</time>
      </trkpt>
      <trkpt lat="46.00737" lon="6.55571">
        <ele>1501.7572854143</ele>
        <time>2016-01-19T08:44:00.630Z</time>
      </trkpt>
      <trkpt lat="46.00735" lon="6.55568">
        <ele>1503</ele>
        <time>2016-01-19T08:44:03.630Z</time>
      </trkpt>
      <trkpt lat="46.00734" lon="6.55566">
        <ele>1503</ele>
        <time>2016-01-19T08:44:05.630Z</time>
      </trkpt>
      <trkpt lat="46.00733" lon="6.55564">
        <ele>1503</ele>
        <time>2016-01-19T08:44:07.630Z</time>
      </trkpt>
      <trkpt lat="46.0073" lon="6.55562">
        <ele>1503.3900032</ele>
        <time>2016-01-19T08:44:10.630Z</time>
      </trkpt>
      <trkpt lat="46.00728" lon="6.55561">
        <ele>1504</ele>
        <time>2016-01-19T08:44:13.630Z</time>
      </trkpt>
      <trkpt lat="46.00726" lon="6.55562">
        <ele>1504</ele>
        <time>2016-01-19T08:44:16.630Z</time>
      </trkpt>
      <trkpt lat="46.00724" lon="6.55564">
        <ele>1504</ele>
        <time>2016-01-19T08:44:19.630Z</time>
      </trkpt>
      <trkpt lat="46.00722" lon="6.55565">
        <ele>1506</ele>
        <time>2016-01-19T08:44:22.630Z</time>
      </trkpt>
      <trkpt lat="46.0072" lon="6.55566">
        <ele>1506</ele>
        <time>2016-01-19T08:44:25.630Z</time>
      </trkpt>
      <trkpt lat="46.00719" lon="6.55567">
        <ele>1506</ele>
        <time>2016-01-19T08:44:27.630Z</time>
      </trkpt>
      <trkpt lat="46.00716" lon="6.55569">
        <ele>1506.7722860112</ele>
        <time>2016-01-19T08:44:30.630Z</time>
      </trkpt>
      <trkpt lat="46.00714" lon="6.5557">
        <ele>1508</ele>
        <time>2016-01-19T08:44:34.630Z</time>
      </trkpt>
      <trkpt lat="46.00713" lon="6.55571">
        <ele>1508</ele>
        <time>2016-01-19T08:44:37.630Z</time>
      </trkpt>
      <trkpt lat="46.0071" lon="6.55571">
        <ele>1508.7800064</ele>
        <time>2016-01-19T08:44:40.630Z</time>
      </trkpt>
      <trkpt lat="46.00708" lon="6.55572">
        <ele>1509.6138569944</ele>
        <time>2016-01-19T08:44:44.630Z</time>
      </trkpt>
      <trkpt lat="46.00706" lon="6.55572">
        <ele>1509</ele>
        <time>2016-01-19T08:44:47.630Z</time>
      </trkpt>
      <trkpt lat="46.00704" lon="6.55573">
        <ele>1509.5909139394</ele>
        <time>2016-01-19T08:44:50.630Z</time>
      </trkpt>
      <trkpt lat="46.00702" lon="6.55573">
        <ele>1511</ele>
        <time>2016-01-19T08:44:53.630Z</time>
      </trkpt>
      <trkpt lat="46.007" lon="6.55573">
        <ele>1511</ele>
        <time>2016-01-19T08:44:56.630Z</time>
      </trkpt>
      <trkpt lat="46.00697" lon="6.55572">
        <ele>1511</ele>
        <time>2016-01-19T08:44:59.630Z</time>
      </trkpt>
      <trkpt lat="46.00694" lon="6.55571">
        <ele>1515</ele>
        <time>2016-01-19T08:45:06.630Z</time>
      </trkpt>
      <trkpt lat="46.00692" lon="6.55571">
        <ele>1515.2058917647</ele>
        <time>2016-01-19T08:45:10.630Z</time>
      </trkpt>
      <trkpt lat="46.0069" lon="6.5557">
        <ele>1517</ele>
        <time>2016-01-19T08:45:13.630Z</time>
      </trkpt>
      <trkpt lat="46.00689" lon="6.55569">
        <ele>1518</ele>
        <time>2016-01-19T08:45:16.630Z</time>
      </trkpt>
      <trkpt lat="46.00687" lon="6.55567">
        <ele>1518</ele>
        <time>2016-01-19T08:45:20.630Z</time>
      </trkpt>
      <trkpt lat="46.00686" lon="6.55563">
        <ele>1518</ele>
        <time>2016-01-19T08:45:27.630Z</time>
      </trkpt>
      <trkpt lat="46.00685" lon="6.5556">
        <ele>1518</ele>
        <time>2016-01-19T08:45:29.630Z</time>
      </trkpt>
      <trkpt lat="46.00683" lon="6.55558">
        <ele>1517</ele>
        <time>2016-01-19T08:45:32.630Z</time>
      </trkpt>
      <trkpt lat="46.00682" lon="6.55556">
        <ele>1517</ele>
        <time>2016-01-19T08:45:35.630Z</time>
      </trkpt>
      <trkpt lat="46.0068" lon="6.55553">
        <ele>1517</ele>
        <time>2016-01-19T08:45:38.630Z</time>
      </trkpt>
      <trkpt lat="46.00679" lon="6.55551">
        <ele>1519</ele>
        <time>2016-01-19T08:45:44.630Z</time>
      </trkpt>
      <trkpt lat="46.00678" lon="6.55548">
        <ele>1519</ele>
        <time>2016-01-19T08:45:48.630Z</time>
      </trkpt>
      <trkpt lat="46.00676" lon="6.55545">
        <ele>1521</ele>
        <time>2016-01-19T08:45:53.630Z</time>
      </trkpt>
      <trkpt lat="46.00675" lon="6.55542">
        <ele>1522</ele>
        <time>2016-01-19T08:45:56.630Z</time>
      </trkpt>
      <trkpt lat="46.00673" lon="6.5554">
        <ele>1522</ele>
        <time>2016-01-19T08:45:59.630Z</time>
      </trkpt>
      <trkpt lat="46.00672" lon="6.55537">
        <ele>1523</ele>
        <time>2016-01-19T08:46:02.630Z</time>
      </trkpt>
      <trkpt lat="46.00671" lon="6.55534">
        <ele>1523</ele>
        <time>2016-01-19T08:46:05.630Z</time>
      </trkpt>
      <trkpt lat="46.0067" lon="6.55531">
        <ele>1523</ele>
        <time>2016-01-19T08:46:08.630Z</time>
      </trkpt>
      <trkpt lat="46.00669" lon="6.55528">
        <ele>1524</ele>
        <time>2016-01-19T08:46:11.630Z</time>
      </trkpt>
      <trkpt lat="46.00669" lon="6.55524">
        <ele>1524</ele>
        <time>2016-01-19T08:46:14.630Z</time>
      </trkpt>
      <trkpt lat="46.00668" lon="6.55521">
        <ele>1525</ele>
        <time>2016-01-19T08:46:21.630Z</time>
      </trkpt>
      <trkpt lat="46.00668" lon="6.55517">
        <ele>1525</ele>
        <time>2016-01-19T08:46:24.630Z</time>
      </trkpt>
      <trkpt lat="46.00668" lon="6.55514">
        <ele>1525</ele>
        <time>2016-01-19T08:46:27.630Z</time>
      </trkpt>
      <trkpt lat="46.00668" lon="6.55511">
        <ele>1525.7800064</ele>
        <time>2016-01-19T08:46:30.630Z</time>
      </trkpt>
      <trkpt lat="46.00667" lon="6.55507">
        <ele>1527</ele>
        <time>2016-01-19T08:46:33.630Z</time>
      </trkpt>
      <trkpt lat="46.00667" lon="6.55504">
        <ele>1527</ele>
        <time>2016-01-19T08:46:36.630Z</time>
      </trkpt>
      <trkpt lat="46.00667" lon="6.555">
        <ele>1527</ele>
        <time>2016-01-19T08:46:39.630Z</time>
      </trkpt>
      <trkpt lat="46.00666" lon="6.55497">
        <ele>1528</ele>
        <time>2016-01-19T08:46:42.630Z</time>
      </trkpt>
      <trkpt lat="46.00665" lon="6.55494">
        <ele>1528</ele>
        <time>2016-01-19T08:46:45.630Z</time>
      </trkpt>
      <trkpt lat="46.00665" lon="6.5549">
        <ele>1528</ele>
        <time>2016-01-19T08:46:48.630Z</time>
      </trkpt>
      <trkpt lat="46.00663" lon="6.55487">
        <ele>1529</ele>
        <time>2016-01-19T08:46:52.630Z</time>
      </trkpt>
      <trkpt lat="46.00662" lon="6.55483">
        <ele>1529</ele>
        <time>2016-01-19T08:46:55.630Z</time>
      </trkpt>
      <trkpt lat="46.00662" lon="6.5548">
        <ele>1529</ele>
        <time>2016-01-19T08:46:58.630Z</time>
      </trkpt>
      <trkpt lat="46.00663" lon="6.55477">
        <ele>1531</ele>
        <time>2016-01-19T08:47:01.630Z</time>
      </trkpt>
      <trkpt lat="46.00663" lon="6.55473">
        <ele>1531</ele>
        <time>2016-01-19T08:47:04.630Z</time>
      </trkpt>
      <trkpt lat="46.00662" lon="6.5547">
        <ele>1531</ele>
        <time>2016-01-19T08:47:07.630Z</time>
      </trkpt>
      <trkpt lat="46.00662" lon="6.55467">
        <ele>1531.3900032</ele>
        <time>2016-01-19T08:47:10.630Z</time>
      </trkpt>
      <trkpt lat="46.00661" lon="6.55464">
        <ele>1532</ele>
        <time>2016-01-19T08:47:13.630Z</time>
      </trkpt>
      <trkpt lat="46.0066" lon="6.55461">
        <ele>1532</ele>
        <time>2016-01-19T08:47:16.630Z</time>
      </trkpt>
      <trkpt lat="46.00659" lon="6.55459">
        <ele>1532.7800064</ele>
        <time>2016-01-19T08:47:20.630Z</time>
      </trkpt>
      <trkpt lat="46.00658" lon="6.55456">
        <ele>1534</ele>
        <time>2016-01-19T08:47:23.630Z</time>
      </trkpt>
      <trkpt lat="46.00657" lon="6.55453">
        <ele>1534</ele>
        <time>2016-01-19T08:47:27.630Z</time>
      </trkpt>
      <trkpt lat="46.00656" lon="6.5545">
        <ele>1534.74227049</ele>
        <time>2016-01-19T08:47:30.630Z</time>
      </trkpt>
      <trkpt lat="46.00655" lon="6.55448">
        <ele>1536</ele>
        <time>2016-01-19T08:47:33.630Z</time>
      </trkpt>
      <trkpt lat="46.00652" lon="6.55447">
        <ele>1536</ele>
        <time>2016-01-19T08:47:36.630Z</time>
      </trkpt>
      <trkpt lat="46.0065" lon="6.55445">
        <ele>1536</ele>
        <time>2016-01-19T08:47:39.630Z</time>
      </trkpt>
      <trkpt lat="46.00648" lon="6.55444">
        <ele>1538</ele>
        <time>2016-01-19T08:47:41.630Z</time>
      </trkpt>
      <trkpt lat="46.00646" lon="6.55443">
        <ele>1538</ele>
        <time>2016-01-19T08:47:48.630Z</time>
      </trkpt>
      <trkpt lat="46.00644" lon="6.55443">
        <ele>1540</ele>
        <time>2016-01-19T08:47:51.630Z</time>
      </trkpt>
      <trkpt lat="46.00641" lon="6.55441">
        <ele>1540</ele>
        <time>2016-01-19T08:47:54.630Z</time>
      </trkpt>
      <trkpt lat="46.00639" lon="6.55441">
        <ele>1540</ele>
        <time>2016-01-19T08:47:57.630Z</time>
      </trkpt>
      <trkpt lat="46.00637" lon="6.5544">
        <ele>1540.5757672727</ele>
        <time>2016-01-19T08:48:00.630Z</time>
      </trkpt>
      <trkpt lat="46.00635" lon="6.5544">
        <ele>1542</ele>
        <time>2016-01-19T08:48:03.630Z</time>
      </trkpt>
      <trkpt lat="46.00631" lon="6.55438">
        <ele>1542.3823536793</ele>
        <time>2016-01-19T08:48:10.630Z</time>
      </trkpt>
      <trkpt lat="46.00629" lon="6.55437">
        <ele>1543</ele>
        <time>2016-01-19T08:48:14.630Z</time>
      </trkpt>
      <trkpt lat="46.00626" lon="6.55436">
        <ele>1543</ele>
        <time>2016-01-19T08:48:17.630Z</time>
      </trkpt>
      <trkpt lat="46.00624" lon="6.55436">
        <ele>1543</ele>
        <time>2016-01-19T08:48:20.630Z</time>
      </trkpt>
      <trkpt lat="46.00622" lon="6.55435">
        <ele>1546</ele>
        <time>2016-01-19T08:48:22.630Z</time>
      </trkpt>
      <trkpt lat="46.0062" lon="6.55434">
        <ele>1546.3900032</ele>
        <time>2016-01-19T08:48:25.630Z</time>
      </trkpt>
      <trkpt lat="46.00617" lon="6.55434">
        <ele>1547</ele>
        <time>2016-01-19T08:48:28.630Z</time>
      </trkpt>
      <trkpt lat="46.00615" lon="6.55432">
        <ele>1548</ele>
        <time>2016-01-19T08:48:32.630Z</time>
      </trkpt>
      <trkpt lat="46.00613" lon="6.55432">
        <ele>1548</ele>
        <time>2016-01-19T08:48:36.630Z</time>
      </trkpt>
      <trkpt lat="46.0061" lon="6.55431">
        <ele>1548</ele>
        <time>2016-01-19T08:48:39.630Z</time>
      </trkpt>
      <trkpt lat="46.00608" lon="6.55432">
        <ele>1550</ele>
        <time>2016-01-19T08:48:44.630Z</time>
      </trkpt>
      <trkpt lat="46.00606" lon="6.55431">
        <ele>1550</ele>
        <time>2016-01-19T08:48:48.630Z</time>
      </trkpt>
      <trkpt lat="46.00604" lon="6.5543">
        <ele>1552</ele>
        <time>2016-01-19T08:48:52.630Z</time>
      </trkpt>
      <trkpt lat="46.00602" lon="6.55429">
        <ele>1552</ele>
        <time>2016-01-19T08:48:55.630Z</time>
      </trkpt>
      <trkpt lat="46.006" lon="6.55428">
        <ele>1552</ele>
        <time>2016-01-19T08:48:59.630Z</time>
      </trkpt>
      <trkpt lat="46.00598" lon="6.55426">
        <ele>1554</ele>
        <time>2016-01-19T08:49:02.630Z</time>
      </trkpt>
      <trkpt lat="46.00596" lon="6.55425">
        <ele>1554</ele>
        <time>2016-01-19T08:49:04.630Z</time>
      </trkpt>
      <trkpt lat="46.00594" lon="6.55426">
        <ele>1554</ele>
        <time>2016-01-19T08:49:09.630Z</time>
      </trkpt>
      <trkpt lat="46.00593" lon="6.55429">
        <ele>1555</ele>
        <time>2016-01-19T08:49:15.630Z</time>
      </trkpt>
      <trkpt lat="46.00593" lon="6.55431">
        <ele>1555</ele>
        <time>2016-01-19T08:49:19.630Z</time>
      </trkpt>
      <trkpt lat="46.00597" lon="6.55435">
        <ele>1555</ele>
        <time>2016-01-19T08:49:27.630Z</time>
      </trkpt>
      <trkpt lat="46.00598" lon="6.55437">
        <ele>1555.7800064</ele>
        <time>2016-01-19T08:49:30.630Z</time>
      </trkpt>
      <trkpt lat="46.006" lon="6.55439">
        <ele>1557</ele>
        <time>2016-01-19T08:49:33.630Z</time>
      </trkpt>
      <trkpt lat="46.00601" lon="6.55442">
        <ele>1557</ele>
        <time>2016-01-19T08:49:38.630Z</time>
      </trkpt>
      <trkpt lat="46.00602" lon="6.55445">
        <ele>1557.7800064</ele>
        <time>2016-01-19T08:49:40.630Z</time>
      </trkpt>
      <trkpt lat="46.00604" lon="6.55447">
        <ele>1559</ele>
        <time>2016-01-19T08:49:42.630Z</time>
      </trkpt>
      <trkpt lat="46.00605" lon="6.5545">
        <ele>1559</ele>
        <time>2016-01-19T08:49:45.630Z</time>
      </trkpt>
      <trkpt lat="46.00606" lon="6.55453">
        <ele>1559</ele>
        <time>2016-01-19T08:49:47.630Z</time>
      </trkpt>
      <trkpt lat="46.00608" lon="6.55455">
        <ele>1559.7676872156</ele>
        <time>2016-01-19T08:49:50.630Z</time>
      </trkpt>
      <trkpt lat="46.00609" lon="6.55458">
        <ele>1561</ele>
        <time>2016-01-19T08:49:53.630Z</time>
      </trkpt>
      <trkpt lat="46.00609" lon="6.55461">
        <ele>1561</ele>
        <time>2016-01-19T08:49:56.630Z</time>
      </trkpt>
      <trkpt lat="46.00611" lon="6.55463">
        <ele>1561</ele>
        <time>2016-01-19T08:49:59.630Z</time>
      </trkpt>
      <trkpt lat="46.00612" lon="6.55466">
        <ele>1562</ele>
        <time>2016-01-19T08:50:02.630Z</time>
      </trkpt>
      <trkpt lat="46.00613" lon="6.55469">
        <ele>1562</ele>
        <time>2016-01-19T08:50:05.630Z</time>
      </trkpt>
      <trkpt lat="46.00613" lon="6.55472">
        <ele>1562</ele>
        <time>2016-01-19T08:50:08.630Z</time>
      </trkpt>
      <trkpt lat="46.00612" lon="6.55474">
        <ele>1564</ele>
        <time>2016-01-19T08:50:11.630Z</time>
      </trkpt>
      <trkpt lat="46.0061" lon="6.55476">
        <ele>1564</ele>
        <time>2016-01-19T08:50:15.630Z</time>
      </trkpt>
      <trkpt lat="46.00608" lon="6.55476">
        <ele>1564</ele>
        <time>2016-01-19T08:50:18.630Z</time>
      </trkpt>
      <trkpt lat="46.00606" lon="6.55475">
        <ele>1566</ele>
        <time>2016-01-19T08:50:21.630Z</time>
      </trkpt>
      <trkpt lat="46.00604" lon="6.55474">
        <ele>1566</ele>
        <time>2016-01-19T08:50:24.630Z</time>
      </trkpt>
      <trkpt lat="46.00602" lon="6.55472">
        <ele>1566</ele>
        <time>2016-01-19T08:50:28.630Z</time>
      </trkpt>
      <trkpt lat="46.00601" lon="6.55471">
        <ele>1568</ele>
        <time>2016-01-19T08:50:31.630Z</time>
      </trkpt>
      <trkpt lat="46.00599" lon="6.55469">
        <ele>1568</ele>
        <time>2016-01-19T08:50:33.630Z</time>
      </trkpt>
      <trkpt lat="46.00597" lon="6.55468">
        <ele>1568</ele>
        <time>2016-01-19T08:50:36.630Z</time>
      </trkpt>
      <trkpt lat="46.00595" lon="6.55467">
        <ele>1568</ele>
        <time>2016-01-19T08:50:39.630Z</time>
      </trkpt>
      <trkpt lat="46.00593" lon="6.55466">
        <ele>1569.6161563922</ele>
        <time>2016-01-19T08:50:43.630Z</time>
      </trkpt>
      <trkpt lat="46.0059" lon="6.55465">
        <ele>1569</ele>
        <time>2016-01-19T08:50:47.630Z</time>
      </trkpt>
      <trkpt lat="46.00588" lon="6.55464">
        <ele>1569.7800064</ele>
        <time>2016-01-19T08:50:50.630Z</time>
      </trkpt>
      <trkpt lat="46.00586" lon="6.55463">
        <ele>1571</ele>
        <time>2016-01-19T08:50:53.630Z</time>
      </trkpt>
      <trkpt lat="46.00584" lon="6.55464">
        <ele>1571</ele>
        <time>2016-01-19T08:50:56.630Z</time>
      </trkpt>
      <trkpt lat="46.00584" lon="6.55467">
        <ele>1571.7647073587</ele>
        <time>2016-01-19T08:51:00.630Z</time>
      </trkpt>
      <trkpt lat="46.00586" lon="6.55469">
        <ele>1573</ele>
        <time>2016-01-19T08:51:03.630Z</time>
      </trkpt>
      <trkpt lat="46.00588" lon="6.55471">
        <ele>1573</ele>
        <time>2016-01-19T08:51:06.630Z</time>
      </trkpt>
      <trkpt lat="46.00589" lon="6.55473">
        <ele>1573</ele>
        <time>2016-01-19T08:51:08.630Z</time>
      </trkpt>
      <trkpt lat="46.00591" lon="6.55475">
        <ele>1573.2954569697</ele>
        <time>2016-01-19T08:51:10.630Z</time>
      </trkpt>
      <trkpt lat="46.00593" lon="6.55477">
        <ele>1574</ele>
        <time>2016-01-19T08:51:13.630Z</time>
      </trkpt>
      <trkpt lat="46.00595" lon="6.5548">
        <ele>1574</ele>
        <time>2016-01-19T08:51:15.630Z</time>
      </trkpt>
      <trkpt lat="46.00596" lon="6.55483">
        <ele>1574</ele>
        <time>2016-01-19T08:51:17.630Z</time>
      </trkpt>
      <trkpt lat="46.00598" lon="6.55485">
        <ele>1574</ele>
        <time>2016-01-19T08:51:21.630Z</time>
      </trkpt>
      <trkpt lat="46.006" lon="6.55486">
        <ele>1574</ele>
        <time>2016-01-19T08:51:23.630Z</time>
      </trkpt>
      <trkpt lat="46.00602" lon="6.55488">
        <ele>1574</ele>
        <time>2016-01-19T08:51:25.630Z</time>
      </trkpt>
      <trkpt lat="46.00604" lon="6.55491">
        <ele>1574</ele>
        <time>2016-01-19T08:51:28.630Z</time>
      </trkpt>
      <trkpt lat="46.00605" lon="6.55493">
        <ele>1574.1029458824</ele>
        <time>2016-01-19T08:51:30.630Z</time>
      </trkpt>
      <trkpt lat="46.00606" lon="6.55496">
        <ele>1575</ele>
        <time>2016-01-19T08:51:35.630Z</time>
      </trkpt>
      <trkpt lat="46.00607" lon="6.555">
        <ele>1575</ele>
        <time>2016-01-19T08:51:38.630Z</time>
      </trkpt>
      <trkpt lat="46.00606" lon="6.55504">
        <ele>1577</ele>
        <time>2016-01-19T08:51:41.630Z</time>
      </trkpt>
      <trkpt lat="46.00604" lon="6.55506">
        <ele>1577</ele>
        <time>2016-01-19T08:51:44.630Z</time>
      </trkpt>
      <trkpt lat="46.00602" lon="6.55505">
        <ele>1577</ele>
        <time>2016-01-19T08:51:48.630Z</time>
      </trkpt>
      <trkpt lat="46.006" lon="6.55504">
        <ele>1577.7800064</ele>
        <time>2016-01-19T08:51:51.630Z</time>
      </trkpt>
      <trkpt lat="46.00598" lon="6.55503">
        <ele>1579</ele>
        <time>2016-01-19T08:51:53.630Z</time>
      </trkpt>
      <trkpt lat="46.00597" lon="6.55501">
        <ele>1579</ele>
        <time>2016-01-19T08:51:56.630Z</time>
      </trkpt>
      <trkpt lat="46.00595" lon="6.55498">
        <ele>1579</ele>
        <time>2016-01-19T08:51:59.630Z</time>
      </trkpt>
      <trkpt lat="46.00593" lon="6.55496">
        <ele>1580</ele>
        <time>2016-01-19T08:52:02.630Z</time>
      </trkpt>
      <trkpt lat="46.00592" lon="6.55494">
        <ele>1580</ele>
        <time>2016-01-19T08:52:05.630Z</time>
      </trkpt>
      <trkpt lat="46.0059" lon="6.55491">
        <ele>1580</ele>
        <time>2016-01-19T08:52:08.630Z</time>
      </trkpt>
      <trkpt lat="46.00588" lon="6.5549">
        <ele>1580.3900032</ele>
        <time>2016-01-19T08:52:10.630Z</time>
      </trkpt>
      <trkpt lat="46.00586" lon="6.5549">
        <ele>1581</ele>
        <time>2016-01-19T08:52:12.630Z</time>
      </trkpt>
      <trkpt lat="46.00585" lon="6.55488">
        <ele>1581</ele>
        <time>2016-01-19T08:52:15.630Z</time>
      </trkpt>
      <trkpt lat="46.00582" lon="6.55486">
        <ele>1581</ele>
        <time>2016-01-19T08:52:18.630Z</time>
      </trkpt>
      <trkpt lat="46.00581" lon="6.55484">
        <ele>1583</ele>
        <time>2016-01-19T08:52:21.630Z</time>
      </trkpt>
      <trkpt lat="46.00578" lon="6.55483">
        <ele>1583</ele>
        <time>2016-01-19T08:52:24.630Z</time>
      </trkpt>
      <trkpt lat="46.00577" lon="6.5548">
        <ele>1583</ele>
        <time>2016-01-19T08:52:27.630Z</time>
      </trkpt>
      <trkpt lat="46.00575" lon="6.55478">
        <ele>1583.3900032</ele>
        <time>2016-01-19T08:52:30.630Z</time>
      </trkpt>
      <trkpt lat="46.00572" lon="6.55477">
        <ele>1584</ele>
        <time>2016-01-19T08:52:33.630Z</time>
      </trkpt>
      <trkpt lat="46.00571" lon="6.55475">
        <ele>1584</ele>
        <time>2016-01-19T08:52:36.630Z</time>
      </trkpt>
      <trkpt lat="46.00569" lon="6.55473">
        <ele>1584</ele>
        <time>2016-01-19T08:52:39.630Z</time>
      </trkpt>
      <trkpt lat="46.00567" lon="6.55471">
        <ele>1586</ele>
        <time>2016-01-19T08:52:42.630Z</time>
      </trkpt>
      <trkpt lat="46.00565" lon="6.5547">
        <ele>1586</ele>
        <time>2016-01-19T08:52:45.630Z</time>
      </trkpt>
      <trkpt lat="46.00563" lon="6.55469">
        <ele>1586</ele>
        <time>2016-01-19T08:52:47.630Z</time>
      </trkpt>
      <trkpt lat="46.0056" lon="6.55468">
        <ele>1586.3900032</ele>
        <time>2016-01-19T08:52:50.630Z</time>
      </trkpt>
      <trkpt lat="46.00558" lon="6.55466">
        <ele>1587</ele>
        <time>2016-01-19T08:52:53.630Z</time>
      </trkpt>
      <trkpt lat="46.00556" lon="6.55465">
        <ele>1587</ele>
        <time>2016-01-19T08:52:57.630Z</time>
      </trkpt>
      <trkpt lat="46.00554" lon="6.55464">
        <ele>1587.7800064</ele>
        <time>2016-01-19T08:53:00.630Z</time>
      </trkpt>
      <trkpt lat="46.00552" lon="6.55463">
        <ele>1589</ele>
        <time>2016-01-19T08:53:04.630Z</time>
      </trkpt>
      <trkpt lat="46.00549" lon="6.55461">
        <ele>1589</ele>
        <time>2016-01-19T08:53:07.630Z</time>
      </trkpt>
      <trkpt lat="46.00547" lon="6.5546">
        <ele>1589</ele>
        <time>2016-01-19T08:53:09.630Z</time>
      </trkpt>
      <trkpt lat="46.00545" lon="6.55459">
        <ele>1591</ele>
        <time>2016-01-19T08:53:11.630Z</time>
      </trkpt>
      <trkpt lat="46.00543" lon="6.55459">
        <ele>1591</ele>
        <time>2016-01-19T08:53:13.630Z</time>
      </trkpt>
      <trkpt lat="46.00541" lon="6.55458">
        <ele>1591</ele>
        <time>2016-01-19T08:53:15.630Z</time>
      </trkpt>
      <trkpt lat="46.00539" lon="6.55458">
        <ele>1591</ele>
        <time>2016-01-19T08:53:17.630Z</time>
      </trkpt>
      <trkpt lat="46.00537" lon="6.55457">
        <ele>1591.3823536793</ele>
        <time>2016-01-19T08:53:20.630Z</time>
      </trkpt>
      <trkpt lat="46.00535" lon="6.55456">
        <ele>1592</ele>
        <time>2016-01-19T08:53:23.630Z</time>
      </trkpt>
      <trkpt lat="46.00533" lon="6.55455">
        <ele>1592</ele>
        <time>2016-01-19T08:53:25.630Z</time>
      </trkpt>
      <trkpt lat="46.00531" lon="6.55453">
        <ele>1592</ele>
        <time>2016-01-19T08:53:28.630Z</time>
      </trkpt>
      <trkpt lat="46.00529" lon="6.55452">
        <ele>1594</ele>
        <time>2016-01-19T08:53:31.630Z</time>
      </trkpt>
      <trkpt lat="46.00527" lon="6.55451">
        <ele>1594</ele>
        <time>2016-01-19T08:53:34.630Z</time>
      </trkpt>
      <trkpt lat="46.00525" lon="6.5545">
        <ele>1594</ele>
        <time>2016-01-19T08:53:37.630Z</time>
      </trkpt>
      <trkpt lat="46.00523" lon="6.55448">
        <ele>1594.3900032</ele>
        <time>2016-01-19T08:53:40.630Z</time>
      </trkpt>
      <trkpt lat="46.00521" lon="6.55447">
        <ele>1595</ele>
        <time>2016-01-19T08:53:42.630Z</time>
      </trkpt>
      <trkpt lat="46.00519" lon="6.55446">
        <ele>1595</ele>
        <time>2016-01-19T08:53:44.630Z</time>
      </trkpt>
      <trkpt lat="46.00516" lon="6.55445">
        <ele>1595</ele>
        <time>2016-01-19T08:53:49.630Z</time>
      </trkpt>
      <trkpt lat="46.00513" lon="6.55444">
        <ele>1597</ele>
        <time>2016-01-19T08:53:52.630Z</time>
      </trkpt>
      <trkpt lat="46.00511" lon="6.55442">
        <ele>1597</ele>
        <time>2016-01-19T08:53:55.630Z</time>
      </trkpt>
      <trkpt lat="46.00509" lon="6.5544">
        <ele>1597</ele>
        <time>2016-01-19T08:53:58.630Z</time>
      </trkpt>
      <trkpt lat="46.00507" lon="6.55439">
        <ele>1597.5909139394</ele>
        <time>2016-01-19T08:54:01.630Z</time>
      </trkpt>
      <trkpt lat="46.00505" lon="6.55438">
        <ele>1599</ele>
        <time>2016-01-19T08:54:04.630Z</time>
      </trkpt>
      <trkpt lat="46.00503" lon="6.55436">
        <ele>1599</ele>
        <time>2016-01-19T08:54:06.630Z</time>
      </trkpt>
      <trkpt lat="46.00501" lon="6.55435">
        <ele>1599</ele>
        <time>2016-01-19T08:54:09.630Z</time>
      </trkpt>
      <trkpt lat="46.00499" lon="6.55434">
        <ele>1599</ele>
        <time>2016-01-19T08:54:12.630Z</time>
      </trkpt>
      <trkpt lat="46.00497" lon="6.55433">
        <ele>1599</ele>
        <time>2016-01-19T08:54:14.630Z</time>
      </trkpt>
      <trkpt lat="46.00495" lon="6.55432">
        <ele>1599</ele>
        <time>2016-01-19T08:54:16.630Z</time>
      </trkpt>
      <trkpt lat="46.00493" lon="6.5543">
        <ele>1599</ele>
        <time>2016-01-19T08:54:19.630Z</time>
      </trkpt>
      <trkpt lat="46.00491" lon="6.55429">
        <ele>1600</ele>
        <time>2016-01-19T08:54:22.630Z</time>
      </trkpt>
      <trkpt lat="46.00489" lon="6.55427">
        <ele>1600</ele>
        <time>2016-01-19T08:54:25.630Z</time>
      </trkpt>
      <trkpt lat="46.00487" lon="6.55426">
        <ele>1600</ele>
        <time>2016-01-19T08:54:28.630Z</time>
      </trkpt>
      <trkpt lat="46.00485" lon="6.55425">
        <ele>1600.7800064</ele>
        <time>2016-01-19T08:54:31.630Z</time>
      </trkpt>
      <trkpt lat="46.00482" lon="6.55424">
        <ele>1602</ele>
        <time>2016-01-19T08:54:34.630Z</time>
      </trkpt>
      <trkpt lat="46.0048" lon="6.55424">
        <ele>1602</ele>
        <time>2016-01-19T08:54:37.630Z</time>
      </trkpt>
      <trkpt lat="46.00478" lon="6.55424">
        <ele>1602</ele>
        <time>2016-01-19T08:54:40.630Z</time>
      </trkpt>
      <trkpt lat="46.00475" lon="6.55425">
        <ele>1604</ele>
        <time>2016-01-19T08:54:43.630Z</time>
      </trkpt>
      <trkpt lat="46.00474" lon="6.55427">
        <ele>1604</ele>
        <time>2016-01-19T08:54:46.630Z</time>
      </trkpt>
      <trkpt lat="46.00472" lon="6.55429">
        <ele>1604</ele>
        <time>2016-01-19T08:54:49.630Z</time>
      </trkpt>
      <trkpt lat="46.00471" lon="6.55431">
        <ele>1604</ele>
        <time>2016-01-19T08:54:52.630Z</time>
      </trkpt>
      <trkpt lat="46.0047" lon="6.55435">
        <ele>1604</ele>
        <time>2016-01-19T08:54:55.630Z</time>
      </trkpt>
      <trkpt lat="46.00469" lon="6.55437">
        <ele>1604</ele>
        <time>2016-01-19T08:54:57.630Z</time>
      </trkpt>
      <trkpt lat="46.00468" lon="6.5544">
        <ele>1604</ele>
        <time>2016-01-19T08:55:00.630Z</time>
      </trkpt>
      <trkpt lat="46.00468" lon="6.55443">
        <ele>1606</ele>
        <time>2016-01-19T08:55:02.630Z</time>
      </trkpt>
      <trkpt lat="46.00468" lon="6.55446">
        <ele>1606</ele>
        <time>2016-01-19T08:55:05.630Z</time>
      </trkpt>
      <trkpt lat="46.00468" lon="6.55448">
        <ele>1606</ele>
        <time>2016-01-19T08:55:08.630Z</time>
      </trkpt>
      <trkpt lat="46.00467" lon="6.55452">
        <ele>1606.3900032</ele>
        <time>2016-01-19T08:55:11.630Z</time>
      </trkpt>
      <trkpt lat="46.00467" lon="6.55455">
        <ele>1606</ele>
        <time>2016-01-19T08:55:14.630Z</time>
      </trkpt>
      <trkpt lat="46.00466" lon="6.55458">
        <ele>1606</ele>
        <time>2016-01-19T08:55:16.630Z</time>
      </trkpt>
      <trkpt lat="46.00465" lon="6.55461">
        <ele>1606</ele>
        <time>2016-01-19T08:55:19.630Z</time>
      </trkpt>
      <trkpt lat="46.00464" lon="6.55463">
        <ele>1608</ele>
        <time>2016-01-19T08:55:22.630Z</time>
      </trkpt>
      <trkpt lat="46.00463" lon="6.55467">
        <ele>1608</ele>
        <time>2016-01-19T08:55:25.630Z</time>
      </trkpt>
      <trkpt lat="46.00462" lon="6.5547">
        <ele>1608</ele>
        <time>2016-01-19T08:55:28.630Z</time>
      </trkpt>
      <trkpt lat="46.0046" lon="6.55472">
        <ele>1608.7800064</ele>
        <time>2016-01-19T08:55:31.630Z</time>
      </trkpt>
      <trkpt lat="46.00457" lon="6.55473">
        <ele>1610</ele>
        <time>2016-01-19T08:55:34.630Z</time>
      </trkpt>
      <trkpt lat="46.00455" lon="6.55474">
        <ele>1610</ele>
        <time>2016-01-19T08:55:37.630Z</time>
      </trkpt>
      <trkpt lat="46.00453" lon="6.55475">
        <ele>1610</ele>
        <time>2016-01-19T08:55:40.630Z</time>
      </trkpt>
      <trkpt lat="46.00452" lon="6.55476">
        <ele>1611</ele>
        <time>2016-01-19T08:55:42.630Z</time>
      </trkpt>
      <trkpt lat="46.0045" lon="6.55476">
        <ele>1611</ele>
        <time>2016-01-19T08:55:44.630Z</time>
      </trkpt>
      <trkpt lat="46.00448" lon="6.55476">
        <ele>1611</ele>
        <time>2016-01-19T08:55:46.630Z</time>
      </trkpt>
      <trkpt lat="46.00445" lon="6.55476">
        <ele>1611</ele>
        <time>2016-01-19T08:55:49.630Z</time>
      </trkpt>
      <trkpt lat="46.00443" lon="6.55477">
        <ele>1613</ele>
        <time>2016-01-19T08:55:52.630Z</time>
      </trkpt>
      <trkpt lat="46.00441" lon="6.55477">
        <ele>1613</ele>
        <time>2016-01-19T08:55:54.630Z</time>
      </trkpt>
      <trkpt lat="46.00439" lon="6.55478">
        <ele>1613</ele>
        <time>2016-01-19T08:55:56.630Z</time>
      </trkpt>
      <trkpt lat="46.00437" lon="6.55479">
        <ele>1613</ele>
        <time>2016-01-19T08:55:58.630Z</time>
      </trkpt>
      <trkpt lat="46.00435" lon="6.55479">
        <ele>1613</ele>
        <time>2016-01-19T08:56:00.630Z</time>
      </trkpt>
      <trkpt lat="46.00433" lon="6.55479">
        <ele>1613</ele>
        <time>2016-01-19T08:56:02.630Z</time>
      </trkpt>
      <trkpt lat="46.00431" lon="6.55479">
        <ele>1613</ele>
        <time>2016-01-19T08:56:04.630Z</time>
      </trkpt>
      <trkpt lat="46.00429" lon="6.55479">
        <ele>1613</ele>
        <time>2016-01-19T08:56:07.630Z</time>
      </trkpt>
      <trkpt lat="46.00427" lon="6.55478">
        <ele>1613</ele>
        <time>2016-01-19T08:56:09.630Z</time>
      </trkpt>
      <trkpt lat="46.00425" lon="6.55477">
        <ele>1614</ele>
        <time>2016-01-19T08:56:11.630Z</time>
      </trkpt>
      <trkpt lat="46.00423" lon="6.55476">
        <ele>1614</ele>
        <time>2016-01-19T08:56:13.630Z</time>
      </trkpt>
      <trkpt lat="46.00421" lon="6.55476">
        <ele>1614</ele>
        <time>2016-01-19T08:56:15.630Z</time>
      </trkpt>
      <trkpt lat="46.00419" lon="6.55476">
        <ele>1614</ele>
        <time>2016-01-19T08:56:18.630Z</time>
      </trkpt>
      <trkpt lat="46.00416" lon="6.55476">
        <ele>1615</ele>
        <time>2016-01-19T08:56:21.630Z</time>
      </trkpt>
      <trkpt lat="46.00414" lon="6.55475">
        <ele>1615</ele>
        <time>2016-01-19T08:56:23.630Z</time>
      </trkpt>
      <trkpt lat="46.00411" lon="6.55474">
        <ele>1615</ele>
        <time>2016-01-19T08:56:26.630Z</time>
      </trkpt>
      <trkpt lat="46.00409" lon="6.55472">
        <ele>1615</ele>
        <time>2016-01-19T08:56:29.630Z</time>
      </trkpt>
      <trkpt lat="46.00407" lon="6.55472">
        <ele>1617</ele>
        <time>2016-01-19T08:56:32.630Z</time>
      </trkpt>
      <trkpt lat="46.00405" lon="6.55472">
        <ele>1617</ele>
        <time>2016-01-19T08:56:35.630Z</time>
      </trkpt>
      <trkpt lat="46.00402" lon="6.55472">
        <ele>1617</ele>
        <time>2016-01-19T08:56:38.630Z</time>
      </trkpt>
      <trkpt lat="46.00401" lon="6.55473">
        <ele>1619</ele>
        <time>2016-01-19T08:56:41.630Z</time>
      </trkpt>
      <trkpt lat="46.00398" lon="6.55473">
        <ele>1619</ele>
        <time>2016-01-19T08:56:44.630Z</time>
      </trkpt>
      <trkpt lat="46.00396" lon="6.55474">
        <ele>1619</ele>
        <time>2016-01-19T08:56:47.630Z</time>
      </trkpt>
      <trkpt lat="46.00394" lon="6.55475">
        <ele>1619.3900032</ele>
        <time>2016-01-19T08:56:50.630Z</time>
      </trkpt>
      <trkpt lat="46.00392" lon="6.55476">
        <ele>1620</ele>
        <time>2016-01-19T08:56:53.630Z</time>
      </trkpt>
      <trkpt lat="46.00389" lon="6.55476">
        <ele>1620</ele>
        <time>2016-01-19T08:56:57.630Z</time>
      </trkpt>
      <trkpt lat="46.00387" lon="6.55477">
        <ele>1620.549616978</ele>
        <time>2016-01-19T08:57:00.630Z</time>
      </trkpt>
      <trkpt lat="46.00385" lon="6.55477">
        <ele>1622</ele>
        <time>2016-01-19T08:57:03.630Z</time>
      </trkpt>
      <trkpt lat="46.00383" lon="6.55478">
        <ele>1622</ele>
        <time>2016-01-19T08:57:07.630Z</time>
      </trkpt>
      <trkpt lat="46.00381" lon="6.55477">
        <ele>1622</ele>
        <time>2016-01-19T08:57:09.630Z</time>
      </trkpt>
      <trkpt lat="46.00379" lon="6.55476">
        <ele>1623</ele>
        <time>2016-01-19T08:57:12.630Z</time>
      </trkpt>
      <trkpt lat="46.00377" lon="6.55475">
        <ele>1623</ele>
        <time>2016-01-19T08:57:14.630Z</time>
      </trkpt>
      <trkpt lat="46.00374" lon="6.55474">
        <ele>1623</ele>
        <time>2016-01-19T08:57:17.630Z</time>
      </trkpt>
      <trkpt lat="46.00372" lon="6.55473">
        <ele>1623</ele>
        <time>2016-01-19T08:57:19.630Z</time>
      </trkpt>
      <trkpt lat="46.00371" lon="6.55472">
        <ele>1625</ele>
        <time>2016-01-19T08:57:22.630Z</time>
      </trkpt>
      <trkpt lat="46.00368" lon="6.55472">
        <ele>1625</ele>
        <time>2016-01-19T08:57:26.630Z</time>
      </trkpt>
      <trkpt lat="46.00366" lon="6.55471">
        <ele>1625</ele>
        <time>2016-01-19T08:57:29.630Z</time>
      </trkpt>
      <trkpt lat="46.00362" lon="6.55466">
        <ele>1627</ele>
        <time>2016-01-19T08:57:44.630Z</time>
      </trkpt>
      <trkpt lat="46.00359" lon="6.55464">
        <ele>1627</ele>
        <time>2016-01-19T08:57:47.630Z</time>
      </trkpt>
      <trkpt lat="46.00358" lon="6.55461">
        <ele>1627</ele>
        <time>2016-01-19T08:57:49.630Z</time>
      </trkpt>
      <trkpt lat="46.00357" lon="6.55459">
        <ele>1628</ele>
        <time>2016-01-19T08:57:51.630Z</time>
      </trkpt>
      <trkpt lat="46.00355" lon="6.55456">
        <ele>1628</ele>
        <time>2016-01-19T08:57:54.630Z</time>
      </trkpt>
      <trkpt lat="46.00354" lon="6.55453">
        <ele>1628</ele>
        <time>2016-01-19T08:57:58.630Z</time>
      </trkpt>
      <trkpt lat="46.00353" lon="6.55451">
        <ele>1628.7800064</ele>
        <time>2016-01-19T08:58:00.630Z</time>
      </trkpt>
      <trkpt lat="46.00351" lon="6.5545">
        <ele>1630</ele>
        <time>2016-01-19T08:58:02.630Z</time>
      </trkpt>
      <trkpt lat="46.00349" lon="6.55448">
        <ele>1630</ele>
        <time>2016-01-19T08:58:04.630Z</time>
      </trkpt>
      <trkpt lat="46.00346" lon="6.55447">
        <ele>1630</ele>
        <time>2016-01-19T08:58:07.630Z</time>
      </trkpt>
      <trkpt lat="46.00344" lon="6.55445">
        <ele>1630.1029458824</ele>
        <time>2016-01-19T08:58:10.630Z</time>
      </trkpt>
      <trkpt lat="46.00342" lon="6.55444">
        <ele>1631</ele>
        <time>2016-01-19T08:58:12.630Z</time>
      </trkpt>
      <trkpt lat="46.0034" lon="6.55442">
        <ele>1631</ele>
        <time>2016-01-19T08:58:15.630Z</time>
      </trkpt>
      <trkpt lat="46.00338" lon="6.5544">
        <ele>1631</ele>
        <time>2016-01-19T08:58:18.630Z</time>
      </trkpt>
      <trkpt lat="46.00335" lon="6.55439">
        <ele>1632</ele>
        <time>2016-01-19T08:58:21.630Z</time>
      </trkpt>
      <trkpt lat="46.00333" lon="6.55438">
        <ele>1632</ele>
        <time>2016-01-19T08:58:24.630Z</time>
      </trkpt>
      <trkpt lat="46.00331" lon="6.55436">
        <ele>1632</ele>
        <time>2016-01-19T08:58:27.630Z</time>
      </trkpt>
      <trkpt lat="46.0033" lon="6.55434">
        <ele>1632.3900032</ele>
        <time>2016-01-19T08:58:30.630Z</time>
      </trkpt>
      <trkpt lat="46.00328" lon="6.55432">
        <ele>1633</ele>
        <time>2016-01-19T08:58:33.630Z</time>
      </trkpt>
      <trkpt lat="46.00326" lon="6.5543">
        <ele>1633</ele>
        <time>2016-01-19T08:58:36.630Z</time>
      </trkpt>
      <trkpt lat="46.00325" lon="6.55428">
        <ele>1633</ele>
        <time>2016-01-19T08:58:39.630Z</time>
      </trkpt>
      <trkpt lat="46.00323" lon="6.55427">
        <ele>1633</ele>
        <time>2016-01-19T08:58:42.630Z</time>
      </trkpt>
      <trkpt lat="46.00321" lon="6.55425">
        <ele>1633</ele>
        <time>2016-01-19T08:58:44.630Z</time>
      </trkpt>
      <trkpt lat="46.00319" lon="6.55424">
        <ele>1633</ele>
        <time>2016-01-19T08:58:47.630Z</time>
      </trkpt>
      <trkpt lat="46.00316" lon="6.55423">
        <ele>1633.7800064</ele>
        <time>2016-01-19T08:58:50.630Z</time>
      </trkpt>
      <trkpt lat="46.00314" lon="6.55423">
        <ele>1635</ele>
        <time>2016-01-19T08:58:53.630Z</time>
      </trkpt>
      <trkpt lat="46.00312" lon="6.55423">
        <ele>1635</ele>
        <time>2016-01-19T08:58:56.630Z</time>
      </trkpt>
      <trkpt lat="46.0031" lon="6.55423">
        <ele>1638</ele>
        <time>2016-01-19T08:59:01.630Z</time>
      </trkpt>
      <trkpt lat="46.00307" lon="6.55423">
        <ele>1638</ele>
        <time>2016-01-19T08:59:06.630Z</time>
      </trkpt>
      <trkpt lat="46.00305" lon="6.55423">
        <ele>1638</ele>
        <time>2016-01-19T08:59:08.630Z</time>
      </trkpt>
      <trkpt lat="46.00303" lon="6.55422">
        <ele>1639</ele>
        <time>2016-01-19T08:59:11.630Z</time>
      </trkpt>
      <trkpt lat="46.00301" lon="6.55421">
        <ele>1639</ele>
        <time>2016-01-19T08:59:14.630Z</time>
      </trkpt>
      <trkpt lat="46.00299" lon="6.55419">
        <ele>1639</ele>
        <time>2016-01-19T08:59:17.630Z</time>
      </trkpt>
      <trkpt lat="46.00297" lon="6.55417">
        <ele>1639.7800064</ele>
        <time>2016-01-19T08:59:20.630Z</time>
      </trkpt>
      <trkpt lat="46.00296" lon="6.55415">
        <ele>1641</ele>
        <time>2016-01-19T08:59:25.630Z</time>
      </trkpt>
      <trkpt lat="46.00294" lon="6.55413">
        <ele>1641</ele>
        <time>2016-01-19T08:59:28.630Z</time>
      </trkpt>
      <trkpt lat="46.00292" lon="6.55412">
        <ele>1641.7800064</ele>
        <time>2016-01-19T08:59:30.630Z</time>
      </trkpt>
      <trkpt lat="46.0029" lon="6.55409">
        <ele>1643</ele>
        <time>2016-01-19T08:59:33.630Z</time>
      </trkpt>
      <trkpt lat="46.00289" lon="6.55407">
        <ele>1643</ele>
        <time>2016-01-19T08:59:36.630Z</time>
      </trkpt>
      <trkpt lat="46.00287" lon="6.55405">
        <ele>1643</ele>
        <time>2016-01-19T08:59:39.630Z</time>
      </trkpt>
      <trkpt lat="46.00286" lon="6.55403">
        <ele>1644</ele>
        <time>2016-01-19T08:59:42.630Z</time>
      </trkpt>
      <trkpt lat="46.00284" lon="6.55401">
        <ele>1644</ele>
        <time>2016-01-19T08:59:46.630Z</time>
      </trkpt>
      <trkpt lat="46.00283" lon="6.55399">
        <ele>1644</ele>
        <time>2016-01-19T08:59:49.630Z</time>
      </trkpt>
      <trkpt lat="46.00281" lon="6.55397">
        <ele>1646</ele>
        <time>2016-01-19T08:59:52.630Z</time>
      </trkpt>
      <trkpt lat="46.00279" lon="6.55396">
        <ele>1646</ele>
        <time>2016-01-19T08:59:55.630Z</time>
      </trkpt>
      <trkpt lat="46.00277" lon="6.55394">
        <ele>1646</ele>
        <time>2016-01-19T08:59:58.630Z</time>
      </trkpt>
      <trkpt lat="46.00276" lon="6.55392">
        <ele>1646.7800064</ele>
        <time>2016-01-19T09:00:01.630Z</time>
      </trkpt>
      <trkpt lat="46.00274" lon="6.5539">
        <ele>1648</ele>
        <time>2016-01-19T09:00:04.630Z</time>
      </trkpt>
      <trkpt lat="46.00273" lon="6.55388">
        <ele>1648</ele>
        <time>2016-01-19T09:00:07.630Z</time>
      </trkpt>
      <trkpt lat="46.0027" lon="6.55385">
        <ele>1650</ele>
        <time>2016-01-19T09:00:12.630Z</time>
      </trkpt>
      <trkpt lat="46.00269" lon="6.55384">
        <ele>1650</ele>
        <time>2016-01-19T09:00:15.630Z</time>
      </trkpt>
      <trkpt lat="46.00267" lon="6.55382">
        <ele>1649</ele>
        <time>2016-01-19T09:00:18.630Z</time>
      </trkpt>
      <trkpt lat="46.00264" lon="6.55382">
        <ele>1649.2846143243</ele>
        <time>2016-01-19T09:00:21.630Z</time>
      </trkpt>
      <trkpt lat="46.00262" lon="6.55381">
        <ele>1650</ele>
        <time>2016-01-19T09:00:24.630Z</time>
      </trkpt>
      <trkpt lat="46.0026" lon="6.55381">
        <ele>1650</ele>
        <time>2016-01-19T09:00:27.630Z</time>
      </trkpt>
      <trkpt lat="46.00258" lon="6.55381">
        <ele>1650</ele>
        <time>2016-01-19T09:00:30.630Z</time>
      </trkpt>
      <trkpt lat="46.00256" lon="6.55382">
        <ele>1652</ele>
        <time>2016-01-19T09:00:33.630Z</time>
      </trkpt>
      <trkpt lat="46.00254" lon="6.55382">
        <ele>1652</ele>
        <time>2016-01-19T09:00:36.630Z</time>
      </trkpt>
      <trkpt lat="46.00252" lon="6.55382">
        <ele>1652</ele>
        <time>2016-01-19T09:00:39.630Z</time>
      </trkpt>
      <trkpt lat="46.0025" lon="6.55381">
        <ele>1654</ele>
        <time>2016-01-19T09:00:42.630Z</time>
      </trkpt>
      <trkpt lat="46.00248" lon="6.55381">
        <ele>1654</ele>
        <time>2016-01-19T09:00:45.630Z</time>
      </trkpt>
      <trkpt lat="46.00246" lon="6.55381">
        <ele>1654</ele>
        <time>2016-01-19T09:00:48.630Z</time>
      </trkpt>
      <trkpt lat="46.00244" lon="6.55381">
        <ele>1654.3900032</ele>
        <time>2016-01-19T09:00:51.630Z</time>
      </trkpt>
      <trkpt lat="46.00241" lon="6.5538">
        <ele>1655</ele>
        <time>2016-01-19T09:00:54.630Z</time>
      </trkpt>
      <trkpt lat="46.00239" lon="6.55379">
        <ele>1655</ele>
        <time>2016-01-19T09:00:56.630Z</time>
      </trkpt>
      <trkpt lat="46.00237" lon="6.55378">
        <ele>1655</ele>
        <time>2016-01-19T09:00:59.630Z</time>
      </trkpt>
      <trkpt lat="46.00234" lon="6.55377">
        <ele>1656</ele>
        <time>2016-01-19T09:01:02.630Z</time>
      </trkpt>
      <trkpt lat="46.00232" lon="6.55376">
        <ele>1656</ele>
        <time>2016-01-19T09:01:04.630Z</time>
      </trkpt>
      <trkpt lat="46.0023" lon="6.55375">
        <ele>1656</ele>
        <time>2016-01-19T09:01:06.630Z</time>
      </trkpt>
      <trkpt lat="46.00228" lon="6.55374">
        <ele>1656</ele>
        <time>2016-01-19T09:01:08.630Z</time>
      </trkpt>
      <trkpt lat="46.00226" lon="6.55373">
        <ele>1656</ele>
        <time>2016-01-19T09:01:11.630Z</time>
      </trkpt>
      <trkpt lat="46.00224" lon="6.55371">
        <ele>1656</ele>
        <time>2016-01-19T09:01:13.630Z</time>
      </trkpt>
      <trkpt lat="46.00222" lon="6.5537">
        <ele>1656</ele>
        <time>2016-01-19T09:01:15.630Z</time>
      </trkpt>
      <trkpt lat="46.0022" lon="6.55369">
        <ele>1656</ele>
        <time>2016-01-19T09:01:18.630Z</time>
      </trkpt>
      <trkpt lat="46.00218" lon="6.55369">
        <ele>1656.3900032</ele>
        <time>2016-01-19T09:01:21.630Z</time>
      </trkpt>
      <trkpt lat="46.00216" lon="6.55368">
        <ele>1657</ele>
        <time>2016-01-19T09:01:23.630Z</time>
      </trkpt>
      <trkpt lat="46.00214" lon="6.55367">
        <ele>1657</ele>
        <time>2016-01-19T09:01:26.630Z</time>
      </trkpt>
      <trkpt lat="46.00212" lon="6.55365">
        <ele>1657</ele>
        <time>2016-01-19T09:01:29.630Z</time>
      </trkpt>
      <trkpt lat="46.0021" lon="6.55363">
        <ele>1659</ele>
        <time>2016-01-19T09:01:33.630Z</time>
      </trkpt>
      <trkpt lat="46.00208" lon="6.55361">
        <ele>1659</ele>
        <time>2016-01-19T09:01:36.630Z</time>
      </trkpt>
      <trkpt lat="46.00206" lon="6.55359">
        <ele>1659</ele>
        <time>2016-01-19T09:01:39.630Z</time>
      </trkpt>
      <trkpt lat="46.00205" lon="6.55358">
        <ele>1660</ele>
        <time>2016-01-19T09:01:42.630Z</time>
      </trkpt>
      <trkpt lat="46.00203" lon="6.55356">
        <ele>1660</ele>
        <time>2016-01-19T09:01:45.630Z</time>
      </trkpt>
      <trkpt lat="46.00201" lon="6.55354">
        <ele>1660</ele>
        <time>2016-01-19T09:01:49.630Z</time>
      </trkpt>
      <trkpt lat="46.00199" lon="6.55351">
        <ele>1661</ele>
        <time>2016-01-19T09:01:54.630Z</time>
      </trkpt>
      <trkpt lat="46.00196" lon="6.55349">
        <ele>1661</ele>
        <time>2016-01-19T09:01:57.630Z</time>
      </trkpt>
      <trkpt lat="46.00195" lon="6.55348">
        <ele>1661</ele>
        <time>2016-01-19T09:01:59.630Z</time>
      </trkpt>
      <trkpt lat="46.00193" lon="6.55347">
        <ele>1662</ele>
        <time>2016-01-19T09:02:02.630Z</time>
      </trkpt>
      <trkpt lat="46.00191" lon="6.55346">
        <ele>1662</ele>
        <time>2016-01-19T09:02:05.630Z</time>
      </trkpt>
      <trkpt lat="46.00188" lon="6.55344">
        <ele>1662</ele>
        <time>2016-01-19T09:02:08.630Z</time>
      </trkpt>
      <trkpt lat="46.00186" lon="6.55343">
        <ele>1664</ele>
        <time>2016-01-19T09:02:11.630Z</time>
      </trkpt>
      <trkpt lat="46.00184" lon="6.55341">
        <ele>1664</ele>
        <time>2016-01-19T09:02:14.630Z</time>
      </trkpt>
      <trkpt lat="46.00182" lon="6.5534">
        <ele>1664</ele>
        <time>2016-01-19T09:02:16.630Z</time>
      </trkpt>
      <trkpt lat="46.00181" lon="6.55339">
        <ele>1664</ele>
        <time>2016-01-19T09:02:18.630Z</time>
      </trkpt>
      <trkpt lat="46.00179" lon="6.55338">
        <ele>1666</ele>
        <time>2016-01-19T09:02:21.630Z</time>
      </trkpt>
      <trkpt lat="46.00176" lon="6.55337">
        <ele>1666</ele>
        <time>2016-01-19T09:02:24.630Z</time>
      </trkpt>
      <trkpt lat="46.00174" lon="6.55336">
        <ele>1666</ele>
        <time>2016-01-19T09:02:27.630Z</time>
      </trkpt>
      <trkpt lat="46.00172" lon="6.55335">
        <ele>1666</ele>
        <time>2016-01-19T09:02:29.630Z</time>
      </trkpt>
      <trkpt lat="46.0017" lon="6.55334">
        <ele>1667</ele>
        <time>2016-01-19T09:02:32.630Z</time>
      </trkpt>
      <trkpt lat="46.00168" lon="6.55333">
        <ele>1667</ele>
        <time>2016-01-19T09:02:35.630Z</time>
      </trkpt>
      <trkpt lat="46.00166" lon="6.55333">
        <ele>1667</ele>
        <time>2016-01-19T09:02:38.630Z</time>
      </trkpt>
      <trkpt lat="46.00163" lon="6.55332">
        <ele>1668</ele>
        <time>2016-01-19T09:02:41.630Z</time>
      </trkpt>
      <trkpt lat="46.00161" lon="6.55332">
        <ele>1668</ele>
        <time>2016-01-19T09:02:44.630Z</time>
      </trkpt>
      <trkpt lat="46.00159" lon="6.55331">
        <ele>1668</ele>
        <time>2016-01-19T09:02:46.630Z</time>
      </trkpt>
      <trkpt lat="46.00157" lon="6.5533">
        <ele>1668</ele>
        <time>2016-01-19T09:02:49.630Z</time>
      </trkpt>
      <trkpt lat="46.00155" lon="6.55328">
        <ele>1670</ele>
        <time>2016-01-19T09:02:52.630Z</time>
      </trkpt>
      <trkpt lat="46.00153" lon="6.55328">
        <ele>1670</ele>
        <time>2016-01-19T09:02:55.630Z</time>
      </trkpt>
      <trkpt lat="46.0015" lon="6.55328">
        <ele>1670</ele>
        <time>2016-01-19T09:02:58.630Z</time>
      </trkpt>
      <trkpt lat="46.00148" lon="6.55328">
        <ele>1671</ele>
        <time>2016-01-19T09:03:01.630Z</time>
      </trkpt>
      <trkpt lat="46.00146" lon="6.5533">
        <ele>1671</ele>
        <time>2016-01-19T09:03:04.630Z</time>
      </trkpt>
      <trkpt lat="46.00146" lon="6.55333">
        <ele>1671</ele>
        <time>2016-01-19T09:03:08.630Z</time>
      </trkpt>
      <trkpt lat="46.00147" lon="6.55336">
        <ele>1672</ele>
        <time>2016-01-19T09:03:11.630Z</time>
      </trkpt>
      <trkpt lat="46.00148" lon="6.55339">
        <ele>1672</ele>
        <time>2016-01-19T09:03:15.630Z</time>
      </trkpt>
      <trkpt lat="46.00149" lon="6.55341">
        <ele>1672</ele>
        <time>2016-01-19T09:03:18.630Z</time>
      </trkpt>
      <trkpt lat="46.00151" lon="6.55343">
        <ele>1672.7800064</ele>
        <time>2016-01-19T09:03:20.630Z</time>
      </trkpt>
      <trkpt lat="46.00153" lon="6.55345">
        <ele>1674</ele>
        <time>2016-01-19T09:03:23.630Z</time>
      </trkpt>
      <trkpt lat="46.00155" lon="6.55346">
        <ele>1674</ele>
        <time>2016-01-19T09:03:26.630Z</time>
      </trkpt>
      <trkpt lat="46.00155" lon="6.55349">
        <ele>1674</ele>
        <time>2016-01-19T09:03:29.630Z</time>
      </trkpt>
      <trkpt lat="46.00156" lon="6.55351">
        <ele>1676</ele>
        <time>2016-01-19T09:03:32.630Z</time>
      </trkpt>
      <trkpt lat="46.00158" lon="6.55355">
        <ele>1676</ele>
        <time>2016-01-19T09:03:35.630Z</time>
      </trkpt>
      <trkpt lat="46.00159" lon="6.55358">
        <ele>1676</ele>
        <time>2016-01-19T09:03:38.630Z</time>
      </trkpt>
      <trkpt lat="46.0016" lon="6.55362">
        <ele>1677</ele>
        <time>2016-01-19T09:03:41.630Z</time>
      </trkpt>
      <trkpt lat="46.00162" lon="6.55364">
        <ele>1677</ele>
        <time>2016-01-19T09:03:44.630Z</time>
      </trkpt>
      <trkpt lat="46.00162" lon="6.55367">
        <ele>1677</ele>
        <time>2016-01-19T09:03:47.630Z</time>
      </trkpt>
      <trkpt lat="46.00163" lon="6.5537">
        <ele>1677.5909139394</ele>
        <time>2016-01-19T09:03:50.630Z</time>
      </trkpt>
      <trkpt lat="46.00164" lon="6.55372">
        <ele>1679</ele>
        <time>2016-01-19T09:03:52.630Z</time>
      </trkpt>
      <trkpt lat="46.00165" lon="6.55375">
        <ele>1679</ele>
        <time>2016-01-19T09:03:54.630Z</time>
      </trkpt>
      <trkpt lat="46.00166" lon="6.55377">
        <ele>1679</ele>
        <time>2016-01-19T09:03:56.630Z</time>
      </trkpt>
      <trkpt lat="46.00167" lon="6.5538">
        <ele>1679</ele>
        <time>2016-01-19T09:03:59.630Z</time>
      </trkpt>
      <trkpt lat="46.00168" lon="6.55383">
        <ele>1679</ele>
        <time>2016-01-19T09:04:02.630Z</time>
      </trkpt>
      <trkpt lat="46.00169" lon="6.55386">
        <ele>1679</ele>
        <time>2016-01-19T09:04:05.630Z</time>
      </trkpt>
      <trkpt lat="46.0017" lon="6.55388">
        <ele>1679</ele>
        <time>2016-01-19T09:04:08.630Z</time>
      </trkpt>
      <trkpt lat="46.00171" lon="6.55391">
        <ele>1681</ele>
        <time>2016-01-19T09:04:11.630Z</time>
      </trkpt>
      <trkpt lat="46.00172" lon="6.55394">
        <ele>1681</ele>
        <time>2016-01-19T09:04:14.630Z</time>
      </trkpt>
      <trkpt lat="46.00173" lon="6.55396">
        <ele>1681</ele>
        <time>2016-01-19T09:04:17.630Z</time>
      </trkpt>
      <trkpt lat="46.00174" lon="6.55398">
        <ele>1681.3900032</ele>
        <time>2016-01-19T09:04:20.630Z</time>
      </trkpt>
      <trkpt lat="46.00176" lon="6.55401">
        <ele>1682</ele>
        <time>2016-01-19T09:04:23.630Z</time>
      </trkpt>
      <trkpt lat="46.00177" lon="6.55403">
        <ele>1682</ele>
        <time>2016-01-19T09:04:26.630Z</time>
      </trkpt>
      <trkpt lat="46.00178" lon="6.55407">
        <ele>1682</ele>
        <time>2016-01-19T09:04:29.630Z</time>
      </trkpt>
      <trkpt lat="46.00179" lon="6.5541">
        <ele>1683</ele>
        <time>2016-01-19T09:04:32.630Z</time>
      </trkpt>
      <trkpt lat="46.0018" lon="6.55412">
        <ele>1683</ele>
        <time>2016-01-19T09:04:35.630Z</time>
      </trkpt>
      <trkpt lat="46.00181" lon="6.55415">
        <ele>1683</ele>
        <time>2016-01-19T09:04:38.630Z</time>
      </trkpt>
      <trkpt lat="46.00182" lon="6.55418">
        <ele>1684</ele>
        <time>2016-01-19T09:04:41.630Z</time>
      </trkpt>
      <trkpt lat="46.00183" lon="6.55421">
        <ele>1684</ele>
        <time>2016-01-19T09:04:44.630Z</time>
      </trkpt>
      <trkpt lat="46.00185" lon="6.55424">
        <ele>1684</ele>
        <time>2016-01-19T09:04:47.630Z</time>
      </trkpt>
      <trkpt lat="46.00186" lon="6.55427">
        <ele>1684.7800064</ele>
        <time>2016-01-19T09:04:50.630Z</time>
      </trkpt>
      <trkpt lat="46.00187" lon="6.5543">
        <ele>1686</ele>
        <time>2016-01-19T09:04:54.630Z</time>
      </trkpt>
      <trkpt lat="46.00189" lon="6.55433">
        <ele>1687</ele>
        <time>2016-01-19T09:04:57.630Z</time>
      </trkpt>
      <trkpt lat="46.0019" lon="6.55435">
        <ele>1687</ele>
        <time>2016-01-19T09:05:01.630Z</time>
      </trkpt>
      <trkpt lat="46.00192" lon="6.55437">
        <ele>1687</ele>
        <time>2016-01-19T09:05:04.630Z</time>
      </trkpt>
      <trkpt lat="46.00194" lon="6.55438">
        <ele>1687</ele>
        <time>2016-01-19T09:05:07.630Z</time>
      </trkpt>
      <trkpt lat="46.00196" lon="6.5544">
        <ele>1687.7800064</ele>
        <time>2016-01-19T09:05:10.630Z</time>
      </trkpt>
      <trkpt lat="46.00198" lon="6.55441">
        <ele>1689</ele>
        <time>2016-01-19T09:05:13.630Z</time>
      </trkpt>
      <trkpt lat="46.00199" lon="6.55443">
        <ele>1689</ele>
        <time>2016-01-19T09:05:16.630Z</time>
      </trkpt>
      <trkpt lat="46.00201" lon="6.55446">
        <ele>1689.3900032</ele>
        <time>2016-01-19T09:05:20.630Z</time>
      </trkpt>
      <trkpt lat="46.00202" lon="6.55449">
        <ele>1690</ele>
        <time>2016-01-19T09:05:23.630Z</time>
      </trkpt>
      <trkpt lat="46.00202" lon="6.55452">
        <ele>1690</ele>
        <time>2016-01-19T09:05:26.630Z</time>
      </trkpt>
      <trkpt lat="46.00202" lon="6.55455">
        <ele>1690</ele>
        <time>2016-01-19T09:05:29.630Z</time>
      </trkpt>
      <trkpt lat="46.00201" lon="6.55458">
        <ele>1692</ele>
        <time>2016-01-19T09:05:31.630Z</time>
      </trkpt>
      <trkpt lat="46.00199" lon="6.5546">
        <ele>1692</ele>
        <time>2016-01-19T09:05:34.630Z</time>
      </trkpt>
      <trkpt lat="46.00197" lon="6.55461">
        <ele>1692</ele>
        <time>2016-01-19T09:05:37.630Z</time>
      </trkpt>
      <trkpt lat="46.00195" lon="6.55463">
        <ele>1692.3900032</ele>
        <time>2016-01-19T09:05:40.630Z</time>
      </trkpt>
      <trkpt lat="46.00193" lon="6.55463">
        <ele>1693</ele>
        <time>2016-01-19T09:05:42.630Z</time>
      </trkpt>
      <trkpt lat="46.00191" lon="6.55463">
        <ele>1693</ele>
        <time>2016-01-19T09:05:44.630Z</time>
      </trkpt>
      <trkpt lat="46.00189" lon="6.55463">
        <ele>1693</ele>
        <time>2016-01-19T09:05:46.630Z</time>
      </trkpt>
      <trkpt lat="46.00187" lon="6.55462">
        <ele>1693</ele>
        <time>2016-01-19T09:05:49.630Z</time>
      </trkpt>
      <trkpt lat="46.00185" lon="6.55462">
        <ele>1695</ele>
        <time>2016-01-19T09:05:52.630Z</time>
      </trkpt>
      <trkpt lat="46.00183" lon="6.55461">
        <ele>1695</ele>
        <time>2016-01-19T09:05:55.630Z</time>
      </trkpt>
      <trkpt lat="46.00181" lon="6.55461">
        <ele>1695</ele>
        <time>2016-01-19T09:05:58.630Z</time>
      </trkpt>
      <trkpt lat="46.00179" lon="6.5546">
        <ele>1697</ele>
        <time>2016-01-19T09:06:01.630Z</time>
      </trkpt>
      <trkpt lat="46.00177" lon="6.55461">
        <ele>1697</ele>
        <time>2016-01-19T09:06:04.630Z</time>
      </trkpt>
      <trkpt lat="46.00174" lon="6.55462">
        <ele>1697</ele>
        <time>2016-01-19T09:06:07.630Z</time>
      </trkpt>
      <trkpt lat="46.00172" lon="6.55462">
        <ele>1697.3823536793</ele>
        <time>2016-01-19T09:06:10.630Z</time>
      </trkpt>
      <trkpt lat="46.0017" lon="6.55463">
        <ele>1698</ele>
        <time>2016-01-19T09:06:12.630Z</time>
      </trkpt>
      <trkpt lat="46.00168" lon="6.55463">
        <ele>1698</ele>
        <time>2016-01-19T09:06:16.630Z</time>
      </trkpt>
      <trkpt lat="46.00166" lon="6.55464">
        <ele>1698</ele>
        <time>2016-01-19T09:06:18.630Z</time>
      </trkpt>
      <trkpt lat="46.00164" lon="6.55464">
        <ele>1699</ele>
        <time>2016-01-19T09:06:21.630Z</time>
      </trkpt>
      <trkpt lat="46.00162" lon="6.55463">
        <ele>1699</ele>
        <time>2016-01-19T09:06:24.630Z</time>
      </trkpt>
      <trkpt lat="46.0016" lon="6.55462">
        <ele>1699</ele>
        <time>2016-01-19T09:06:26.630Z</time>
      </trkpt>
      <trkpt lat="46.00158" lon="6.55461">
        <ele>1699</ele>
        <time>2016-01-19T09:06:28.630Z</time>
      </trkpt>
      <trkpt lat="46.00156" lon="6.55459">
        <ele>1699</ele>
        <time>2016-01-19T09:06:31.630Z</time>
      </trkpt>
      <trkpt lat="46.00154" lon="6.55458">
        <ele>1699</ele>
        <time>2016-01-19T09:06:33.630Z</time>
      </trkpt>
      <trkpt lat="46.00152" lon="6.55456">
        <ele>1699</ele>
        <time>2016-01-19T09:06:35.630Z</time>
      </trkpt>
      <trkpt lat="46.0015" lon="6.55455">
        <ele>1699</ele>
        <time>2016-01-19T09:06:38.630Z</time>
      </trkpt>
      <trkpt lat="46.00148" lon="6.55453">
        <ele>1701</ele>
        <time>2016-01-19T09:06:41.630Z</time>
      </trkpt>
      <trkpt lat="46.00145" lon="6.55452">
        <ele>1701</ele>
        <time>2016-01-19T09:06:45.630Z</time>
      </trkpt>
      <trkpt lat="46.00142" lon="6.55451">
        <ele>1701</ele>
        <time>2016-01-19T09:06:48.630Z</time>
      </trkpt>
      <trkpt lat="46.0014" lon="6.5545">
        <ele>1701.3900032</ele>
        <time>2016-01-19T09:06:50.630Z</time>
      </trkpt>
      <trkpt lat="46.00138" lon="6.5545">
        <ele>1702</ele>
        <time>2016-01-19T09:06:52.630Z</time>
      </trkpt>
      <trkpt lat="46.00136" lon="6.5545">
        <ele>1702</ele>
        <time>2016-01-19T09:06:55.630Z</time>
      </trkpt>
      <trkpt lat="46.00134" lon="6.55449">
        <ele>1702</ele>
        <time>2016-01-19T09:06:58.630Z</time>
      </trkpt>
      <trkpt lat="46.00132" lon="6.55448">
        <ele>1702.2058917647</ele>
        <time>2016-01-19T09:07:01.630Z</time>
      </trkpt>
      <trkpt lat="46.0013" lon="6.55447">
        <ele>1704</ele>
        <time>2016-01-19T09:07:04.630Z</time>
      </trkpt>
      <trkpt lat="46.00127" lon="6.55446">
        <ele>1704</ele>
        <time>2016-01-19T09:07:07.630Z</time>
      </trkpt>
      <trkpt lat="46.00125" lon="6.55445">
        <ele>1704</ele>
        <time>2016-01-19T09:07:10.630Z</time>
      </trkpt>
      <trkpt lat="46.00123" lon="6.55445">
        <ele>1704</ele>
        <time>2016-01-19T09:07:13.630Z</time>
      </trkpt>
      <trkpt lat="46.00121" lon="6.55445">
        <ele>1704</ele>
        <time>2016-01-19T09:07:16.630Z</time>
      </trkpt>
      <trkpt lat="46.00119" lon="6.55443">
        <ele>1704</ele>
        <time>2016-01-19T09:07:19.630Z</time>
      </trkpt>
      <trkpt lat="46.00117" lon="6.55441">
        <ele>1704.7800064</ele>
        <time>2016-01-19T09:07:22.630Z</time>
      </trkpt>
      <trkpt lat="46.00115" lon="6.55439">
        <ele>1706</ele>
        <time>2016-01-19T09:07:24.630Z</time>
      </trkpt>
      <trkpt lat="46.00114" lon="6.55437">
        <ele>1706</ele>
        <time>2016-01-19T09:07:26.630Z</time>
      </trkpt>
      <trkpt lat="46.00113" lon="6.55434">
        <ele>1706</ele>
        <time>2016-01-19T09:07:28.630Z</time>
      </trkpt>
      <trkpt lat="46.00112" lon="6.55432">
        <ele>1706</ele>
        <time>2016-01-19T09:07:30.630Z</time>
      </trkpt>
      <trkpt lat="46.00111" lon="6.5543">
        <ele>1707</ele>
        <time>2016-01-19T09:07:32.630Z</time>
      </trkpt>
      <trkpt lat="46.0011" lon="6.55428">
        <ele>1707</ele>
        <time>2016-01-19T09:07:34.630Z</time>
      </trkpt>
      <trkpt lat="46.00108" lon="6.55426">
        <ele>1707</ele>
        <time>2016-01-19T09:07:36.630Z</time>
      </trkpt>
      <trkpt lat="46.00107" lon="6.55424">
        <ele>1707</ele>
        <time>2016-01-19T09:07:38.630Z</time>
      </trkpt>
      <trkpt lat="46.00106" lon="6.55422">
        <ele>1707</ele>
        <time>2016-01-19T09:07:40.630Z</time>
      </trkpt>
      <trkpt lat="46.00104" lon="6.55419">
        <ele>1708</ele>
        <time>2016-01-19T09:07:43.630Z</time>
      </trkpt>
      <trkpt lat="46.00103" lon="6.55416">
        <ele>1708</ele>
        <time>2016-01-19T09:07:46.630Z</time>
      </trkpt>
      <trkpt lat="46.00101" lon="6.55414">
        <ele>1708</ele>
        <time>2016-01-19T09:07:49.630Z</time>
      </trkpt>
      <trkpt lat="46.00099" lon="6.55412">
        <ele>1708</ele>
        <time>2016-01-19T09:07:52.630Z</time>
      </trkpt>
      <trkpt lat="46.00097" lon="6.5541">
        <ele>1708</ele>
        <time>2016-01-19T09:07:55.630Z</time>
      </trkpt>
      <trkpt lat="46.00095" lon="6.55409">
        <ele>1708</ele>
        <time>2016-01-19T09:07:58.630Z</time>
      </trkpt>
      <trkpt lat="46.00092" lon="6.55408">
        <ele>1709</ele>
        <time>2016-01-19T09:08:01.630Z</time>
      </trkpt>
      <trkpt lat="46.0009" lon="6.55408">
        <ele>1709</ele>
        <time>2016-01-19T09:08:04.630Z</time>
      </trkpt>
      <trkpt lat="46.00088" lon="6.55408">
        <ele>1709</ele>
        <time>2016-01-19T09:08:07.630Z</time>
      </trkpt>
      <trkpt lat="46.00085" lon="6.55407">
        <ele>1709.7647073587</ele>
        <time>2016-01-19T09:08:10.630Z</time>
      </trkpt>
      <trkpt lat="46.00083" lon="6.55406">
        <ele>1711</ele>
        <time>2016-01-19T09:08:13.630Z</time>
      </trkpt>
      <trkpt lat="46.00081" lon="6.55405">
        <ele>1712</ele>
        <time>2016-01-19T09:08:16.630Z</time>
      </trkpt>
      <trkpt lat="46.00079" lon="6.55404">
        <ele>1712</ele>
        <time>2016-01-19T09:08:19.630Z</time>
      </trkpt>
      <trkpt lat="46.00076" lon="6.55404">
        <ele>1712</ele>
        <time>2016-01-19T09:08:22.630Z</time>
      </trkpt>
      <trkpt lat="46.00074" lon="6.55403">
        <ele>1712</ele>
        <time>2016-01-19T09:08:25.630Z</time>
      </trkpt>
      <trkpt lat="46.00072" lon="6.55403">
        <ele>1712</ele>
        <time>2016-01-19T09:08:28.630Z</time>
      </trkpt>
      <trkpt lat="46.0007" lon="6.55402">
        <ele>1713</ele>
        <time>2016-01-19T09:08:31.630Z</time>
      </trkpt>
      <trkpt lat="46.00068" lon="6.55402">
        <ele>1713</ele>
        <time>2016-01-19T09:08:34.630Z</time>
      </trkpt>
      <trkpt lat="46.00066" lon="6.55401">
        <ele>1713</ele>
        <time>2016-01-19T09:08:37.630Z</time>
      </trkpt>
      <trkpt lat="46.00064" lon="6.55401">
        <ele>1713.3900032</ele>
        <time>2016-01-19T09:08:40.630Z</time>
      </trkpt>
      <trkpt lat="46.00061" lon="6.55401">
        <ele>1714</ele>
        <time>2016-01-19T09:08:43.630Z</time>
      </trkpt>
      <trkpt lat="46.00059" lon="6.554">
        <ele>1714</ele>
        <time>2016-01-19T09:08:46.630Z</time>
      </trkpt>
      <trkpt lat="46.00056" lon="6.554">
        <ele>1714</ele>
        <time>2016-01-19T09:08:49.630Z</time>
      </trkpt>
      <trkpt lat="46.00054" lon="6.55399">
        <ele>1716</ele>
        <time>2016-01-19T09:08:51.630Z</time>
      </trkpt>
      <trkpt lat="46.00052" lon="6.55399">
        <ele>1716</ele>
        <time>2016-01-19T09:08:54.630Z</time>
      </trkpt>
      <trkpt lat="46.0005" lon="6.55399">
        <ele>1716</ele>
        <time>2016-01-19T09:08:56.630Z</time>
      </trkpt>
      <trkpt lat="46.00048" lon="6.55399">
        <ele>1716</ele>
        <time>2016-01-19T09:08:58.630Z</time>
      </trkpt>
      <trkpt lat="46.00046" lon="6.55399">
        <ele>1716.2932361943</ele>
        <time>2016-01-19T09:09:00.630Z</time>
      </trkpt>
      <trkpt lat="46.00044" lon="6.55398">
        <ele>1717</ele>
        <time>2016-01-19T09:09:03.630Z</time>
      </trkpt>
      <trkpt lat="46.00042" lon="6.55397">
        <ele>1717</ele>
        <time>2016-01-19T09:09:05.630Z</time>
      </trkpt>
      <trkpt lat="46.0004" lon="6.55395">
        <ele>1717</ele>
        <time>2016-01-19T09:09:08.630Z</time>
      </trkpt>
      <trkpt lat="46.00038" lon="6.55394">
        <ele>1717</ele>
        <time>2016-01-19T09:09:10.630Z</time>
      </trkpt>
      <trkpt lat="46.00036" lon="6.55392">
        <ele>1717</ele>
        <time>2016-01-19T09:09:13.630Z</time>
      </trkpt>
      <trkpt lat="46.00034" lon="6.55391">
        <ele>1717</ele>
        <time>2016-01-19T09:09:15.630Z</time>
      </trkpt>
      <trkpt lat="46.00032" lon="6.5539">
        <ele>1717</ele>
        <time>2016-01-19T09:09:17.630Z</time>
      </trkpt>
      <trkpt lat="46.00031" lon="6.55389">
        <ele>1717</ele>
        <time>2016-01-19T09:09:19.630Z</time>
      </trkpt>
      <trkpt lat="46.00029" lon="6.55388">
        <ele>1718</ele>
        <time>2016-01-19T09:09:21.630Z</time>
      </trkpt>
      <trkpt lat="46.00027" lon="6.55387">
        <ele>1718</ele>
        <time>2016-01-19T09:09:23.630Z</time>
      </trkpt>
      <trkpt lat="46.00025" lon="6.55385">
        <ele>1718</ele>
        <time>2016-01-19T09:09:25.630Z</time>
      </trkpt>
      <trkpt lat="46.00023" lon="6.55384">
        <ele>1718</ele>
        <time>2016-01-19T09:09:27.630Z</time>
      </trkpt>
      <trkpt lat="46.00022" lon="6.55383">
        <ele>1718</ele>
        <time>2016-01-19T09:09:29.630Z</time>
      </trkpt>
      <trkpt lat="46.0002" lon="6.55382">
        <ele>1718</ele>
        <time>2016-01-19T09:09:31.630Z</time>
      </trkpt>
      <trkpt lat="46.00018" lon="6.55381">
        <ele>1718</ele>
        <time>2016-01-19T09:09:33.630Z</time>
      </trkpt>
      <trkpt lat="46.00016" lon="6.5538">
        <ele>1718</ele>
        <time>2016-01-19T09:09:35.630Z</time>
      </trkpt>
      <trkpt lat="46.00015" lon="6.55378">
        <ele>1718</ele>
        <time>2016-01-19T09:09:37.630Z</time>
      </trkpt>
      <trkpt lat="46.00013" lon="6.55377">
        <ele>1718</ele>
        <time>2016-01-19T09:09:39.630Z</time>
      </trkpt>
      <trkpt lat="46.00011" lon="6.55375">
        <ele>1718</ele>
        <time>2016-01-19T09:09:41.630Z</time>
      </trkpt>
      <trkpt lat="46.00009" lon="6.55374">
        <ele>1718</ele>
        <time>2016-01-19T09:09:43.630Z</time>
      </trkpt>
      <trkpt lat="46.00007" lon="6.55373">
        <ele>1718</ele>
        <time>2016-01-19T09:09:46.630Z</time>
      </trkpt>
      <trkpt lat="46.00005" lon="6.55371">
        <ele>1718</ele>
        <time>2016-01-19T09:09:48.630Z</time>
      </trkpt>
      <trkpt lat="46.00003" lon="6.5537">
        <ele>1718</ele>
        <time>2016-01-19T09:09:51.630Z</time>
      </trkpt>
      <trkpt lat="46.00001" lon="6.55368">
        <ele>1718</ele>
        <time>2016-01-19T09:09:54.630Z</time>
      </trkpt>
      <trkpt lat="45.99998" lon="6.55367">
        <ele>1718</ele>
        <time>2016-01-19T09:09:57.630Z</time>
      </trkpt>
      <trkpt lat="45.99996" lon="6.55365">
        <ele>1718</ele>
        <time>2016-01-19T09:10:00.630Z</time>
      </trkpt>
      <trkpt lat="45.99994" lon="6.55363">
        <ele>1718</ele>
        <time>2016-01-19T09:10:03.630Z</time>
      </trkpt>
      <trkpt lat="45.99992" lon="6.55362">
        <ele>1718</ele>
        <time>2016-01-19T09:10:06.630Z</time>
      </trkpt>
      <trkpt lat="45.99989" lon="6.55361">
        <ele>1718</ele>
        <time>2016-01-19T09:10:09.630Z</time>
      </trkpt>
      <trkpt lat="45.99987" lon="6.5536">
        <ele>1720</ele>
        <time>2016-01-19T09:10:12.630Z</time>
      </trkpt>
      <trkpt lat="45.99985" lon="6.55358">
        <ele>1720</ele>
        <time>2016-01-19T09:10:15.630Z</time>
      </trkpt>
      <trkpt lat="45.99983" lon="6.55357">
        <ele>1720</ele>
        <time>2016-01-19T09:10:18.630Z</time>
      </trkpt>
      <trkpt lat="45.9998" lon="6.55356">
        <ele>1721</ele>
        <time>2016-01-19T09:10:21.630Z</time>
      </trkpt>
      <trkpt lat="45.99978" lon="6.55356">
        <ele>1721</ele>
        <time>2016-01-19T09:10:24.630Z</time>
      </trkpt>
      <trkpt lat="45.99976" lon="6.55355">
        <ele>1721</ele>
        <time>2016-01-19T09:10:27.630Z</time>
      </trkpt>
      <trkpt lat="45.99974" lon="6.55355">
        <ele>1721.2318851334</ele>
        <time>2016-01-19T09:10:30.630Z</time>
      </trkpt>
      <trkpt lat="45.99972" lon="6.55355">
        <ele>1723</ele>
        <time>2016-01-19T09:10:33.630Z</time>
      </trkpt>
      <trkpt lat="45.9997" lon="6.55355">
        <ele>1723</ele>
        <time>2016-01-19T09:10:36.630Z</time>
      </trkpt>
      <trkpt lat="45.99968" lon="6.55354">
        <ele>1723</ele>
        <time>2016-01-19T09:10:39.630Z</time>
      </trkpt>
      <trkpt lat="45.99965" lon="6.55353">
        <ele>1723</ele>
        <time>2016-01-19T09:10:42.630Z</time>
      </trkpt>
      <trkpt lat="45.99963" lon="6.55352">
        <ele>1723</ele>
        <time>2016-01-19T09:10:45.630Z</time>
      </trkpt>
      <trkpt lat="45.99961" lon="6.55352">
        <ele>1723</ele>
        <time>2016-01-19T09:10:48.630Z</time>
      </trkpt>
      <trkpt lat="45.99958" lon="6.55351">
        <ele>1723.7800064</ele>
        <time>2016-01-19T09:10:51.630Z</time>
      </trkpt>
      <trkpt lat="45.99956" lon="6.55351">
        <ele>1725</ele>
        <time>2016-01-19T09:10:54.630Z</time>
      </trkpt>
      <trkpt lat="45.99954" lon="6.55351">
        <ele>1725</ele>
        <time>2016-01-19T09:10:56.630Z</time>
      </trkpt>
      <trkpt lat="45.99952" lon="6.55352">
        <ele>1725</ele>
        <time>2016-01-19T09:10:58.630Z</time>
      </trkpt>
      <trkpt lat="45.99949" lon="6.55352">
        <ele>1725</ele>
        <time>2016-01-19T09:11:00.630Z</time>
      </trkpt>
      <trkpt lat="45.99947" lon="6.55351">
        <ele>1725</ele>
        <time>2016-01-19T09:11:02.630Z</time>
      </trkpt>
      <trkpt lat="45.99945" lon="6.55351">
        <ele>1725</ele>
        <time>2016-01-19T09:11:05.630Z</time>
      </trkpt>
      <trkpt lat="45.99943" lon="6.55351">
        <ele>1725</ele>
        <time>2016-01-19T09:11:08.630Z</time>
      </trkpt>
      <trkpt lat="45.9994" lon="6.55351">
        <ele>1727</ele>
        <time>2016-01-19T09:11:11.630Z</time>
      </trkpt>
      <trkpt lat="45.99938" lon="6.55352">
        <ele>1727</ele>
        <time>2016-01-19T09:11:14.630Z</time>
      </trkpt>
      <trkpt lat="45.99935" lon="6.55352">
        <ele>1727</ele>
        <time>2016-01-19T09:11:17.630Z</time>
      </trkpt>
      <trkpt lat="45.99933" lon="6.55352">
        <ele>1727</ele>
        <time>2016-01-19T09:11:19.630Z</time>
      </trkpt>
      <trkpt lat="45.99931" lon="6.55352">
        <ele>1728</ele>
        <time>2016-01-19T09:11:22.630Z</time>
      </trkpt>
      <trkpt lat="45.99929" lon="6.55352">
        <ele>1728</ele>
        <time>2016-01-19T09:11:24.630Z</time>
      </trkpt>
      <trkpt lat="45.99926" lon="6.55351">
        <ele>1728</ele>
        <time>2016-01-19T09:11:27.630Z</time>
      </trkpt>
      <trkpt lat="45.99923" lon="6.55351">
        <ele>1728</ele>
        <time>2016-01-19T09:11:30.630Z</time>
      </trkpt>
      <trkpt lat="45.99921" lon="6.55351">
        <ele>1728</ele>
        <time>2016-01-19T09:11:33.630Z</time>
      </trkpt>
      <trkpt lat="45.99918" lon="6.55351">
        <ele>1728</ele>
        <time>2016-01-19T09:11:36.630Z</time>
      </trkpt>
      <trkpt lat="45.99916" lon="6.55351">
        <ele>1728</ele>
        <time>2016-01-19T09:11:38.630Z</time>
      </trkpt>
      <trkpt lat="45.99914" lon="6.55351">
        <ele>1729</ele>
        <time>2016-01-19T09:11:41.630Z</time>
      </trkpt>
      <trkpt lat="45.99912" lon="6.5535">
        <ele>1729</ele>
        <time>2016-01-19T09:11:43.630Z</time>
      </trkpt>
      <trkpt lat="45.99909" lon="6.55349">
        <ele>1729</ele>
        <time>2016-01-19T09:11:46.630Z</time>
      </trkpt>
      <trkpt lat="45.99908" lon="6.55348">
        <ele>1729</ele>
        <time>2016-01-19T09:11:48.630Z</time>
      </trkpt>
      <trkpt lat="45.99905" lon="6.55348">
        <ele>1729.3900032</ele>
        <time>2016-01-19T09:11:50.630Z</time>
      </trkpt>
      <trkpt lat="45.99903" lon="6.55347">
        <ele>1730</ele>
        <time>2016-01-19T09:11:52.630Z</time>
      </trkpt>
      <trkpt lat="45.99901" lon="6.55347">
        <ele>1730</ele>
        <time>2016-01-19T09:11:54.630Z</time>
      </trkpt>
      <trkpt lat="45.99899" lon="6.55346">
        <ele>1730</ele>
        <time>2016-01-19T09:11:57.630Z</time>
      </trkpt>
      <trkpt lat="45.99896" lon="6.55346">
        <ele>1730</ele>
        <time>2016-01-19T09:12:00.630Z</time>
      </trkpt>
      <trkpt lat="45.99894" lon="6.55345">
        <ele>1730</ele>
        <time>2016-01-19T09:12:03.630Z</time>
      </trkpt>
      <trkpt lat="45.99892" lon="6.55345">
        <ele>1730</ele>
        <time>2016-01-19T09:12:33.630Z</time>
      </trkpt>
      <trkpt lat="45.99889" lon="6.55344">
        <ele>1730</ele>
        <time>2016-01-19T09:12:36.630Z</time>
      </trkpt>
      <trkpt lat="45.99887" lon="6.55343">
        <ele>1730</ele>
        <time>2016-01-19T09:12:39.630Z</time>
      </trkpt>
      <trkpt lat="45.99885" lon="6.55342">
        <ele>1731</ele>
        <time>2016-01-19T09:12:41.630Z</time>
      </trkpt>
      <trkpt lat="45.99883" lon="6.55341">
        <ele>1731</ele>
        <time>2016-01-19T09:12:43.630Z</time>
      </trkpt>
      <trkpt lat="45.99881" lon="6.5534">
        <ele>1731</ele>
        <time>2016-01-19T09:12:46.630Z</time>
      </trkpt>
      <trkpt lat="45.99878" lon="6.55339">
        <ele>1731</ele>
        <time>2016-01-19T09:12:49.630Z</time>
      </trkpt>
      <trkpt lat="45.99876" lon="6.5534">
        <ele>1732</ele>
        <time>2016-01-19T09:12:51.630Z</time>
      </trkpt>
      <trkpt lat="45.99875" lon="6.55339">
        <ele>1732</ele>
        <time>2016-01-19T09:12:53.630Z</time>
      </trkpt>
      <trkpt lat="45.99872" lon="6.55339">
        <ele>1732</ele>
        <time>2016-01-19T09:12:56.630Z</time>
      </trkpt>
      <trkpt lat="45.99869" lon="6.55339">
        <ele>1732</ele>
        <time>2016-01-19T09:12:58.630Z</time>
      </trkpt>
      <trkpt lat="45.99867" lon="6.55339">
        <ele>1732.3900032</ele>
        <time>2016-01-19T09:13:00.630Z</time>
      </trkpt>
      <trkpt lat="45.99866" lon="6.55339">
        <ele>1733</ele>
        <time>2016-01-19T09:13:02.630Z</time>
      </trkpt>
      <trkpt lat="45.99863" lon="6.55339">
        <ele>1733</ele>
        <time>2016-01-19T09:13:05.630Z</time>
      </trkpt>
      <trkpt lat="45.99861" lon="6.55338">
        <ele>1733</ele>
        <time>2016-01-19T09:13:07.630Z</time>
      </trkpt>
      <trkpt lat="45.99859" lon="6.55339">
        <ele>1733</ele>
        <time>2016-01-19T09:13:09.630Z</time>
      </trkpt>
      <trkpt lat="45.99857" lon="6.55339">
        <ele>1733</ele>
        <time>2016-01-19T09:13:11.630Z</time>
      </trkpt>
      <trkpt lat="45.99855" lon="6.5534">
        <ele>1733</ele>
        <time>2016-01-19T09:13:13.630Z</time>
      </trkpt>
      <trkpt lat="45.99853" lon="6.55339">
        <ele>1733</ele>
        <time>2016-01-19T09:13:15.630Z</time>
      </trkpt>
      <trkpt lat="45.99851" lon="6.55339">
        <ele>1733</ele>
        <time>2016-01-19T09:13:17.630Z</time>
      </trkpt>
      <trkpt lat="45.99848" lon="6.55339">
        <ele>1733</ele>
        <time>2016-01-19T09:13:19.630Z</time>
      </trkpt>
      <trkpt lat="45.99846" lon="6.55339">
        <ele>1733</ele>
        <time>2016-01-19T09:13:21.630Z</time>
      </trkpt>
      <trkpt lat="45.99844" lon="6.55339">
        <ele>1733</ele>
        <time>2016-01-19T09:13:23.630Z</time>
      </trkpt>
      <trkpt lat="45.99842" lon="6.55339">
        <ele>1733</ele>
        <time>2016-01-19T09:13:25.630Z</time>
      </trkpt>
      <trkpt lat="45.99839" lon="6.55338">
        <ele>1733</ele>
        <time>2016-01-19T09:13:27.630Z</time>
      </trkpt>
      <trkpt lat="45.99837" lon="6.55339">
        <ele>1733</ele>
        <time>2016-01-19T09:13:29.630Z</time>
      </trkpt>
      <trkpt lat="45.99835" lon="6.55339">
        <ele>1733</ele>
        <time>2016-01-19T09:13:31.630Z</time>
      </trkpt>
      <trkpt lat="45.99833" lon="6.5534">
        <ele>1733</ele>
        <time>2016-01-19T09:13:34.630Z</time>
      </trkpt>
      <trkpt lat="45.99831" lon="6.55341">
        <ele>1733</ele>
        <time>2016-01-19T09:13:36.630Z</time>
      </trkpt>
      <trkpt lat="45.99829" lon="6.55341">
        <ele>1733</ele>
        <time>2016-01-19T09:13:39.630Z</time>
      </trkpt>
      <trkpt lat="45.99827" lon="6.55341">
        <ele>1735</ele>
        <time>2016-01-19T09:13:42.630Z</time>
      </trkpt>
      <trkpt lat="45.99825" lon="6.55342">
        <ele>1735</ele>
        <time>2016-01-19T09:13:45.630Z</time>
      </trkpt>
      <trkpt lat="45.99823" lon="6.55343">
        <ele>1735</ele>
        <time>2016-01-19T09:13:48.630Z</time>
      </trkpt>
      <trkpt lat="45.99821" lon="6.55343">
        <ele>1736</ele>
        <time>2016-01-19T09:13:51.630Z</time>
      </trkpt>
      <trkpt lat="45.99819" lon="6.55344">
        <ele>1736</ele>
        <time>2016-01-19T09:13:54.630Z</time>
      </trkpt>
      <trkpt lat="45.99817" lon="6.55345">
        <ele>1736</ele>
        <time>2016-01-19T09:13:57.630Z</time>
      </trkpt>
      <trkpt lat="45.99816" lon="6.55346">
        <ele>1736</ele>
        <time>2016-01-19T09:14:00.630Z</time>
      </trkpt>
      <trkpt lat="45.99814" lon="6.55348">
        <ele>1737</ele>
        <time>2016-01-19T09:14:03.630Z</time>
      </trkpt>
      <trkpt lat="45.99812" lon="6.5535">
        <ele>1737</ele>
        <time>2016-01-19T09:14:06.630Z</time>
      </trkpt>
      <trkpt lat="45.9981" lon="6.55351">
        <ele>1737</ele>
        <time>2016-01-19T09:14:09.630Z</time>
      </trkpt>
      <trkpt lat="45.99808" lon="6.55352">
        <ele>1739</ele>
        <time>2016-01-19T09:14:12.630Z</time>
      </trkpt>
      <trkpt lat="45.99806" lon="6.55353">
        <ele>1739</ele>
        <time>2016-01-19T09:14:15.630Z</time>
      </trkpt>
      <trkpt lat="45.99804" lon="6.55354">
        <ele>1739</ele>
        <time>2016-01-19T09:14:18.630Z</time>
      </trkpt>
      <trkpt lat="45.99801" lon="6.55356">
        <ele>1741</ele>
        <time>2016-01-19T09:14:22.630Z</time>
      </trkpt>
      <trkpt lat="45.998" lon="6.55357">
        <ele>1741</ele>
        <time>2016-01-19T09:14:25.630Z</time>
      </trkpt>
      <trkpt lat="45.99798" lon="6.55358">
        <ele>1740</ele>
        <time>2016-01-19T09:15:18.630Z</time>
      </trkpt>
      <trkpt lat="45.99796" lon="6.55359">
        <ele>1741</ele>
        <time>2016-01-19T09:15:22.630Z</time>
      </trkpt>
      <trkpt lat="45.99794" lon="6.55361">
        <ele>1741</ele>
        <time>2016-01-19T09:15:25.630Z</time>
      </trkpt>
      <trkpt lat="45.99792" lon="6.55362">
        <ele>1741</ele>
        <time>2016-01-19T09:15:28.630Z</time>
      </trkpt>
      <trkpt lat="45.9979" lon="6.55364">
        <ele>1743</ele>
        <time>2016-01-19T09:15:32.630Z</time>
      </trkpt>
      <trkpt lat="45.99788" lon="6.55365">
        <ele>1743</ele>
        <time>2016-01-19T09:15:35.630Z</time>
      </trkpt>
      <trkpt lat="45.99786" lon="6.55367">
        <ele>1744</ele>
        <time>2016-01-19T09:15:45.630Z</time>
      </trkpt>
      <trkpt lat="45.99784" lon="6.55368">
        <ele>1744</ele>
        <time>2016-01-19T09:15:48.630Z</time>
      </trkpt>
      <trkpt lat="45.99782" lon="6.5537">
        <ele>1745</ele>
        <time>2016-01-19T09:15:51.630Z</time>
      </trkpt>
      <trkpt lat="45.9978" lon="6.55371">
        <ele>1745</ele>
        <time>2016-01-19T09:15:54.630Z</time>
      </trkpt>
      <trkpt lat="45.99777" lon="6.55372">
        <ele>1745</ele>
        <time>2016-01-19T09:15:57.630Z</time>
      </trkpt>
      <trkpt lat="45.99776" lon="6.55374">
        <ele>1745.7800064</ele>
        <time>2016-01-19T09:16:00.630Z</time>
      </trkpt>
      <trkpt lat="45.99774" lon="6.55375">
        <ele>1747</ele>
        <time>2016-01-19T09:16:03.630Z</time>
      </trkpt>
      <trkpt lat="45.99772" lon="6.55376">
        <ele>1747</ele>
        <time>2016-01-19T09:16:05.630Z</time>
      </trkpt>
      <trkpt lat="45.9977" lon="6.55378">
        <ele>1747</ele>
        <time>2016-01-19T09:16:08.630Z</time>
      </trkpt>
      <trkpt lat="45.99768" lon="6.55379">
        <ele>1749</ele>
        <time>2016-01-19T09:16:11.630Z</time>
      </trkpt>
      <trkpt lat="45.99769" lon="6.55381">
        <ele>1751</ele>
        <time>2016-01-19T09:16:21.630Z</time>
      </trkpt>
      <trkpt lat="45.99769" lon="6.55384">
        <ele>1751</ele>
        <time>2016-01-19T09:16:30.630Z</time>
      </trkpt>
      <trkpt lat="45.99767" lon="6.55386">
        <ele>1751</ele>
        <time>2016-01-19T09:16:33.630Z</time>
      </trkpt>
      <trkpt lat="45.99766" lon="6.55387">
        <ele>1751</ele>
        <time>2016-01-19T09:16:36.630Z</time>
      </trkpt>
      <trkpt lat="45.99764" lon="6.55389">
        <ele>1751</ele>
        <time>2016-01-19T09:16:39.630Z</time>
      </trkpt>
      <trkpt lat="45.99763" lon="6.5539">
        <ele>1752</ele>
        <time>2016-01-19T09:16:42.630Z</time>
      </trkpt>
      <trkpt lat="45.99761" lon="6.55392">
        <ele>1752</ele>
        <time>2016-01-19T09:16:45.630Z</time>
      </trkpt>
      <trkpt lat="45.99759" lon="6.55394">
        <ele>1752</ele>
        <time>2016-01-19T09:16:48.630Z</time>
      </trkpt>
      <trkpt lat="45.99757" lon="6.55396">
        <ele>1754</ele>
        <time>2016-01-19T09:16:52.630Z</time>
      </trkpt>
      <trkpt lat="45.99756" lon="6.55398">
        <ele>1754</ele>
        <time>2016-01-19T09:16:56.630Z</time>
      </trkpt>
      <trkpt lat="45.99754" lon="6.55401">
        <ele>1754.7800064</ele>
        <time>2016-01-19T09:17:00.630Z</time>
      </trkpt>
      <trkpt lat="45.99753" lon="6.55403">
        <ele>1756</ele>
        <time>2016-01-19T09:17:04.630Z</time>
      </trkpt>
      <trkpt lat="45.99752" lon="6.55406">
        <ele>1756</ele>
        <time>2016-01-19T09:17:08.630Z</time>
      </trkpt>
      <trkpt lat="45.9975" lon="6.55408">
        <ele>1758</ele>
        <time>2016-01-19T09:17:14.630Z</time>
      </trkpt>
      <trkpt lat="45.99749" lon="6.55411">
        <ele>1758</ele>
        <time>2016-01-19T09:17:18.630Z</time>
      </trkpt>
      <trkpt lat="45.99747" lon="6.55414">
        <ele>1760</ele>
        <time>2016-01-19T09:17:22.630Z</time>
      </trkpt>
      <trkpt lat="45.99749" lon="6.55416">
        <ele>1762</ele>
        <time>2016-01-19T09:17:31.630Z</time>
      </trkpt>
      <trkpt lat="45.99751" lon="6.55416">
        <ele>1762</ele>
        <time>2016-01-19T09:17:34.630Z</time>
      </trkpt>
      <trkpt lat="45.99753" lon="6.55417">
        <ele>1763</ele>
        <time>2016-01-19T09:17:37.630Z</time>
      </trkpt>
      <trkpt lat="45.99755" lon="6.55417">
        <ele>1763.3900032</ele>
        <time>2016-01-19T09:17:40.630Z</time>
      </trkpt>
      <trkpt lat="45.99756" lon="6.55418">
        <ele>1764</ele>
        <time>2016-01-19T09:17:43.630Z</time>
      </trkpt>
      <trkpt lat="45.99758" lon="6.55418">
        <ele>1764</ele>
        <time>2016-01-19T09:17:46.630Z</time>
      </trkpt>
      <trkpt lat="45.9976" lon="6.55419">
        <ele>1764</ele>
        <time>2016-01-19T09:17:49.630Z</time>
      </trkpt>
      <trkpt lat="45.99762" lon="6.5542">
        <ele>1765</ele>
        <time>2016-01-19T09:17:52.630Z</time>
      </trkpt>
      <trkpt lat="45.99765" lon="6.55421">
        <ele>1765</ele>
        <time>2016-01-19T09:17:55.630Z</time>
      </trkpt>
      <trkpt lat="45.99766" lon="6.55422">
        <ele>1765</ele>
        <time>2016-01-19T09:17:58.630Z</time>
      </trkpt>
      <trkpt lat="45.99768" lon="6.55423">
        <ele>1766</ele>
        <time>2016-01-19T09:18:01.630Z</time>
      </trkpt>
      <trkpt lat="45.9977" lon="6.55423">
        <ele>1766</ele>
        <time>2016-01-19T09:18:04.630Z</time>
      </trkpt>
      <trkpt lat="45.99772" lon="6.55424">
        <ele>1766</ele>
        <time>2016-01-19T09:18:07.630Z</time>
      </trkpt>
      <trkpt lat="45.99774" lon="6.55425">
        <ele>1767</ele>
        <time>2016-01-19T09:18:11.630Z</time>
      </trkpt>
      <trkpt lat="45.99776" lon="6.55426">
        <ele>1767</ele>
        <time>2016-01-19T09:18:14.630Z</time>
      </trkpt>
      <trkpt lat="45.99778" lon="6.55427">
        <ele>1767</ele>
        <time>2016-01-19T09:18:17.630Z</time>
      </trkpt>
      <trkpt lat="45.9978" lon="6.55429">
        <ele>1767.3900032</ele>
        <time>2016-01-19T09:18:20.630Z</time>
      </trkpt>
      <trkpt lat="45.99782" lon="6.5543">
        <ele>1768</ele>
        <time>2016-01-19T09:18:23.630Z</time>
      </trkpt>
      <trkpt lat="45.99783" lon="6.55431">
        <ele>1768</ele>
        <time>2016-01-19T09:18:26.630Z</time>
      </trkpt>
      <trkpt lat="45.99786" lon="6.55433">
        <ele>1768.7800064</ele>
        <time>2016-01-19T09:18:30.630Z</time>
      </trkpt>
      <trkpt lat="45.99787" lon="6.55434">
        <ele>1770</ele>
        <time>2016-01-19T09:18:33.630Z</time>
      </trkpt>
      <trkpt lat="45.99789" lon="6.55436">
        <ele>1770</ele>
        <time>2016-01-19T09:18:37.630Z</time>
      </trkpt>
      <trkpt lat="45.99791" lon="6.55438">
        <ele>1771</ele>
        <time>2016-01-19T09:18:41.630Z</time>
      </trkpt>
      <trkpt lat="45.99793" lon="6.55439">
        <ele>1771</ele>
        <time>2016-01-19T09:18:44.630Z</time>
      </trkpt>
      <trkpt lat="45.99794" lon="6.55441">
        <ele>1771</ele>
        <time>2016-01-19T09:18:47.630Z</time>
      </trkpt>
      <trkpt lat="45.99796" lon="6.55443">
        <ele>1771.7647073587</ele>
        <time>2016-01-19T09:18:50.630Z</time>
      </trkpt>
      <trkpt lat="45.99797" lon="6.55445">
        <ele>1773</ele>
        <time>2016-01-19T09:18:53.630Z</time>
      </trkpt>
      <trkpt lat="45.99797" lon="6.55448">
        <ele>1773</ele>
        <time>2016-01-19T09:18:58.630Z</time>
      </trkpt>
      <trkpt lat="45.99795" lon="6.55449">
        <ele>1774</ele>
        <time>2016-01-19T09:19:01.630Z</time>
      </trkpt>
      <trkpt lat="45.99793" lon="6.55451">
        <ele>1774</ele>
        <time>2016-01-19T09:19:06.630Z</time>
      </trkpt>
      <trkpt lat="45.9979" lon="6.55453">
        <ele>1774</ele>
        <time>2016-01-19T09:19:09.630Z</time>
      </trkpt>
      <trkpt lat="45.99789" lon="6.55454">
        <ele>1776</ele>
        <time>2016-01-19T09:19:12.630Z</time>
      </trkpt>
      <trkpt lat="45.99787" lon="6.55455">
        <ele>1776</ele>
        <time>2016-01-19T09:19:15.630Z</time>
      </trkpt>
      <trkpt lat="45.99785" lon="6.55457">
        <ele>1776</ele>
        <time>2016-01-19T09:19:18.630Z</time>
      </trkpt>
      <trkpt lat="45.99784" lon="6.55458">
        <ele>1778</ele>
        <time>2016-01-19T09:19:21.630Z</time>
      </trkpt>
      <trkpt lat="45.99782" lon="6.55459">
        <ele>1778</ele>
        <time>2016-01-19T09:19:24.630Z</time>
      </trkpt>
      <trkpt lat="45.9978" lon="6.55461">
        <ele>1778</ele>
        <time>2016-01-19T09:19:27.630Z</time>
      </trkpt>
      <trkpt lat="45.99778" lon="6.55462">
        <ele>1778.7572854143</ele>
        <time>2016-01-19T09:19:30.630Z</time>
      </trkpt>
      <trkpt lat="45.99777" lon="6.55463">
        <ele>1780</ele>
        <time>2016-01-19T09:19:33.630Z</time>
      </trkpt>
      <trkpt lat="45.99775" lon="6.55465">
        <ele>1780</ele>
        <time>2016-01-19T09:19:37.630Z</time>
      </trkpt>
      <trkpt lat="45.99772" lon="6.55466">
        <ele>1781</ele>
        <time>2016-01-19T09:19:41.630Z</time>
      </trkpt>
      <trkpt lat="45.99771" lon="6.55468">
        <ele>1781</ele>
        <time>2016-01-19T09:19:44.630Z</time>
      </trkpt>
      <trkpt lat="45.99769" lon="6.55469">
        <ele>1781</ele>
        <time>2016-01-19T09:19:48.630Z</time>
      </trkpt>
      <trkpt lat="45.99767" lon="6.5547">
        <ele>1782</ele>
        <time>2016-01-19T09:19:51.630Z</time>
      </trkpt>
      <trkpt lat="45.99765" lon="6.55471">
        <ele>1782</ele>
        <time>2016-01-19T09:19:54.630Z</time>
      </trkpt>
      <trkpt lat="45.99763" lon="6.55472">
        <ele>1782</ele>
        <time>2016-01-19T09:19:57.630Z</time>
      </trkpt>
      <trkpt lat="45.99762" lon="6.55474">
        <ele>1782.1159425667</ele>
        <time>2016-01-19T09:20:00.630Z</time>
      </trkpt>
      <trkpt lat="45.9976" lon="6.55475">
        <ele>1783</ele>
        <time>2016-01-19T09:20:03.630Z</time>
      </trkpt>
      <trkpt lat="45.99758" lon="6.55477">
        <ele>1783</ele>
        <time>2016-01-19T09:20:07.630Z</time>
      </trkpt>
      <trkpt lat="45.99756" lon="6.55478">
        <ele>1783.7800064</ele>
        <time>2016-01-19T09:20:10.630Z</time>
      </trkpt>
      <trkpt lat="45.99754" lon="6.5548">
        <ele>1785</ele>
        <time>2016-01-19T09:20:13.630Z</time>
      </trkpt>
      <trkpt lat="45.99753" lon="6.55481">
        <ele>1785</ele>
        <time>2016-01-19T09:20:16.630Z</time>
      </trkpt>
      <trkpt lat="45.99751" lon="6.55483">
        <ele>1785</ele>
        <time>2016-01-19T09:20:19.630Z</time>
      </trkpt>
      <trkpt lat="45.99749" lon="6.55484">
        <ele>1785</ele>
        <time>2016-01-19T09:20:22.630Z</time>
      </trkpt>
      <trkpt lat="45.99747" lon="6.55486">
        <ele>1785</ele>
        <time>2016-01-19T09:20:25.630Z</time>
      </trkpt>
      <trkpt lat="45.99746" lon="6.55487">
        <ele>1785</ele>
        <time>2016-01-19T09:20:28.630Z</time>
      </trkpt>
      <trkpt lat="45.99744" lon="6.55488">
        <ele>1787</ele>
        <time>2016-01-19T09:20:31.630Z</time>
      </trkpt>
      <trkpt lat="45.99742" lon="6.5549">
        <ele>1787</ele>
        <time>2016-01-19T09:20:34.630Z</time>
      </trkpt>
      <trkpt lat="45.9974" lon="6.55491">
        <ele>1787</ele>
        <time>2016-01-19T09:20:38.630Z</time>
      </trkpt>
      <trkpt lat="45.99738" lon="6.55492">
        <ele>1789</ele>
        <time>2016-01-19T09:20:42.630Z</time>
      </trkpt>
      <trkpt lat="45.99736" lon="6.55494">
        <ele>1790</ele>
        <time>2016-01-19T09:21:29.630Z</time>
      </trkpt>
      <trkpt lat="45.99734" lon="6.55496">
        <ele>1791</ele>
        <time>2016-01-19T09:21:32.630Z</time>
      </trkpt>
      <trkpt lat="45.99733" lon="6.55497">
        <ele>1791</ele>
        <time>2016-01-19T09:21:35.630Z</time>
      </trkpt>
      <trkpt lat="45.99732" lon="6.55499">
        <ele>1791</ele>
        <time>2016-01-19T09:21:38.630Z</time>
      </trkpt>
      <trkpt lat="45.9973" lon="6.55502">
        <ele>1793</ele>
        <time>2016-01-19T09:21:42.630Z</time>
      </trkpt>
      <trkpt lat="45.99729" lon="6.55504">
        <ele>1793</ele>
        <time>2016-01-19T09:21:45.630Z</time>
      </trkpt>
      <trkpt lat="45.99727" lon="6.55506">
        <ele>1793</ele>
        <time>2016-01-19T09:21:48.630Z</time>
      </trkpt>
      <trkpt lat="45.99726" lon="6.55508">
        <ele>1795</ele>
        <time>2016-01-19T09:21:51.630Z</time>
      </trkpt>
      <trkpt lat="45.99725" lon="6.5551">
        <ele>1795</ele>
        <time>2016-01-19T09:21:55.630Z</time>
      </trkpt>
      <trkpt lat="45.99723" lon="6.55512">
        <ele>1795</ele>
        <time>2016-01-19T09:21:58.630Z</time>
      </trkpt>
      <trkpt lat="45.99722" lon="6.55514">
        <ele>1796</ele>
        <time>2016-01-19T09:22:01.630Z</time>
      </trkpt>
      <trkpt lat="45.9972" lon="6.55516">
        <ele>1796</ele>
        <time>2016-01-19T09:22:05.630Z</time>
      </trkpt>
      <trkpt lat="45.99719" lon="6.55519">
        <ele>1796</ele>
        <time>2016-01-19T09:22:09.630Z</time>
      </trkpt>
      <trkpt lat="45.99717" lon="6.55521">
        <ele>1798</ele>
        <time>2016-01-19T09:22:13.630Z</time>
      </trkpt>
      <trkpt lat="45.99716" lon="6.55523">
        <ele>1798</ele>
        <time>2016-01-19T09:22:16.630Z</time>
      </trkpt>
      <trkpt lat="45.99714" lon="6.55524">
        <ele>1798</ele>
        <time>2016-01-19T09:22:19.630Z</time>
      </trkpt>
      <trkpt lat="45.99713" lon="6.55527">
        <ele>1801</ele>
        <time>2016-01-19T09:22:23.630Z</time>
      </trkpt>
      <trkpt lat="45.99711" lon="6.55529">
        <ele>1801</ele>
        <time>2016-01-19T09:22:26.630Z</time>
      </trkpt>
      <trkpt lat="45.99709" lon="6.55531">
        <ele>1801</ele>
        <time>2016-01-19T09:22:30.630Z</time>
      </trkpt>
      <trkpt lat="45.99708" lon="6.55533">
        <ele>1801</ele>
        <time>2016-01-19T09:22:34.630Z</time>
      </trkpt>
      <trkpt lat="45.99707" lon="6.55535">
        <ele>1801</ele>
        <time>2016-01-19T09:22:38.630Z</time>
      </trkpt>
      <trkpt lat="45.99707" lon="6.55538">
        <ele>1803</ele>
        <time>2016-01-19T09:22:46.630Z</time>
      </trkpt>
      <trkpt lat="45.99708" lon="6.55539">
        <ele>1803</ele>
        <time>2016-01-19T09:22:49.630Z</time>
      </trkpt>
      <trkpt lat="45.99711" lon="6.55541">
        <ele>1804</ele>
        <time>2016-01-19T09:22:57.630Z</time>
      </trkpt>
      <trkpt lat="45.99712" lon="6.55542">
        <ele>1805.1700096</ele>
        <time>2016-01-19T09:23:00.630Z</time>
      </trkpt>
      <trkpt lat="45.99714" lon="6.55543">
        <ele>1807</ele>
        <time>2016-01-19T09:23:03.630Z</time>
      </trkpt>
      <trkpt lat="45.99716" lon="6.55544">
        <ele>1807</ele>
        <time>2016-01-19T09:23:06.630Z</time>
      </trkpt>
      <trkpt lat="45.99718" lon="6.55546">
        <ele>1807</ele>
        <time>2016-01-19T09:23:09.630Z</time>
      </trkpt>
      <trkpt lat="45.9972" lon="6.55547">
        <ele>1807</ele>
        <time>2016-01-19T09:23:12.630Z</time>
      </trkpt>
      <trkpt lat="45.99722" lon="6.55548">
        <ele>1807</ele>
        <time>2016-01-19T09:23:15.630Z</time>
      </trkpt>
      <trkpt lat="45.99724" lon="6.55549">
        <ele>1807</ele>
        <time>2016-01-19T09:23:18.630Z</time>
      </trkpt>
      <trkpt lat="45.99725" lon="6.5555">
        <ele>1808</ele>
        <time>2016-01-19T09:23:21.630Z</time>
      </trkpt>
      <trkpt lat="45.99728" lon="6.55552">
        <ele>1808</ele>
        <time>2016-01-19T09:23:25.630Z</time>
      </trkpt>
      <trkpt lat="45.99729" lon="6.55553">
        <ele>1808</ele>
        <time>2016-01-19T09:23:28.630Z</time>
      </trkpt>
      <trkpt lat="45.99732" lon="6.55555">
        <ele>1809</ele>
        <time>2016-01-19T09:23:32.630Z</time>
      </trkpt>
      <trkpt lat="45.99734" lon="6.55556">
        <ele>1809</ele>
        <time>2016-01-19T09:23:35.630Z</time>
      </trkpt>
      <trkpt lat="45.99736" lon="6.55557">
        <ele>1809</ele>
        <time>2016-01-19T09:23:38.630Z</time>
      </trkpt>
      <trkpt lat="45.99738" lon="6.55558">
        <ele>1810</ele>
        <time>2016-01-19T09:23:41.630Z</time>
      </trkpt>
      <trkpt lat="45.9974" lon="6.55559">
        <ele>1810</ele>
        <time>2016-01-19T09:23:44.630Z</time>
      </trkpt>
      <trkpt lat="45.99742" lon="6.5556">
        <ele>1810</ele>
        <time>2016-01-19T09:23:47.630Z</time>
      </trkpt>
      <trkpt lat="45.99744" lon="6.55561">
        <ele>1810.3900032</ele>
        <time>2016-01-19T09:23:50.630Z</time>
      </trkpt>
      <trkpt lat="45.99746" lon="6.55562">
        <ele>1811</ele>
        <time>2016-01-19T09:23:53.630Z</time>
      </trkpt>
      <trkpt lat="45.99747" lon="6.55563">
        <ele>1811</ele>
        <time>2016-01-19T09:23:56.630Z</time>
      </trkpt>
      <trkpt lat="45.99749" lon="6.55564">
        <ele>1811</ele>
        <time>2016-01-19T09:23:59.630Z</time>
      </trkpt>
      <trkpt lat="45.99751" lon="6.55565">
        <ele>1812</ele>
        <time>2016-01-19T09:24:02.630Z</time>
      </trkpt>
      <trkpt lat="45.99753" lon="6.55566">
        <ele>1812</ele>
        <time>2016-01-19T09:24:05.630Z</time>
      </trkpt>
      <trkpt lat="45.99755" lon="6.55567">
        <ele>1812</ele>
        <time>2016-01-19T09:24:08.630Z</time>
      </trkpt>
      <trkpt lat="45.99757" lon="6.55568">
        <ele>1814</ele>
        <time>2016-01-19T09:24:11.630Z</time>
      </trkpt>
      <trkpt lat="45.99759" lon="6.55568">
        <ele>1814</ele>
        <time>2016-01-19T09:24:14.630Z</time>
      </trkpt>
      <trkpt lat="45.99761" lon="6.55569">
        <ele>1814</ele>
        <time>2016-01-19T09:24:17.630Z</time>
      </trkpt>
      <trkpt lat="45.99763" lon="6.5557">
        <ele>1814.3900032</ele>
        <time>2016-01-19T09:24:20.630Z</time>
      </trkpt>
      <trkpt lat="45.99764" lon="6.5557">
        <ele>1815</ele>
        <time>2016-01-19T09:24:23.630Z</time>
      </trkpt>
      <trkpt lat="45.99767" lon="6.55571">
        <ele>1815</ele>
        <time>2016-01-19T09:24:26.630Z</time>
      </trkpt>
      <trkpt lat="45.99769" lon="6.55572">
        <ele>1815</ele>
        <time>2016-01-19T09:24:29.630Z</time>
      </trkpt>
      <trkpt lat="45.99771" lon="6.55572">
        <ele>1816</ele>
        <time>2016-01-19T09:24:32.630Z</time>
      </trkpt>
      <trkpt lat="45.99773" lon="6.55573">
        <ele>1816</ele>
        <time>2016-01-19T09:24:35.630Z</time>
      </trkpt>
      <trkpt lat="45.99775" lon="6.55573">
        <ele>1816</ele>
        <time>2016-01-19T09:24:38.630Z</time>
      </trkpt>
      <trkpt lat="45.99777" lon="6.55574">
        <ele>1817</ele>
        <time>2016-01-19T09:24:41.630Z</time>
      </trkpt>
      <trkpt lat="45.99779" lon="6.55575">
        <ele>1817</ele>
        <time>2016-01-19T09:24:44.630Z</time>
      </trkpt>
      <trkpt lat="45.99783" lon="6.55576">
        <ele>1819</ele>
        <time>2016-01-19T09:25:38.630Z</time>
      </trkpt>
      <trkpt lat="45.99785" lon="6.55577">
        <ele>1820</ele>
        <time>2016-01-19T09:25:41.630Z</time>
      </trkpt>
      <trkpt lat="45.99787" lon="6.55578">
        <ele>1820</ele>
        <time>2016-01-19T09:25:44.630Z</time>
      </trkpt>
      <trkpt lat="45.99789" lon="6.55578">
        <ele>1820</ele>
        <time>2016-01-19T09:25:47.630Z</time>
      </trkpt>
      <trkpt lat="45.99792" lon="6.5558">
        <ele>1820.3900032</ele>
        <time>2016-01-19T09:25:50.630Z</time>
      </trkpt>
      <trkpt lat="45.99794" lon="6.55581">
        <ele>1821</ele>
        <time>2016-01-19T09:25:53.630Z</time>
      </trkpt>
      <trkpt lat="45.99796" lon="6.55582">
        <ele>1821</ele>
        <time>2016-01-19T09:25:56.630Z</time>
      </trkpt>
      <trkpt lat="45.99798" lon="6.55583">
        <ele>1821</ele>
        <time>2016-01-19T09:25:59.630Z</time>
      </trkpt>
      <trkpt lat="45.998" lon="6.55585">
        <ele>1822</ele>
        <time>2016-01-19T09:26:02.630Z</time>
      </trkpt>
      <trkpt lat="45.99802" lon="6.55586">
        <ele>1822</ele>
        <time>2016-01-19T09:26:05.630Z</time>
      </trkpt>
      <trkpt lat="45.99804" lon="6.55587">
        <ele>1822</ele>
        <time>2016-01-19T09:26:08.630Z</time>
      </trkpt>
      <trkpt lat="45.99806" lon="6.55588">
        <ele>1823</ele>
        <time>2016-01-19T09:26:11.630Z</time>
      </trkpt>
      <trkpt lat="45.99808" lon="6.5559">
        <ele>1823</ele>
        <time>2016-01-19T09:26:14.630Z</time>
      </trkpt>
      <trkpt lat="45.9981" lon="6.55591">
        <ele>1823</ele>
        <time>2016-01-19T09:26:17.630Z</time>
      </trkpt>
      <trkpt lat="45.99812" lon="6.55592">
        <ele>1823</ele>
        <time>2016-01-19T09:26:20.630Z</time>
      </trkpt>
      <trkpt lat="45.99814" lon="6.55593">
        <ele>1823</ele>
        <time>2016-01-19T09:26:23.630Z</time>
      </trkpt>
      <trkpt lat="45.99816" lon="6.55594">
        <ele>1823</ele>
        <time>2016-01-19T09:26:26.630Z</time>
      </trkpt>
      <trkpt lat="45.99818" lon="6.55595">
        <ele>1823</ele>
        <time>2016-01-19T09:26:29.630Z</time>
      </trkpt>
      <trkpt lat="45.9982" lon="6.55596">
        <ele>1825</ele>
        <time>2016-01-19T09:26:32.630Z</time>
      </trkpt>
      <trkpt lat="45.99822" lon="6.55598">
        <ele>1825</ele>
        <time>2016-01-19T09:26:35.630Z</time>
      </trkpt>
      <trkpt lat="45.99824" lon="6.55599">
        <ele>1825</ele>
        <time>2016-01-19T09:26:38.630Z</time>
      </trkpt>
      <trkpt lat="45.99826" lon="6.556">
        <ele>1826</ele>
        <time>2016-01-19T09:26:41.630Z</time>
      </trkpt>
      <trkpt lat="45.99828" lon="6.55601">
        <ele>1826</ele>
        <time>2016-01-19T09:26:44.630Z</time>
      </trkpt>
      <trkpt lat="45.9983" lon="6.55602">
        <ele>1826</ele>
        <time>2016-01-19T09:26:47.630Z</time>
      </trkpt>
      <trkpt lat="45.99832" lon="6.55603">
        <ele>1826.3900032</ele>
        <time>2016-01-19T09:26:50.630Z</time>
      </trkpt>
      <trkpt lat="45.99834" lon="6.55604">
        <ele>1827</ele>
        <time>2016-01-19T09:26:53.630Z</time>
      </trkpt>
      <trkpt lat="45.99836" lon="6.55606">
        <ele>1827</ele>
        <time>2016-01-19T09:26:56.630Z</time>
      </trkpt>
      <trkpt lat="45.99838" lon="6.55607">
        <ele>1827</ele>
        <time>2016-01-19T09:26:59.630Z</time>
      </trkpt>
      <trkpt lat="45.9984" lon="6.55608">
        <ele>1829</ele>
        <time>2016-01-19T09:27:02.630Z</time>
      </trkpt>
      <trkpt lat="45.99841" lon="6.55609">
        <ele>1829</ele>
        <time>2016-01-19T09:27:05.630Z</time>
      </trkpt>
      <trkpt lat="45.99843" lon="6.55611">
        <ele>1829</ele>
        <time>2016-01-19T09:27:08.630Z</time>
      </trkpt>
      <trkpt lat="45.99845" lon="6.55612">
        <ele>1829</ele>
        <time>2016-01-19T09:27:11.630Z</time>
      </trkpt>
      <trkpt lat="45.99847" lon="6.55613">
        <ele>1829</ele>
        <time>2016-01-19T09:27:14.630Z</time>
      </trkpt>
      <trkpt lat="45.99849" lon="6.55614">
        <ele>1829</ele>
        <time>2016-01-19T09:27:17.630Z</time>
      </trkpt>
      <trkpt lat="45.99851" lon="6.55616">
        <ele>1829.3900032</ele>
        <time>2016-01-19T09:27:20.630Z</time>
      </trkpt>
      <trkpt lat="45.99853" lon="6.55618">
        <ele>1830</ele>
        <time>2016-01-19T09:27:24.630Z</time>
      </trkpt>
      <trkpt lat="45.99855" lon="6.55619">
        <ele>1830</ele>
        <time>2016-01-19T09:27:27.630Z</time>
      </trkpt>
      <trkpt lat="45.99857" lon="6.5562">
        <ele>1830.7800064</ele>
        <time>2016-01-19T09:27:30.630Z</time>
      </trkpt>
      <trkpt lat="45.99858" lon="6.55622">
        <ele>1832</ele>
        <time>2016-01-19T09:27:33.630Z</time>
      </trkpt>
      <trkpt lat="45.9986" lon="6.55623">
        <ele>1832</ele>
        <time>2016-01-19T09:27:36.630Z</time>
      </trkpt>
      <trkpt lat="45.99862" lon="6.55625">
        <ele>1832</ele>
        <time>2016-01-19T09:27:39.630Z</time>
      </trkpt>
      <trkpt lat="45.99863" lon="6.55626">
        <ele>1832</ele>
        <time>2016-01-19T09:27:42.630Z</time>
      </trkpt>
      <trkpt lat="45.99865" lon="6.55628">
        <ele>1832</ele>
        <time>2016-01-19T09:27:45.630Z</time>
      </trkpt>
      <trkpt lat="45.99866" lon="6.55629">
        <ele>1832</ele>
        <time>2016-01-19T09:27:48.630Z</time>
      </trkpt>
      <trkpt lat="45.99868" lon="6.55631">
        <ele>1833</ele>
        <time>2016-01-19T09:27:52.630Z</time>
      </trkpt>
      <trkpt lat="45.9987" lon="6.55633">
        <ele>1833</ele>
        <time>2016-01-19T09:27:55.630Z</time>
      </trkpt>
      <trkpt lat="45.99872" lon="6.55634">
        <ele>1833</ele>
        <time>2016-01-19T09:27:58.630Z</time>
      </trkpt>
      <trkpt lat="45.99873" lon="6.55636">
        <ele>1834</ele>
        <time>2016-01-19T09:28:01.630Z</time>
      </trkpt>
      <trkpt lat="45.99875" lon="6.55637">
        <ele>1834</ele>
        <time>2016-01-19T09:28:04.630Z</time>
      </trkpt>
      <trkpt lat="45.99877" lon="6.55639">
        <ele>1834</ele>
        <time>2016-01-19T09:28:07.630Z</time>
      </trkpt>
      <trkpt lat="45.99878" lon="6.55641">
        <ele>1834.3900032</ele>
        <time>2016-01-19T09:28:10.630Z</time>
      </trkpt>
      <trkpt lat="45.9988" lon="6.55642">
        <ele>1835</ele>
        <time>2016-01-19T09:28:13.630Z</time>
      </trkpt>
      <trkpt lat="45.99882" lon="6.55643">
        <ele>1835</ele>
        <time>2016-01-19T09:28:16.630Z</time>
      </trkpt>
      <trkpt lat="45.99884" lon="6.55645">
        <ele>1835</ele>
        <time>2016-01-19T09:28:19.630Z</time>
      </trkpt>
      <trkpt lat="45.99885" lon="6.55647">
        <ele>1836</ele>
        <time>2016-01-19T09:28:22.630Z</time>
      </trkpt>
      <trkpt lat="45.99887" lon="6.55648">
        <ele>1836</ele>
        <time>2016-01-19T09:28:25.630Z</time>
      </trkpt>
      <trkpt lat="45.99888" lon="6.5565">
        <ele>1836</ele>
        <time>2016-01-19T09:28:28.630Z</time>
      </trkpt>
      <trkpt lat="45.9989" lon="6.55652">
        <ele>1836</ele>
        <time>2016-01-19T09:28:31.630Z</time>
      </trkpt>
      <trkpt lat="45.99892" lon="6.55653">
        <ele>1836</ele>
        <time>2016-01-19T09:28:34.630Z</time>
      </trkpt>
      <trkpt lat="45.99894" lon="6.55655">
        <ele>1836</ele>
        <time>2016-01-19T09:28:37.630Z</time>
      </trkpt>
      <trkpt lat="45.99895" lon="6.55657">
        <ele>1836.3900032</ele>
        <time>2016-01-19T09:28:40.630Z</time>
      </trkpt>
      <trkpt lat="45.99897" lon="6.55659">
        <ele>1837</ele>
        <time>2016-01-19T09:28:43.630Z</time>
      </trkpt>
      <trkpt lat="45.99898" lon="6.5566">
        <ele>1837</ele>
        <time>2016-01-19T09:28:46.630Z</time>
      </trkpt>
      <trkpt lat="45.999" lon="6.55662">
        <ele>1837</ele>
        <time>2016-01-19T09:28:49.630Z</time>
      </trkpt>
      <trkpt lat="45.99901" lon="6.55664">
        <ele>1838</ele>
        <time>2016-01-19T09:28:52.630Z</time>
      </trkpt>
      <trkpt lat="45.99903" lon="6.55665">
        <ele>1838</ele>
        <time>2016-01-19T09:28:55.630Z</time>
      </trkpt>
      <trkpt lat="45.99904" lon="6.55667">
        <ele>1838</ele>
        <time>2016-01-19T09:28:58.630Z</time>
      </trkpt>
      <trkpt lat="45.99906" lon="6.55669">
        <ele>1838</ele>
        <time>2016-01-19T09:29:01.630Z</time>
      </trkpt>
      <trkpt lat="45.99908" lon="6.55671">
        <ele>1838</ele>
        <time>2016-01-19T09:29:04.630Z</time>
      </trkpt>
      <trkpt lat="45.99909" lon="6.55672">
        <ele>1838</ele>
        <time>2016-01-19T09:29:07.630Z</time>
      </trkpt>
      <trkpt lat="45.99911" lon="6.55675">
        <ele>1840</ele>
        <time>2016-01-19T09:29:11.630Z</time>
      </trkpt>
      <trkpt lat="45.99912" lon="6.55677">
        <ele>1840</ele>
        <time>2016-01-19T09:29:14.630Z</time>
      </trkpt>
      <trkpt lat="45.99913" lon="6.55679">
        <ele>1840</ele>
        <time>2016-01-19T09:29:17.630Z</time>
      </trkpt>
      <trkpt lat="45.99914" lon="6.55682">
        <ele>1841</ele>
        <time>2016-01-19T09:29:21.630Z</time>
      </trkpt>
      <trkpt lat="45.99915" lon="6.55684">
        <ele>1841</ele>
        <time>2016-01-19T09:29:25.630Z</time>
      </trkpt>
      <trkpt lat="45.99915" lon="6.55687">
        <ele>1841</ele>
        <time>2016-01-19T09:29:29.630Z</time>
      </trkpt>
      <trkpt lat="45.99912" lon="6.55689">
        <ele>1844.3900032</ele>
        <time>2016-01-19T09:29:35.630Z</time>
      </trkpt>
      <trkpt lat="45.9991" lon="6.55691">
        <ele>1845.3900032</ele>
        <time>2016-01-19T09:29:40.630Z</time>
      </trkpt>
      <trkpt lat="45.99909" lon="6.55692">
        <ele>1846</ele>
        <time>2016-01-19T09:29:45.630Z</time>
      </trkpt>
      <trkpt lat="45.99907" lon="6.55693">
        <ele>1846</ele>
        <time>2016-01-19T09:29:49.630Z</time>
      </trkpt>
      <trkpt lat="45.99905" lon="6.55695">
        <ele>1847</ele>
        <time>2016-01-19T09:29:52.630Z</time>
      </trkpt>
      <trkpt lat="45.99903" lon="6.55697">
        <ele>1847</ele>
        <time>2016-01-19T09:29:55.630Z</time>
      </trkpt>
      <trkpt lat="45.99901" lon="6.55698">
        <ele>1847</ele>
        <time>2016-01-19T09:29:59.630Z</time>
      </trkpt>
      <trkpt lat="45.99899" lon="6.557">
        <ele>1848</ele>
        <time>2016-01-19T09:30:02.630Z</time>
      </trkpt>
      <trkpt lat="45.99898" lon="6.55701">
        <ele>1848</ele>
        <time>2016-01-19T09:30:07.630Z</time>
      </trkpt>
      <trkpt lat="45.99896" lon="6.55702">
        <ele>1848</ele>
        <time>2016-01-19T09:30:10.630Z</time>
      </trkpt>
      <trkpt lat="45.99894" lon="6.55703">
        <ele>1850</ele>
        <time>2016-01-19T09:30:13.630Z</time>
      </trkpt>
      <trkpt lat="45.99892" lon="6.55704">
        <ele>1850</ele>
        <time>2016-01-19T09:30:17.630Z</time>
      </trkpt>
      <trkpt lat="45.9989" lon="6.55705">
        <ele>1850.7800064</ele>
        <time>2016-01-19T09:30:21.630Z</time>
      </trkpt>
      <trkpt lat="45.99888" lon="6.55706">
        <ele>1852</ele>
        <time>2016-01-19T09:30:25.630Z</time>
      </trkpt>
      <trkpt lat="45.99886" lon="6.55707">
        <ele>1852</ele>
        <time>2016-01-19T09:30:29.630Z</time>
      </trkpt>
      <trkpt lat="45.99885" lon="6.5571">
        <ele>1853</ele>
        <time>2016-01-19T09:30:35.630Z</time>
      </trkpt>
      <trkpt lat="45.99885" lon="6.55713">
        <ele>1853</ele>
        <time>2016-01-19T09:30:38.630Z</time>
      </trkpt>
      <trkpt lat="45.99886" lon="6.55716">
        <ele>1855</ele>
        <time>2016-01-19T09:30:42.630Z</time>
      </trkpt>
      <trkpt lat="45.99886" lon="6.55719">
        <ele>1855</ele>
        <time>2016-01-19T09:30:46.630Z</time>
      </trkpt>
      <trkpt lat="45.99886" lon="6.55722">
        <ele>1855</ele>
        <time>2016-01-19T09:30:50.630Z</time>
      </trkpt>
      <trkpt lat="45.99886" lon="6.55725">
        <ele>1855</ele>
        <time>2016-01-19T09:30:54.630Z</time>
      </trkpt>
      <trkpt lat="45.99886" lon="6.55728">
        <ele>1855</ele>
        <time>2016-01-19T09:30:57.630Z</time>
      </trkpt>
      <trkpt lat="45.99886" lon="6.5573">
        <ele>1857</ele>
        <time>2016-01-19T09:31:04.630Z</time>
      </trkpt>
      <trkpt lat="45.99886" lon="6.55736">
        <ele>1856</ele>
        <time>2016-01-19T09:31:48.630Z</time>
      </trkpt>
      <trkpt lat="45.99886" lon="6.55739">
        <ele>1856</ele>
        <time>2016-01-19T09:31:49.630Z</time>
      </trkpt>
      <trkpt lat="45.99886" lon="6.55742">
        <ele>1855</ele>
        <time>2016-01-19T09:31:52.630Z</time>
      </trkpt>
      <trkpt lat="45.99887" lon="6.55745">
        <ele>1855</ele>
        <time>2016-01-19T09:31:55.630Z</time>
      </trkpt>
      <trkpt lat="45.99887" lon="6.55748">
        <ele>1855</ele>
        <time>2016-01-19T09:31:58.630Z</time>
      </trkpt>
      <trkpt lat="45.99887" lon="6.55751">
        <ele>1854</ele>
        <time>2016-01-19T09:32:01.630Z</time>
      </trkpt>
      <trkpt lat="45.99888" lon="6.55754">
        <ele>1854</ele>
        <time>2016-01-19T09:32:04.630Z</time>
      </trkpt>
      <trkpt lat="45.99888" lon="6.55758">
        <ele>1854</ele>
        <time>2016-01-19T09:32:07.630Z</time>
      </trkpt>
      <trkpt lat="45.99889" lon="6.55761">
        <ele>1854</ele>
        <time>2016-01-19T09:32:10.630Z</time>
      </trkpt>
      <trkpt lat="45.99889" lon="6.55764">
        <ele>1854</ele>
        <time>2016-01-19T09:32:13.630Z</time>
      </trkpt>
      <trkpt lat="45.9989" lon="6.55766">
        <ele>1854</ele>
        <time>2016-01-19T09:32:16.630Z</time>
      </trkpt>
      <trkpt lat="45.9989" lon="6.55769">
        <ele>1854</ele>
        <time>2016-01-19T09:32:19.630Z</time>
      </trkpt>
      <trkpt lat="45.9989" lon="6.55772">
        <ele>1854</ele>
        <time>2016-01-19T09:32:22.630Z</time>
      </trkpt>
      <trkpt lat="45.99891" lon="6.55775">
        <ele>1854</ele>
        <time>2016-01-19T09:32:25.630Z</time>
      </trkpt>
      <trkpt lat="45.99892" lon="6.55778">
        <ele>1854</ele>
        <time>2016-01-19T09:32:28.630Z</time>
      </trkpt>
      <trkpt lat="45.99893" lon="6.5578">
        <ele>1855</ele>
        <time>2016-01-19T09:32:31.630Z</time>
      </trkpt>
      <trkpt lat="45.99893" lon="6.55783">
        <ele>1855</ele>
        <time>2016-01-19T09:32:34.630Z</time>
      </trkpt>
      <trkpt lat="45.99894" lon="6.55785">
        <ele>1855</ele>
        <time>2016-01-19T09:32:37.630Z</time>
      </trkpt>
      <trkpt lat="45.99895" lon="6.55787">
        <ele>1855.1159425667</ele>
        <time>2016-01-19T09:32:40.630Z</time>
      </trkpt>
      <trkpt lat="45.99896" lon="6.5579">
        <ele>1856</ele>
        <time>2016-01-19T09:32:43.630Z</time>
      </trkpt>
      <trkpt lat="45.99897" lon="6.55793">
        <ele>1856</ele>
        <time>2016-01-19T09:32:47.630Z</time>
      </trkpt>
      <trkpt lat="45.99898" lon="6.55795">
        <ele>1857</ele>
        <time>2016-01-19T09:32:52.630Z</time>
      </trkpt>
      <trkpt lat="45.99899" lon="6.55798">
        <ele>1857</ele>
        <time>2016-01-19T09:32:57.630Z</time>
      </trkpt>
      <trkpt lat="45.99901" lon="6.558">
        <ele>1859</ele>
        <time>2016-01-19T09:33:05.630Z</time>
      </trkpt>
      <trkpt lat="45.99902" lon="6.55803">
        <ele>1859</ele>
        <time>2016-01-19T09:33:08.630Z</time>
      </trkpt>
      <trkpt lat="45.99901" lon="6.55806">
        <ele>1859.7800064</ele>
        <time>2016-01-19T09:33:11.630Z</time>
      </trkpt>
      <trkpt lat="45.99899" lon="6.55808">
        <ele>1861</ele>
        <time>2016-01-19T09:33:40.630Z</time>
      </trkpt>
      <trkpt lat="45.99898" lon="6.5581">
        <ele>1862</ele>
        <time>2016-01-19T09:33:43.630Z</time>
      </trkpt>
      <trkpt lat="45.99896" lon="6.55812">
        <ele>1862</ele>
        <time>2016-01-19T09:33:47.630Z</time>
      </trkpt>
      <trkpt lat="45.99894" lon="6.55813">
        <ele>1862</ele>
        <time>2016-01-19T09:33:50.630Z</time>
      </trkpt>
      <trkpt lat="45.99893" lon="6.55815">
        <ele>1863</ele>
        <time>2016-01-19T09:33:54.630Z</time>
      </trkpt>
      <trkpt lat="45.99891" lon="6.55817">
        <ele>1863</ele>
        <time>2016-01-19T09:33:58.630Z</time>
      </trkpt>
      <trkpt lat="45.99889" lon="6.55819">
        <ele>1864</ele>
        <time>2016-01-19T09:34:02.630Z</time>
      </trkpt>
      <trkpt lat="45.9989" lon="6.55822">
        <ele>1864</ele>
        <time>2016-01-19T09:34:08.630Z</time>
      </trkpt>
      <trkpt lat="45.99891" lon="6.55825">
        <ele>1865</ele>
        <time>2016-01-19T09:34:12.630Z</time>
      </trkpt>
      <trkpt lat="45.99891" lon="6.55828">
        <ele>1865</ele>
        <time>2016-01-19T09:34:16.630Z</time>
      </trkpt>
      <trkpt lat="45.99893" lon="6.55831">
        <ele>1865.7800064</ele>
        <time>2016-01-19T09:34:20.630Z</time>
      </trkpt>
      <trkpt lat="45.99893" lon="6.55834">
        <ele>1867</ele>
        <time>2016-01-19T09:34:26.630Z</time>
      </trkpt>
      <trkpt lat="45.99892" lon="6.55837">
        <ele>1867</ele>
        <time>2016-01-19T09:34:29.630Z</time>
      </trkpt>
      <trkpt lat="45.9989" lon="6.55839">
        <ele>1869</ele>
        <time>2016-01-19T09:34:32.630Z</time>
      </trkpt>
      <trkpt lat="45.99889" lon="6.55841">
        <ele>1869</ele>
        <time>2016-01-19T09:34:35.630Z</time>
      </trkpt>
      <trkpt lat="45.99887" lon="6.55843">
        <ele>1869.3900032</ele>
        <time>2016-01-19T09:34:40.630Z</time>
      </trkpt>
      <trkpt lat="45.99888" lon="6.55845">
        <ele>1870</ele>
        <time>2016-01-19T09:34:44.630Z</time>
      </trkpt>
      <trkpt lat="45.99887" lon="6.55848">
        <ele>1870</ele>
        <time>2016-01-19T09:34:49.630Z</time>
      </trkpt>
      <trkpt lat="45.99885" lon="6.5585">
        <ele>1872</ele>
        <time>2016-01-19T09:34:52.630Z</time>
      </trkpt>
      <trkpt lat="45.99883" lon="6.55851">
        <ele>1872</ele>
        <time>2016-01-19T09:34:56.630Z</time>
      </trkpt>
      <trkpt lat="45.99883" lon="6.55854">
        <ele>1873</ele>
        <time>2016-01-19T09:35:01.630Z</time>
      </trkpt>
      <trkpt lat="45.99883" lon="6.55856">
        <ele>1873</ele>
        <time>2016-01-19T09:35:05.630Z</time>
      </trkpt>
      <trkpt lat="45.99884" lon="6.55859">
        <ele>1873</ele>
        <time>2016-01-19T09:35:09.630Z</time>
      </trkpt>
      <trkpt lat="45.99885" lon="6.55862">
        <ele>1874</ele>
        <time>2016-01-19T09:35:13.630Z</time>
      </trkpt>
      <trkpt lat="45.99885" lon="6.55865">
        <ele>1874</ele>
        <time>2016-01-19T09:35:16.630Z</time>
      </trkpt>
      <trkpt lat="45.99884" lon="6.55869">
        <ele>1874.7800064</ele>
        <time>2016-01-19T09:35:20.630Z</time>
      </trkpt>
      <trkpt lat="45.99884" lon="6.55871">
        <ele>1876</ele>
        <time>2016-01-19T09:35:23.630Z</time>
      </trkpt>
      <trkpt lat="45.99884" lon="6.55874">
        <ele>1876</ele>
        <time>2016-01-19T09:35:27.630Z</time>
      </trkpt>
      <trkpt lat="45.99883" lon="6.55877">
        <ele>1878</ele>
        <time>2016-01-19T09:35:31.630Z</time>
      </trkpt>
      <trkpt lat="45.99882" lon="6.5588">
        <ele>1878</ele>
        <time>2016-01-19T09:35:35.630Z</time>
      </trkpt>
      <trkpt lat="45.99882" lon="6.55883">
        <ele>1878</ele>
        <time>2016-01-19T09:35:38.630Z</time>
      </trkpt>
      <trkpt lat="45.99882" lon="6.55886">
        <ele>1880</ele>
        <time>2016-01-19T09:35:42.630Z</time>
      </trkpt>
      <trkpt lat="45.99882" lon="6.55889">
        <ele>1880</ele>
        <time>2016-01-19T09:35:46.630Z</time>
      </trkpt>
      <trkpt lat="45.99881" lon="6.55892">
        <ele>1881</ele>
        <time>2016-01-19T09:35:51.630Z</time>
      </trkpt>
      <trkpt lat="45.99881" lon="6.55895">
        <ele>1881</ele>
        <time>2016-01-19T09:35:57.630Z</time>
      </trkpt>
      <trkpt lat="45.9988" lon="6.55898">
        <ele>1881</ele>
        <time>2016-01-19T09:36:00.630Z</time>
      </trkpt>
      <trkpt lat="45.99879" lon="6.559">
        <ele>1881</ele>
        <time>2016-01-19T09:36:03.630Z</time>
      </trkpt>
      <trkpt lat="45.99877" lon="6.55902">
        <ele>1881</ele>
        <time>2016-01-19T09:36:06.630Z</time>
      </trkpt>
      <trkpt lat="45.99876" lon="6.55905">
        <ele>1881.7800064</ele>
        <time>2016-01-19T09:36:10.630Z</time>
      </trkpt>
      <trkpt lat="45.99876" lon="6.55908">
        <ele>1883</ele>
        <time>2016-01-19T09:36:13.630Z</time>
      </trkpt>
      <trkpt lat="45.99876" lon="6.55911">
        <ele>1883</ele>
        <time>2016-01-19T09:36:16.630Z</time>
      </trkpt>
      <trkpt lat="45.99875" lon="6.55913">
        <ele>1883</ele>
        <time>2016-01-19T09:36:19.630Z</time>
      </trkpt>
      <trkpt lat="45.99874" lon="6.55916">
        <ele>1884</ele>
        <time>2016-01-19T09:36:23.630Z</time>
      </trkpt>
      <trkpt lat="45.99874" lon="6.55919">
        <ele>1884</ele>
        <time>2016-01-19T09:36:27.630Z</time>
      </trkpt>
      <trkpt lat="45.99873" lon="6.55922">
        <ele>1886</ele>
        <time>2016-01-19T09:36:31.630Z</time>
      </trkpt>
      <trkpt lat="45.99872" lon="6.55925">
        <ele>1886</ele>
        <time>2016-01-19T09:36:35.630Z</time>
      </trkpt>
      <trkpt lat="45.99871" lon="6.55928">
        <ele>1886</ele>
        <time>2016-01-19T09:36:39.630Z</time>
      </trkpt>
      <trkpt lat="45.9987" lon="6.55931">
        <ele>1887</ele>
        <time>2016-01-19T09:36:43.630Z</time>
      </trkpt>
      <trkpt lat="45.99869" lon="6.55934">
        <ele>1887</ele>
        <time>2016-01-19T09:36:48.630Z</time>
      </trkpt>
      <trkpt lat="45.99868" lon="6.55936">
        <ele>1888</ele>
        <time>2016-01-19T09:36:52.630Z</time>
      </trkpt>
      <trkpt lat="45.99867" lon="6.55939">
        <ele>1888</ele>
        <time>2016-01-19T09:36:55.630Z</time>
      </trkpt>
      <trkpt lat="45.99866" lon="6.55941">
        <ele>1888</ele>
        <time>2016-01-19T09:36:59.630Z</time>
      </trkpt>
      <trkpt lat="45.99865" lon="6.55944">
        <ele>1890</ele>
        <time>2016-01-19T09:37:02.630Z</time>
      </trkpt>
      <trkpt lat="45.99864" lon="6.55947">
        <ele>1890</ele>
        <time>2016-01-19T09:37:09.630Z</time>
      </trkpt>
      <trkpt lat="45.99862" lon="6.55948">
        <ele>1892</ele>
        <time>2016-01-19T09:37:15.630Z</time>
      </trkpt>
      <trkpt lat="45.99861" lon="6.55951">
        <ele>1892</ele>
        <time>2016-01-19T09:37:19.630Z</time>
      </trkpt>
      <trkpt lat="45.99861" lon="6.55953">
        <ele>1893</ele>
        <time>2016-01-19T09:37:22.630Z</time>
      </trkpt>
      <trkpt lat="45.99861" lon="6.55956">
        <ele>1893</ele>
        <time>2016-01-19T09:37:25.630Z</time>
      </trkpt>
      <trkpt lat="45.99861" lon="6.55959">
        <ele>1893</ele>
        <time>2016-01-19T09:37:29.630Z</time>
      </trkpt>
      <trkpt lat="45.9986" lon="6.55962">
        <ele>1895</ele>
        <time>2016-01-19T09:37:33.630Z</time>
      </trkpt>
      <trkpt lat="45.99857" lon="6.55963">
        <ele>1895</ele>
        <time>2016-01-19T09:37:37.630Z</time>
      </trkpt>
      <trkpt lat="45.99856" lon="6.55964">
        <ele>1897</ele>
        <time>2016-01-19T09:37:42.630Z</time>
      </trkpt>
      <trkpt lat="45.99856" lon="6.55969">
        <ele>1897</ele>
        <time>2016-01-19T09:37:48.630Z</time>
      </trkpt>
      <trkpt lat="45.99856" lon="6.55972">
        <ele>1897</ele>
        <time>2016-01-19T09:37:52.630Z</time>
      </trkpt>
      <trkpt lat="45.99854" lon="6.55973">
        <ele>1897</ele>
        <time>2016-01-19T09:37:56.630Z</time>
      </trkpt>
      <trkpt lat="45.99852" lon="6.55974">
        <ele>1897.7800064</ele>
        <time>2016-01-19T09:38:00.630Z</time>
      </trkpt>
      <trkpt lat="45.99852" lon="6.55977">
        <ele>1899</ele>
        <time>2016-01-19T09:38:05.630Z</time>
      </trkpt>
      <trkpt lat="45.99852" lon="6.5598">
        <ele>1899</ele>
        <time>2016-01-19T09:38:09.630Z</time>
      </trkpt>
      <trkpt lat="45.99852" lon="6.55983">
        <ele>1901</ele>
        <time>2016-01-19T09:38:16.630Z</time>
      </trkpt>
      <trkpt lat="45.99851" lon="6.55987">
        <ele>1901.7647073587</ele>
        <time>2016-01-19T09:38:20.630Z</time>
      </trkpt>
      <trkpt lat="45.99851" lon="6.55989">
        <ele>1903</ele>
        <time>2016-01-19T09:38:26.630Z</time>
      </trkpt>
      <trkpt lat="45.9985" lon="6.55993">
        <ele>1904</ele>
        <time>2016-01-19T09:38:31.630Z</time>
      </trkpt>
      <trkpt lat="45.99849" lon="6.55995">
        <ele>1904</ele>
        <time>2016-01-19T09:38:34.630Z</time>
      </trkpt>
      <trkpt lat="45.99848" lon="6.55998">
        <ele>1904</ele>
        <time>2016-01-19T09:38:37.630Z</time>
      </trkpt>
      <trkpt lat="45.99848" lon="6.56001">
        <ele>1905</ele>
        <time>2016-01-19T09:38:41.630Z</time>
      </trkpt>
      <trkpt lat="45.99847" lon="6.56004">
        <ele>1905</ele>
        <time>2016-01-19T09:38:46.630Z</time>
      </trkpt>
      <trkpt lat="45.99847" lon="6.56007">
        <ele>1905</ele>
        <time>2016-01-19T09:38:49.630Z</time>
      </trkpt>
      <trkpt lat="45.99846" lon="6.5601">
        <ele>1905</ele>
        <time>2016-01-19T09:38:52.630Z</time>
      </trkpt>
      <trkpt lat="45.99846" lon="6.56013">
        <ele>1905</ele>
        <time>2016-01-19T09:38:55.630Z</time>
      </trkpt>
      <trkpt lat="45.99845" lon="6.56016">
        <ele>1905</ele>
        <time>2016-01-19T09:38:58.630Z</time>
      </trkpt>
      <trkpt lat="45.99844" lon="6.56018">
        <ele>1907</ele>
        <time>2016-01-19T09:39:01.630Z</time>
      </trkpt>
      <trkpt lat="45.99844" lon="6.56021">
        <ele>1907</ele>
        <time>2016-01-19T09:39:04.630Z</time>
      </trkpt>
      <trkpt lat="45.99844" lon="6.56024">
        <ele>1907</ele>
        <time>2016-01-19T09:39:07.630Z</time>
      </trkpt>
      <trkpt lat="45.99844" lon="6.56027">
        <ele>1907.3900032</ele>
        <time>2016-01-19T09:39:10.630Z</time>
      </trkpt>
      <trkpt lat="45.99843" lon="6.5603">
        <ele>1908</ele>
        <time>2016-01-19T09:39:14.630Z</time>
      </trkpt>
      <trkpt lat="45.99843" lon="6.56033">
        <ele>1908</ele>
        <time>2016-01-19T09:39:17.630Z</time>
      </trkpt>
      <trkpt lat="45.99843" lon="6.56035">
        <ele>1908</ele>
        <time>2016-01-19T09:39:20.630Z</time>
      </trkpt>
      <trkpt lat="45.99843" lon="6.56039">
        <ele>1910</ele>
        <time>2016-01-19T09:39:25.630Z</time>
      </trkpt>
      <trkpt lat="45.99843" lon="6.56041">
        <ele>1910</ele>
        <time>2016-01-19T09:39:28.630Z</time>
      </trkpt>
      <trkpt lat="45.99842" lon="6.56044">
        <ele>1911</ele>
        <time>2016-01-19T09:39:31.630Z</time>
      </trkpt>
      <trkpt lat="45.99842" lon="6.56047">
        <ele>1911</ele>
        <time>2016-01-19T09:39:34.630Z</time>
      </trkpt>
      <trkpt lat="45.99842" lon="6.5605">
        <ele>1911</ele>
        <time>2016-01-19T09:39:37.630Z</time>
      </trkpt>
      <trkpt lat="45.99842" lon="6.56053">
        <ele>1911.3900032</ele>
        <time>2016-01-19T09:39:40.630Z</time>
      </trkpt>
      <trkpt lat="45.99842" lon="6.56055">
        <ele>1912</ele>
        <time>2016-01-19T09:39:43.630Z</time>
      </trkpt>
      <trkpt lat="45.99841" lon="6.56058">
        <ele>1912</ele>
        <time>2016-01-19T09:39:46.630Z</time>
      </trkpt>
      <trkpt lat="45.99841" lon="6.56061">
        <ele>1912</ele>
        <time>2016-01-19T09:39:49.630Z</time>
      </trkpt>
      <trkpt lat="45.9984" lon="6.56063">
        <ele>1914</ele>
        <time>2016-01-19T09:39:52.630Z</time>
      </trkpt>
      <trkpt lat="45.9984" lon="6.56066">
        <ele>1914</ele>
        <time>2016-01-19T09:39:55.630Z</time>
      </trkpt>
      <trkpt lat="45.9984" lon="6.56069">
        <ele>1914</ele>
        <time>2016-01-19T09:39:58.630Z</time>
      </trkpt>
      <trkpt lat="45.9984" lon="6.56071">
        <ele>1915</ele>
        <time>2016-01-19T09:40:01.630Z</time>
      </trkpt>
      <trkpt lat="45.99839" lon="6.56074">
        <ele>1915</ele>
        <time>2016-01-19T09:40:04.630Z</time>
      </trkpt>
      <trkpt lat="45.99839" lon="6.56077">
        <ele>1915</ele>
        <time>2016-01-19T09:40:07.630Z</time>
      </trkpt>
      <trkpt lat="45.99839" lon="6.5608">
        <ele>1915.3900032</ele>
        <time>2016-01-19T09:40:10.630Z</time>
      </trkpt>
      <trkpt lat="45.99838" lon="6.56083">
        <ele>1915.6099968</ele>
        <time>2016-01-19T09:40:50.630Z</time>
      </trkpt>
      <trkpt lat="45.99837" lon="6.56086">
        <ele>1915</ele>
        <time>2016-01-19T09:40:53.630Z</time>
      </trkpt>
      <trkpt lat="45.99837" lon="6.56089">
        <ele>1915</ele>
        <time>2016-01-19T09:40:56.630Z</time>
      </trkpt>
      <trkpt lat="45.99836" lon="6.56092">
        <ele>1915</ele>
        <time>2016-01-19T09:40:59.630Z</time>
      </trkpt>
      <trkpt lat="45.99835" lon="6.56096">
        <ele>1917</ele>
        <time>2016-01-19T09:41:02.630Z</time>
      </trkpt>
      <trkpt lat="45.99834" lon="6.56099">
        <ele>1917</ele>
        <time>2016-01-19T09:41:05.630Z</time>
      </trkpt>
      <trkpt lat="45.99833" lon="6.56101">
        <ele>1917</ele>
        <time>2016-01-19T09:41:08.630Z</time>
      </trkpt>
      <trkpt lat="45.99832" lon="6.56104">
        <ele>1917</ele>
        <time>2016-01-19T09:41:11.630Z</time>
      </trkpt>
      <trkpt lat="45.99831" lon="6.56108">
        <ele>1917</ele>
        <time>2016-01-19T09:41:14.630Z</time>
      </trkpt>
      <trkpt lat="45.9983" lon="6.56111">
        <ele>1917</ele>
        <time>2016-01-19T09:41:17.630Z</time>
      </trkpt>
      <trkpt lat="45.9983" lon="6.56114">
        <ele>1917.3900032</ele>
        <time>2016-01-19T09:41:20.630Z</time>
      </trkpt>
      <trkpt lat="45.99829" lon="6.56116">
        <ele>1918</ele>
        <time>2016-01-19T09:41:22.630Z</time>
      </trkpt>
      <trkpt lat="45.99828" lon="6.56119">
        <ele>1918</ele>
        <time>2016-01-19T09:41:25.630Z</time>
      </trkpt>
      <trkpt lat="45.99827" lon="6.56122">
        <ele>1918</ele>
        <time>2016-01-19T09:41:28.630Z</time>
      </trkpt>
      <trkpt lat="45.99826" lon="6.56125">
        <ele>1918</ele>
        <time>2016-01-19T09:41:31.630Z</time>
      </trkpt>
      <trkpt lat="45.99825" lon="6.56128">
        <ele>1918</ele>
        <time>2016-01-19T09:41:34.630Z</time>
      </trkpt>
      <trkpt lat="45.99825" lon="6.56131">
        <ele>1918</ele>
        <time>2016-01-19T09:41:37.630Z</time>
      </trkpt>
      <trkpt lat="45.99825" lon="6.56134">
        <ele>1918.3900032</ele>
        <time>2016-01-19T09:41:40.630Z</time>
      </trkpt>
      <trkpt lat="45.99824" lon="6.56137">
        <ele>1919</ele>
        <time>2016-01-19T09:41:43.630Z</time>
      </trkpt>
      <trkpt lat="45.99824" lon="6.5614">
        <ele>1919</ele>
        <time>2016-01-19T09:41:46.630Z</time>
      </trkpt>
      <trkpt lat="45.99824" lon="6.56143">
        <ele>1919</ele>
        <time>2016-01-19T09:41:49.630Z</time>
      </trkpt>
      <trkpt lat="45.99824" lon="6.56146">
        <ele>1920</ele>
        <time>2016-01-19T09:41:52.630Z</time>
      </trkpt>
      <trkpt lat="45.99823" lon="6.56149">
        <ele>1920</ele>
        <time>2016-01-19T09:41:55.630Z</time>
      </trkpt>
      <trkpt lat="45.99823" lon="6.56152">
        <ele>1920</ele>
        <time>2016-01-19T09:41:58.630Z</time>
      </trkpt>
      <trkpt lat="45.99823" lon="6.56155">
        <ele>1920</ele>
        <time>2016-01-19T09:42:02.630Z</time>
      </trkpt>
      <trkpt lat="45.99823" lon="6.56159">
        <ele>1920</ele>
        <time>2016-01-19T09:42:06.630Z</time>
      </trkpt>
      <trkpt lat="45.99823" lon="6.56162">
        <ele>1920.2058917647</ele>
        <time>2016-01-19T09:42:10.630Z</time>
      </trkpt>
      <trkpt lat="45.99823" lon="6.56165">
        <ele>1922</ele>
        <time>2016-01-19T09:42:13.630Z</time>
      </trkpt>
      <trkpt lat="45.99823" lon="6.56168">
        <ele>1922</ele>
        <time>2016-01-19T09:42:16.630Z</time>
      </trkpt>
      <trkpt lat="45.99822" lon="6.56172">
        <ele>1922</ele>
        <time>2016-01-19T09:42:19.630Z</time>
      </trkpt>
      <trkpt lat="45.99822" lon="6.56175">
        <ele>1922</ele>
        <time>2016-01-19T09:42:22.630Z</time>
      </trkpt>
      <trkpt lat="45.99822" lon="6.56178">
        <ele>1922</ele>
        <time>2016-01-19T09:42:25.630Z</time>
      </trkpt>
      <trkpt lat="45.99823" lon="6.56181">
        <ele>1922</ele>
        <time>2016-01-19T09:42:28.630Z</time>
      </trkpt>
      <trkpt lat="45.99823" lon="6.56184">
        <ele>1924</ele>
        <time>2016-01-19T09:42:31.630Z</time>
      </trkpt>
      <trkpt lat="45.99823" lon="6.56187">
        <ele>1924</ele>
        <time>2016-01-19T09:42:34.630Z</time>
      </trkpt>
      <trkpt lat="45.99824" lon="6.5619">
        <ele>1924</ele>
        <time>2016-01-19T09:42:37.630Z</time>
      </trkpt>
      <trkpt lat="45.99824" lon="6.56193">
        <ele>1925</ele>
        <time>2016-01-19T09:42:41.630Z</time>
      </trkpt>
      <trkpt lat="45.99825" lon="6.56196">
        <ele>1925</ele>
        <time>2016-01-19T09:42:45.630Z</time>
      </trkpt>
      <trkpt lat="45.99825" lon="6.56199">
        <ele>1925</ele>
        <time>2016-01-19T09:42:48.630Z</time>
      </trkpt>
      <trkpt lat="45.99826" lon="6.56202">
        <ele>1927</ele>
        <time>2016-01-19T09:42:51.630Z</time>
      </trkpt>
      <trkpt lat="45.99826" lon="6.56205">
        <ele>1927</ele>
        <time>2016-01-19T09:42:54.630Z</time>
      </trkpt>
      <trkpt lat="45.99826" lon="6.56208">
        <ele>1927</ele>
        <time>2016-01-19T09:42:57.630Z</time>
      </trkpt>
      <trkpt lat="45.99826" lon="6.56211">
        <ele>1927</ele>
        <time>2016-01-19T09:43:00.630Z</time>
      </trkpt>
      <trkpt lat="45.99826" lon="6.56214">
        <ele>1927</ele>
        <time>2016-01-19T09:43:03.630Z</time>
      </trkpt>
      <trkpt lat="45.99826" lon="6.56217">
        <ele>1927</ele>
        <time>2016-01-19T09:43:06.630Z</time>
      </trkpt>
      <trkpt lat="45.99826" lon="6.5622">
        <ele>1927</ele>
        <time>2016-01-19T09:43:09.630Z</time>
      </trkpt>
      <trkpt lat="45.99826" lon="6.56223">
        <ele>1929</ele>
        <time>2016-01-19T09:43:14.630Z</time>
      </trkpt>
      <trkpt lat="45.99826" lon="6.56226">
        <ele>1929</ele>
        <time>2016-01-19T09:43:18.630Z</time>
      </trkpt>
      <trkpt lat="45.99826" lon="6.56229">
        <ele>1930</ele>
        <time>2016-01-19T09:43:21.630Z</time>
      </trkpt>
      <trkpt lat="45.99825" lon="6.56232">
        <ele>1930</ele>
        <time>2016-01-19T09:43:24.630Z</time>
      </trkpt>
      <trkpt lat="45.99825" lon="6.56235">
        <ele>1930</ele>
        <time>2016-01-19T09:43:27.630Z</time>
      </trkpt>
      <trkpt lat="45.99824" lon="6.56238">
        <ele>1931</ele>
        <time>2016-01-19T09:44:03.630Z</time>
      </trkpt>
      <trkpt lat="45.99823" lon="6.56241">
        <ele>1931</ele>
        <time>2016-01-19T09:44:06.630Z</time>
      </trkpt>
      <trkpt lat="45.99823" lon="6.56244">
        <ele>1931</ele>
        <time>2016-01-19T09:44:09.630Z</time>
      </trkpt>
      <trkpt lat="45.99823" lon="6.56247">
        <ele>1933</ele>
        <time>2016-01-19T09:44:13.630Z</time>
      </trkpt>
      <trkpt lat="45.99823" lon="6.5625">
        <ele>1933</ele>
        <time>2016-01-19T09:44:16.630Z</time>
      </trkpt>
      <trkpt lat="45.99823" lon="6.56253">
        <ele>1933</ele>
        <time>2016-01-19T09:44:19.630Z</time>
      </trkpt>
      <trkpt lat="45.99822" lon="6.56257">
        <ele>1933</ele>
        <time>2016-01-19T09:44:22.630Z</time>
      </trkpt>
      <trkpt lat="45.99822" lon="6.5626">
        <ele>1933</ele>
        <time>2016-01-19T09:44:25.630Z</time>
      </trkpt>
      <trkpt lat="45.99822" lon="6.56262">
        <ele>1933</ele>
        <time>2016-01-19T09:44:28.630Z</time>
      </trkpt>
      <trkpt lat="45.99823" lon="6.56266">
        <ele>1934</ele>
        <time>2016-01-19T09:44:32.630Z</time>
      </trkpt>
      <trkpt lat="45.99824" lon="6.56268">
        <ele>1934</ele>
        <time>2016-01-19T09:44:36.630Z</time>
      </trkpt>
      <trkpt lat="45.99825" lon="6.56272">
        <ele>1934.3823536793</ele>
        <time>2016-01-19T09:44:40.630Z</time>
      </trkpt>
      <trkpt lat="45.99825" lon="6.56274">
        <ele>1935</ele>
        <time>2016-01-19T09:44:43.630Z</time>
      </trkpt>
      <trkpt lat="45.99826" lon="6.56278">
        <ele>1935</ele>
        <time>2016-01-19T09:44:47.630Z</time>
      </trkpt>
      <trkpt lat="45.99827" lon="6.5628">
        <ele>1935.7800064</ele>
        <time>2016-01-19T09:44:50.630Z</time>
      </trkpt>
      <trkpt lat="45.99827" lon="6.56284">
        <ele>1937</ele>
        <time>2016-01-19T09:44:54.630Z</time>
      </trkpt>
      <trkpt lat="45.99828" lon="6.56287">
        <ele>1937</ele>
        <time>2016-01-19T09:44:58.630Z</time>
      </trkpt>
      <trkpt lat="45.99828" lon="6.5629">
        <ele>1938</ele>
        <time>2016-01-19T09:45:02.630Z</time>
      </trkpt>
      <trkpt lat="45.99829" lon="6.56292">
        <ele>1938</ele>
        <time>2016-01-19T09:45:07.630Z</time>
      </trkpt>
      <trkpt lat="45.99829" lon="6.56295">
        <ele>1938</ele>
        <time>2016-01-19T09:45:10.630Z</time>
      </trkpt>
      <trkpt lat="45.99828" lon="6.56298">
        <ele>1940</ele>
        <time>2016-01-19T09:45:13.630Z</time>
      </trkpt>
      <trkpt lat="45.99827" lon="6.56301">
        <ele>1940</ele>
        <time>2016-01-19T09:45:18.630Z</time>
      </trkpt>
      <trkpt lat="45.99827" lon="6.56303">
        <ele>1940.7800064</ele>
        <time>2016-01-19T09:45:21.630Z</time>
      </trkpt>
      <trkpt lat="45.99826" lon="6.56306">
        <ele>1942</ele>
        <time>2016-01-19T09:45:25.630Z</time>
      </trkpt>
      <trkpt lat="45.99825" lon="6.56309">
        <ele>1942</ele>
        <time>2016-01-19T09:45:28.630Z</time>
      </trkpt>
      <trkpt lat="45.99825" lon="6.56312">
        <ele>1944</ele>
        <time>2016-01-19T09:45:32.630Z</time>
      </trkpt>
      <trkpt lat="45.99825" lon="6.56315">
        <ele>1944</ele>
        <time>2016-01-19T09:45:36.630Z</time>
      </trkpt>
      <trkpt lat="45.99824" lon="6.56319">
        <ele>1944</ele>
        <time>2016-01-19T09:45:40.630Z</time>
      </trkpt>
      <trkpt lat="45.99825" lon="6.56322">
        <ele>1944</ele>
        <time>2016-01-19T09:45:44.630Z</time>
      </trkpt>
      <trkpt lat="45.99825" lon="6.56325">
        <ele>1944</ele>
        <time>2016-01-19T09:45:47.630Z</time>
      </trkpt>
      <trkpt lat="45.99825" lon="6.56327">
        <ele>1944</ele>
        <time>2016-01-19T09:45:50.630Z</time>
      </trkpt>
      <trkpt lat="45.99825" lon="6.5633">
        <ele>1946</ele>
        <time>2016-01-19T09:45:54.630Z</time>
      </trkpt>
      <trkpt lat="45.99825" lon="6.56333">
        <ele>1946</ele>
        <time>2016-01-19T09:45:58.630Z</time>
      </trkpt>
      <trkpt lat="45.99825" lon="6.56336">
        <ele>1948</ele>
        <time>2016-01-19T09:46:02.630Z</time>
      </trkpt>
      <trkpt lat="45.99825" lon="6.56339">
        <ele>1948</ele>
        <time>2016-01-19T09:46:06.630Z</time>
      </trkpt>
      <trkpt lat="45.99825" lon="6.56342">
        <ele>1948.7800064</ele>
        <time>2016-01-19T09:46:10.630Z</time>
      </trkpt>
      <trkpt lat="45.99826" lon="6.56345">
        <ele>1950</ele>
        <time>2016-01-19T09:46:14.630Z</time>
      </trkpt>
      <trkpt lat="45.99827" lon="6.56348">
        <ele>1950</ele>
        <time>2016-01-19T09:46:18.630Z</time>
      </trkpt>
      <trkpt lat="45.99828" lon="6.56351">
        <ele>1952</ele>
        <time>2016-01-19T09:46:22.630Z</time>
      </trkpt>
      <trkpt lat="45.99829" lon="6.56354">
        <ele>1952</ele>
        <time>2016-01-19T09:46:27.630Z</time>
      </trkpt>
      <trkpt lat="45.9983" lon="6.56357">
        <ele>1952.3900032</ele>
        <time>2016-01-19T09:46:30.630Z</time>
      </trkpt>
      <trkpt lat="45.99831" lon="6.56361">
        <ele>1953</ele>
        <time>2016-01-19T09:46:35.630Z</time>
      </trkpt>
      <trkpt lat="45.99832" lon="6.56364">
        <ele>1953</ele>
        <time>2016-01-19T09:46:38.630Z</time>
      </trkpt>
      <trkpt lat="45.99832" lon="6.56367">
        <ele>1955</ele>
        <time>2016-01-19T09:46:42.630Z</time>
      </trkpt>
      <trkpt lat="45.99832" lon="6.5637">
        <ele>1955</ele>
        <time>2016-01-19T09:46:46.630Z</time>
      </trkpt>
      <trkpt lat="45.99832" lon="6.56373">
        <ele>1955.7800064</ele>
        <time>2016-01-19T09:46:50.630Z</time>
      </trkpt>
      <trkpt lat="45.99832" lon="6.56377">
        <ele>1957</ele>
        <time>2016-01-19T09:46:55.630Z</time>
      </trkpt>
      <trkpt lat="45.99832" lon="6.5638">
        <ele>1957</ele>
        <time>2016-01-19T09:46:59.630Z</time>
      </trkpt>
      <trkpt lat="45.99832" lon="6.56383">
        <ele>1958</ele>
        <time>2016-01-19T09:47:02.630Z</time>
      </trkpt>
      <trkpt lat="45.99832" lon="6.56386">
        <ele>1958</ele>
        <time>2016-01-19T09:47:05.630Z</time>
      </trkpt>
      <trkpt lat="45.99832" lon="6.56388">
        <ele>1958</ele>
        <time>2016-01-19T09:47:08.630Z</time>
      </trkpt>
      <trkpt lat="45.99832" lon="6.56391">
        <ele>1958</ele>
        <time>2016-01-19T09:47:11.630Z</time>
      </trkpt>
      <trkpt lat="45.99832" lon="6.56394">
        <ele>1958</ele>
        <time>2016-01-19T09:47:14.630Z</time>
      </trkpt>
      <trkpt lat="45.99832" lon="6.56396">
        <ele>1958</ele>
        <time>2016-01-19T09:47:17.630Z</time>
      </trkpt>
      <trkpt lat="45.99832" lon="6.56399">
        <ele>1958.7800064</ele>
        <time>2016-01-19T09:47:20.630Z</time>
      </trkpt>
      <trkpt lat="45.99832" lon="6.56402">
        <ele>1960</ele>
        <time>2016-01-19T09:47:23.630Z</time>
      </trkpt>
      <trkpt lat="45.99832" lon="6.56405">
        <ele>1960</ele>
        <time>2016-01-19T09:47:26.630Z</time>
      </trkpt>
      <trkpt lat="45.99832" lon="6.56408">
        <ele>1960</ele>
        <time>2016-01-19T09:47:29.630Z</time>
      </trkpt>
      <trkpt lat="45.99832" lon="6.56411">
        <ele>1960</ele>
        <time>2016-01-19T09:47:32.630Z</time>
      </trkpt>
      <trkpt lat="45.99832" lon="6.56413">
        <ele>1960</ele>
        <time>2016-01-19T09:47:35.630Z</time>
      </trkpt>
      <trkpt lat="45.99832" lon="6.56416">
        <ele>1960</ele>
        <time>2016-01-19T09:47:39.630Z</time>
      </trkpt>
      <trkpt lat="45.99833" lon="6.56419">
        <ele>1962</ele>
        <time>2016-01-19T09:47:42.630Z</time>
      </trkpt>
      <trkpt lat="45.99833" lon="6.56422">
        <ele>1962</ele>
        <time>2016-01-19T09:47:45.630Z</time>
      </trkpt>
      <trkpt lat="45.99834" lon="6.56425">
        <ele>1962</ele>
        <time>2016-01-19T09:47:48.630Z</time>
      </trkpt>
      <trkpt lat="45.99834" lon="6.56428">
        <ele>1964</ele>
        <time>2016-01-19T09:47:51.630Z</time>
      </trkpt>
      <trkpt lat="45.99834" lon="6.5643">
        <ele>1964</ele>
        <time>2016-01-19T09:47:54.630Z</time>
      </trkpt>
      <trkpt lat="45.99835" lon="6.56433">
        <ele>1964</ele>
        <time>2016-01-19T09:47:57.630Z</time>
      </trkpt>
      <trkpt lat="45.99835" lon="6.56436">
        <ele>1964</ele>
        <time>2016-01-19T09:48:00.630Z</time>
      </trkpt>
      <trkpt lat="45.99835" lon="6.56439">
        <ele>1964</ele>
        <time>2016-01-19T09:48:03.630Z</time>
      </trkpt>
      <trkpt lat="45.99836" lon="6.56441">
        <ele>1964</ele>
        <time>2016-01-19T09:48:06.630Z</time>
      </trkpt>
      <trkpt lat="45.99837" lon="6.56445">
        <ele>1964.2954569697</ele>
        <time>2016-01-19T09:48:10.630Z</time>
      </trkpt>
      <trkpt lat="45.99837" lon="6.56447">
        <ele>1965</ele>
        <time>2016-01-19T09:48:13.630Z</time>
      </trkpt>
      <trkpt lat="45.99838" lon="6.5645">
        <ele>1965</ele>
        <time>2016-01-19T09:48:16.630Z</time>
      </trkpt>
      <trkpt lat="45.99838" lon="6.56453">
        <ele>1965</ele>
        <time>2016-01-19T09:48:19.630Z</time>
      </trkpt>
      <trkpt lat="45.99838" lon="6.56456">
        <ele>1966</ele>
        <time>2016-01-19T09:48:22.630Z</time>
      </trkpt>
      <trkpt lat="45.99838" lon="6.56459">
        <ele>1966</ele>
        <time>2016-01-19T09:48:26.630Z</time>
      </trkpt>
      <trkpt lat="45.99839" lon="6.56462">
        <ele>1966</ele>
        <time>2016-01-19T09:48:29.630Z</time>
      </trkpt>
      <trkpt lat="45.99839" lon="6.56465">
        <ele>1968</ele>
        <time>2016-01-19T09:48:32.630Z</time>
      </trkpt>
      <trkpt lat="45.9984" lon="6.56468">
        <ele>1968</ele>
        <time>2016-01-19T09:48:36.630Z</time>
      </trkpt>
      <trkpt lat="45.9984" lon="6.56471">
        <ele>1968.3900032</ele>
        <time>2016-01-19T09:48:40.630Z</time>
      </trkpt>
      <trkpt lat="45.99841" lon="6.56474">
        <ele>1969</ele>
        <time>2016-01-19T09:48:43.630Z</time>
      </trkpt>
      <trkpt lat="45.99841" lon="6.56477">
        <ele>1969</ele>
        <time>2016-01-19T09:48:47.630Z</time>
      </trkpt>
      <trkpt lat="45.99841" lon="6.5648">
        <ele>1969.3900032</ele>
        <time>2016-01-19T09:48:50.630Z</time>
      </trkpt>
      <trkpt lat="45.99842" lon="6.56483">
        <ele>1970</ele>
        <time>2016-01-19T09:48:53.630Z</time>
      </trkpt>
      <trkpt lat="45.99842" lon="6.56486">
        <ele>1970</ele>
        <time>2016-01-19T09:48:57.630Z</time>
      </trkpt>
      <trkpt lat="45.99843" lon="6.56489">
        <ele>1971</ele>
        <time>2016-01-19T09:49:01.630Z</time>
      </trkpt>
      <trkpt lat="45.99844" lon="6.56492">
        <ele>1971</ele>
        <time>2016-01-19T09:49:33.630Z</time>
      </trkpt>
      <trkpt lat="45.99844" lon="6.56495">
        <ele>1971</ele>
        <time>2016-01-19T09:49:37.630Z</time>
      </trkpt>
      <trkpt lat="45.99844" lon="6.56499">
        <ele>1973</ele>
        <time>2016-01-19T09:49:41.630Z</time>
      </trkpt>
      <trkpt lat="45.99844" lon="6.56502">
        <ele>1973</ele>
        <time>2016-01-19T09:49:45.630Z</time>
      </trkpt>
      <trkpt lat="45.99844" lon="6.56505">
        <ele>1973</ele>
        <time>2016-01-19T09:49:48.630Z</time>
      </trkpt>
      <trkpt lat="45.99844" lon="6.56508">
        <ele>1975</ele>
        <time>2016-01-19T09:49:52.630Z</time>
      </trkpt>
      <trkpt lat="45.99844" lon="6.56511">
        <ele>1975</ele>
        <time>2016-01-19T09:49:55.630Z</time>
      </trkpt>
      <trkpt lat="45.99845" lon="6.56514">
        <ele>1975</ele>
        <time>2016-01-19T09:49:58.630Z</time>
      </trkpt>
      <trkpt lat="45.99845" lon="6.56517">
        <ele>1976</ele>
        <time>2016-01-19T09:50:01.630Z</time>
      </trkpt>
      <trkpt lat="45.99846" lon="6.56519">
        <ele>1976</ele>
        <time>2016-01-19T09:50:04.630Z</time>
      </trkpt>
      <trkpt lat="45.99846" lon="6.56523">
        <ele>1976</ele>
        <time>2016-01-19T09:50:07.630Z</time>
      </trkpt>
      <trkpt lat="45.99847" lon="6.56525">
        <ele>1976</ele>
        <time>2016-01-19T09:50:10.630Z</time>
      </trkpt>
      <trkpt lat="45.99847" lon="6.56528">
        <ele>1976</ele>
        <time>2016-01-19T09:50:13.630Z</time>
      </trkpt>
      <trkpt lat="45.99848" lon="6.56531">
        <ele>1976</ele>
        <time>2016-01-19T09:50:16.630Z</time>
      </trkpt>
      <trkpt lat="45.99848" lon="6.56535">
        <ele>1976</ele>
        <time>2016-01-19T09:50:19.630Z</time>
      </trkpt>
      <trkpt lat="45.99849" lon="6.56538">
        <ele>1976</ele>
        <time>2016-01-19T09:50:22.630Z</time>
      </trkpt>
      <trkpt lat="45.99849" lon="6.56541">
        <ele>1976</ele>
        <time>2016-01-19T09:50:25.630Z</time>
      </trkpt>
      <trkpt lat="45.9985" lon="6.56544">
        <ele>1976</ele>
        <time>2016-01-19T09:50:28.630Z</time>
      </trkpt>
      <trkpt lat="45.99851" lon="6.56546">
        <ele>1978</ele>
        <time>2016-01-19T09:50:31.630Z</time>
      </trkpt>
      <trkpt lat="45.99851" lon="6.5655">
        <ele>1978</ele>
        <time>2016-01-19T09:50:35.630Z</time>
      </trkpt>
      <trkpt lat="45.99852" lon="6.56552">
        <ele>1978</ele>
        <time>2016-01-19T09:50:38.630Z</time>
      </trkpt>
      <trkpt lat="45.99853" lon="6.56554">
        <ele>1980</ele>
        <time>2016-01-19T09:50:42.630Z</time>
      </trkpt>
      <trkpt lat="45.99855" lon="6.56557">
        <ele>1980</ele>
        <time>2016-01-19T09:50:46.630Z</time>
      </trkpt>
      <trkpt lat="45.99857" lon="6.56559">
        <ele>1980.3900032</ele>
        <time>2016-01-19T09:50:50.630Z</time>
      </trkpt>
      <trkpt lat="45.99858" lon="6.5656">
        <ele>1981</ele>
        <time>2016-01-19T09:50:54.630Z</time>
      </trkpt>
      <trkpt lat="45.9986" lon="6.56563">
        <ele>1983</ele>
        <time>2016-01-19T09:51:02.630Z</time>
      </trkpt>
      <trkpt lat="45.99861" lon="6.56565">
        <ele>1983</ele>
        <time>2016-01-19T09:51:06.630Z</time>
      </trkpt>
      <trkpt lat="45.99862" lon="6.56568">
        <ele>1984</ele>
        <time>2016-01-19T09:51:41.630Z</time>
      </trkpt>
      <trkpt lat="45.99863" lon="6.5657">
        <ele>1984</ele>
        <time>2016-01-19T09:51:44.630Z</time>
      </trkpt>
      <trkpt lat="45.99864" lon="6.56573">
        <ele>1984</ele>
        <time>2016-01-19T09:51:47.630Z</time>
      </trkpt>
      <trkpt lat="45.99864" lon="6.56576">
        <ele>1984</ele>
        <time>2016-01-19T09:51:50.630Z</time>
      </trkpt>
      <trkpt lat="45.99865" lon="6.56578">
        <ele>1984</ele>
        <time>2016-01-19T09:51:54.630Z</time>
      </trkpt>
      <trkpt lat="45.99866" lon="6.5658">
        <ele>1984</ele>
        <time>2016-01-19T09:51:56.630Z</time>
      </trkpt>
      <trkpt lat="45.99866" lon="6.56583">
        <ele>1984</ele>
        <time>2016-01-19T09:51:59.630Z</time>
      </trkpt>
      <trkpt lat="45.99866" lon="6.56586">
        <ele>1987</ele>
        <time>2016-01-19T09:52:02.630Z</time>
      </trkpt>
      <trkpt lat="45.99867" lon="6.56589">
        <ele>1987</ele>
        <time>2016-01-19T09:52:05.630Z</time>
      </trkpt>
      <trkpt lat="45.99868" lon="6.56591">
        <ele>1988</ele>
        <time>2016-01-19T09:52:08.630Z</time>
      </trkpt>
      <trkpt lat="45.99869" lon="6.56593">
        <ele>1988</ele>
        <time>2016-01-19T09:52:11.630Z</time>
      </trkpt>
      <trkpt lat="45.9987" lon="6.56596">
        <ele>1988</ele>
        <time>2016-01-19T09:52:14.630Z</time>
      </trkpt>
      <trkpt lat="45.99871" lon="6.56598">
        <ele>1988</ele>
        <time>2016-01-19T09:52:17.630Z</time>
      </trkpt>
      <trkpt lat="45.99872" lon="6.56601">
        <ele>1988</ele>
        <time>2016-01-19T09:52:20.630Z</time>
      </trkpt>
      <trkpt lat="45.99873" lon="6.56604">
        <ele>1990</ele>
        <time>2016-01-19T09:52:23.630Z</time>
      </trkpt>
      <trkpt lat="45.99874" lon="6.56606">
        <ele>1990.3900032</ele>
        <time>2016-01-19T09:52:26.630Z</time>
      </trkpt>
      <trkpt lat="45.99875" lon="6.56609">
        <ele>1991</ele>
        <time>2016-01-19T09:52:30.630Z</time>
      </trkpt>
      <trkpt lat="45.99875" lon="6.56612">
        <ele>1992</ele>
        <time>2016-01-19T09:52:33.630Z</time>
      </trkpt>
      <trkpt lat="45.99876" lon="6.56615">
        <ele>1992</ele>
        <time>2016-01-19T09:52:39.630Z</time>
      </trkpt>
      <trkpt lat="45.99877" lon="6.56617">
        <ele>1993</ele>
        <time>2016-01-19T09:52:43.630Z</time>
      </trkpt>
      <trkpt lat="45.99878" lon="6.5662">
        <ele>1993</ele>
        <time>2016-01-19T09:52:46.630Z</time>
      </trkpt>
      <trkpt lat="45.99879" lon="6.56623">
        <ele>1993</ele>
        <time>2016-01-19T09:52:49.630Z</time>
      </trkpt>
      <trkpt lat="45.99879" lon="6.56626">
        <ele>1994</ele>
        <time>2016-01-19T09:52:52.630Z</time>
      </trkpt>
      <trkpt lat="45.9988" lon="6.56628">
        <ele>1994</ele>
        <time>2016-01-19T09:52:55.630Z</time>
      </trkpt>
      <trkpt lat="45.99881" lon="6.56631">
        <ele>1994</ele>
        <time>2016-01-19T09:52:58.630Z</time>
      </trkpt>
      <trkpt lat="45.99883" lon="6.56633">
        <ele>1996</ele>
        <time>2016-01-19T09:53:02.630Z</time>
      </trkpt>
      <trkpt lat="45.99884" lon="6.56635">
        <ele>1996</ele>
        <time>2016-01-19T09:53:06.630Z</time>
      </trkpt>
      <trkpt lat="45.99885" lon="6.56637">
        <ele>1996.3900032</ele>
        <time>2016-01-19T09:53:10.630Z</time>
      </trkpt>
      <trkpt lat="45.99887" lon="6.5664">
        <ele>1997</ele>
        <time>2016-01-19T09:53:13.630Z</time>
      </trkpt>
      <trkpt lat="45.99888" lon="6.56643">
        <ele>1998</ele>
        <time>2016-01-19T09:53:16.630Z</time>
      </trkpt>
      <trkpt lat="45.99889" lon="6.56645">
        <ele>1998</ele>
        <time>2016-01-19T09:53:19.630Z</time>
      </trkpt>
      <trkpt lat="45.99891" lon="6.56648">
        <ele>1999</ele>
        <time>2016-01-19T09:53:22.630Z</time>
      </trkpt>
      <trkpt lat="45.99892" lon="6.5665">
        <ele>1999.3900032</ele>
        <time>2016-01-19T09:53:25.630Z</time>
      </trkpt>
      <trkpt lat="45.99892" lon="6.56653">
        <ele>2000</ele>
        <time>2016-01-19T09:53:28.630Z</time>
      </trkpt>
      <trkpt lat="45.9989" lon="6.56655">
        <ele>2000</ele>
        <time>2016-01-19T09:53:31.630Z</time>
      </trkpt>
      <trkpt lat="45.99888" lon="6.56656">
        <ele>2000</ele>
        <time>2016-01-19T09:53:36.630Z</time>
      </trkpt>
      <trkpt lat="45.99886" lon="6.56657">
        <ele>2002</ele>
        <time>2016-01-19T09:54:13.630Z</time>
      </trkpt>
      <trkpt lat="45.99884" lon="6.56659">
        <ele>2002</ele>
        <time>2016-01-19T09:54:17.630Z</time>
      </trkpt>
      <trkpt lat="45.99882" lon="6.5666">
        <ele>2003</ele>
        <time>2016-01-19T09:54:21.630Z</time>
      </trkpt>
      <trkpt lat="45.9988" lon="6.56662">
        <ele>2003</ele>
        <time>2016-01-19T09:54:25.630Z</time>
      </trkpt>
      <trkpt lat="45.99879" lon="6.56664">
        <ele>2003</ele>
        <time>2016-01-19T09:54:29.630Z</time>
      </trkpt>
      <trkpt lat="45.99877" lon="6.56665">
        <ele>2005</ele>
        <time>2016-01-19T09:54:33.630Z</time>
      </trkpt>
      <trkpt lat="45.99874" lon="6.56666">
        <ele>2005</ele>
        <time>2016-01-19T09:54:36.630Z</time>
      </trkpt>
      <trkpt lat="45.99874" lon="6.56669">
        <ele>2005.3900032</ele>
        <time>2016-01-19T09:54:40.630Z</time>
      </trkpt>
      <trkpt lat="45.99874" lon="6.56672">
        <ele>2006</ele>
        <time>2016-01-19T09:54:43.630Z</time>
      </trkpt>
      <trkpt lat="45.99875" lon="6.56675">
        <ele>2006</ele>
        <time>2016-01-19T09:54:46.630Z</time>
      </trkpt>
      <trkpt lat="45.99876" lon="6.56678">
        <ele>2006.2058917647</ele>
        <time>2016-01-19T09:54:50.630Z</time>
      </trkpt>
      <trkpt lat="45.99877" lon="6.56681">
        <ele>2008</ele>
        <time>2016-01-19T09:54:54.630Z</time>
      </trkpt>
      <trkpt lat="45.99878" lon="6.56684">
        <ele>2008</ele>
        <time>2016-01-19T09:54:57.630Z</time>
      </trkpt>
      <trkpt lat="45.99879" lon="6.56686">
        <ele>2008.3900032</ele>
        <time>2016-01-19T09:55:00.630Z</time>
      </trkpt>
      <trkpt lat="45.9988" lon="6.56689">
        <ele>2009</ele>
        <time>2016-01-19T09:55:03.630Z</time>
      </trkpt>
      <trkpt lat="45.99881" lon="6.56692">
        <ele>2009</ele>
        <time>2016-01-19T09:55:06.630Z</time>
      </trkpt>
      <trkpt lat="45.99882" lon="6.56695">
        <ele>2011</ele>
        <time>2016-01-19T09:55:11.630Z</time>
      </trkpt>
      <trkpt lat="45.99882" lon="6.56698">
        <ele>2011.7800064</ele>
        <time>2016-01-19T09:55:15.630Z</time>
      </trkpt>
      <trkpt lat="45.99882" lon="6.567">
        <ele>2013</ele>
        <time>2016-01-19T09:55:18.630Z</time>
      </trkpt>
      <trkpt lat="45.99882" lon="6.56704">
        <ele>2014</ele>
        <time>2016-01-19T09:55:22.630Z</time>
      </trkpt>
      <trkpt lat="45.99883" lon="6.56706">
        <ele>2014.3900032</ele>
        <time>2016-01-19T09:55:25.630Z</time>
      </trkpt>
      <trkpt lat="45.99884" lon="6.56709">
        <ele>2015</ele>
        <time>2016-01-19T09:55:28.630Z</time>
      </trkpt>
      <trkpt lat="45.99884" lon="6.56712">
        <ele>2015</ele>
        <time>2016-01-19T09:55:31.630Z</time>
      </trkpt>
      <trkpt lat="45.99884" lon="6.56715">
        <ele>2015</ele>
        <time>2016-01-19T09:55:34.630Z</time>
      </trkpt>
      <trkpt lat="45.99885" lon="6.56718">
        <ele>2015</ele>
        <time>2016-01-19T09:55:37.630Z</time>
      </trkpt>
      <trkpt lat="45.99885" lon="6.56721">
        <ele>2017</ele>
        <time>2016-01-19T09:55:41.630Z</time>
      </trkpt>
      <trkpt lat="45.99886" lon="6.56726">
        <ele>2018</ele>
        <time>2016-01-19T09:56:20.630Z</time>
      </trkpt>
      <trkpt lat="45.99886" lon="6.56729">
        <ele>2018</ele>
        <time>2016-01-19T09:56:23.630Z</time>
      </trkpt>
      <trkpt lat="45.99885" lon="6.56732">
        <ele>2018</ele>
        <time>2016-01-19T09:56:26.630Z</time>
      </trkpt>
      <trkpt lat="45.99887" lon="6.56734">
        <ele>2017</ele>
        <time>2016-01-19T09:57:03.630Z</time>
      </trkpt>
      <trkpt lat="45.9989" lon="6.56734">
        <ele>2017</ele>
        <time>2016-01-19T09:57:06.630Z</time>
      </trkpt>
      <trkpt lat="45.99892" lon="6.56734">
        <ele>2017</ele>
        <time>2016-01-19T09:57:09.630Z</time>
      </trkpt>
      <trkpt lat="45.99894" lon="6.56734">
        <ele>2020</ele>
        <time>2016-01-19T09:57:12.630Z</time>
      </trkpt>
      <trkpt lat="45.99896" lon="6.56734">
        <ele>2020.3900032</ele>
        <time>2016-01-19T09:57:15.630Z</time>
      </trkpt>
      <trkpt lat="45.99899" lon="6.56733">
        <ele>2021</ele>
        <time>2016-01-19T09:57:18.630Z</time>
      </trkpt>
      <trkpt lat="45.99901" lon="6.56733">
        <ele>2023</ele>
        <time>2016-01-19T09:57:21.630Z</time>
      </trkpt>
      <trkpt lat="45.99903" lon="6.56733">
        <ele>2023</ele>
        <time>2016-01-19T09:57:24.630Z</time>
      </trkpt>
      <trkpt lat="45.99905" lon="6.56732">
        <ele>2025</ele>
        <time>2016-01-19T09:57:27.630Z</time>
      </trkpt>
      <trkpt lat="45.99907" lon="6.56731">
        <ele>2025</ele>
        <time>2016-01-19T09:57:30.630Z</time>
      </trkpt>
      <trkpt lat="45.99909" lon="6.5673">
        <ele>2025</ele>
        <time>2016-01-19T09:57:33.630Z</time>
      </trkpt>
      <trkpt lat="45.99911" lon="6.56729">
        <ele>2026</ele>
        <time>2016-01-19T09:57:36.630Z</time>
      </trkpt>
      <trkpt lat="45.99914" lon="6.56728">
        <ele>2026</ele>
        <time>2016-01-19T09:57:39.630Z</time>
      </trkpt>
      <trkpt lat="45.99915" lon="6.56728">
        <ele>2027</ele>
        <time>2016-01-19T09:57:42.630Z</time>
      </trkpt>
      <trkpt lat="45.99917" lon="6.56727">
        <ele>2027.3900032</ele>
        <time>2016-01-19T09:57:45.630Z</time>
      </trkpt>
      <trkpt lat="45.99919" lon="6.56726">
        <ele>2028</ele>
        <time>2016-01-19T09:57:48.630Z</time>
      </trkpt>
      <trkpt lat="45.99921" lon="6.56726">
        <ele>2029</ele>
        <time>2016-01-19T09:57:53.630Z</time>
      </trkpt>
      <trkpt lat="45.99923" lon="6.56725">
        <ele>2029</ele>
        <time>2016-01-19T09:57:56.630Z</time>
      </trkpt>
      <trkpt lat="45.99925" lon="6.56725">
        <ele>2029</ele>
        <time>2016-01-19T09:57:58.630Z</time>
      </trkpt>
      <trkpt lat="45.99927" lon="6.56725">
        <ele>2028.8840574333</ele>
        <time>2016-01-19T09:58:00.630Z</time>
      </trkpt>
      <trkpt lat="45.99929" lon="6.56725">
        <ele>2028</ele>
        <time>2016-01-19T09:58:02.630Z</time>
      </trkpt>
      <trkpt lat="45.99931" lon="6.56725">
        <ele>2028</ele>
        <time>2016-01-19T09:58:04.630Z</time>
      </trkpt>
      <trkpt lat="45.99934" lon="6.56725">
        <ele>2028</ele>
        <time>2016-01-19T09:58:06.630Z</time>
      </trkpt>
      <trkpt lat="45.99936" lon="6.56725">
        <ele>2028</ele>
        <time>2016-01-19T09:58:08.630Z</time>
      </trkpt>
      <trkpt lat="45.99938" lon="6.56724">
        <ele>2028.3900032</ele>
        <time>2016-01-19T09:58:10.630Z</time>
      </trkpt>
      <trkpt lat="45.99939" lon="6.56724">
        <ele>2029</ele>
        <time>2016-01-19T09:58:12.630Z</time>
      </trkpt>
      <trkpt lat="45.99942" lon="6.56724">
        <ele>2029</ele>
        <time>2016-01-19T09:58:15.630Z</time>
      </trkpt>
      <trkpt lat="45.99944" lon="6.56724">
        <ele>2029</ele>
        <time>2016-01-19T09:58:18.630Z</time>
      </trkpt>
      <trkpt lat="45.99946" lon="6.56724">
        <ele>2029.3900032</ele>
        <time>2016-01-19T09:58:21.630Z</time>
      </trkpt>
      <trkpt lat="45.99948" lon="6.56724">
        <ele>2030</ele>
        <time>2016-01-19T09:58:24.630Z</time>
      </trkpt>
      <trkpt lat="45.9995" lon="6.56723">
        <ele>2030</ele>
        <time>2016-01-19T09:58:27.630Z</time>
      </trkpt>
      <trkpt lat="45.99952" lon="6.56722">
        <ele>2030.3900032</ele>
        <time>2016-01-19T09:58:30.630Z</time>
      </trkpt>
      <trkpt lat="45.99954" lon="6.56721">
        <ele>2031</ele>
        <time>2016-01-19T09:58:34.630Z</time>
      </trkpt>
      <trkpt lat="45.99956" lon="6.56719">
        <ele>2031</ele>
        <time>2016-01-19T09:58:39.630Z</time>
      </trkpt>
      <trkpt lat="45.99958" lon="6.56718">
        <ele>2033</ele>
        <time>2016-01-19T09:58:42.630Z</time>
      </trkpt>
      <trkpt lat="45.9996" lon="6.56717">
        <ele>2035</ele>
        <time>2016-01-19T09:59:00.630Z</time>
      </trkpt>
      <trkpt lat="45.99962" lon="6.56715">
        <ele>2035</ele>
        <time>2016-01-19T09:59:05.630Z</time>
      </trkpt>
      <trkpt lat="45.99964" lon="6.56714">
        <ele>2036</ele>
        <time>2016-01-19T09:59:20.630Z</time>
      </trkpt>
      <trkpt lat="45.99966" lon="6.56713">
        <ele>2036</ele>
        <time>2016-01-19T09:59:23.630Z</time>
      </trkpt>
      <trkpt lat="45.99968" lon="6.56712">
        <ele>2036</ele>
        <time>2016-01-19T09:59:26.630Z</time>
      </trkpt>
      <trkpt lat="45.99971" lon="6.5671">
        <ele>2037</ele>
        <time>2016-01-19T09:59:31.630Z</time>
      </trkpt>
      <trkpt lat="45.99973" lon="6.56709">
        <ele>2036</ele>
        <time>2016-01-19T09:59:34.630Z</time>
      </trkpt>
      <trkpt lat="45.99975" lon="6.56708">
        <ele>2036</ele>
        <time>2016-01-19T09:59:36.630Z</time>
      </trkpt>
      <trkpt lat="45.99977" lon="6.56708">
        <ele>2036</ele>
        <time>2016-01-19T09:59:39.630Z</time>
      </trkpt>
      <trkpt lat="45.99979" lon="6.56708">
        <ele>2040</ele>
        <time>2016-01-19T09:59:42.630Z</time>
      </trkpt>
      <trkpt lat="45.99981" lon="6.56707">
        <ele>2039.7800064</ele>
        <time>2016-01-19T09:59:45.630Z</time>
      </trkpt>
      <trkpt lat="45.99983" lon="6.56707">
        <ele>2040.6099968</ele>
        <time>2016-01-19T09:59:48.630Z</time>
      </trkpt>
      <trkpt lat="45.99985" lon="6.56706">
        <ele>2043</ele>
        <time>2016-01-19T09:59:51.630Z</time>
      </trkpt>
      <trkpt lat="45.99987" lon="6.56706">
        <ele>2042</ele>
        <time>2016-01-19T09:59:56.630Z</time>
      </trkpt>
      <trkpt lat="45.99989" lon="6.56706">
        <ele>2042</ele>
        <time>2016-01-19T09:59:59.630Z</time>
      </trkpt>
      <trkpt lat="45.99991" lon="6.56705">
        <ele>2042.3900032</ele>
        <time>2016-01-19T10:00:02.630Z</time>
      </trkpt>
      <trkpt lat="45.99993" lon="6.56706">
        <ele>2043</ele>
        <time>2016-01-19T10:00:05.630Z</time>
      </trkpt>
      <trkpt lat="45.99996" lon="6.56706">
        <ele>2043</ele>
        <time>2016-01-19T10:00:08.630Z</time>
      </trkpt>
      <trkpt lat="45.99998" lon="6.56706">
        <ele>2043</ele>
        <time>2016-01-19T10:00:11.630Z</time>
      </trkpt>
      <trkpt lat="46" lon="6.56706">
        <ele>2045</ele>
        <time>2016-01-19T10:00:14.630Z</time>
      </trkpt>
      <trkpt lat="46.00002" lon="6.56706">
        <ele>2045.3900032</ele>
        <time>2016-01-19T10:00:17.630Z</time>
      </trkpt>
      <trkpt lat="46.00004" lon="6.56707">
        <ele>2046</ele>
        <time>2016-01-19T10:00:20.630Z</time>
      </trkpt>
      <trkpt lat="46.00006" lon="6.56707">
        <ele>2047</ele>
        <time>2016-01-19T10:00:23.630Z</time>
      </trkpt>
      <trkpt lat="46.00008" lon="6.56708">
        <ele>2047</ele>
        <time>2016-01-19T10:00:26.630Z</time>
      </trkpt>
      <trkpt lat="46.00011" lon="6.56709">
        <ele>2047</ele>
        <time>2016-01-19T10:00:29.630Z</time>
      </trkpt>
      <trkpt lat="46.00013" lon="6.56709">
        <ele>2047</ele>
        <time>2016-01-19T10:00:32.630Z</time>
      </trkpt>
      <trkpt lat="46.00015" lon="6.5671">
        <ele>2047</ele>
        <time>2016-01-19T10:00:35.630Z</time>
      </trkpt>
      <trkpt lat="46.00017" lon="6.56711">
        <ele>2047</ele>
        <time>2016-01-19T10:00:38.630Z</time>
      </trkpt>
      <trkpt lat="46.00019" lon="6.56712">
        <ele>2047.3900032</ele>
        <time>2016-01-19T10:00:42.630Z</time>
      </trkpt>
      <trkpt lat="46.00021" lon="6.56713">
        <ele>2048</ele>
        <time>2016-01-19T10:00:45.630Z</time>
      </trkpt>
      <trkpt lat="46.00024" lon="6.56714">
        <ele>2048</ele>
        <time>2016-01-19T10:00:48.630Z</time>
      </trkpt>
      <trkpt lat="46.00026" lon="6.56715">
        <ele>2048</ele>
        <time>2016-01-19T10:00:51.630Z</time>
      </trkpt>
      <trkpt lat="46.00028" lon="6.56716">
        <ele>2050</ele>
        <time>2016-01-19T10:00:54.630Z</time>
      </trkpt>
      <trkpt lat="46.0003" lon="6.56717">
        <ele>2051.1359281214</ele>
        <time>2016-01-19T10:00:57.630Z</time>
      </trkpt>
      <trkpt lat="46.00032" lon="6.56719">
        <ele>2053</ele>
        <time>2016-01-19T10:01:00.630Z</time>
      </trkpt>
      <trkpt lat="46.00034" lon="6.5672">
        <ele>2053</ele>
        <time>2016-01-19T10:01:03.630Z</time>
      </trkpt>
      <trkpt lat="46.00036" lon="6.56721">
        <ele>2054</ele>
        <time>2016-01-19T10:01:06.630Z</time>
      </trkpt>
      <trkpt lat="46.00038" lon="6.56723">
        <ele>2054</ele>
        <time>2016-01-19T10:01:09.630Z</time>
      </trkpt>
      <trkpt lat="46.0004" lon="6.56724">
        <ele>2054</ele>
        <time>2016-01-19T10:01:13.630Z</time>
      </trkpt>
      <trkpt lat="46.00042" lon="6.56725">
        <ele>2055</ele>
        <time>2016-01-19T10:01:16.630Z</time>
      </trkpt>
      <trkpt lat="46.00044" lon="6.56726">
        <ele>2055</ele>
        <time>2016-01-19T10:01:19.630Z</time>
      </trkpt>
      <trkpt lat="46.00046" lon="6.56726">
        <ele>2055</ele>
        <time>2016-01-19T10:01:21.630Z</time>
      </trkpt>
      <trkpt lat="46.00048" lon="6.56727">
        <ele>2055</ele>
        <time>2016-01-19T10:01:23.630Z</time>
      </trkpt>
      <trkpt lat="46.0005" lon="6.56727">
        <ele>2055.3900032</ele>
        <time>2016-01-19T10:01:25.630Z</time>
      </trkpt>
      <trkpt lat="46.00052" lon="6.56728">
        <ele>2056</ele>
        <time>2016-01-19T10:01:27.630Z</time>
      </trkpt>
      <trkpt lat="46.00054" lon="6.56728">
        <ele>2056</ele>
        <time>2016-01-19T10:01:29.630Z</time>
      </trkpt>
      <trkpt lat="46.00056" lon="6.56728">
        <ele>2056</ele>
        <time>2016-01-19T10:01:32.630Z</time>
      </trkpt>
      <trkpt lat="46.00058" lon="6.56729">
        <ele>2056</ele>
        <time>2016-01-19T10:01:35.630Z</time>
      </trkpt>
      <trkpt lat="46.0006" lon="6.56729">
        <ele>2056</ele>
        <time>2016-01-19T10:01:37.630Z</time>
      </trkpt>
      <trkpt lat="46.00063" lon="6.56729">
        <ele>2056</ele>
        <time>2016-01-19T10:01:40.630Z</time>
      </trkpt>
      <trkpt lat="46.00065" lon="6.5673">
        <ele>2056</ele>
        <time>2016-01-19T10:01:43.630Z</time>
      </trkpt>
      <trkpt lat="46.00067" lon="6.56731">
        <ele>2058</ele>
        <time>2016-01-19T10:01:46.630Z</time>
      </trkpt>
      <trkpt lat="46.00069" lon="6.56731">
        <ele>2058</ele>
        <time>2016-01-19T10:01:49.630Z</time>
      </trkpt>
      <trkpt lat="46.00071" lon="6.56732">
        <ele>2058</ele>
        <time>2016-01-19T10:01:52.630Z</time>
      </trkpt>
      <trkpt lat="46.00074" lon="6.56733">
        <ele>2058.3900032</ele>
        <time>2016-01-19T10:01:55.630Z</time>
      </trkpt>
      <trkpt lat="46.00076" lon="6.56734">
        <ele>2059</ele>
        <time>2016-01-19T10:01:58.630Z</time>
      </trkpt>
      <trkpt lat="46.00078" lon="6.56735">
        <ele>2060</ele>
        <time>2016-01-19T10:02:01.630Z</time>
      </trkpt>
      <trkpt lat="46.0008" lon="6.56736">
        <ele>2060</ele>
        <time>2016-01-19T10:02:04.630Z</time>
      </trkpt>
      <trkpt lat="46.00082" lon="6.56737">
        <ele>2060</ele>
        <time>2016-01-19T10:02:07.630Z</time>
      </trkpt>
      <trkpt lat="46.00084" lon="6.56738">
        <ele>2060.2910457741</ele>
        <time>2016-01-19T10:02:10.630Z</time>
      </trkpt>
      <trkpt lat="46.00086" lon="6.56739">
        <ele>2061</ele>
        <time>2016-01-19T10:02:13.630Z</time>
      </trkpt>
      <trkpt lat="46.00088" lon="6.5674">
        <ele>2063</ele>
        <time>2016-01-19T10:02:16.630Z</time>
      </trkpt>
      <trkpt lat="46.0009" lon="6.56741">
        <ele>2063</ele>
        <time>2016-01-19T10:02:19.630Z</time>
      </trkpt>
      <trkpt lat="46.00092" lon="6.56742">
        <ele>2063</ele>
        <time>2016-01-19T10:02:22.630Z</time>
      </trkpt>
      <trkpt lat="46.00094" lon="6.56743">
        <ele>2063.2977116392</ele>
        <time>2016-01-19T10:02:25.630Z</time>
      </trkpt>
      <trkpt lat="46.00096" lon="6.56744">
        <ele>2064</ele>
        <time>2016-01-19T10:02:28.630Z</time>
      </trkpt>
      <trkpt lat="46.00099" lon="6.56745">
        <ele>2065</ele>
        <time>2016-01-19T10:02:31.630Z</time>
      </trkpt>
      <trkpt lat="46.00101" lon="6.56747">
        <ele>2065</ele>
        <time>2016-01-19T10:02:34.630Z</time>
      </trkpt>
      <trkpt lat="46.00103" lon="6.56748">
        <ele>2066</ele>
        <time>2016-01-19T10:02:37.630Z</time>
      </trkpt>
      <trkpt lat="46.00105" lon="6.56749">
        <ele>2066</ele>
        <time>2016-01-19T10:02:39.630Z</time>
      </trkpt>
      <trkpt lat="46.00107" lon="6.5675">
        <ele>2066</ele>
        <time>2016-01-19T10:02:42.630Z</time>
      </trkpt>
      <trkpt lat="46.00109" lon="6.56751">
        <ele>2066</ele>
        <time>2016-01-19T10:02:45.630Z</time>
      </trkpt>
      <trkpt lat="46.00112" lon="6.56753">
        <ele>2066</ele>
        <time>2016-01-19T10:02:48.630Z</time>
      </trkpt>
      <trkpt lat="46.00114" lon="6.56754">
        <ele>2066</ele>
        <time>2016-01-19T10:02:50.630Z</time>
      </trkpt>
      <trkpt lat="46.00115" lon="6.56755">
        <ele>2066</ele>
        <time>2016-01-19T10:02:52.630Z</time>
      </trkpt>
      <trkpt lat="46.00117" lon="6.56755">
        <ele>2066</ele>
        <time>2016-01-19T10:02:54.630Z</time>
      </trkpt>
      <trkpt lat="46.00119" lon="6.56756">
        <ele>2066</ele>
        <time>2016-01-19T10:02:56.630Z</time>
      </trkpt>
      <trkpt lat="46.00121" lon="6.56757">
        <ele>2066</ele>
        <time>2016-01-19T10:02:58.630Z</time>
      </trkpt>
      <trkpt lat="46.00123" lon="6.56758">
        <ele>2066.3900032</ele>
        <time>2016-01-19T10:03:00.630Z</time>
      </trkpt>
      <trkpt lat="46.00125" lon="6.56759">
        <ele>2067</ele>
        <time>2016-01-19T10:03:02.630Z</time>
      </trkpt>
      <trkpt lat="46.00127" lon="6.5676">
        <ele>2067</ele>
        <time>2016-01-19T10:03:04.630Z</time>
      </trkpt>
      <trkpt lat="46.00129" lon="6.56761">
        <ele>2067</ele>
        <time>2016-01-19T10:03:06.630Z</time>
      </trkpt>
      <trkpt lat="46.00131" lon="6.56761">
        <ele>2067</ele>
        <time>2016-01-19T10:03:08.630Z</time>
      </trkpt>
      <trkpt lat="46.00133" lon="6.56762">
        <ele>2068</ele>
        <time>2016-01-19T10:03:11.630Z</time>
      </trkpt>
      <trkpt lat="46.00135" lon="6.56763">
        <ele>2068</ele>
        <time>2016-01-19T10:03:14.630Z</time>
      </trkpt>
      <trkpt lat="46.00137" lon="6.56764">
        <ele>2068</ele>
        <time>2016-01-19T10:03:16.630Z</time>
      </trkpt>
      <trkpt lat="46.00139" lon="6.56765">
        <ele>2068</ele>
        <time>2016-01-19T10:03:18.630Z</time>
      </trkpt>
      <trkpt lat="46.00142" lon="6.56766">
        <ele>2068</ele>
        <time>2016-01-19T10:03:21.630Z</time>
      </trkpt>
      <trkpt lat="46.00144" lon="6.56766">
        <ele>2068</ele>
        <time>2016-01-19T10:03:24.630Z</time>
      </trkpt>
      <trkpt lat="46.00146" lon="6.56767">
        <ele>2068</ele>
        <time>2016-01-19T10:03:26.630Z</time>
      </trkpt>
      <trkpt lat="46.00149" lon="6.56769">
        <ele>2068</ele>
        <time>2016-01-19T10:03:29.630Z</time>
      </trkpt>
      <trkpt lat="46.0015" lon="6.56769">
        <ele>2069</ele>
        <time>2016-01-19T10:03:31.630Z</time>
      </trkpt>
      <trkpt lat="46.00153" lon="6.56771">
        <ele>2069</ele>
        <time>2016-01-19T10:03:34.630Z</time>
      </trkpt>
      <trkpt lat="46.00155" lon="6.56772">
        <ele>2069</ele>
        <time>2016-01-19T10:03:36.630Z</time>
      </trkpt>
      <trkpt lat="46.00157" lon="6.56773">
        <ele>2069</ele>
        <time>2016-01-19T10:03:39.630Z</time>
      </trkpt>
      <trkpt lat="46.00159" lon="6.56775">
        <ele>2071</ele>
        <time>2016-01-19T10:03:42.630Z</time>
      </trkpt>
      <trkpt lat="46.00161" lon="6.56776">
        <ele>2071.3900032</ele>
        <time>2016-01-19T10:03:45.630Z</time>
      </trkpt>
      <trkpt lat="46.00164" lon="6.56778">
        <ele>2072</ele>
        <time>2016-01-19T10:03:48.630Z</time>
      </trkpt>
      <trkpt lat="46.00165" lon="6.5678">
        <ele>2073</ele>
        <time>2016-01-19T10:03:51.630Z</time>
      </trkpt>
      <trkpt lat="46.00167" lon="6.56782">
        <ele>2073</ele>
        <time>2016-01-19T10:03:54.630Z</time>
      </trkpt>
      <trkpt lat="46.00169" lon="6.56783">
        <ele>2073</ele>
        <time>2016-01-19T10:03:56.630Z</time>
      </trkpt>
      <trkpt lat="46.00171" lon="6.56784">
        <ele>2073</ele>
        <time>2016-01-19T10:03:58.630Z</time>
      </trkpt>
      <trkpt lat="46.00173" lon="6.56785">
        <ele>2073</ele>
        <time>2016-01-19T10:04:00.630Z</time>
      </trkpt>
      <trkpt lat="46.00174" lon="6.56786">
        <ele>2073</ele>
        <time>2016-01-19T10:04:02.630Z</time>
      </trkpt>
      <trkpt lat="46.00176" lon="6.56787">
        <ele>2073</ele>
        <time>2016-01-19T10:04:04.630Z</time>
      </trkpt>
      <trkpt lat="46.00179" lon="6.56789">
        <ele>2073</ele>
        <time>2016-01-19T10:04:07.630Z</time>
      </trkpt>
      <trkpt lat="46.00181" lon="6.5679">
        <ele>2073</ele>
        <time>2016-01-19T10:04:10.630Z</time>
      </trkpt>
      <trkpt lat="46.00183" lon="6.56791">
        <ele>2073</ele>
        <time>2016-01-19T10:04:13.630Z</time>
      </trkpt>
      <trkpt lat="46.00186" lon="6.56792">
        <ele>2073</ele>
        <time>2016-01-19T10:04:16.630Z</time>
      </trkpt>
      <trkpt lat="46.00188" lon="6.56794">
        <ele>2073</ele>
        <time>2016-01-19T10:04:19.630Z</time>
      </trkpt>
      <trkpt lat="46.00191" lon="6.56795">
        <ele>2075</ele>
        <time>2016-01-19T10:04:22.630Z</time>
      </trkpt>
      <trkpt lat="46.00193" lon="6.56797">
        <ele>2075.3900032</ele>
        <time>2016-01-19T10:04:25.630Z</time>
      </trkpt>
      <trkpt lat="46.00195" lon="6.56798">
        <ele>2076</ele>
        <time>2016-01-19T10:04:28.630Z</time>
      </trkpt>
      <trkpt lat="46.00197" lon="6.568">
        <ele>2076</ele>
        <time>2016-01-19T10:04:31.630Z</time>
      </trkpt>
      <trkpt lat="46.00199" lon="6.56801">
        <ele>2076</ele>
        <time>2016-01-19T10:04:33.630Z</time>
      </trkpt>
      <trkpt lat="46.00201" lon="6.56802">
        <ele>2076</ele>
        <time>2016-01-19T10:04:36.630Z</time>
      </trkpt>
      <trkpt lat="46.00203" lon="6.56804">
        <ele>2076</ele>
        <time>2016-01-19T10:04:38.630Z</time>
      </trkpt>
      <trkpt lat="46.00205" lon="6.56805">
        <ele>2076.3900032</ele>
        <time>2016-01-19T10:04:41.630Z</time>
      </trkpt>
      <trkpt lat="46.00208" lon="6.56806">
        <ele>2077</ele>
        <time>2016-01-19T10:04:44.630Z</time>
      </trkpt>
      <trkpt lat="46.0021" lon="6.56806">
        <ele>2077</ele>
        <time>2016-01-19T10:04:46.630Z</time>
      </trkpt>
      <trkpt lat="46.00212" lon="6.56807">
        <ele>2077</ele>
        <time>2016-01-19T10:04:49.630Z</time>
      </trkpt>
      <trkpt lat="46.00215" lon="6.56808">
        <ele>2078</ele>
        <time>2016-01-19T10:04:52.630Z</time>
      </trkpt>
      <trkpt lat="46.00217" lon="6.56809">
        <ele>2078</ele>
        <time>2016-01-19T10:04:55.630Z</time>
      </trkpt>
      <trkpt lat="46.00219" lon="6.5681">
        <ele>2078</ele>
        <time>2016-01-19T10:04:57.630Z</time>
      </trkpt>
      <trkpt lat="46.00221" lon="6.56811">
        <ele>2078.7800064</ele>
        <time>2016-01-19T10:05:00.630Z</time>
      </trkpt>
      <trkpt lat="46.00223" lon="6.56812">
        <ele>2080</ele>
        <time>2016-01-19T10:05:03.630Z</time>
      </trkpt>
      <trkpt lat="46.00225" lon="6.56813">
        <ele>2080</ele>
        <time>2016-01-19T10:05:05.630Z</time>
      </trkpt>
      <trkpt lat="46.00227" lon="6.56814">
        <ele>2080</ele>
        <time>2016-01-19T10:05:08.630Z</time>
      </trkpt>
      <trkpt lat="46.00229" lon="6.56815">
        <ele>2080.3900032</ele>
        <time>2016-01-19T10:05:10.630Z</time>
      </trkpt>
      <trkpt lat="46.00232" lon="6.56815">
        <ele>2081</ele>
        <time>2016-01-19T10:05:13.630Z</time>
      </trkpt>
      <trkpt lat="46.00233" lon="6.56816">
        <ele>2081</ele>
        <time>2016-01-19T10:05:15.630Z</time>
      </trkpt>
      <trkpt lat="46.00235" lon="6.56817">
        <ele>2081</ele>
        <time>2016-01-19T10:05:18.630Z</time>
      </trkpt>
      <trkpt lat="46.00238" lon="6.56818">
        <ele>2082</ele>
        <time>2016-01-19T10:05:21.630Z</time>
      </trkpt>
      <trkpt lat="46.0024" lon="6.56819">
        <ele>2082</ele>
        <time>2016-01-19T10:05:24.630Z</time>
      </trkpt>
      <trkpt lat="46.00243" lon="6.56819">
        <ele>2082</ele>
        <time>2016-01-19T10:05:27.630Z</time>
      </trkpt>
      <trkpt lat="46.00245" lon="6.56819">
        <ele>2083.5600128</ele>
        <time>2016-01-19T10:05:30.630Z</time>
      </trkpt>
      <trkpt lat="46.00248" lon="6.5682">
        <ele>2086</ele>
        <time>2016-01-19T10:05:33.630Z</time>
      </trkpt>
      <trkpt lat="46.0025" lon="6.56821">
        <ele>2084</ele>
        <time>2016-01-19T10:05:36.630Z</time>
      </trkpt>
      <trkpt lat="46.00252" lon="6.56822">
        <ele>2084</ele>
        <time>2016-01-19T10:05:38.630Z</time>
      </trkpt>
      <trkpt lat="46.00255" lon="6.56823">
        <ele>2083.6099968</ele>
        <time>2016-01-19T10:05:40.630Z</time>
      </trkpt>
      <trkpt lat="46.00258" lon="6.56824">
        <ele>2083</ele>
        <time>2016-01-19T10:05:42.630Z</time>
      </trkpt>
      <trkpt lat="46.0026" lon="6.56825">
        <ele>2083</ele>
        <time>2016-01-19T10:05:44.630Z</time>
      </trkpt>
      <trkpt lat="46.00262" lon="6.56827">
        <ele>2083</ele>
        <time>2016-01-19T10:05:46.630Z</time>
      </trkpt>
      <trkpt lat="46.00265" lon="6.56828">
        <ele>2083</ele>
        <time>2016-01-19T10:05:48.630Z</time>
      </trkpt>
      <trkpt lat="46.00267" lon="6.5683">
        <ele>2082.6099968</ele>
        <time>2016-01-19T10:05:50.630Z</time>
      </trkpt>
      <trkpt lat="46.00269" lon="6.56831">
        <ele>2082</ele>
        <time>2016-01-19T10:05:52.630Z</time>
      </trkpt>
      <trkpt lat="46.00271" lon="6.56832">
        <ele>2082</ele>
        <time>2016-01-19T10:05:54.630Z</time>
      </trkpt>
      <trkpt lat="46.00273" lon="6.56833">
        <ele>2082</ele>
        <time>2016-01-19T10:05:56.630Z</time>
      </trkpt>
      <trkpt lat="46.00275" lon="6.56834">
        <ele>2082</ele>
        <time>2016-01-19T10:05:58.630Z</time>
      </trkpt>
      <trkpt lat="46.00277" lon="6.56835">
        <ele>2082.3900032</ele>
        <time>2016-01-19T10:06:00.630Z</time>
      </trkpt>
      <trkpt lat="46.00279" lon="6.56835">
        <ele>2083</ele>
        <time>2016-01-19T10:06:02.630Z</time>
      </trkpt>
      <trkpt lat="46.00281" lon="6.56836">
        <ele>2083</ele>
        <time>2016-01-19T10:06:04.630Z</time>
      </trkpt>
      <trkpt lat="46.00283" lon="6.56837">
        <ele>2083</ele>
        <time>2016-01-19T10:06:06.630Z</time>
      </trkpt>
      <trkpt lat="46.00285" lon="6.56837">
        <ele>2083</ele>
        <time>2016-01-19T10:06:08.630Z</time>
      </trkpt>
      <trkpt lat="46.00286" lon="6.56837">
        <ele>2084.9771511772</ele>
        <time>2016-01-19T10:07:01.630Z</time>
      </trkpt>
      <trkpt lat="46.00285" lon="6.56833">
        <ele>2084</ele>
        <time>2016-01-19T10:08:37.630Z</time>
      </trkpt>
      <trkpt lat="46.00284" lon="6.56831">
        <ele>2079</ele>
        <time>2016-01-19T10:15:42.630Z</time>
      </trkpt>
      <trkpt lat="46.00287" lon="6.56832">
        <ele>2079</ele>
        <time>2016-01-19T10:15:44.630Z</time>
      </trkpt>
      <trkpt lat="46.00287" lon="6.56836">
        <ele>2079</ele>
        <time>2016-01-19T10:15:46.630Z</time>
      </trkpt>
      <trkpt lat="46.00288" lon="6.56839">
        <ele>2079</ele>
        <time>2016-01-19T10:15:49.630Z</time>
      </trkpt>
      <trkpt lat="46.00289" lon="6.56836">
        <ele>2077</ele>
        <time>2016-01-19T10:16:01.630Z</time>
      </trkpt>
      <trkpt lat="46.0029" lon="6.56835">
        <ele>2077</ele>
        <time>2016-01-19T10:16:02.630Z</time>
      </trkpt>
      <trkpt lat="46.00292" lon="6.56832">
        <ele>2077</ele>
        <time>2016-01-19T10:16:03.630Z</time>
      </trkpt>
      <trkpt lat="46.00295" lon="6.56829">
        <ele>2077</ele>
        <time>2016-01-19T10:16:04.630Z</time>
      </trkpt>
      <trkpt lat="46.00298" lon="6.56826">
        <ele>2075.4399872</ele>
        <time>2016-01-19T10:16:05.630Z</time>
      </trkpt>
      <trkpt lat="46.00301" lon="6.56822">
        <ele>2073</ele>
        <time>2016-01-19T10:16:06.630Z</time>
      </trkpt>
      <trkpt lat="46.00305" lon="6.56818">
        <ele>2073</ele>
        <time>2016-01-19T10:16:07.630Z</time>
      </trkpt>
      <trkpt lat="46.00308" lon="6.56814">
        <ele>2073</ele>
        <time>2016-01-19T10:16:08.630Z</time>
      </trkpt>
      <trkpt lat="46.00312" lon="6.56812">
        <ele>2073</ele>
        <time>2016-01-19T10:16:09.630Z</time>
      </trkpt>
      <trkpt lat="46.00315" lon="6.56809">
        <ele>2071.1999763691</ele>
        <time>2016-01-19T10:16:10.630Z</time>
      </trkpt>
      <trkpt lat="46.00318" lon="6.56805">
        <ele>2066.7428320655</ele>
        <time>2016-01-19T10:16:11.630Z</time>
      </trkpt>
      <trkpt lat="46.00322" lon="6.56802">
        <ele>2065</ele>
        <time>2016-01-19T10:16:12.630Z</time>
      </trkpt>
      <trkpt lat="46.00325" lon="6.56799">
        <ele>2063.8299904</ele>
        <time>2016-01-19T10:16:13.630Z</time>
      </trkpt>
      <trkpt lat="46.00328" lon="6.56797">
        <ele>2061.6099968</ele>
        <time>2016-01-19T10:16:14.630Z</time>
      </trkpt>
      <trkpt lat="46.0033" lon="6.56793">
        <ele>2061</ele>
        <time>2016-01-19T10:16:15.630Z</time>
      </trkpt>
      <trkpt lat="46.00329" lon="6.56791">
        <ele>2061</ele>
        <time>2016-01-19T10:16:16.630Z</time>
      </trkpt>
      <trkpt lat="46.0033" lon="6.56787">
        <ele>2059</ele>
        <time>2016-01-19T10:16:27.630Z</time>
      </trkpt>
      <trkpt lat="46.00333" lon="6.56785">
        <ele>2058.2277139888</ele>
        <time>2016-01-19T10:16:28.630Z</time>
      </trkpt>
      <trkpt lat="46.00337" lon="6.56786">
        <ele>2056.766867697</ele>
        <time>2016-01-19T10:16:29.630Z</time>
      </trkpt>
      <trkpt lat="46.00342" lon="6.56786">
        <ele>2056.1533719688</ele>
        <time>2016-01-19T10:16:30.630Z</time>
      </trkpt>
      <trkpt lat="46.00348" lon="6.56786">
        <ele>2055</ele>
        <time>2016-01-19T10:16:31.630Z</time>
      </trkpt>
      <trkpt lat="46.00353" lon="6.56784">
        <ele>2053.8299904</ele>
        <time>2016-01-19T10:16:32.630Z</time>
      </trkpt>
      <trkpt lat="46.00357" lon="6.56782">
        <ele>2051.2199936</ele>
        <time>2016-01-19T10:16:33.630Z</time>
      </trkpt>
      <trkpt lat="46.00362" lon="6.56779">
        <ele>2048.8299904</ele>
        <time>2016-01-19T10:16:34.630Z</time>
      </trkpt>
      <trkpt lat="46.00365" lon="6.56777">
        <ele>2046.6099968</ele>
        <time>2016-01-19T10:16:35.630Z</time>
      </trkpt>
      <trkpt lat="46.00369" lon="6.56774">
        <ele>2045.2199936</ele>
        <time>2016-01-19T10:16:36.630Z</time>
      </trkpt>
      <trkpt lat="46.00371" lon="6.56768">
        <ele>2043.2199936</ele>
        <time>2016-01-19T10:16:37.630Z</time>
      </trkpt>
      <trkpt lat="46.00371" lon="6.5676">
        <ele>2041.6099968</ele>
        <time>2016-01-19T10:16:38.630Z</time>
      </trkpt>
      <trkpt lat="46.00373" lon="6.56754">
        <ele>2040.1068650825</ele>
        <time>2016-01-19T10:16:39.630Z</time>
      </trkpt>
      <trkpt lat="46.00376" lon="6.56749">
        <ele>2037.8840574333</ele>
        <time>2016-01-19T10:16:40.630Z</time>
      </trkpt>
      <trkpt lat="46.0038" lon="6.56743">
        <ele>2037</ele>
        <time>2016-01-19T10:16:41.630Z</time>
      </trkpt>
      <trkpt lat="46.00384" lon="6.5674">
        <ele>2035.4399872</ele>
        <time>2016-01-19T10:16:42.630Z</time>
      </trkpt>
      <trkpt lat="46.00389" lon="6.56738">
        <ele>2031.8299904</ele>
        <time>2016-01-19T10:16:43.630Z</time>
      </trkpt>
      <trkpt lat="46.00393" lon="6.56734">
        <ele>2029.2199936</ele>
        <time>2016-01-19T10:16:44.630Z</time>
      </trkpt>
      <trkpt lat="46.00397" lon="6.56728">
        <ele>2026.8299904</ele>
        <time>2016-01-19T10:16:45.630Z</time>
      </trkpt>
      <trkpt lat="46.00401" lon="6.56724">
        <ele>2023.8299904</ele>
        <time>2016-01-19T10:16:46.630Z</time>
      </trkpt>
      <trkpt lat="46.00405" lon="6.5672">
        <ele>2021.6099968</ele>
        <time>2016-01-19T10:16:47.630Z</time>
      </trkpt>
      <trkpt lat="46.00408" lon="6.56715">
        <ele>2020.1068650825</ele>
        <time>2016-01-19T10:16:48.630Z</time>
      </trkpt>
      <trkpt lat="46.00412" lon="6.5671">
        <ele>2017.7681148666</ele>
        <time>2016-01-19T10:16:49.630Z</time>
      </trkpt>
      <trkpt lat="46.00416" lon="6.56704">
        <ele>2016</ele>
        <time>2016-01-19T10:16:50.630Z</time>
      </trkpt>
      <trkpt lat="46.00419" lon="6.56698">
        <ele>2015.6142480983</ele>
        <time>2016-01-19T10:16:51.630Z</time>
      </trkpt>
      <trkpt lat="46.00426" lon="6.56689">
        <ele>2010.6599808</ele>
        <time>2016-01-19T10:16:53.630Z</time>
      </trkpt>
      <trkpt lat="46.00434" lon="6.56679">
        <ele>2001.8299904</ele>
        <time>2016-01-19T10:16:55.630Z</time>
      </trkpt>
      <trkpt lat="46.00446" lon="6.56678">
        <ele>1998.6099968</ele>
        <time>2016-01-19T10:16:57.630Z</time>
      </trkpt>
      <trkpt lat="46.00453" lon="6.56676">
        <ele>1997.399992123</ele>
        <time>2016-01-19T10:16:58.630Z</time>
      </trkpt>
      <trkpt lat="46.00459" lon="6.56677">
        <ele>1995.8714160328</ele>
        <time>2016-01-19T10:16:59.630Z</time>
      </trkpt>
      <trkpt lat="46.00464" lon="6.5668">
        <ele>1995</ele>
        <time>2016-01-19T10:17:00.630Z</time>
      </trkpt>
      <trkpt lat="46.00469" lon="6.56681">
        <ele>1994.2199936</ele>
        <time>2016-01-19T10:17:01.630Z</time>
      </trkpt>
      <trkpt lat="46.00473" lon="6.56683">
        <ele>1992.2199936</ele>
        <time>2016-01-19T10:17:02.630Z</time>
      </trkpt>
      <trkpt lat="46.00478" lon="6.56684">
        <ele>1990.6099968</ele>
        <time>2016-01-19T10:17:03.630Z</time>
      </trkpt>
      <trkpt lat="46.00483" lon="6.56685">
        <ele>1989.2199936</ele>
        <time>2016-01-19T10:17:04.630Z</time>
      </trkpt>
      <trkpt lat="46.00488" lon="6.56686">
        <ele>1987.2199936</ele>
        <time>2016-01-19T10:17:05.630Z</time>
      </trkpt>
      <trkpt lat="46.00494" lon="6.56688">
        <ele>1985.6099968</ele>
        <time>2016-01-19T10:17:06.630Z</time>
      </trkpt>
      <trkpt lat="46.005" lon="6.56689">
        <ele>1984.5243863415</ele>
        <time>2016-01-19T10:17:07.630Z</time>
      </trkpt>
      <trkpt lat="46.00506" lon="6.56691">
        <ele>1983.3048741463</ele>
        <time>2016-01-19T10:17:08.630Z</time>
      </trkpt>
      <trkpt lat="46.00512" lon="6.56693">
        <ele>1982</ele>
        <time>2016-01-19T10:17:09.630Z</time>
      </trkpt>
      <trkpt lat="46.00517" lon="6.56695">
        <ele>1981.2199936</ele>
        <time>2016-01-19T10:17:10.630Z</time>
      </trkpt>
      <trkpt lat="46.00523" lon="6.56697">
        <ele>1979.6099968</ele>
        <time>2016-01-19T10:17:11.630Z</time>
      </trkpt>
      <trkpt lat="46.00529" lon="6.567">
        <ele>1978.6099968</ele>
        <time>2016-01-19T10:17:12.630Z</time>
      </trkpt>
      <trkpt lat="46.00533" lon="6.56703">
        <ele>1978.3900032</ele>
        <time>2016-01-19T10:17:13.630Z</time>
      </trkpt>
      <trkpt lat="46.00537" lon="6.56706">
        <ele>1979</ele>
        <time>2016-01-19T10:17:14.630Z</time>
      </trkpt>
      <trkpt lat="46.0054" lon="6.5671">
        <ele>1979</ele>
        <time>2016-01-19T10:17:15.630Z</time>
      </trkpt>
      <trkpt lat="46.00541" lon="6.56713">
        <ele>1979</ele>
        <time>2016-01-19T10:17:16.630Z</time>
      </trkpt>
      <trkpt lat="46.00542" lon="6.56716">
        <ele>1979.7800064</ele>
        <time>2016-01-19T10:17:18.630Z</time>
      </trkpt>
      <trkpt lat="46.00542" lon="6.5672">
        <ele>1981</ele>
        <time>2016-01-19T10:17:20.630Z</time>
      </trkpt>
      <trkpt lat="46.00541" lon="6.56723">
        <ele>1982</ele>
        <time>2016-01-19T10:17:23.630Z</time>
      </trkpt>
      <trkpt lat="46.00539" lon="6.56725">
        <ele>1982</ele>
        <time>2016-01-19T10:17:26.630Z</time>
      </trkpt>
      <trkpt lat="46.00537" lon="6.56725">
        <ele>1982</ele>
        <time>2016-01-19T10:17:30.630Z</time>
      </trkpt>
      <trkpt lat="46.00535" lon="6.56726">
        <ele>1982</ele>
        <time>2016-01-19T10:17:34.630Z</time>
      </trkpt>
      <trkpt lat="46.00533" lon="6.56728">
        <ele>1982</ele>
        <time>2016-01-19T10:17:38.630Z</time>
      </trkpt>
      <trkpt lat="46.00531" lon="6.56729">
        <ele>1983</ele>
        <time>2016-01-19T10:17:42.630Z</time>
      </trkpt>
      <trkpt lat="46.0053" lon="6.56731">
        <ele>1983</ele>
        <time>2016-01-19T10:17:46.630Z</time>
      </trkpt>
      <trkpt lat="46.00529" lon="6.56734">
        <ele>1983.7800064</ele>
        <time>2016-01-19T10:17:51.630Z</time>
      </trkpt>
      <trkpt lat="46.00528" lon="6.56736">
        <ele>1985</ele>
        <time>2016-01-19T10:17:54.630Z</time>
      </trkpt>
      <trkpt lat="46.00527" lon="6.56739">
        <ele>1985</ele>
        <time>2016-01-19T10:17:57.630Z</time>
      </trkpt>
      <trkpt lat="46.00527" lon="6.56742">
        <ele>1983</ele>
        <time>2016-01-19T10:18:01.630Z</time>
      </trkpt>
      <trkpt lat="46.00526" lon="6.56744">
        <ele>1983</ele>
        <time>2016-01-19T10:18:11.630Z</time>
      </trkpt>
      <trkpt lat="46.00527" lon="6.56748">
        <ele>1982</ele>
        <time>2016-01-19T10:18:21.630Z</time>
      </trkpt>
      <trkpt lat="46.00527" lon="6.56752">
        <ele>1982</ele>
        <time>2016-01-19T10:18:24.630Z</time>
      </trkpt>
      <trkpt lat="46.00528" lon="6.56756">
        <ele>1982</ele>
        <time>2016-01-19T10:18:26.630Z</time>
      </trkpt>
      <trkpt lat="46.00529" lon="6.5676">
        <ele>1982</ele>
        <time>2016-01-19T10:18:28.630Z</time>
      </trkpt>
      <trkpt lat="46.0053" lon="6.56763">
        <ele>1982</ele>
        <time>2016-01-19T10:18:30.630Z</time>
      </trkpt>
      <trkpt lat="46.0053" lon="6.56766">
        <ele>1982</ele>
        <time>2016-01-19T10:18:32.630Z</time>
      </trkpt>
      <trkpt lat="46.0053" lon="6.56769">
        <ele>1982</ele>
        <time>2016-01-19T10:18:35.630Z</time>
      </trkpt>
      <trkpt lat="46.0053" lon="6.56772">
        <ele>1982</ele>
        <time>2016-01-19T10:18:38.630Z</time>
      </trkpt>
      <trkpt lat="46.00529" lon="6.56774">
        <ele>1981</ele>
        <time>2016-01-19T10:18:41.630Z</time>
      </trkpt>
      <trkpt lat="46.00528" lon="6.56776">
        <ele>1981</ele>
        <time>2016-01-19T10:18:49.630Z</time>
      </trkpt>
      <trkpt lat="46.00526" lon="6.56777">
        <ele>1982</ele>
        <time>2016-01-19T10:18:54.630Z</time>
      </trkpt>
      <trkpt lat="46.00524" lon="6.56778">
        <ele>1981.6099968</ele>
        <time>2016-01-19T10:19:00.630Z</time>
      </trkpt>
      <trkpt lat="46.00522" lon="6.56779">
        <ele>1981</ele>
        <time>2016-01-19T10:19:06.630Z</time>
      </trkpt>
      <trkpt lat="46.0052" lon="6.5678">
        <ele>1982</ele>
        <time>2016-01-19T10:19:11.630Z</time>
      </trkpt>
      <trkpt lat="46.00518" lon="6.56781">
        <ele>1982</ele>
        <time>2016-01-19T10:19:16.630Z</time>
      </trkpt>
      <trkpt lat="46.00516" lon="6.56782">
        <ele>1983</ele>
        <time>2016-01-19T10:19:22.630Z</time>
      </trkpt>
      <trkpt lat="46.00514" lon="6.56782">
        <ele>1983</ele>
        <time>2016-01-19T10:19:29.630Z</time>
      </trkpt>
      <trkpt lat="46.00512" lon="6.56783">
        <ele>1983</ele>
        <time>2016-01-19T10:19:35.630Z</time>
      </trkpt>
      <trkpt lat="46.00511" lon="6.56784">
        <ele>1983.2571360652</ele>
        <time>2016-01-19T10:19:40.630Z</time>
      </trkpt>
      <trkpt lat="46.00509" lon="6.56784">
        <ele>1985</ele>
        <time>2016-01-19T10:19:46.630Z</time>
      </trkpt>
      <trkpt lat="46.00507" lon="6.56787">
        <ele>1985</ele>
        <time>2016-01-19T10:19:53.630Z</time>
      </trkpt>
      <trkpt lat="46.00506" lon="6.56789">
        <ele>1985</ele>
        <time>2016-01-19T10:19:57.630Z</time>
      </trkpt>
      <trkpt lat="46.00505" lon="6.56792">
        <ele>1986</ele>
        <time>2016-01-19T10:20:09.630Z</time>
      </trkpt>
      <trkpt lat="46.00505" lon="6.56795">
        <ele>1987</ele>
        <time>2016-01-19T10:20:14.630Z</time>
      </trkpt>
      <trkpt lat="46.00504" lon="6.56798">
        <ele>1987</ele>
        <time>2016-01-19T10:20:19.630Z</time>
      </trkpt>
      <trkpt lat="46.00504" lon="6.56801">
        <ele>1987</ele>
        <time>2016-01-19T10:20:25.630Z</time>
      </trkpt>
      <trkpt lat="46.00503" lon="6.56803">
        <ele>1987</ele>
        <time>2016-01-19T10:20:30.630Z</time>
      </trkpt>
      <trkpt lat="46.00502" lon="6.56805">
        <ele>1988</ele>
        <time>2016-01-19T10:20:36.630Z</time>
      </trkpt>
      <trkpt lat="46.00501" lon="6.56808">
        <ele>1988.3900032</ele>
        <time>2016-01-19T10:20:41.630Z</time>
      </trkpt>
      <trkpt lat="46.00499" lon="6.5681">
        <ele>1989</ele>
        <time>2016-01-19T10:20:47.630Z</time>
      </trkpt>
      <trkpt lat="46.00498" lon="6.56813">
        <ele>1989</ele>
        <time>2016-01-19T10:20:58.630Z</time>
      </trkpt>
      <trkpt lat="46.00496" lon="6.56814">
        <ele>1988</ele>
        <time>2016-01-19T10:21:03.630Z</time>
      </trkpt>
      <trkpt lat="46.00494" lon="6.56815">
        <ele>1988</ele>
        <time>2016-01-19T10:21:07.630Z</time>
      </trkpt>
      <trkpt lat="46.00492" lon="6.56817">
        <ele>1988</ele>
        <time>2016-01-19T10:21:10.630Z</time>
      </trkpt>
      <trkpt lat="46.0049" lon="6.56819">
        <ele>1988</ele>
        <time>2016-01-19T10:21:13.630Z</time>
      </trkpt>
      <trkpt lat="46.00488" lon="6.56821">
        <ele>1988</ele>
        <time>2016-01-19T10:21:15.630Z</time>
      </trkpt>
      <trkpt lat="46.00486" lon="6.56825">
        <ele>1988</ele>
        <time>2016-01-19T10:21:17.630Z</time>
      </trkpt>
      <trkpt lat="46.00484" lon="6.56828">
        <ele>1988</ele>
        <time>2016-01-19T10:21:19.630Z</time>
      </trkpt>
      <trkpt lat="46.00484" lon="6.56831">
        <ele>1989</ele>
        <time>2016-01-19T10:21:22.630Z</time>
      </trkpt>
      <trkpt lat="46.00484" lon="6.56834">
        <ele>1988.6099968</ele>
        <time>2016-01-19T10:21:30.630Z</time>
      </trkpt>
      <trkpt lat="46.00484" lon="6.56837">
        <ele>1988</ele>
        <time>2016-01-19T10:21:33.630Z</time>
      </trkpt>
      <trkpt lat="46.00483" lon="6.5684">
        <ele>1988</ele>
        <time>2016-01-19T10:21:34.630Z</time>
      </trkpt>
      <trkpt lat="46.00483" lon="6.56844">
        <ele>1988</ele>
        <time>2016-01-19T10:21:36.630Z</time>
      </trkpt>
      <trkpt lat="46.00482" lon="6.56847">
        <ele>1987.6099968</ele>
        <time>2016-01-19T10:21:40.630Z</time>
      </trkpt>
      <trkpt lat="46.00481" lon="6.5685">
        <ele>1987</ele>
        <time>2016-01-19T10:21:43.630Z</time>
      </trkpt>
      <trkpt lat="46.00481" lon="6.56853">
        <ele>1987</ele>
        <time>2016-01-19T10:21:45.630Z</time>
      </trkpt>
      <trkpt lat="46.00479" lon="6.56857">
        <ele>1987</ele>
        <time>2016-01-19T10:21:47.630Z</time>
      </trkpt>
      <trkpt lat="46.00479" lon="6.56861">
        <ele>1987</ele>
        <time>2016-01-19T10:21:48.630Z</time>
      </trkpt>
      <trkpt lat="46.00478" lon="6.56864">
        <ele>1987</ele>
        <time>2016-01-19T10:21:49.630Z</time>
      </trkpt>
      <trkpt lat="46.0048" lon="6.56861">
        <ele>1982.6099968</ele>
        <time>2016-01-19T10:22:00.630Z</time>
      </trkpt>
      <trkpt lat="46.00483" lon="6.56858">
        <ele>1980</ele>
        <time>2016-01-19T10:22:07.630Z</time>
      </trkpt>
      <trkpt lat="46.00485" lon="6.56855">
        <ele>1980</ele>
        <time>2016-01-19T10:22:08.630Z</time>
      </trkpt>
      <trkpt lat="46.00486" lon="6.56853">
        <ele>1980</ele>
        <time>2016-01-19T10:22:09.630Z</time>
      </trkpt>
      <trkpt lat="46.00489" lon="6.56856">
        <ele>1978</ele>
        <time>2016-01-19T10:22:12.630Z</time>
      </trkpt>
      <trkpt lat="46.00491" lon="6.56862">
        <ele>1978</ele>
        <time>2016-01-19T10:22:13.630Z</time>
      </trkpt>
      <trkpt lat="46.00492" lon="6.56869">
        <ele>1978</ele>
        <time>2016-01-19T10:22:14.630Z</time>
      </trkpt>
      <trkpt lat="46.00493" lon="6.56875">
        <ele>1976.8299904</ele>
        <time>2016-01-19T10:22:15.630Z</time>
      </trkpt>
      <trkpt lat="46.00494" lon="6.56877">
        <ele>1975</ele>
        <time>2016-01-19T10:22:19.630Z</time>
      </trkpt>
      <trkpt lat="46.00496" lon="6.56877">
        <ele>1974</ele>
        <time>2016-01-19T10:22:23.630Z</time>
      </trkpt>
      <trkpt lat="46.00498" lon="6.56877">
        <ele>1974</ele>
        <time>2016-01-19T10:22:26.630Z</time>
      </trkpt>
      <trkpt lat="46.005" lon="6.56878">
        <ele>1974</ele>
        <time>2016-01-19T10:22:29.630Z</time>
      </trkpt>
      <trkpt lat="46.00502" lon="6.5688">
        <ele>1974</ele>
        <time>2016-01-19T10:22:33.630Z</time>
      </trkpt>
      <trkpt lat="46.00503" lon="6.56884">
        <ele>1975</ele>
        <time>2016-01-19T10:22:39.630Z</time>
      </trkpt>
      <trkpt lat="46.00503" lon="6.56888">
        <ele>1975</ele>
        <time>2016-01-19T10:22:40.630Z</time>
      </trkpt>
      <trkpt lat="46.00504" lon="6.5689">
        <ele>1975</ele>
        <time>2016-01-19T10:22:41.630Z</time>
      </trkpt>
      <trkpt lat="46.00505" lon="6.56893">
        <ele>1975</ele>
        <time>2016-01-19T10:22:43.630Z</time>
      </trkpt>
      <trkpt lat="46.00506" lon="6.56895">
        <ele>1975</ele>
        <time>2016-01-19T10:22:46.630Z</time>
      </trkpt>
      <trkpt lat="46.00508" lon="6.56897">
        <ele>1975</ele>
        <time>2016-01-19T10:22:48.630Z</time>
      </trkpt>
      <trkpt lat="46.00509" lon="6.56894">
        <ele>1971</ele>
        <time>2016-01-19T10:22:51.630Z</time>
      </trkpt>
      <trkpt lat="46.0051" lon="6.5689">
        <ele>1971</ele>
        <time>2016-01-19T10:22:53.630Z</time>
      </trkpt>
      <trkpt lat="46.0051" lon="6.56886">
        <ele>1970.2199936</ele>
        <time>2016-01-19T10:22:55.630Z</time>
      </trkpt>
      <trkpt lat="46.00513" lon="6.56884">
        <ele>1969</ele>
        <time>2016-01-19T10:22:58.630Z</time>
      </trkpt>
      <trkpt lat="46.00515" lon="6.56886">
        <ele>1969</ele>
        <time>2016-01-19T10:22:59.630Z</time>
      </trkpt>
      <trkpt lat="46.00517" lon="6.56888">
        <ele>1966.6599808</ele>
        <time>2016-01-19T10:23:00.630Z</time>
      </trkpt>
      <trkpt lat="46.00519" lon="6.56889">
        <ele>1963</ele>
        <time>2016-01-19T10:23:01.630Z</time>
      </trkpt>
      <trkpt lat="46.00521" lon="6.56887">
        <ele>1962.2199936</ele>
        <time>2016-01-19T10:23:02.630Z</time>
      </trkpt>
      <trkpt lat="46.00523" lon="6.56883">
        <ele>1957.6142959021</ele>
        <time>2016-01-19T10:23:04.630Z</time>
      </trkpt>
      <trkpt lat="46.00527" lon="6.56883">
        <ele>1955</ele>
        <time>2016-01-19T10:23:05.630Z</time>
      </trkpt>
      <trkpt lat="46.00532" lon="6.56886">
        <ele>1954.6099968</ele>
        <time>2016-01-19T10:23:06.630Z</time>
      </trkpt>
      <trkpt lat="46.00536" lon="6.56889">
        <ele>1953.6099968</ele>
        <time>2016-01-19T10:23:07.630Z</time>
      </trkpt>
      <trkpt lat="46.00539" lon="6.56891">
        <ele>1953</ele>
        <time>2016-01-19T10:23:08.630Z</time>
      </trkpt>
      <trkpt lat="46.00541" lon="6.56892">
        <ele>1954</ele>
        <time>2016-01-19T10:23:10.630Z</time>
      </trkpt>
      <trkpt lat="46.00543" lon="6.56893">
        <ele>1955</ele>
        <time>2016-01-19T10:23:15.630Z</time>
      </trkpt>
      <trkpt lat="46.00545" lon="6.56894">
        <ele>1956</ele>
        <time>2016-01-19T10:23:18.630Z</time>
      </trkpt>
      <trkpt lat="46.00548" lon="6.56894">
        <ele>1952</ele>
        <time>2016-01-19T10:23:21.630Z</time>
      </trkpt>
      <trkpt lat="46.00551" lon="6.56896">
        <ele>1952</ele>
        <time>2016-01-19T10:23:22.630Z</time>
      </trkpt>
      <trkpt lat="46.00554" lon="6.56899">
        <ele>1952</ele>
        <time>2016-01-19T10:23:23.630Z</time>
      </trkpt>
      <trkpt lat="46.00556" lon="6.56901">
        <ele>1952</ele>
        <time>2016-01-19T10:23:24.630Z</time>
      </trkpt>
      <trkpt lat="46.00558" lon="6.56903">
        <ele>1951</ele>
        <time>2016-01-19T10:23:27.630Z</time>
      </trkpt>
      <trkpt lat="46.0056" lon="6.56908">
        <ele>1951</ele>
        <time>2016-01-19T10:23:29.630Z</time>
      </trkpt>
      <trkpt lat="46.00562" lon="6.56913">
        <ele>1949.8299904</ele>
        <time>2016-01-19T10:23:30.630Z</time>
      </trkpt>
      <trkpt lat="46.00564" lon="6.56915">
        <ele>1948</ele>
        <time>2016-01-19T10:23:31.630Z</time>
      </trkpt>
      <trkpt lat="46.00567" lon="6.56918">
        <ele>1948</ele>
        <time>2016-01-19T10:23:33.630Z</time>
      </trkpt>
      <trkpt lat="46.00571" lon="6.56921">
        <ele>1946.8299904</ele>
        <time>2016-01-19T10:23:35.630Z</time>
      </trkpt>
      <trkpt lat="46.00574" lon="6.56922">
        <ele>1945</ele>
        <time>2016-01-19T10:23:36.630Z</time>
      </trkpt>
      <trkpt lat="46.00576" lon="6.56924">
        <ele>1945</ele>
        <time>2016-01-19T10:23:37.630Z</time>
      </trkpt>
      <trkpt lat="46.00578" lon="6.56927">
        <ele>1945</ele>
        <time>2016-01-19T10:23:38.630Z</time>
      </trkpt>
      <trkpt lat="46.00581" lon="6.56931">
        <ele>1945</ele>
        <time>2016-01-19T10:23:39.630Z</time>
      </trkpt>
      <trkpt lat="46.00586" lon="6.56934">
        <ele>1943.1122082468</ele>
        <time>2016-01-19T10:23:40.630Z</time>
      </trkpt>
      <trkpt lat="46.00591" lon="6.56937">
        <ele>1939.2199936</ele>
        <time>2016-01-19T10:23:41.630Z</time>
      </trkpt>
      <trkpt lat="46.00594" lon="6.56939">
        <ele>1937.6099968</ele>
        <time>2016-01-19T10:23:42.630Z</time>
      </trkpt>
      <trkpt lat="46.00597" lon="6.56941">
        <ele>1937.3900032</ele>
        <time>2016-01-19T10:23:43.630Z</time>
      </trkpt>
      <trkpt lat="46.00598" lon="6.56943">
        <ele>1938</ele>
        <time>2016-01-19T10:23:45.630Z</time>
      </trkpt>
      <trkpt lat="46.00601" lon="6.56941">
        <ele>1933.0999970462</ele>
        <time>2016-01-19T10:23:51.630Z</time>
      </trkpt>
      <trkpt lat="46.00605" lon="6.56938">
        <ele>1930.8714319674</ele>
        <time>2016-01-19T10:23:52.630Z</time>
      </trkpt>
      <trkpt lat="46.0061" lon="6.56935">
        <ele>1930</ele>
        <time>2016-01-19T10:23:53.630Z</time>
      </trkpt>
      <trkpt lat="46.00614" lon="6.56933">
        <ele>1929.2199936</ele>
        <time>2016-01-19T10:23:54.630Z</time>
      </trkpt>
      <trkpt lat="46.00615" lon="6.56935">
        <ele>1927.6099968</ele>
        <time>2016-01-19T10:23:55.630Z</time>
      </trkpt>
      <trkpt lat="46.00616" lon="6.56937">
        <ele>1927</ele>
        <time>2016-01-19T10:23:57.630Z</time>
      </trkpt>
      <trkpt lat="46.00618" lon="6.56943">
        <ele>1924.6099968</ele>
        <time>2016-01-19T10:23:59.630Z</time>
      </trkpt>
      <trkpt lat="46.0062" lon="6.56948">
        <ele>1924</ele>
        <time>2016-01-19T10:24:00.630Z</time>
      </trkpt>
      <trkpt lat="46.00621" lon="6.56953">
        <ele>1924</ele>
        <time>2016-01-19T10:24:01.630Z</time>
      </trkpt>
      <trkpt lat="46.00622" lon="6.56956">
        <ele>1924</ele>
        <time>2016-01-19T10:24:02.630Z</time>
      </trkpt>
      <trkpt lat="46.00622" lon="6.56959">
        <ele>1923.6999990154</ele>
        <time>2016-01-19T10:24:05.630Z</time>
      </trkpt>
      <trkpt lat="46.00625" lon="6.56958">
        <ele>1924</ele>
        <time>2016-01-19T10:24:13.630Z</time>
      </trkpt>
      <trkpt lat="46.00628" lon="6.56956">
        <ele>1924</ele>
        <time>2016-01-19T10:24:14.630Z</time>
      </trkpt>
      <trkpt lat="46.00631" lon="6.56954">
        <ele>1924</ele>
        <time>2016-01-19T10:24:15.630Z</time>
      </trkpt>
      <trkpt lat="46.00636" lon="6.56953">
        <ele>1924</ele>
        <time>2016-01-19T10:24:16.630Z</time>
      </trkpt>
      <trkpt lat="46.0064" lon="6.56952">
        <ele>1924</ele>
        <time>2016-01-19T10:24:17.630Z</time>
      </trkpt>
      <trkpt lat="46.00644" lon="6.56954">
        <ele>1924</ele>
        <time>2016-01-19T10:24:18.630Z</time>
      </trkpt>
      <trkpt lat="46.00648" lon="6.56959">
        <ele>1924</ele>
        <time>2016-01-19T10:24:19.630Z</time>
      </trkpt>
      <trkpt lat="46.00651" lon="6.56966">
        <ele>1918.9299584</ele>
        <time>2016-01-19T10:24:20.630Z</time>
      </trkpt>
      <trkpt lat="46.00652" lon="6.56972">
        <ele>1908.2699776</ele>
        <time>2016-01-19T10:24:21.630Z</time>
      </trkpt>
      <trkpt lat="46.00652" lon="6.56975">
        <ele>1904</ele>
        <time>2016-01-19T10:24:22.630Z</time>
      </trkpt>
      <trkpt lat="46.0065" lon="6.56975">
        <ele>1904</ele>
        <time>2016-01-19T10:24:26.630Z</time>
      </trkpt>
      <trkpt lat="46.00654" lon="6.56972">
        <ele>1895.6099968</ele>
        <time>2016-01-19T10:24:33.630Z</time>
      </trkpt>
      <trkpt lat="46.00658" lon="6.5697">
        <ele>1894.2199936</ele>
        <time>2016-01-19T10:24:34.630Z</time>
      </trkpt>
      <trkpt lat="46.00662" lon="6.56968">
        <ele>1891.8299904</ele>
        <time>2016-01-19T10:24:35.630Z</time>
      </trkpt>
      <trkpt lat="46.00667" lon="6.56965">
        <ele>1888.8299904</ele>
        <time>2016-01-19T10:24:36.630Z</time>
      </trkpt>
      <trkpt lat="46.00672" lon="6.56962">
        <ele>1886.3999980308</ele>
        <time>2016-01-19T10:24:37.630Z</time>
      </trkpt>
      <trkpt lat="46.00677" lon="6.56959">
        <ele>1884.6142959021</ele>
        <time>2016-01-19T10:24:38.630Z</time>
      </trkpt>
      <trkpt lat="46.00687" lon="6.56952">
        <ele>1880.049984</ele>
        <time>2016-01-19T10:24:40.630Z</time>
      </trkpt>
      <trkpt lat="46.00696" lon="6.56945">
        <ele>1871.4399872</ele>
        <time>2016-01-19T10:24:42.630Z</time>
      </trkpt>
      <trkpt lat="46.00705" lon="6.5694">
        <ele>1865.8714319674</ele>
        <time>2016-01-19T10:24:44.630Z</time>
      </trkpt>
      <trkpt lat="46.00714" lon="6.56937">
        <ele>1863.8299904</ele>
        <time>2016-01-19T10:24:46.630Z</time>
      </trkpt>
      <trkpt lat="46.00723" lon="6.56932">
        <ele>1858.7428639348</ele>
        <time>2016-01-19T10:24:48.630Z</time>
      </trkpt>
      <trkpt lat="46.00732" lon="6.56927">
        <ele>1855.049984</ele>
        <time>2016-01-19T10:24:50.630Z</time>
      </trkpt>
      <trkpt lat="46.00741" lon="6.56924">
        <ele>1847.0999881846</ele>
        <time>2016-01-19T10:24:52.630Z</time>
      </trkpt>
      <trkpt lat="46.00754" lon="6.56924">
        <ele>1842.8299904</ele>
        <time>2016-01-19T10:24:55.630Z</time>
      </trkpt>
      <trkpt lat="46.00761" lon="6.56932">
        <ele>1844</ele>
        <time>2016-01-19T10:25:01.630Z</time>
      </trkpt>
      <trkpt lat="46.00759" lon="6.56929">
        <ele>1844</ele>
        <time>2016-01-19T10:25:04.630Z</time>
      </trkpt>
      <trkpt lat="46.00765" lon="6.5692">
        <ele>1840</ele>
        <time>2016-01-19T10:25:13.630Z</time>
      </trkpt>
      <trkpt lat="46.00774" lon="6.56925">
        <ele>1837.6599808</ele>
        <time>2016-01-19T10:25:16.630Z</time>
      </trkpt>
      <trkpt lat="46.00781" lon="6.56928">
        <ele>1829.6999990154</ele>
        <time>2016-01-19T10:25:21.630Z</time>
      </trkpt>
      <trkpt lat="46.00785" lon="6.56927">
        <ele>1826.6099968</ele>
        <time>2016-01-19T10:25:23.630Z</time>
      </trkpt>
      <trkpt lat="46.00788" lon="6.56927">
        <ele>1826</ele>
        <time>2016-01-19T10:25:25.630Z</time>
      </trkpt>
      <trkpt lat="46.00789" lon="6.56926">
        <ele>1825</ele>
        <time>2016-01-19T10:25:37.630Z</time>
      </trkpt>
      <trkpt lat="46.00789" lon="6.56921">
        <ele>1825</ele>
        <time>2016-01-19T10:25:39.630Z</time>
      </trkpt>
      <trkpt lat="46.00787" lon="6.56917">
        <ele>1824.0999881846</ele>
        <time>2016-01-19T10:25:40.630Z</time>
      </trkpt>
      <trkpt lat="46.00785" lon="6.56915">
        <ele>1822</ele>
        <time>2016-01-19T10:25:41.630Z</time>
      </trkpt>
      <trkpt lat="46.00783" lon="6.56912">
        <ele>1821</ele>
        <time>2016-01-19T10:25:48.630Z</time>
      </trkpt>
      <trkpt lat="46.00783" lon="6.5691">
        <ele>1821</ele>
        <time>2016-01-19T10:25:49.630Z</time>
      </trkpt>
      <trkpt lat="46.00786" lon="6.56907">
        <ele>1819.4399872</ele>
        <time>2016-01-19T10:25:50.630Z</time>
      </trkpt>
      <trkpt lat="46.00789" lon="6.56905">
        <ele>1817</ele>
        <time>2016-01-19T10:25:51.630Z</time>
      </trkpt>
      <trkpt lat="46.00791" lon="6.56904">
        <ele>1817</ele>
        <time>2016-01-19T10:25:53.630Z</time>
      </trkpt>
      <trkpt lat="46.00793" lon="6.56903">
        <ele>1815</ele>
        <time>2016-01-19T10:25:59.630Z</time>
      </trkpt>
      <trkpt lat="46.00795" lon="6.56904">
        <ele>1812</ele>
        <time>2016-01-19T10:26:01.630Z</time>
      </trkpt>
      <trkpt lat="46.00797" lon="6.56904">
        <ele>1812</ele>
        <time>2016-01-19T10:26:02.630Z</time>
      </trkpt>
      <trkpt lat="46.008" lon="6.56904">
        <ele>1812</ele>
        <time>2016-01-19T10:26:03.630Z</time>
      </trkpt>
      <trkpt lat="46.00802" lon="6.56904">
        <ele>1812</ele>
        <time>2016-01-19T10:26:04.630Z</time>
      </trkpt>
      <trkpt lat="46.00806" lon="6.56903">
        <ele>1810</ele>
        <time>2016-01-19T10:26:06.630Z</time>
      </trkpt>
      <trkpt lat="46.0081" lon="6.56902">
        <ele>1810</ele>
        <time>2016-01-19T10:26:07.630Z</time>
      </trkpt>
      <trkpt lat="46.00813" lon="6.569">
        <ele>1810</ele>
        <time>2016-01-19T10:26:08.630Z</time>
      </trkpt>
      <trkpt lat="46.00816" lon="6.569">
        <ele>1810</ele>
        <time>2016-01-19T10:26:09.630Z</time>
      </trkpt>
      <trkpt lat="46.00814" lon="6.56894">
        <ele>1805.8299904</ele>
        <time>2016-01-19T10:26:21.630Z</time>
      </trkpt>
      <trkpt lat="46.00819" lon="6.56886">
        <ele>1802.049984</ele>
        <time>2016-01-19T10:26:25.630Z</time>
      </trkpt>
      <trkpt lat="46.00822" lon="6.56886">
        <ele>1799</ele>
        <time>2016-01-19T10:26:26.630Z</time>
      </trkpt>
      <trkpt lat="46.00824" lon="6.56885">
        <ele>1799</ele>
        <time>2016-01-19T10:26:27.630Z</time>
      </trkpt>
      <trkpt lat="46.00825" lon="6.56883">
        <ele>1794.2199936</ele>
        <time>2016-01-19T10:26:36.630Z</time>
      </trkpt>
      <trkpt lat="46.00827" lon="6.56878">
        <ele>1791.8714319674</ele>
        <time>2016-01-19T10:26:38.630Z</time>
      </trkpt>
      <trkpt lat="46.0083" lon="6.56876">
        <ele>1791</ele>
        <time>2016-01-19T10:26:39.630Z</time>
      </trkpt>
      <trkpt lat="46.0083" lon="6.56873">
        <ele>1786.7428639348</ele>
        <time>2016-01-19T10:26:42.630Z</time>
      </trkpt>
      <trkpt lat="46.00824" lon="6.56864">
        <ele>1783.8299904</ele>
        <time>2016-01-19T10:26:44.630Z</time>
      </trkpt>
      <trkpt lat="46.0082" lon="6.56848">
        <ele>1775</ele>
        <time>2016-01-19T10:26:47.630Z</time>
      </trkpt>
      <trkpt lat="46.00823" lon="6.56835">
        <ele>1768.6161563922</ele>
        <time>2016-01-19T10:26:52.630Z</time>
      </trkpt>
      <trkpt lat="46.00833" lon="6.5684">
        <ele>1768</ele>
        <time>2016-01-19T10:26:55.630Z</time>
      </trkpt>
      <trkpt lat="46.00835" lon="6.56842">
        <ele>1768</ele>
        <time>2016-01-19T10:26:59.630Z</time>
      </trkpt>
      <trkpt lat="46.00834" lon="6.56839">
        <ele>1763</ele>
        <time>2016-01-19T10:27:06.630Z</time>
      </trkpt>
      <trkpt lat="46.00835" lon="6.56837">
        <ele>1763</ele>
        <time>2016-01-19T10:27:07.630Z</time>
      </trkpt>
      <trkpt lat="46.00834" lon="6.56845">
        <ele>1760</ele>
        <time>2016-01-19T10:27:12.630Z</time>
      </trkpt>
      <trkpt lat="46.00833" lon="6.56848">
        <ele>1760</ele>
        <time>2016-01-19T10:27:14.630Z</time>
      </trkpt>
      <trkpt lat="46.00831" lon="6.56849">
        <ele>1758</ele>
        <time>2016-01-19T10:27:22.630Z</time>
      </trkpt>
      <trkpt lat="46.00829" lon="6.56848">
        <ele>1756</ele>
        <time>2016-01-19T10:27:28.630Z</time>
      </trkpt>
      <trkpt lat="46.00828" lon="6.56846">
        <ele>1756</ele>
        <time>2016-01-19T10:27:33.630Z</time>
      </trkpt>
      <trkpt lat="46.00826" lon="6.56844">
        <ele>1755</ele>
        <time>2016-01-19T10:27:38.630Z</time>
      </trkpt>
      <trkpt lat="46.00826" lon="6.56841">
        <ele>1755</ele>
        <time>2016-01-19T10:27:42.630Z</time>
      </trkpt>
      <trkpt lat="46.00824" lon="6.56838">
        <ele>1750</ele>
        <time>2016-01-19T10:27:46.630Z</time>
      </trkpt>
      <trkpt lat="46.00823" lon="6.56836">
        <ele>1750</ele>
        <time>2016-01-19T10:27:47.630Z</time>
      </trkpt>
      <trkpt lat="46.00823" lon="6.56832">
        <ele>1750</ele>
        <time>2016-01-19T10:27:49.630Z</time>
      </trkpt>
      <trkpt lat="46.00825" lon="6.56828">
        <ele>1748</ele>
        <time>2016-01-19T10:28:03.630Z</time>
      </trkpt>
      <trkpt lat="46.00828" lon="6.56825">
        <ele>1748</ele>
        <time>2016-01-19T10:28:04.630Z</time>
      </trkpt>
      <trkpt lat="46.00829" lon="6.56822">
        <ele>1748</ele>
        <time>2016-01-19T10:28:06.630Z</time>
      </trkpt>
      <trkpt lat="46.00828" lon="6.56824">
        <ele>1741</ele>
        <time>2016-01-19T10:28:29.630Z</time>
      </trkpt>
      <trkpt lat="46.00827" lon="6.56821">
        <ele>1741</ele>
        <time>2016-01-19T10:28:47.630Z</time>
      </trkpt>
      <trkpt lat="46.00825" lon="6.56819">
        <ele>1741</ele>
        <time>2016-01-19T10:28:49.630Z</time>
      </trkpt>
      <trkpt lat="46.00823" lon="6.56816">
        <ele>1739</ele>
        <time>2016-01-19T10:29:56.630Z</time>
      </trkpt>
      <trkpt lat="46.00823" lon="6.56812">
        <ele>1739</ele>
        <time>2016-01-19T10:29:58.630Z</time>
      </trkpt>
      <trkpt lat="46.00822" lon="6.56809">
        <ele>1739</ele>
        <time>2016-01-19T10:29:59.630Z</time>
      </trkpt>
      <trkpt lat="46.00822" lon="6.56805">
        <ele>1739</ele>
        <time>2016-01-19T10:30:00.630Z</time>
      </trkpt>
      <trkpt lat="46.00823" lon="6.56799">
        <ele>1732.3699456</ele>
        <time>2016-01-19T10:30:01.630Z</time>
      </trkpt>
      <trkpt lat="46.00825" lon="6.56794">
        <ele>1721.6099968</ele>
        <time>2016-01-19T10:30:02.630Z</time>
      </trkpt>
      <trkpt lat="46.00828" lon="6.56789">
        <ele>1719.4399872</ele>
        <time>2016-01-19T10:30:03.630Z</time>
      </trkpt>
      <trkpt lat="46.00833" lon="6.56784">
        <ele>1715.4554279776</ele>
        <time>2016-01-19T10:30:04.630Z</time>
      </trkpt>
      <trkpt lat="46.00837" lon="6.56778">
        <ele>1711.8484691767</ele>
        <time>2016-01-19T10:30:05.630Z</time>
      </trkpt>
      <trkpt lat="46.00841" lon="6.56772">
        <ele>1709.0999881846</ele>
        <time>2016-01-19T10:30:06.630Z</time>
      </trkpt>
      <trkpt lat="46.00844" lon="6.56767">
        <ele>1706.6142480983</ele>
        <time>2016-01-19T10:30:07.630Z</time>
      </trkpt>
      <trkpt lat="46.00847" lon="6.56761">
        <ele>1704</ele>
        <time>2016-01-19T10:30:08.630Z</time>
      </trkpt>
      <trkpt lat="46.0085" lon="6.56755">
        <ele>1702.4399872</ele>
        <time>2016-01-19T10:30:09.630Z</time>
      </trkpt>
      <trkpt lat="46.00852" lon="6.56749">
        <ele>1700</ele>
        <time>2016-01-19T10:30:10.630Z</time>
      </trkpt>
      <trkpt lat="46.00853" lon="6.56746">
        <ele>1699.2199936</ele>
        <time>2016-01-19T10:30:11.630Z</time>
      </trkpt>
      <trkpt lat="46.00858" lon="6.56732">
        <ele>1693.8299904</ele>
        <time>2016-01-19T10:30:16.630Z</time>
      </trkpt>
      <trkpt lat="46.00863" lon="6.56729">
        <ele>1690.4399872</ele>
        <time>2016-01-19T10:30:17.630Z</time>
      </trkpt>
      <trkpt lat="46.00869" lon="6.56725">
        <ele>1686.8299904</ele>
        <time>2016-01-19T10:30:18.630Z</time>
      </trkpt>
      <trkpt lat="46.00881" lon="6.56718">
        <ele>1680.399992123</ele>
        <time>2016-01-19T10:30:20.630Z</time>
      </trkpt>
      <trkpt lat="46.00887" lon="6.56714">
        <ele>1678.8714160328</ele>
        <time>2016-01-19T10:30:21.630Z</time>
      </trkpt>
      <trkpt lat="46.00889" lon="6.5671">
        <ele>1678</ele>
        <time>2016-01-19T10:30:22.630Z</time>
      </trkpt>
      <trkpt lat="46.00894" lon="6.56707">
        <ele>1676.4399872</ele>
        <time>2016-01-19T10:30:23.630Z</time>
      </trkpt>
      <trkpt lat="46.009" lon="6.56704">
        <ele>1672.049984</ele>
        <time>2016-01-19T10:30:24.630Z</time>
      </trkpt>
      <trkpt lat="46.00905" lon="6.56698">
        <ele>1668.0999970462</ele>
        <time>2016-01-19T10:30:25.630Z</time>
      </trkpt>
      <trkpt lat="46.00917" lon="6.56687">
        <ele>1660.049984</ele>
        <time>2016-01-19T10:30:27.630Z</time>
      </trkpt>
      <trkpt lat="46.0093" lon="6.56679">
        <ele>1655</ele>
        <time>2016-01-19T10:30:29.630Z</time>
      </trkpt>
      <trkpt lat="46.00941" lon="6.56672">
        <ele>1653.4399872</ele>
        <time>2016-01-19T10:30:31.630Z</time>
      </trkpt>
      <trkpt lat="46.00946" lon="6.56668">
        <ele>1649.049984</ele>
        <time>2016-01-19T10:30:32.630Z</time>
      </trkpt>
      <trkpt lat="46.0095" lon="6.56664">
        <ele>1646</ele>
        <time>2016-01-19T10:30:33.630Z</time>
      </trkpt>
      <trkpt lat="46.00958" lon="6.56654">
        <ele>1644.3900032</ele>
        <time>2016-01-19T10:30:36.630Z</time>
      </trkpt>
      <trkpt lat="46.00955" lon="6.5666">
        <ele>1645</ele>
        <time>2016-01-19T10:30:37.630Z</time>
      </trkpt>
      <trkpt lat="46.00953" lon="6.56658">
        <ele>1645</ele>
        <time>2016-01-19T10:30:38.630Z</time>
      </trkpt>
      <trkpt lat="46.00951" lon="6.56658">
        <ele>1645</ele>
        <time>2016-01-19T10:30:39.630Z</time>
      </trkpt>
      <trkpt lat="46.00945" lon="6.56663">
        <ele>1645</ele>
        <time>2016-01-19T10:30:43.630Z</time>
      </trkpt>
      <trkpt lat="46.0094" lon="6.56664">
        <ele>1644</ele>
        <time>2016-01-19T10:31:09.630Z</time>
      </trkpt>
      <trkpt lat="46.00939" lon="6.56663">
        <ele>1644</ele>
        <time>2016-01-19T10:31:12.630Z</time>
      </trkpt>
      <trkpt lat="46.0094" lon="6.56659">
        <ele>1644</ele>
        <time>2016-01-19T10:31:14.630Z</time>
      </trkpt>
      <trkpt lat="46.00941" lon="6.56657">
        <ele>1644</ele>
        <time>2016-01-19T10:31:15.630Z</time>
      </trkpt>
      <trkpt lat="46.00943" lon="6.56655">
        <ele>1644</ele>
        <time>2016-01-19T10:31:16.630Z</time>
      </trkpt>
      <trkpt lat="46.00944" lon="6.56651">
        <ele>1644</ele>
        <time>2016-01-19T10:31:17.630Z</time>
      </trkpt>
      <trkpt lat="46.00944" lon="6.56647">
        <ele>1644</ele>
        <time>2016-01-19T10:31:18.630Z</time>
      </trkpt>
      <trkpt lat="46.00943" lon="6.56643">
        <ele>1644</ele>
        <time>2016-01-19T10:31:19.630Z</time>
      </trkpt>
      <trkpt lat="46.00942" lon="6.5664">
        <ele>1642.049984</ele>
        <time>2016-01-19T10:31:20.630Z</time>
      </trkpt>
      <trkpt lat="46.00942" lon="6.56637">
        <ele>1639</ele>
        <time>2016-01-19T10:31:21.630Z</time>
      </trkpt>
      <trkpt lat="46.00941" lon="6.56633">
        <ele>1639</ele>
        <time>2016-01-19T10:31:23.630Z</time>
      </trkpt>
      <trkpt lat="46.00941" lon="6.5663">
        <ele>1637.8299904</ele>
        <time>2016-01-19T10:31:25.630Z</time>
      </trkpt>
      <trkpt lat="46.0094" lon="6.56626">
        <ele>1636</ele>
        <time>2016-01-19T10:31:27.630Z</time>
      </trkpt>
      <trkpt lat="46.00939" lon="6.56623">
        <ele>1636</ele>
        <time>2016-01-19T10:31:29.630Z</time>
      </trkpt>
      <trkpt lat="46.00939" lon="6.56618">
        <ele>1634</ele>
        <time>2016-01-19T10:31:31.630Z</time>
      </trkpt>
      <trkpt lat="46.0094" lon="6.56615">
        <ele>1634</ele>
        <time>2016-01-19T10:31:32.630Z</time>
      </trkpt>
      <trkpt lat="46.0094" lon="6.5661">
        <ele>1634</ele>
        <time>2016-01-19T10:31:33.630Z</time>
      </trkpt>
      <trkpt lat="46.0094" lon="6.56607">
        <ele>1634</ele>
        <time>2016-01-19T10:31:34.630Z</time>
      </trkpt>
      <trkpt lat="46.00939" lon="6.56604">
        <ele>1631</ele>
        <time>2016-01-19T10:31:36.630Z</time>
      </trkpt>
      <trkpt lat="46.00939" lon="6.56599">
        <ele>1631</ele>
        <time>2016-01-19T10:31:38.630Z</time>
      </trkpt>
      <trkpt lat="46.00938" lon="6.56595">
        <ele>1630.7941082353</ele>
        <time>2016-01-19T10:31:40.630Z</time>
      </trkpt>
      <trkpt lat="46.00938" lon="6.56591">
        <ele>1629</ele>
        <time>2016-01-19T10:31:42.630Z</time>
      </trkpt>
      <trkpt lat="46.00938" lon="6.56583">
        <ele>1627.6099968</ele>
        <time>2016-01-19T10:31:50.630Z</time>
      </trkpt>
      <trkpt lat="46.00937" lon="6.56579">
        <ele>1627</ele>
        <time>2016-01-19T10:31:52.630Z</time>
      </trkpt>
      <trkpt lat="46.00937" lon="6.56576">
        <ele>1627</ele>
        <time>2016-01-19T10:31:53.630Z</time>
      </trkpt>
      <trkpt lat="46.00937" lon="6.56573">
        <ele>1627</ele>
        <time>2016-01-19T10:31:55.630Z</time>
      </trkpt>
      <trkpt lat="46.0094" lon="6.56575">
        <ele>1625</ele>
        <time>2016-01-19T10:32:05.630Z</time>
      </trkpt>
      <trkpt lat="46.00943" lon="6.56578">
        <ele>1625</ele>
        <time>2016-01-19T10:32:07.630Z</time>
      </trkpt>
      <trkpt lat="46.00945" lon="6.5658">
        <ele>1625</ele>
        <time>2016-01-19T10:32:08.630Z</time>
      </trkpt>
      <trkpt lat="46.00947" lon="6.56578">
        <ele>1618</ele>
        <time>2016-01-19T10:32:33.630Z</time>
      </trkpt>
      <trkpt lat="46.0095" lon="6.56578">
        <ele>1618</ele>
        <time>2016-01-19T10:32:35.630Z</time>
      </trkpt>
      <trkpt lat="46.00952" lon="6.56579">
        <ele>1618</ele>
        <time>2016-01-19T10:32:37.630Z</time>
      </trkpt>
      <trkpt lat="46.00955" lon="6.56578">
        <ele>1618</ele>
        <time>2016-01-19T10:32:39.630Z</time>
      </trkpt>
      <trkpt lat="46.00958" lon="6.56576">
        <ele>1618</ele>
        <time>2016-01-19T10:32:40.630Z</time>
      </trkpt>
      <trkpt lat="46.00962" lon="6.56576">
        <ele>1614.2163687946</ele>
        <time>2016-01-19T10:32:41.630Z</time>
      </trkpt>
      <trkpt lat="46.00965" lon="6.56574">
        <ele>1604.4696002948</ele>
        <time>2016-01-19T10:32:42.630Z</time>
      </trkpt>
      <trkpt lat="46.00969" lon="6.56572">
        <ele>1598</ele>
        <time>2016-01-19T10:32:43.630Z</time>
      </trkpt>
      <trkpt lat="46.00972" lon="6.56571">
        <ele>1596.049984</ele>
        <time>2016-01-19T10:32:44.630Z</time>
      </trkpt>
      <trkpt lat="46.00975" lon="6.56568">
        <ele>1591.4399872</ele>
        <time>2016-01-19T10:32:45.630Z</time>
      </trkpt>
      <trkpt lat="46.00979" lon="6.56566">
        <ele>1587.8299904</ele>
        <time>2016-01-19T10:32:46.630Z</time>
      </trkpt>
      <trkpt lat="46.00983" lon="6.56563">
        <ele>1584.8299904</ele>
        <time>2016-01-19T10:32:47.630Z</time>
      </trkpt>
      <trkpt lat="46.00986" lon="6.56561">
        <ele>1582.2352926413</ele>
        <time>2016-01-19T10:32:48.630Z</time>
      </trkpt>
      <trkpt lat="46.00991" lon="6.5656">
        <ele>1579.8673493378</ele>
        <time>2016-01-19T10:32:49.630Z</time>
      </trkpt>
      <trkpt lat="46.00996" lon="6.56558">
        <ele>1577.2199936</ele>
        <time>2016-01-19T10:32:50.630Z</time>
      </trkpt>
      <trkpt lat="46.01002" lon="6.56555">
        <ele>1575.2199936</ele>
        <time>2016-01-19T10:32:51.630Z</time>
      </trkpt>
      <trkpt lat="46.01006" lon="6.56554">
        <ele>1572.8358169036</ele>
        <time>2016-01-19T10:32:52.630Z</time>
      </trkpt>
      <trkpt lat="46.01009" lon="6.56554">
        <ele>1569.7727396144</ele>
        <time>2016-01-19T10:32:53.630Z</time>
      </trkpt>
      <trkpt lat="46.01013" lon="6.56552">
        <ele>1565.049984</ele>
        <time>2016-01-19T10:32:54.630Z</time>
      </trkpt>
      <trkpt lat="46.01017" lon="6.56548">
        <ele>1560.8299904</ele>
        <time>2016-01-19T10:32:55.630Z</time>
      </trkpt>
      <trkpt lat="46.01025" lon="6.56536">
        <ele>1555.6911623529</ele>
        <time>2016-01-19T10:32:58.630Z</time>
      </trkpt>
      <trkpt lat="46.01031" lon="6.56524">
        <ele>1550.6599808</ele>
        <time>2016-01-19T10:33:00.630Z</time>
      </trkpt>
      <trkpt lat="46.01037" lon="6.56515">
        <ele>1545.8299904</ele>
        <time>2016-01-19T10:33:02.630Z</time>
      </trkpt>
      <trkpt lat="46.0104" lon="6.56512">
        <ele>1543.2199936</ele>
        <time>2016-01-19T10:33:03.630Z</time>
      </trkpt>
      <trkpt lat="46.01043" lon="6.56509">
        <ele>1540.4399872</ele>
        <time>2016-01-19T10:33:04.630Z</time>
      </trkpt>
      <trkpt lat="46.01052" lon="6.56501">
        <ele>1532.1396988235</ele>
        <time>2016-01-19T10:33:07.630Z</time>
      </trkpt>
      <trkpt lat="46.0106" lon="6.56489">
        <ele>1527.8299904</ele>
        <time>2016-01-19T10:33:10.630Z</time>
      </trkpt>
      <trkpt lat="46.01059" lon="6.56484">
        <ele>1523.6099968</ele>
        <time>2016-01-19T10:33:12.630Z</time>
      </trkpt>
      <trkpt lat="46.01055" lon="6.56488">
        <ele>1524</ele>
        <time>2016-01-19T10:33:15.630Z</time>
      </trkpt>
      <trkpt lat="46.01055" lon="6.56491">
        <ele>1524</ele>
        <time>2016-01-19T10:33:16.630Z</time>
      </trkpt>
      <trkpt lat="46.01059" lon="6.5649">
        <ele>1520.6099968</ele>
        <time>2016-01-19T10:33:21.630Z</time>
      </trkpt>
      <trkpt lat="46.01059" lon="6.56486">
        <ele>1520</ele>
        <time>2016-01-19T10:33:23.630Z</time>
      </trkpt>
      <trkpt lat="46.01062" lon="6.56486">
        <ele>1519.2199936</ele>
        <time>2016-01-19T10:33:26.630Z</time>
      </trkpt>
      <trkpt lat="46.01063" lon="6.56489">
        <ele>1518</ele>
        <time>2016-01-19T10:33:28.630Z</time>
      </trkpt>
      <trkpt lat="46.0106" lon="6.56492">
        <ele>1516</ele>
        <time>2016-01-19T10:33:53.630Z</time>
      </trkpt>
      <trkpt lat="46.01061" lon="6.5649">
        <ele>1516</ele>
        <time>2016-01-19T10:33:54.630Z</time>
      </trkpt>
      <trkpt lat="46.01061" lon="6.56482">
        <ele>1513</ele>
        <time>2016-01-19T10:34:08.630Z</time>
      </trkpt>
      <trkpt lat="46.01062" lon="6.56478">
        <ele>1511.4399872</ele>
        <time>2016-01-19T10:34:10.630Z</time>
      </trkpt>
      <trkpt lat="46.0106" lon="6.5648">
        <ele>1505.7067638057</ele>
        <time>2016-01-19T10:34:12.630Z</time>
      </trkpt>
      <trkpt lat="46.01062" lon="6.5648">
        <ele>1504</ele>
        <time>2016-01-19T10:34:15.630Z</time>
      </trkpt>
      <trkpt lat="46.01063" lon="6.56485">
        <ele>1503</ele>
        <time>2016-01-19T10:34:54.630Z</time>
      </trkpt>
      <trkpt lat="46.01059" lon="6.56485">
        <ele>1501</ele>
        <time>2016-01-19T10:36:10.630Z</time>
      </trkpt>
      <trkpt lat="46.01054" lon="6.56485">
        <ele>1503</ele>
        <time>2016-01-19T10:38:10.630Z</time>
      </trkpt>
      <trkpt lat="46.01052" lon="6.56484">
        <ele>1503</ele>
        <time>2016-01-19T10:38:36.630Z</time>
      </trkpt>
      <trkpt lat="46.01053" lon="6.56481">
        <ele>1503</ele>
        <time>2016-01-19T10:38:37.630Z</time>
      </trkpt>
      <trkpt lat="46.01063" lon="6.56472">
        <ele>1494</ele>
        <time>2016-01-19T10:38:41.630Z</time>
      </trkpt>
      <trkpt lat="46.01071" lon="6.56468">
        <ele>1484</ele>
        <time>2016-01-19T10:38:47.630Z</time>
      </trkpt>
      <trkpt lat="46.01069" lon="6.56469">
        <ele>1480</ele>
        <time>2016-01-19T10:39:25.630Z</time>
      </trkpt>
      <trkpt lat="46.01068" lon="6.56474">
        <ele>1481</ele>
        <time>2016-01-19T10:39:53.630Z</time>
      </trkpt>
      <trkpt lat="46.01069" lon="6.56469">
        <ele>1481</ele>
        <time>2016-01-19T10:40:07.630Z</time>
      </trkpt>
      <trkpt lat="46.01071" lon="6.56467">
        <ele>1481</ele>
        <time>2016-01-19T10:40:08.630Z</time>
      </trkpt>
      <trkpt lat="46.01075" lon="6.56467">
        <ele>1481</ele>
        <time>2016-01-19T10:40:09.630Z</time>
      </trkpt>
      <trkpt lat="46.01077" lon="6.56468">
        <ele>1479.8865942651</ele>
        <time>2016-01-19T10:40:10.630Z</time>
      </trkpt>
      <trkpt lat="46.01078" lon="6.56467">
        <ele>1477</ele>
        <time>2016-01-19T10:40:17.630Z</time>
      </trkpt>
      <trkpt lat="46.01081" lon="6.56468">
        <ele>1477</ele>
        <time>2016-01-19T10:40:18.630Z</time>
      </trkpt>
      <trkpt lat="46.01084" lon="6.56468">
        <ele>1477</ele>
        <time>2016-01-19T10:40:19.630Z</time>
      </trkpt>
      <trkpt lat="46.01087" lon="6.56467">
        <ele>1475.049984</ele>
        <time>2016-01-19T10:40:20.630Z</time>
      </trkpt>
      <trkpt lat="46.0109" lon="6.56463">
        <ele>1470.049984</ele>
        <time>2016-01-19T10:40:21.630Z</time>
      </trkpt>
      <trkpt lat="46.01093" lon="6.56461">
        <ele>1465.4399872</ele>
        <time>2016-01-19T10:40:22.630Z</time>
      </trkpt>
      <trkpt lat="46.01097" lon="6.5646">
        <ele>1461.8299904</ele>
        <time>2016-01-19T10:40:23.630Z</time>
      </trkpt>
      <trkpt lat="46.011" lon="6.56455">
        <ele>1459.6138569944</ele>
        <time>2016-01-19T10:40:24.630Z</time>
      </trkpt>
      <trkpt lat="46.01105" lon="6.5645">
        <ele>1458.1363490909</ele>
        <time>2016-01-19T10:40:25.630Z</time>
      </trkpt>
      <trkpt lat="46.01109" lon="6.56446">
        <ele>1455.8208772734</ele>
        <time>2016-01-19T10:40:26.630Z</time>
      </trkpt>
      <trkpt lat="46.01112" lon="6.56442">
        <ele>1452.049984</ele>
        <time>2016-01-19T10:40:27.630Z</time>
      </trkpt>
      <trkpt lat="46.01116" lon="6.56438">
        <ele>1447.8299904</ele>
        <time>2016-01-19T10:40:28.630Z</time>
      </trkpt>
      <trkpt lat="46.01123" lon="6.56425">
        <ele>1441.8299904</ele>
        <time>2016-01-19T10:40:31.630Z</time>
      </trkpt>
      <trkpt lat="46.01133" lon="6.56414">
        <ele>1434.6521722999</ele>
        <time>2016-01-19T10:40:34.630Z</time>
      </trkpt>
      <trkpt lat="46.01141" lon="6.56406">
        <ele>1427.049984</ele>
        <time>2016-01-19T10:40:37.630Z</time>
      </trkpt>
      <trkpt lat="46.01145" lon="6.56393">
        <ele>1421.7313159101</ele>
        <time>2016-01-19T10:40:39.630Z</time>
      </trkpt>
      <trkpt lat="46.0115" lon="6.5638">
        <ele>1415.6099968</ele>
        <time>2016-01-19T10:40:41.630Z</time>
      </trkpt>
      <trkpt lat="46.01156" lon="6.56368">
        <ele>1411.8299904</ele>
        <time>2016-01-19T10:40:43.630Z</time>
      </trkpt>
      <trkpt lat="46.01161" lon="6.56356">
        <ele>1406.6176415225</ele>
        <time>2016-01-19T10:40:45.630Z</time>
      </trkpt>
      <trkpt lat="46.01168" lon="6.56344">
        <ele>1398.8208772734</ele>
        <time>2016-01-19T10:40:48.630Z</time>
      </trkpt>
      <trkpt lat="46.01181" lon="6.56337">
        <ele>1396.2199936</ele>
        <time>2016-01-19T10:40:50.630Z</time>
      </trkpt>
      <trkpt lat="46.01188" lon="6.56329">
        <ele>1391.1136290909</ele>
        <time>2016-01-19T10:40:52.630Z</time>
      </trkpt>
      <trkpt lat="46.01184" lon="6.56321">
        <ele>1386</ele>
        <time>2016-01-19T10:41:11.630Z</time>
      </trkpt>
      <trkpt lat="46.01182" lon="6.56324">
        <ele>1386</ele>
        <time>2016-01-19T10:41:13.630Z</time>
      </trkpt>
      <trkpt lat="46.01181" lon="6.56327">
        <ele>1386</ele>
        <time>2016-01-19T10:41:15.630Z</time>
      </trkpt>
      <trkpt lat="46.01183" lon="6.56328">
        <ele>1384.8299904</ele>
        <time>2016-01-19T10:41:20.630Z</time>
      </trkpt>
      <trkpt lat="46.01185" lon="6.56327">
        <ele>1383</ele>
        <time>2016-01-19T10:41:21.630Z</time>
      </trkpt>
      <trkpt lat="46.01188" lon="6.56327">
        <ele>1383</ele>
        <time>2016-01-19T10:41:22.630Z</time>
      </trkpt>
      <trkpt lat="46.01192" lon="6.56326">
        <ele>1383</ele>
        <time>2016-01-19T10:41:23.630Z</time>
      </trkpt>
      <trkpt lat="46.01196" lon="6.56325">
        <ele>1383</ele>
        <time>2016-01-19T10:41:24.630Z</time>
      </trkpt>
      <trkpt lat="46.012" lon="6.56323">
        <ele>1382.5882164706</ele>
        <time>2016-01-19T10:41:25.630Z</time>
      </trkpt>
      <trkpt lat="46.01205" lon="6.56322">
        <ele>1379</ele>
        <time>2016-01-19T10:41:26.630Z</time>
      </trkpt>
      <trkpt lat="46.01209" lon="6.56323">
        <ele>1379</ele>
        <time>2016-01-19T10:41:27.630Z</time>
      </trkpt>
      <trkpt lat="46.01214" lon="6.56321">
        <ele>1379</ele>
        <time>2016-01-19T10:41:28.630Z</time>
      </trkpt>
      <trkpt lat="46.01218" lon="6.56321">
        <ele>1379</ele>
        <time>2016-01-19T10:41:29.630Z</time>
      </trkpt>
      <trkpt lat="46.01222" lon="6.5632">
        <ele>1377.2272581818</ele>
        <time>2016-01-19T10:41:30.630Z</time>
      </trkpt>
      <trkpt lat="46.01231" lon="6.56311">
        <ele>1368.2199936</ele>
        <time>2016-01-19T10:41:33.630Z</time>
      </trkpt>
      <trkpt lat="46.01242" lon="6.56303">
        <ele>1363.2199936</ele>
        <time>2016-01-19T10:41:37.630Z</time>
      </trkpt>
      <trkpt lat="46.01245" lon="6.56301">
        <ele>1362</ele>
        <time>2016-01-19T10:41:38.630Z</time>
      </trkpt>
      <trkpt lat="46.01248" lon="6.563">
        <ele>1362</ele>
        <time>2016-01-19T10:41:39.630Z</time>
      </trkpt>
      <trkpt lat="46.01247" lon="6.56297">
        <ele>1358.9242465382</ele>
        <time>2016-01-19T10:41:45.630Z</time>
      </trkpt>
      <trkpt lat="46.01249" lon="6.56291">
        <ele>1355.2199936</ele>
        <time>2016-01-19T10:41:47.630Z</time>
      </trkpt>
      <trkpt lat="46.01252" lon="6.56285">
        <ele>1353.6099968</ele>
        <time>2016-01-19T10:41:48.630Z</time>
      </trkpt>
      <trkpt lat="46.01255" lon="6.5628">
        <ele>1352.7045430303</ele>
        <time>2016-01-19T10:41:49.630Z</time>
      </trkpt>
      <trkpt lat="46.01265" lon="6.56276">
        <ele>1351</ele>
        <time>2016-01-19T10:41:51.630Z</time>
      </trkpt>
      <trkpt lat="46.0127" lon="6.56276">
        <ele>1350.2199936</ele>
        <time>2016-01-19T10:41:52.630Z</time>
      </trkpt>
      <trkpt lat="46.01282" lon="6.56277">
        <ele>1346.9253591625</ele>
        <time>2016-01-19T10:41:54.630Z</time>
      </trkpt>
      <trkpt lat="46.01291" lon="6.56282">
        <ele>1345.6099968</ele>
        <time>2016-01-19T10:41:56.630Z</time>
      </trkpt>
      <trkpt lat="46.01299" lon="6.56291">
        <ele>1345</ele>
        <time>2016-01-19T10:41:59.630Z</time>
      </trkpt>
      <trkpt lat="46.01299" lon="6.56299">
        <ele>1344.6099968</ele>
        <time>2016-01-19T10:42:03.630Z</time>
      </trkpt>
      <trkpt lat="46.01308" lon="6.56306">
        <ele>1343</ele>
        <time>2016-01-19T10:42:14.630Z</time>
      </trkpt>
      <trkpt lat="46.01318" lon="6.5631">
        <ele>1343</ele>
        <time>2016-01-19T10:42:22.630Z</time>
      </trkpt>
      <trkpt lat="46.01321" lon="6.56311">
        <ele>1343</ele>
        <time>2016-01-19T10:42:24.630Z</time>
      </trkpt>
      <trkpt lat="46.01324" lon="6.56312">
        <ele>1343</ele>
        <time>2016-01-19T10:42:26.630Z</time>
      </trkpt>
      <trkpt lat="46.01326" lon="6.56311">
        <ele>1343</ele>
        <time>2016-01-19T10:42:28.630Z</time>
      </trkpt>
      <trkpt lat="46.01327" lon="6.56309">
        <ele>1341</ele>
        <time>2016-01-19T10:42:31.630Z</time>
      </trkpt>
      <trkpt lat="46.01319" lon="6.56308">
        <ele>1341</ele>
        <time>2016-01-19T10:43:22.630Z</time>
      </trkpt>
      <trkpt lat="46.01316" lon="6.56308">
        <ele>1341</ele>
        <time>2016-01-19T10:43:25.630Z</time>
      </trkpt>
      <trkpt lat="46.01308" lon="6.56301">
        <ele>1341</ele>
        <time>2016-01-19T10:43:41.630Z</time>
      </trkpt>
      <trkpt lat="46.01299" lon="6.56293">
        <ele>1341</ele>
        <time>2016-01-19T10:44:14.630Z</time>
      </trkpt>
      <trkpt lat="46.01296" lon="6.56286">
        <ele>1341</ele>
        <time>2016-01-19T10:44:26.630Z</time>
      </trkpt>
      <trkpt lat="46.01294" lon="6.5628">
        <ele>1341</ele>
        <time>2016-01-19T10:44:35.630Z</time>
      </trkpt>
      <trkpt lat="46.01287" lon="6.56272">
        <ele>1340</ele>
        <time>2016-01-19T10:44:50.630Z</time>
      </trkpt>
      <trkpt lat="46.01282" lon="6.56272">
        <ele>1340</ele>
        <time>2016-01-19T10:44:59.630Z</time>
      </trkpt>
      <trkpt lat="46.01276" lon="6.56264">
        <ele>1340</ele>
        <time>2016-01-19T10:45:12.630Z</time>
      </trkpt>
      <trkpt lat="46.01266" lon="6.56257">
        <ele>1340</ele>
        <time>2016-01-19T10:45:30.630Z</time>
      </trkpt>
      <trkpt lat="46.01262" lon="6.56243">
        <ele>1340</ele>
        <time>2016-01-19T10:45:39.630Z</time>
      </trkpt>
      <trkpt lat="46.01261" lon="6.56236">
        <ele>1338</ele>
        <time>2016-01-19T10:45:47.630Z</time>
      </trkpt>
      <trkpt lat="46.01263" lon="6.56223">
        <ele>1337</ele>
        <time>2016-01-19T10:46:28.630Z</time>
      </trkpt>
      <trkpt lat="46.01265" lon="6.56224">
        <ele>1336</ele>
        <time>2016-01-19T10:47:42.630Z</time>
      </trkpt>
      <trkpt lat="46.01267" lon="6.56224">
        <ele>1336</ele>
        <time>2016-01-19T10:47:44.630Z</time>
      </trkpt>
      <trkpt lat="46.01269" lon="6.56223">
        <ele>1334</ele>
        <time>2016-01-19T10:47:46.630Z</time>
      </trkpt>
      <trkpt lat="46.01271" lon="6.56223">
        <ele>1334</ele>
        <time>2016-01-19T10:47:47.630Z</time>
      </trkpt>
      <trkpt lat="46.01273" lon="6.56221">
        <ele>1334</ele>
        <time>2016-01-19T10:47:48.630Z</time>
      </trkpt>
      <trkpt lat="46.01275" lon="6.5622">
        <ele>1333.7067638057</ele>
        <time>2016-01-19T10:47:50.630Z</time>
      </trkpt>
      <trkpt lat="46.01277" lon="6.56217">
        <ele>1333</ele>
        <time>2016-01-19T10:47:53.630Z</time>
      </trkpt>
      <trkpt lat="46.01278" lon="6.56217">
        <ele>1333.3900032</ele>
        <time>2016-01-19T10:47:55.630Z</time>
      </trkpt>
      <trkpt lat="46.01287" lon="6.56214">
        <ele>1333</ele>
        <time>2016-01-19T10:48:09.630Z</time>
      </trkpt>
      <trkpt lat="46.01296" lon="6.5621">
        <ele>1333</ele>
        <time>2016-01-19T10:48:16.630Z</time>
      </trkpt>
      <trkpt lat="46.013" lon="6.56197">
        <ele>1333</ele>
        <time>2016-01-19T10:48:26.630Z</time>
      </trkpt>
      <trkpt lat="46.01305" lon="6.56192">
        <ele>1333</ele>
        <time>2016-01-19T10:48:31.630Z</time>
      </trkpt>
      <trkpt lat="46.01307" lon="6.56191">
        <ele>1333</ele>
        <time>2016-01-19T10:48:33.630Z</time>
      </trkpt>
      <trkpt lat="46.01309" lon="6.56191">
        <ele>1332</ele>
        <time>2016-01-19T10:48:43.630Z</time>
      </trkpt>
      <trkpt lat="46.01311" lon="6.56191">
        <ele>1332</ele>
        <time>2016-01-19T10:48:45.630Z</time>
      </trkpt>
      <trkpt lat="46.01315" lon="6.56188">
        <ele>1332</ele>
        <time>2016-01-19T10:48:47.630Z</time>
      </trkpt>
      <trkpt lat="46.01317" lon="6.56186">
        <ele>1332</ele>
        <time>2016-01-19T10:48:49.630Z</time>
      </trkpt>
      <trkpt lat="46.01319" lon="6.56185">
        <ele>1326.2199936</ele>
        <time>2016-01-19T10:48:51.630Z</time>
      </trkpt>
      <trkpt lat="46.01321" lon="6.56184">
        <ele>1325</ele>
        <time>2016-01-19T10:48:52.630Z</time>
      </trkpt>
      <trkpt lat="46.01322" lon="6.56182">
        <ele>1325</ele>
        <time>2016-01-19T10:48:55.630Z</time>
      </trkpt>
      <trkpt lat="46.01324" lon="6.56185">
        <ele>1323</ele>
        <time>2016-01-19T10:48:58.630Z</time>
      </trkpt>
      <trkpt lat="46.01324" lon="6.56188">
        <ele>1323</ele>
        <time>2016-01-19T10:48:59.630Z</time>
      </trkpt>
      <trkpt lat="46.01325" lon="6.56191">
        <ele>1322</ele>
        <time>2016-01-19T10:49:01.630Z</time>
      </trkpt>
      <trkpt lat="46.01328" lon="6.56191">
        <ele>1322</ele>
        <time>2016-01-19T10:49:03.630Z</time>
      </trkpt>
      <trkpt lat="46.0133" lon="6.56191">
        <ele>1321.6099968</ele>
        <time>2016-01-19T10:49:05.630Z</time>
      </trkpt>
      <trkpt lat="46.01332" lon="6.56191">
        <ele>1321</ele>
        <time>2016-01-19T10:49:07.630Z</time>
      </trkpt>
      <trkpt lat="46.01334" lon="6.56189">
        <ele>1321</ele>
        <time>2016-01-19T10:49:09.630Z</time>
      </trkpt>
      <trkpt lat="46.01338" lon="6.56188">
        <ele>1318.6099968</ele>
        <time>2016-01-19T10:49:15.630Z</time>
      </trkpt>
      <trkpt lat="46.01341" lon="6.56188">
        <ele>1318</ele>
        <time>2016-01-19T10:49:17.630Z</time>
      </trkpt>
      <trkpt lat="46.01344" lon="6.56186">
        <ele>1318</ele>
        <time>2016-01-19T10:49:19.630Z</time>
      </trkpt>
      <trkpt lat="46.01347" lon="6.56184">
        <ele>1317.4852705882</ele>
        <time>2016-01-19T10:49:20.630Z</time>
      </trkpt>
      <trkpt lat="46.01348" lon="6.5618">
        <ele>1311.4399872</ele>
        <time>2016-01-19T10:49:21.630Z</time>
      </trkpt>
      <trkpt lat="46.0135" lon="6.56176">
        <ele>1308.6099968</ele>
        <time>2016-01-19T10:49:22.630Z</time>
      </trkpt>
      <trkpt lat="46.01352" lon="6.56171">
        <ele>1307.6099968</ele>
        <time>2016-01-19T10:49:23.630Z</time>
      </trkpt>
      <trkpt lat="46.01354" lon="6.56166">
        <ele>1306.6099968</ele>
        <time>2016-01-19T10:49:24.630Z</time>
      </trkpt>
      <trkpt lat="46.01355" lon="6.56162">
        <ele>1306</ele>
        <time>2016-01-19T10:49:25.630Z</time>
      </trkpt>
      <trkpt lat="46.01355" lon="6.56159">
        <ele>1306</ele>
        <time>2016-01-19T10:49:27.630Z</time>
      </trkpt>
      <trkpt lat="46.01358" lon="6.56155">
        <ele>1303.25772951</ele>
        <time>2016-01-19T10:49:33.630Z</time>
      </trkpt>
      <trkpt lat="46.01358" lon="6.56152">
        <ele>1302</ele>
        <time>2016-01-19T10:49:34.630Z</time>
      </trkpt>
      <trkpt lat="46.01358" lon="6.56148">
        <ele>1302</ele>
        <time>2016-01-19T10:49:35.630Z</time>
      </trkpt>
      <trkpt lat="46.01358" lon="6.56145">
        <ele>1301.6099968</ele>
        <time>2016-01-19T10:49:36.630Z</time>
      </trkpt>
      <trkpt lat="46.01356" lon="6.56141">
        <ele>1301</ele>
        <time>2016-01-19T10:49:38.630Z</time>
      </trkpt>
      <trkpt lat="46.01359" lon="6.56128">
        <ele>1300.81248</ele>
        <time>2016-01-19T10:49:45.630Z</time>
      </trkpt>
      <trkpt lat="46.01359" lon="6.56114">
        <ele>1297</ele>
        <time>2016-01-19T10:49:47.630Z</time>
      </trkpt>
      <trkpt lat="46.01356" lon="6.56098">
        <ele>1297</ele>
        <time>2016-01-19T10:49:49.630Z</time>
      </trkpt>
      <trkpt lat="46.01353" lon="6.56082">
        <ele>1286.4399872</ele>
        <time>2016-01-19T10:49:51.630Z</time>
      </trkpt>
      <trkpt lat="46.01349" lon="6.56064">
        <ele>1282.2352830449</ele>
        <time>2016-01-19T10:49:53.630Z</time>
      </trkpt>
      <trkpt lat="46.0134" lon="6.56051">
        <ele>1279.7067638057</ele>
        <time>2016-01-19T10:49:55.630Z</time>
      </trkpt>
      <trkpt lat="46.01331" lon="6.56039">
        <ele>1278.6099968</ele>
        <time>2016-01-19T10:49:58.630Z</time>
      </trkpt>
      <trkpt lat="46.01324" lon="6.5603">
        <ele>1275</ele>
        <time>2016-01-19T10:50:01.630Z</time>
      </trkpt>
      <trkpt lat="46.0133" lon="6.56018">
        <ele>1272</ele>
        <time>2016-01-19T10:50:06.630Z</time>
      </trkpt>
      <trkpt lat="46.01339" lon="6.56027">
        <ele>1273</ele>
        <time>2016-01-19T10:50:11.630Z</time>
      </trkpt>
      <trkpt lat="46.0135" lon="6.56029">
        <ele>1274</ele>
        <time>2016-01-19T10:50:15.630Z</time>
      </trkpt>
      <trkpt lat="46.01359" lon="6.56031">
        <ele>1274</ele>
        <time>2016-01-19T10:50:19.630Z</time>
      </trkpt>
      <trkpt lat="46.01368" lon="6.56037">
        <ele>1273</ele>
        <time>2016-01-19T10:50:23.630Z</time>
      </trkpt>
      <trkpt lat="46.01375" lon="6.56037">
        <ele>1274</ele>
        <time>2016-01-19T10:50:32.630Z</time>
      </trkpt>
      <trkpt lat="46.01382" lon="6.56032">
        <ele>1274</ele>
        <time>2016-01-19T10:50:39.630Z</time>
      </trkpt>
      <trkpt lat="46.01395" lon="6.56039">
        <ele>1276.2954569697</ele>
        <time>2016-01-19T10:51:00.630Z</time>
      </trkpt>
      <trkpt lat="46.01398" lon="6.56044">
        <ele>1277</ele>
        <time>2016-01-19T10:51:05.630Z</time>
      </trkpt>
      <trkpt lat="46.01404" lon="6.56054">
        <ele>1277</ele>
        <time>2016-01-19T10:51:20.630Z</time>
      </trkpt>
      <trkpt lat="46.01406" lon="6.56057">
        <ele>1277</ele>
        <time>2016-01-19T10:51:23.630Z</time>
      </trkpt>
      <trkpt lat="46.01411" lon="6.56069">
        <ele>1277</ele>
        <time>2016-01-19T10:51:35.630Z</time>
      </trkpt>
      <trkpt lat="46.01412" lon="6.56073">
        <ele>1277</ele>
        <time>2016-01-19T10:51:38.630Z</time>
      </trkpt>
      <trkpt lat="46.01419" lon="6.56082">
        <ele>1278</ele>
        <time>2016-01-19T10:51:51.630Z</time>
      </trkpt>
      <trkpt lat="46.0142" lon="6.56084">
        <ele>1278</ele>
        <time>2016-01-19T10:51:54.630Z</time>
      </trkpt>
      <trkpt lat="46.01423" lon="6.56086">
        <ele>1278</ele>
        <time>2016-01-19T10:51:58.630Z</time>
      </trkpt>
      <trkpt lat="46.01425" lon="6.56087">
        <ele>1278</ele>
        <time>2016-01-19T10:52:00.630Z</time>
      </trkpt>
      <trkpt lat="46.01427" lon="6.56088">
        <ele>1278</ele>
        <time>2016-01-19T10:52:02.630Z</time>
      </trkpt>
      <trkpt lat="46.01429" lon="6.56088">
        <ele>1278</ele>
        <time>2016-01-19T10:52:06.630Z</time>
      </trkpt>
      <trkpt lat="46.01438" lon="6.56085">
        <ele>1278</ele>
        <time>2016-01-19T10:52:16.630Z</time>
      </trkpt>
      <trkpt lat="46.01441" lon="6.56085">
        <ele>1278</ele>
        <time>2016-01-19T10:52:19.630Z</time>
      </trkpt>
      <trkpt lat="46.01448" lon="6.56093">
        <ele>1279</ele>
        <time>2016-01-19T10:52:38.630Z</time>
      </trkpt>
      <trkpt lat="46.01458" lon="6.56104">
        <ele>1279</ele>
        <time>2016-01-19T10:52:46.630Z</time>
      </trkpt>
      <trkpt lat="46.01471" lon="6.56097">
        <ele>1280</ele>
        <time>2016-01-19T10:53:12.630Z</time>
      </trkpt>
      <trkpt lat="46.01476" lon="6.56093">
        <ele>1280</ele>
        <time>2016-01-19T10:53:21.630Z</time>
      </trkpt>
      <trkpt lat="46.01486" lon="6.5609">
        <ele>1280</ele>
        <time>2016-01-19T10:53:28.630Z</time>
      </trkpt>
      <trkpt lat="46.01488" lon="6.5609">
        <ele>1281</ele>
        <time>2016-01-19T10:53:31.630Z</time>
      </trkpt>
      <trkpt lat="46.01491" lon="6.56089">
        <ele>1281</ele>
        <time>2016-01-19T10:53:37.630Z</time>
      </trkpt>
      <trkpt lat="46.015" lon="6.5609">
        <ele>1282</ele>
        <time>2016-01-19T10:53:50.630Z</time>
      </trkpt>
      <trkpt lat="46.01503" lon="6.56089">
        <ele>1282</ele>
        <time>2016-01-19T10:53:52.630Z</time>
      </trkpt>
      <trkpt lat="46.01511" lon="6.56091">
        <ele>1282</ele>
        <time>2016-01-19T10:54:00.630Z</time>
      </trkpt>
      <trkpt lat="46.0152" lon="6.56092">
        <ele>1282</ele>
        <time>2016-01-19T10:54:10.630Z</time>
      </trkpt>
      <trkpt lat="46.01522" lon="6.56095">
        <ele>1282</ele>
        <time>2016-01-19T10:54:15.630Z</time>
      </trkpt>
      <trkpt lat="46.0153" lon="6.56104">
        <ele>1282</ele>
        <time>2016-01-19T10:54:23.630Z</time>
      </trkpt>
      <trkpt lat="46.01535" lon="6.56108">
        <ele>1283</ele>
        <time>2016-01-19T10:54:38.630Z</time>
      </trkpt>
      <trkpt lat="46.01543" lon="6.56101">
        <ele>1283</ele>
        <time>2016-01-19T10:54:41.630Z</time>
      </trkpt>
      <trkpt lat="46.0155" lon="6.56105">
        <ele>1283</ele>
        <time>2016-01-19T10:54:46.630Z</time>
      </trkpt>
      <trkpt lat="46.01552" lon="6.56106">
        <ele>1283</ele>
        <time>2016-01-19T10:54:49.630Z</time>
      </trkpt>
      <trkpt lat="46.01554" lon="6.56105">
        <ele>1283</ele>
        <time>2016-01-19T10:54:51.630Z</time>
      </trkpt>
      <trkpt lat="46.01557" lon="6.56103">
        <ele>1283</ele>
        <time>2016-01-19T10:54:53.630Z</time>
      </trkpt>
      <trkpt lat="46.01559" lon="6.56103">
        <ele>1283</ele>
        <time>2016-01-19T10:54:55.630Z</time>
      </trkpt>
      <trkpt lat="46.01563" lon="6.56103">
        <ele>1283</ele>
        <time>2016-01-19T10:54:57.630Z</time>
      </trkpt>
      <trkpt lat="46.01568" lon="6.561">
        <ele>1282.6099968</ele>
        <time>2016-01-19T10:55:00.630Z</time>
      </trkpt>
      <trkpt lat="46.01571" lon="6.56099">
        <ele>1282</ele>
        <time>2016-01-19T10:55:01.630Z</time>
      </trkpt>
      <trkpt lat="46.01573" lon="6.56099">
        <ele>1282</ele>
        <time>2016-01-19T10:55:02.630Z</time>
      </trkpt>
      <trkpt lat="46.01576" lon="6.56099">
        <ele>1282</ele>
        <time>2016-01-19T10:55:03.630Z</time>
      </trkpt>
      <trkpt lat="46.01578" lon="6.561">
        <ele>1282</ele>
        <time>2016-01-19T10:55:04.630Z</time>
      </trkpt>
      <trkpt lat="46.0158" lon="6.561">
        <ele>1282</ele>
        <time>2016-01-19T10:55:05.630Z</time>
      </trkpt>
      <trkpt lat="46.01583" lon="6.561">
        <ele>1282</ele>
        <time>2016-01-19T10:55:06.630Z</time>
      </trkpt>
      <trkpt lat="46.01585" lon="6.56099">
        <ele>1282</ele>
        <time>2016-01-19T10:55:07.630Z</time>
      </trkpt>
      <trkpt lat="46.01587" lon="6.56099">
        <ele>1282</ele>
        <time>2016-01-19T10:55:08.630Z</time>
      </trkpt>
      <trkpt lat="46.01591" lon="6.56099">
        <ele>1282</ele>
        <time>2016-01-19T10:55:09.630Z</time>
      </trkpt>
      <trkpt lat="46.01594" lon="6.56099">
        <ele>1281.2199936</ele>
        <time>2016-01-19T10:55:10.630Z</time>
      </trkpt>
      <trkpt lat="46.01598" lon="6.56099">
        <ele>1280</ele>
        <time>2016-01-19T10:55:11.630Z</time>
      </trkpt>
      <trkpt lat="46.01601" lon="6.56099">
        <ele>1280</ele>
        <time>2016-01-19T10:55:12.630Z</time>
      </trkpt>
      <trkpt lat="46.01605" lon="6.56099">
        <ele>1280</ele>
        <time>2016-01-19T10:55:13.630Z</time>
      </trkpt>
      <trkpt lat="46.01609" lon="6.56099">
        <ele>1280</ele>
        <time>2016-01-19T10:55:14.630Z</time>
      </trkpt>
      <trkpt lat="46.01619" lon="6.56098">
        <ele>1278</ele>
        <time>2016-01-19T10:55:16.630Z</time>
      </trkpt>
      <trkpt lat="46.01625" lon="6.56098">
        <ele>1278</ele>
        <time>2016-01-19T10:55:17.630Z</time>
      </trkpt>
      <trkpt lat="46.01629" lon="6.56099">
        <ele>1278</ele>
        <time>2016-01-19T10:55:18.630Z</time>
      </trkpt>
      <trkpt lat="46.01632" lon="6.56099">
        <ele>1278</ele>
        <time>2016-01-19T10:55:19.630Z</time>
      </trkpt>
      <trkpt lat="46.01633" lon="6.56099">
        <ele>1277.6099968</ele>
        <time>2016-01-19T10:55:20.630Z</time>
      </trkpt>
      <trkpt lat="46.01636" lon="6.56099">
        <ele>1277</ele>
        <time>2016-01-19T10:55:22.630Z</time>
      </trkpt>
      <trkpt lat="46.01627" lon="6.56093">
        <ele>1275</ele>
        <time>2016-01-19T10:55:54.630Z</time>
      </trkpt>
      <trkpt lat="46.01632" lon="6.56084">
        <ele>1276</ele>
        <time>2016-01-19T10:56:57.630Z</time>
      </trkpt>
      <trkpt lat="46.01633" lon="6.56083">
        <ele>1278</ele>
        <time>2016-01-19T10:57:46.630Z</time>
      </trkpt>
    </trkseg>
  </trk>
</gpx>